<?xml version="1.0"?>
<gpx
 version="1.1"
 creator="Satmap Active 20"
 xmlns:xsi="http://www.w3.org/2001/XMLSchema-instance"
 xmlns="http://www.topografix.com/GPX/1/1"
 xmlns:satmap="http://www.satmap.com/updates/xmlschemas/GpxExtensions/v2/GpxExtensions_v2.xsd"
 xsi:schemaLocation="http://www.topografix.com/GPX/1/1 http://www.topografix.com/GPX/1/1/gpx.xsd">
<metadata>
<time>2022-11-25T10:07:32Z</time>
<extensions>
<satmap:platform>43</satmap:platform>
<satmap:software version="3.12.831">SM15.exe</satmap:software>
<satmap:username>Jim Grant</satmap:username>
<satmap:network_ids>
<satmap:network_id type="wifi">00-23-A7-EC-D5-78</satmap:network_id>
<satmap:network_id type="bluetooth">80-BB-EB-D7-5B-7C</satmap:network_id>
</satmap:network_ids>
<satmap:snap_type>simple</satmap:snap_type>
</extensions>
</metadata>
<trk>
<name>2022-11-25_1007</name>
<desc>Track 1</desc>
<number>1</number>
<trkseg>
<trkpt lat="53.225382" lon="-1.990302"><ele>454</ele><time>2022-11-25T10:07:32Z</time><name>PT1</name></trkpt>
<trkpt lat="53.225378" lon="-1.990298"><ele>454</ele><time>2022-11-25T10:07:43Z</time><name>PT2</name></trkpt>
<trkpt lat="53.225378" lon="-1.990296"><ele>454</ele><time>2022-11-25T10:07:46Z</time><name>PT3</name></trkpt>
<trkpt lat="53.225375" lon="-1.990302"><ele>454</ele><time>2022-11-25T10:07:50Z</time><name>PT4</name></trkpt>
<trkpt lat="53.225374" lon="-1.990307"><ele>454</ele><time>2022-11-25T10:07:53Z</time><name>PT5</name></trkpt>
<trkpt lat="53.225372" lon="-1.990302"><ele>453</ele><time>2022-11-25T10:07:56Z</time><name>PT6</name></trkpt>
<trkpt lat="53.225371" lon="-1.990303"><ele>453</ele><time>2022-11-25T10:07:59Z</time><name>PT7</name></trkpt>
<trkpt lat="53.225368" lon="-1.990305"><ele>453</ele><time>2022-11-25T10:08:07Z</time><name>PT8</name></trkpt>
<trkpt lat="53.225375" lon="-1.990286"><ele>453</ele><time>2022-11-25T10:08:14Z</time><name>PT9</name></trkpt>
<trkpt lat="53.225376" lon="-1.990279"><ele>452</ele><time>2022-11-25T10:08:17Z</time><name>PT10</name></trkpt>
<trkpt lat="53.225377" lon="-1.990273"><ele>452</ele><time>2022-11-25T10:08:20Z</time><name>PT11</name></trkpt>
<trkpt lat="53.225390" lon="-1.990255"><ele>453</ele><time>2022-11-25T10:09:07Z</time><name>PT12</name></trkpt>
<trkpt lat="53.225389" lon="-1.990255"><ele>453</ele><time>2022-11-25T10:10:20Z</time><name>PT13</name></trkpt>
<trkpt lat="53.225406" lon="-1.990280"><ele>452</ele><time>2022-11-25T10:10:25Z</time><name>PT14</name></trkpt>
<trkpt lat="53.225402" lon="-1.990264"><ele>452</ele><time>2022-11-25T10:10:28Z</time><name>PT15</name></trkpt>
<trkpt lat="53.225397" lon="-1.990258"><ele>452</ele><time>2022-11-25T10:10:31Z</time><name>PT16</name></trkpt>
<trkpt lat="53.225397" lon="-1.990258"><ele>452</ele><time>2022-11-25T10:10:34Z</time><name>PT17</name></trkpt>
<trkpt lat="53.225397" lon="-1.990259"><ele>452</ele><time>2022-11-25T10:10:38Z</time><name>PT18</name></trkpt>
<trkpt lat="53.225398" lon="-1.990255"><ele>451</ele><time>2022-11-25T10:10:41Z</time><name>PT19</name></trkpt>
<trkpt lat="53.225397" lon="-1.990258"><ele>452</ele><time>2022-11-25T10:10:44Z</time><name>PT20</name></trkpt>
<trkpt lat="53.225397" lon="-1.990253"><ele>452</ele><time>2022-11-25T10:10:47Z</time><name>PT21</name></trkpt>
<trkpt lat="53.225395" lon="-1.990242"><ele>453</ele><time>2022-11-25T10:11:05Z</time><name>PT22</name></trkpt>
<trkpt lat="53.225399" lon="-1.990256"><ele>453</ele><time>2022-11-25T10:11:08Z</time><name>PT23</name></trkpt>
<trkpt lat="53.225398" lon="-1.990259"><ele>453</ele><time>2022-11-25T10:11:13Z</time><name>PT24</name></trkpt>
<trkpt lat="53.225395" lon="-1.990258"><ele>453</ele><time>2022-11-25T10:11:17Z</time><name>PT25</name></trkpt>
<trkpt lat="53.225394" lon="-1.990259"><ele>453</ele><time>2022-11-25T10:11:20Z</time><name>PT26</name></trkpt>
<trkpt lat="53.225388" lon="-1.990257"><ele>452</ele><time>2022-11-25T10:11:23Z</time><name>PT27</name></trkpt>
<trkpt lat="53.225389" lon="-1.990255"><ele>452</ele><time>2022-11-25T10:11:28Z</time><name>PT28</name></trkpt>
<trkpt lat="53.225392" lon="-1.990260"><ele>452</ele><time>2022-11-25T10:11:50Z</time><name>PT29</name></trkpt>
<trkpt lat="53.225401" lon="-1.990248"><ele>453</ele><time>2022-11-25T10:13:08Z</time><name>PT30</name></trkpt>
<trkpt lat="53.225418" lon="-1.990222"><ele>452</ele><time>2022-11-25T10:13:11Z</time><name>PT31</name></trkpt>
<trkpt lat="53.225441" lon="-1.990182"><ele>452</ele><time>2022-11-25T10:13:16Z</time><name>PT32</name></trkpt>
<trkpt lat="53.225471" lon="-1.990140"><ele>452</ele><time>2022-11-25T10:13:20Z</time><name>PT33</name></trkpt>
<trkpt lat="53.225479" lon="-1.990116"><ele>452</ele><time>2022-11-25T10:13:23Z</time><name>PT34</name></trkpt>
<trkpt lat="53.225502" lon="-1.990084"><ele>452</ele><time>2022-11-25T10:13:26Z</time><name>PT35</name></trkpt>
<trkpt lat="53.225532" lon="-1.990040"><ele>452</ele><time>2022-11-25T10:13:30Z</time><name>PT36</name></trkpt>
<trkpt lat="53.225557" lon="-1.990010"><ele>452</ele><time>2022-11-25T10:13:34Z</time><name>PT37</name></trkpt>
<trkpt lat="53.225577" lon="-1.989977"><ele>452</ele><time>2022-11-25T10:13:37Z</time><name>PT38</name></trkpt>
<trkpt lat="53.225612" lon="-1.989935"><ele>453</ele><time>2022-11-25T10:13:41Z</time><name>PT39</name></trkpt>
<trkpt lat="53.225641" lon="-1.989907"><ele>453</ele><time>2022-11-25T10:13:44Z</time><name>PT40</name></trkpt>
<trkpt lat="53.225672" lon="-1.989867"><ele>454</ele><time>2022-11-25T10:13:47Z</time><name>PT41</name></trkpt>
<trkpt lat="53.225691" lon="-1.989833"><ele>455</ele><time>2022-11-25T10:13:50Z</time><name>PT42</name></trkpt>
<trkpt lat="53.225714" lon="-1.989803"><ele>456</ele><time>2022-11-25T10:13:53Z</time><name>PT43</name></trkpt>
<trkpt lat="53.225740" lon="-1.989765"><ele>456</ele><time>2022-11-25T10:13:58Z</time><name>PT44</name></trkpt>
<trkpt lat="53.225753" lon="-1.989730"><ele>456</ele><time>2022-11-25T10:14:01Z</time><name>PT45</name></trkpt>
<trkpt lat="53.225770" lon="-1.989703"><ele>456</ele><time>2022-11-25T10:14:04Z</time><name>PT46</name></trkpt>
<trkpt lat="53.225789" lon="-1.989666"><ele>456</ele><time>2022-11-25T10:14:08Z</time><name>PT47</name></trkpt>
<trkpt lat="53.225807" lon="-1.989630"><ele>456</ele><time>2022-11-25T10:14:11Z</time><name>PT48</name></trkpt>
<trkpt lat="53.225828" lon="-1.989595"><ele>456</ele><time>2022-11-25T10:14:14Z</time><name>PT49</name></trkpt>
<trkpt lat="53.225854" lon="-1.989544"><ele>455</ele><time>2022-11-25T10:14:19Z</time><name>PT50</name></trkpt>
<trkpt lat="53.225876" lon="-1.989509"><ele>455</ele><time>2022-11-25T10:14:22Z</time><name>PT51</name></trkpt>
<trkpt lat="53.225903" lon="-1.989452"><ele>454</ele><time>2022-11-25T10:14:26Z</time><name>PT52</name></trkpt>
<trkpt lat="53.225923" lon="-1.989419"><ele>454</ele><time>2022-11-25T10:14:29Z</time><name>PT53</name></trkpt>
<trkpt lat="53.225950" lon="-1.989373"><ele>454</ele><time>2022-11-25T10:14:32Z</time><name>PT54</name></trkpt>
<trkpt lat="53.225973" lon="-1.989326"><ele>454</ele><time>2022-11-25T10:14:37Z</time><name>PT55</name></trkpt>
<trkpt lat="53.225990" lon="-1.989288"><ele>454</ele><time>2022-11-25T10:14:40Z</time><name>PT56</name></trkpt>
<trkpt lat="53.226009" lon="-1.989260"><ele>454</ele><time>2022-11-25T10:14:44Z</time><name>PT57</name></trkpt>
<trkpt lat="53.226019" lon="-1.989247"><ele>454</ele><time>2022-11-25T10:14:47Z</time><name>PT58</name></trkpt>
<trkpt lat="53.226023" lon="-1.989241"><ele>455</ele><time>2022-11-25T10:14:50Z</time><name>PT59</name></trkpt>
<trkpt lat="53.226052" lon="-1.989182"><ele>454</ele><time>2022-11-25T10:14:58Z</time><name>PT60</name></trkpt>
<trkpt lat="53.226071" lon="-1.989137"><ele>454</ele><time>2022-11-25T10:15:01Z</time><name>PT61</name></trkpt>
<trkpt lat="53.226101" lon="-1.989065"><ele>452</ele><time>2022-11-25T10:15:05Z</time><name>PT62</name></trkpt>
<trkpt lat="53.226124" lon="-1.989026"><ele>452</ele><time>2022-11-25T10:15:08Z</time><name>PT63</name></trkpt>
<trkpt lat="53.226141" lon="-1.988962"><ele>452</ele><time>2022-11-25T10:15:11Z</time><name>PT64</name></trkpt>
<trkpt lat="53.226149" lon="-1.988936"><ele>454</ele><time>2022-11-25T10:15:16Z</time><name>PT65</name></trkpt>
<trkpt lat="53.226148" lon="-1.988918"><ele>455</ele><time>2022-11-25T10:15:23Z</time><name>PT66</name></trkpt>
<trkpt lat="53.226163" lon="-1.988887"><ele>455</ele><time>2022-11-25T10:15:26Z</time><name>PT67</name></trkpt>
<trkpt lat="53.226175" lon="-1.988878"><ele>456</ele><time>2022-11-25T10:15:29Z</time><name>PT68</name></trkpt>
<trkpt lat="53.226196" lon="-1.988841"><ele>456</ele><time>2022-11-25T10:15:34Z</time><name>PT69</name></trkpt>
<trkpt lat="53.226222" lon="-1.988807"><ele>455</ele><time>2022-11-25T10:15:37Z</time><name>PT70</name></trkpt>
<trkpt lat="53.226247" lon="-1.988776"><ele>456</ele><time>2022-11-25T10:15:41Z</time><name>PT71</name></trkpt>
<trkpt lat="53.226272" lon="-1.988765"><ele>457</ele><time>2022-11-25T10:15:44Z</time><name>PT72</name></trkpt>
<trkpt lat="53.226276" lon="-1.988764"><ele>457</ele><time>2022-11-25T10:15:49Z</time><name>PT73</name></trkpt>
<trkpt lat="53.226287" lon="-1.988700"><ele>457</ele><time>2022-11-25T10:15:53Z</time><name>PT74</name></trkpt>
<trkpt lat="53.226306" lon="-1.988615"><ele>456</ele><time>2022-11-25T10:15:56Z</time><name>PT75</name></trkpt>
<trkpt lat="53.226322" lon="-1.988562"><ele>456</ele><time>2022-11-25T10:15:59Z</time><name>PT76</name></trkpt>
<trkpt lat="53.226329" lon="-1.988503"><ele>455</ele><time>2022-11-25T10:16:04Z</time><name>PT77</name></trkpt>
<trkpt lat="53.226337" lon="-1.988475"><ele>456</ele><time>2022-11-25T10:16:07Z</time><name>PT78</name></trkpt>
<trkpt lat="53.226349" lon="-1.988439"><ele>456</ele><time>2022-11-25T10:16:10Z</time><name>PT79</name></trkpt>
<trkpt lat="53.226367" lon="-1.988388"><ele>455</ele><time>2022-11-25T10:16:14Z</time><name>PT80</name></trkpt>
<trkpt lat="53.226384" lon="-1.988345"><ele>453</ele><time>2022-11-25T10:16:17Z</time><name>PT81</name></trkpt>
<trkpt lat="53.226408" lon="-1.988292"><ele>453</ele><time>2022-11-25T10:16:20Z</time><name>PT82</name></trkpt>
<trkpt lat="53.226420" lon="-1.988230"><ele>453</ele><time>2022-11-25T10:16:23Z</time><name>PT83</name></trkpt>
<trkpt lat="53.226442" lon="-1.988148"><ele>455</ele><time>2022-11-25T10:16:28Z</time><name>PT84</name></trkpt>
<trkpt lat="53.226445" lon="-1.988076"><ele>455</ele><time>2022-11-25T10:16:32Z</time><name>PT85</name></trkpt>
<trkpt lat="53.226461" lon="-1.988017"><ele>455</ele><time>2022-11-25T10:16:35Z</time><name>PT86</name></trkpt>
<trkpt lat="53.226476" lon="-1.987941"><ele>455</ele><time>2022-11-25T10:16:38Z</time><name>PT87</name></trkpt>
<trkpt lat="53.226489" lon="-1.987870"><ele>454</ele><time>2022-11-25T10:16:43Z</time><name>PT88</name></trkpt>
<trkpt lat="53.226498" lon="-1.987782"><ele>455</ele><time>2022-11-25T10:16:47Z</time><name>PT89</name></trkpt>
<trkpt lat="53.226501" lon="-1.987718"><ele>454</ele><time>2022-11-25T10:16:50Z</time><name>PT90</name></trkpt>
<trkpt lat="53.226510" lon="-1.987635"><ele>453</ele><time>2022-11-25T10:16:53Z</time><name>PT91</name></trkpt>
<trkpt lat="53.226511" lon="-1.987565"><ele>453</ele><time>2022-11-25T10:16:58Z</time><name>PT92</name></trkpt>
<trkpt lat="53.226523" lon="-1.987504"><ele>453</ele><time>2022-11-25T10:17:01Z</time><name>PT93</name></trkpt>
<trkpt lat="53.226522" lon="-1.987425"><ele>453</ele><time>2022-11-25T10:17:05Z</time><name>PT94</name></trkpt>
<trkpt lat="53.226529" lon="-1.987349"><ele>454</ele><time>2022-11-25T10:17:08Z</time><name>PT95</name></trkpt>
<trkpt lat="53.226541" lon="-1.987255"><ele>456</ele><time>2022-11-25T10:17:11Z</time><name>PT96</name></trkpt>
<trkpt lat="53.226544" lon="-1.987198"><ele>454</ele><time>2022-11-25T10:17:14Z</time><name>PT97</name></trkpt>
<trkpt lat="53.226552" lon="-1.987142"><ele>454</ele><time>2022-11-25T10:17:17Z</time><name>PT98</name></trkpt>
<trkpt lat="53.226553" lon="-1.987056"><ele>452</ele><time>2022-11-25T10:17:22Z</time><name>PT99</name></trkpt>
<trkpt lat="53.226552" lon="-1.987046"><ele>451</ele><time>2022-11-25T10:17:26Z</time><name>PT100</name></trkpt>
<trkpt lat="53.226562" lon="-1.986995"><ele>452</ele><time>2022-11-25T10:17:38Z</time><name>PT101</name></trkpt>
<trkpt lat="53.226578" lon="-1.986912"><ele>453</ele><time>2022-11-25T10:17:41Z</time><name>PT102</name></trkpt>
<trkpt lat="53.226585" lon="-1.986843"><ele>452</ele><time>2022-11-25T10:17:46Z</time><name>PT103</name></trkpt>
<trkpt lat="53.226590" lon="-1.986820"><ele>453</ele><time>2022-11-25T10:17:50Z</time><name>PT104</name></trkpt>
<trkpt lat="53.226595" lon="-1.986789"><ele>453</ele><time>2022-11-25T10:17:53Z</time><name>PT105</name></trkpt>
<trkpt lat="53.226598" lon="-1.986773"><ele>454</ele><time>2022-11-25T10:17:58Z</time><name>PT106</name></trkpt>
<trkpt lat="53.226596" lon="-1.986772"><ele>454</ele><time>2022-11-25T10:18:01Z</time><name>PT107</name></trkpt>
<trkpt lat="53.226609" lon="-1.986754"><ele>454</ele><time>2022-11-25T10:18:04Z</time><name>PT108</name></trkpt>
<trkpt lat="53.226593" lon="-1.986760"><ele>455</ele><time>2022-11-25T10:18:08Z</time><name>PT109</name></trkpt>
<trkpt lat="53.226588" lon="-1.986780"><ele>455</ele><time>2022-11-25T10:18:11Z</time><name>PT110</name></trkpt>
<trkpt lat="53.226578" lon="-1.986791"><ele>455</ele><time>2022-11-25T10:18:14Z</time><name>PT111</name></trkpt>
<trkpt lat="53.226555" lon="-1.986790"><ele>454</ele><time>2022-11-25T10:18:19Z</time><name>PT112</name></trkpt>
<trkpt lat="53.226536" lon="-1.986791"><ele>454</ele><time>2022-11-25T10:18:22Z</time><name>PT113</name></trkpt>
<trkpt lat="53.226536" lon="-1.986796"><ele>454</ele><time>2022-11-25T10:18:26Z</time><name>PT114</name></trkpt>
<trkpt lat="53.226514" lon="-1.986822"><ele>454</ele><time>2022-11-25T10:18:35Z</time><name>PT115</name></trkpt>
<trkpt lat="53.226501" lon="-1.986866"><ele>454</ele><time>2022-11-25T10:18:40Z</time><name>PT116</name></trkpt>
<trkpt lat="53.226480" lon="-1.986886"><ele>453</ele><time>2022-11-25T10:18:43Z</time><name>PT117</name></trkpt>
<trkpt lat="53.226469" lon="-1.986904"><ele>453</ele><time>2022-11-25T10:18:46Z</time><name>PT118</name></trkpt>
<trkpt lat="53.226464" lon="-1.986913"><ele>453</ele><time>2022-11-25T10:18:50Z</time><name>PT119</name></trkpt>
<trkpt lat="53.226459" lon="-1.986924"><ele>453</ele><time>2022-11-25T10:18:53Z</time><name>PT120</name></trkpt>
<trkpt lat="53.226421" lon="-1.986986"><ele>453</ele><time>2022-11-25T10:19:20Z</time><name>PT121</name></trkpt>
<trkpt lat="53.226403" lon="-1.986997"><ele>453</ele><time>2022-11-25T10:19:23Z</time><name>PT122</name></trkpt>
<trkpt lat="53.226396" lon="-1.986992"><ele>452</ele><time>2022-11-25T10:19:44Z</time><name>PT123</name></trkpt>
<trkpt lat="53.226383" lon="-1.986925"><ele>450</ele><time>2022-11-25T10:19:47Z</time><name>PT124</name></trkpt>
<trkpt lat="53.226373" lon="-1.986910"><ele>449</ele><time>2022-11-25T10:19:52Z</time><name>PT125</name></trkpt>
<trkpt lat="53.226351" lon="-1.986924"><ele>448</ele><time>2022-11-25T10:20:02Z</time><name>PT126</name></trkpt>
<trkpt lat="53.226328" lon="-1.986939"><ele>447</ele><time>2022-11-25T10:20:05Z</time><name>PT127</name></trkpt>
<trkpt lat="53.226325" lon="-1.986958"><ele>447</ele><time>2022-11-25T10:20:10Z</time><name>PT128</name></trkpt>
<trkpt lat="53.226322" lon="-1.986965"><ele>446</ele><time>2022-11-25T10:20:14Z</time><name>PT129</name></trkpt>
<trkpt lat="53.226291" lon="-1.986983"><ele>447</ele><time>2022-11-25T10:20:22Z</time><name>PT130</name></trkpt>
<trkpt lat="53.226261" lon="-1.987016"><ele>445</ele><time>2022-11-25T10:20:29Z</time><name>PT131</name></trkpt>
<trkpt lat="53.226242" lon="-1.987040"><ele>444</ele><time>2022-11-25T10:20:32Z</time><name>PT132</name></trkpt>
<trkpt lat="53.226221" lon="-1.987088"><ele>443</ele><time>2022-11-25T10:20:35Z</time><name>PT133</name></trkpt>
<trkpt lat="53.226198" lon="-1.987125"><ele>441</ele><time>2022-11-25T10:20:38Z</time><name>PT134</name></trkpt>
<trkpt lat="53.226177" lon="-1.987168"><ele>440</ele><time>2022-11-25T10:20:43Z</time><name>PT135</name></trkpt>
<trkpt lat="53.226163" lon="-1.987202"><ele>438</ele><time>2022-11-25T10:20:46Z</time><name>PT136</name></trkpt>
<trkpt lat="53.226143" lon="-1.987225"><ele>437</ele><time>2022-11-25T10:20:50Z</time><name>PT137</name></trkpt>
<trkpt lat="53.226125" lon="-1.987233"><ele>437</ele><time>2022-11-25T10:20:53Z</time><name>PT138</name></trkpt>
<trkpt lat="53.226100" lon="-1.987239"><ele>434</ele><time>2022-11-25T10:20:56Z</time><name>PT139</name></trkpt>
<trkpt lat="53.226061" lon="-1.987267"><ele>436</ele><time>2022-11-25T10:21:01Z</time><name>PT140</name></trkpt>
<trkpt lat="53.226042" lon="-1.987281"><ele>437</ele><time>2022-11-25T10:21:04Z</time><name>PT141</name></trkpt>
<trkpt lat="53.226024" lon="-1.987280"><ele>435</ele><time>2022-11-25T10:21:07Z</time><name>PT142</name></trkpt>
<trkpt lat="53.226005" lon="-1.987284"><ele>435</ele><time>2022-11-25T10:21:10Z</time><name>PT143</name></trkpt>
<trkpt lat="53.225988" lon="-1.987283"><ele>434</ele><time>2022-11-25T10:21:13Z</time><name>PT144</name></trkpt>
<trkpt lat="53.225965" lon="-1.987275"><ele>433</ele><time>2022-11-25T10:21:17Z</time><name>PT145</name></trkpt>
<trkpt lat="53.225957" lon="-1.987270"><ele>432</ele><time>2022-11-25T10:21:20Z</time><name>PT146</name></trkpt>
<trkpt lat="53.225947" lon="-1.987276"><ele>432</ele><time>2022-11-25T10:21:26Z</time><name>PT147</name></trkpt>
<trkpt lat="53.225920" lon="-1.987285"><ele>431</ele><time>2022-11-25T10:21:31Z</time><name>PT148</name></trkpt>
<trkpt lat="53.225895" lon="-1.987292"><ele>430</ele><time>2022-11-25T10:21:34Z</time><name>PT149</name></trkpt>
<trkpt lat="53.225883" lon="-1.987303"><ele>430</ele><time>2022-11-25T10:21:38Z</time><name>PT150</name></trkpt>
<trkpt lat="53.225875" lon="-1.987303"><ele>430</ele><time>2022-11-25T10:21:41Z</time><name>PT151</name></trkpt>
<trkpt lat="53.225878" lon="-1.987305"><ele>430</ele><time>2022-11-25T10:21:46Z</time><name>PT152</name></trkpt>
<trkpt lat="53.225866" lon="-1.987343"><ele>430</ele><time>2022-11-25T10:21:50Z</time><name>PT153</name></trkpt>
<trkpt lat="53.225847" lon="-1.987350"><ele>429</ele><time>2022-11-25T10:21:53Z</time><name>PT154</name></trkpt>
<trkpt lat="53.225840" lon="-1.987355"><ele>429</ele><time>2022-11-25T10:21:58Z</time><name>PT155</name></trkpt>
<trkpt lat="53.225813" lon="-1.987383"><ele>428</ele><time>2022-11-25T10:22:01Z</time><name>PT156</name></trkpt>
<trkpt lat="53.225798" lon="-1.987401"><ele>428</ele><time>2022-11-25T10:22:05Z</time><name>PT157</name></trkpt>
<trkpt lat="53.225790" lon="-1.987423"><ele>427</ele><time>2022-11-25T10:22:08Z</time><name>PT158</name></trkpt>
<trkpt lat="53.225768" lon="-1.987471"><ele>427</ele><time>2022-11-25T10:22:11Z</time><name>PT159</name></trkpt>
<trkpt lat="53.225752" lon="-1.987507"><ele>426</ele><time>2022-11-25T10:22:16Z</time><name>PT160</name></trkpt>
<trkpt lat="53.225740" lon="-1.987535"><ele>427</ele><time>2022-11-25T10:22:19Z</time><name>PT161</name></trkpt>
<trkpt lat="53.225722" lon="-1.987575"><ele>426</ele><time>2022-11-25T10:22:23Z</time><name>PT162</name></trkpt>
<trkpt lat="53.225715" lon="-1.987593"><ele>426</ele><time>2022-11-25T10:22:26Z</time><name>PT163</name></trkpt>
<trkpt lat="53.225701" lon="-1.987634"><ele>426</ele><time>2022-11-25T10:22:32Z</time><name>PT164</name></trkpt>
<trkpt lat="53.225687" lon="-1.987678"><ele>426</ele><time>2022-11-25T10:22:37Z</time><name>PT165</name></trkpt>
<trkpt lat="53.225653" lon="-1.987713"><ele>425</ele><time>2022-11-25T10:22:41Z</time><name>PT166</name></trkpt>
<trkpt lat="53.225621" lon="-1.987739"><ele>426</ele><time>2022-11-25T10:22:45Z</time><name>PT167</name></trkpt>
<trkpt lat="53.225597" lon="-1.987759"><ele>426</ele><time>2022-11-25T10:22:48Z</time><name>PT168</name></trkpt>
<trkpt lat="53.225575" lon="-1.987784"><ele>426</ele><time>2022-11-25T10:22:51Z</time><name>PT169</name></trkpt>
<trkpt lat="53.225556" lon="-1.987811"><ele>427</ele><time>2022-11-25T10:22:54Z</time><name>PT170</name></trkpt>
<trkpt lat="53.225525" lon="-1.987838"><ele>426</ele><time>2022-11-25T10:22:58Z</time><name>PT171</name></trkpt>
<trkpt lat="53.225501" lon="-1.987857"><ele>426</ele><time>2022-11-25T10:23:01Z</time><name>PT172</name></trkpt>
<trkpt lat="53.225478" lon="-1.987882"><ele>426</ele><time>2022-11-25T10:23:04Z</time><name>PT173</name></trkpt>
<trkpt lat="53.225443" lon="-1.987908"><ele>425</ele><time>2022-11-25T10:23:08Z</time><name>PT174</name></trkpt>
<trkpt lat="53.225409" lon="-1.987935"><ele>425</ele><time>2022-11-25T10:23:11Z</time><name>PT175</name></trkpt>
<trkpt lat="53.225374" lon="-1.987962"><ele>425</ele><time>2022-11-25T10:23:16Z</time><name>PT176</name></trkpt>
<trkpt lat="53.225351" lon="-1.987987"><ele>425</ele><time>2022-11-25T10:23:19Z</time><name>PT177</name></trkpt>
<trkpt lat="53.225313" lon="-1.988018"><ele>424</ele><time>2022-11-25T10:23:23Z</time><name>PT178</name></trkpt>
<trkpt lat="53.225274" lon="-1.988044"><ele>425</ele><time>2022-11-25T10:23:26Z</time><name>PT179</name></trkpt>
<trkpt lat="53.225251" lon="-1.988070"><ele>424</ele><time>2022-11-25T10:23:29Z</time><name>PT180</name></trkpt>
<trkpt lat="53.225214" lon="-1.988104"><ele>423</ele><time>2022-11-25T10:23:34Z</time><name>PT181</name></trkpt>
<trkpt lat="53.225187" lon="-1.988124"><ele>423</ele><time>2022-11-25T10:23:37Z</time><name>PT182</name></trkpt>
<trkpt lat="53.225156" lon="-1.988148"><ele>423</ele><time>2022-11-25T10:23:40Z</time><name>PT183</name></trkpt>
<trkpt lat="53.225125" lon="-1.988173"><ele>423</ele><time>2022-11-25T10:23:43Z</time><name>PT184</name></trkpt>
<trkpt lat="53.225092" lon="-1.988196"><ele>423</ele><time>2022-11-25T10:23:46Z</time><name>PT185</name></trkpt>
<trkpt lat="53.225049" lon="-1.988227"><ele>422</ele><time>2022-11-25T10:23:50Z</time><name>PT186</name></trkpt>
<trkpt lat="53.225015" lon="-1.988248"><ele>421</ele><time>2022-11-25T10:23:53Z</time><name>PT187</name></trkpt>
<trkpt lat="53.224972" lon="-1.988265"><ele>421</ele><time>2022-11-25T10:23:56Z</time><name>PT188</name></trkpt>
<trkpt lat="53.224926" lon="-1.988292"><ele>420</ele><time>2022-11-25T10:24:01Z</time><name>PT189</name></trkpt>
<trkpt lat="53.224890" lon="-1.988303"><ele>419</ele><time>2022-11-25T10:24:04Z</time><name>PT190</name></trkpt>
<trkpt lat="53.224848" lon="-1.988327"><ele>418</ele><time>2022-11-25T10:24:08Z</time><name>PT191</name></trkpt>
<trkpt lat="53.224815" lon="-1.988342"><ele>418</ele><time>2022-11-25T10:24:11Z</time><name>PT192</name></trkpt>
<trkpt lat="53.224769" lon="-1.988376"><ele>417</ele><time>2022-11-25T10:24:14Z</time><name>PT193</name></trkpt>
<trkpt lat="53.224732" lon="-1.988410"><ele>416</ele><time>2022-11-25T10:24:19Z</time><name>PT194</name></trkpt>
<trkpt lat="53.224701" lon="-1.988425"><ele>417</ele><time>2022-11-25T10:24:22Z</time><name>PT195</name></trkpt>
<trkpt lat="53.224652" lon="-1.988449"><ele>416</ele><time>2022-11-25T10:24:26Z</time><name>PT196</name></trkpt>
<trkpt lat="53.224605" lon="-1.988480"><ele>416</ele><time>2022-11-25T10:24:29Z</time><name>PT197</name></trkpt>
<trkpt lat="53.224567" lon="-1.988500"><ele>416</ele><time>2022-11-25T10:24:32Z</time><name>PT198</name></trkpt>
<trkpt lat="53.224526" lon="-1.988524"><ele>415</ele><time>2022-11-25T10:24:37Z</time><name>PT199</name></trkpt>
<trkpt lat="53.224494" lon="-1.988547"><ele>415</ele><time>2022-11-25T10:24:40Z</time><name>PT200</name></trkpt>
<trkpt lat="53.224460" lon="-1.988572"><ele>414</ele><time>2022-11-25T10:24:43Z</time><name>PT201</name></trkpt>
<trkpt lat="53.224416" lon="-1.988600"><ele>414</ele><time>2022-11-25T10:24:47Z</time><name>PT202</name></trkpt>
<trkpt lat="53.224372" lon="-1.988630"><ele>413</ele><time>2022-11-25T10:24:50Z</time><name>PT203</name></trkpt>
<trkpt lat="53.224337" lon="-1.988657"><ele>413</ele><time>2022-11-25T10:24:53Z</time><name>PT204</name></trkpt>
<trkpt lat="53.224306" lon="-1.988679"><ele>413</ele><time>2022-11-25T10:24:56Z</time><name>PT205</name></trkpt>
<trkpt lat="53.224266" lon="-1.988712"><ele>412</ele><time>2022-11-25T10:25:01Z</time><name>PT206</name></trkpt>
<trkpt lat="53.224233" lon="-1.988738"><ele>412</ele><time>2022-11-25T10:25:04Z</time><name>PT207</name></trkpt>
<trkpt lat="53.224197" lon="-1.988776"><ele>411</ele><time>2022-11-25T10:25:08Z</time><name>PT208</name></trkpt>
<trkpt lat="53.224164" lon="-1.988807"><ele>410</ele><time>2022-11-25T10:25:11Z</time><name>PT209</name></trkpt>
<trkpt lat="53.224121" lon="-1.988848"><ele>410</ele><time>2022-11-25T10:25:14Z</time><name>PT210</name></trkpt>
<trkpt lat="53.224081" lon="-1.988892"><ele>409</ele><time>2022-11-25T10:25:19Z</time><name>PT211</name></trkpt>
<trkpt lat="53.224047" lon="-1.988924"><ele>409</ele><time>2022-11-25T10:25:22Z</time><name>PT212</name></trkpt>
<trkpt lat="53.224014" lon="-1.988958"><ele>408</ele><time>2022-11-25T10:25:25Z</time><name>PT213</name></trkpt>
<trkpt lat="53.223972" lon="-1.989013"><ele>407</ele><time>2022-11-25T10:25:29Z</time><name>PT214</name></trkpt>
<trkpt lat="53.223931" lon="-1.989061"><ele>407</ele><time>2022-11-25T10:25:32Z</time><name>PT215</name></trkpt>
<trkpt lat="53.223894" lon="-1.989108"><ele>406</ele><time>2022-11-25T10:25:37Z</time><name>PT216</name></trkpt>
<trkpt lat="53.223851" lon="-1.989161"><ele>406</ele><time>2022-11-25T10:25:41Z</time><name>PT217</name></trkpt>
<trkpt lat="53.223827" lon="-1.989205"><ele>406</ele><time>2022-11-25T10:25:44Z</time><name>PT218</name></trkpt>
<trkpt lat="53.223801" lon="-1.989246"><ele>406</ele><time>2022-11-25T10:25:47Z</time><name>PT219</name></trkpt>
<trkpt lat="53.223776" lon="-1.989288"><ele>405</ele><time>2022-11-25T10:25:50Z</time><name>PT220</name></trkpt>
<trkpt lat="53.223743" lon="-1.989345"><ele>404</ele><time>2022-11-25T10:25:53Z</time><name>PT221</name></trkpt>
<trkpt lat="53.223708" lon="-1.989407"><ele>404</ele><time>2022-11-25T10:25:58Z</time><name>PT222</name></trkpt>
<trkpt lat="53.223674" lon="-1.989468"><ele>403</ele><time>2022-11-25T10:26:02Z</time><name>PT223</name></trkpt>
<trkpt lat="53.223640" lon="-1.989532"><ele>402</ele><time>2022-11-25T10:26:05Z</time><name>PT224</name></trkpt>
<trkpt lat="53.223610" lon="-1.989592"><ele>402</ele><time>2022-11-25T10:26:10Z</time><name>PT225</name></trkpt>
<trkpt lat="53.223583" lon="-1.989638"><ele>401</ele><time>2022-11-25T10:26:13Z</time><name>PT226</name></trkpt>
<trkpt lat="53.223548" lon="-1.989693"><ele>402</ele><time>2022-11-25T10:26:17Z</time><name>PT227</name></trkpt>
<trkpt lat="53.223527" lon="-1.989731"><ele>402</ele><time>2022-11-25T10:26:20Z</time><name>PT228</name></trkpt>
<trkpt lat="53.223508" lon="-1.989764"><ele>402</ele><time>2022-11-25T10:26:23Z</time><name>PT229</name></trkpt>
<trkpt lat="53.223481" lon="-1.989802"><ele>402</ele><time>2022-11-25T10:26:26Z</time><name>PT230</name></trkpt>
<trkpt lat="53.223459" lon="-1.989837"><ele>402</ele><time>2022-11-25T10:26:29Z</time><name>PT231</name></trkpt>
<trkpt lat="53.223434" lon="-1.989889"><ele>401</ele><time>2022-11-25T10:26:33Z</time><name>PT232</name></trkpt>
<trkpt lat="53.223401" lon="-1.989931"><ele>400</ele><time>2022-11-25T10:26:37Z</time><name>PT233</name></trkpt>
<trkpt lat="53.223372" lon="-1.989949"><ele>399</ele><time>2022-11-25T10:26:40Z</time><name>PT234</name></trkpt>
<trkpt lat="53.223346" lon="-1.989967"><ele>399</ele><time>2022-11-25T10:26:44Z</time><name>PT235</name></trkpt>
<trkpt lat="53.223332" lon="-1.989987"><ele>398</ele><time>2022-11-25T10:26:47Z</time><name>PT236</name></trkpt>
<trkpt lat="53.223312" lon="-1.990008"><ele>398</ele><time>2022-11-25T10:26:50Z</time><name>PT237</name></trkpt>
<trkpt lat="53.223308" lon="-1.990012"><ele>398</ele><time>2022-11-25T10:26:53Z</time><name>PT238</name></trkpt>
<trkpt lat="53.223274" lon="-1.990047"><ele>398</ele><time>2022-11-25T10:27:12Z</time><name>PT239</name></trkpt>
<trkpt lat="53.223241" lon="-1.990090"><ele>397</ele><time>2022-11-25T10:27:16Z</time><name>PT240</name></trkpt>
<trkpt lat="53.223222" lon="-1.990131"><ele>396</ele><time>2022-11-25T10:27:19Z</time><name>PT241</name></trkpt>
<trkpt lat="53.223192" lon="-1.990193"><ele>396</ele><time>2022-11-25T10:27:23Z</time><name>PT242</name></trkpt>
<trkpt lat="53.223170" lon="-1.990227"><ele>396</ele><time>2022-11-25T10:27:26Z</time><name>PT243</name></trkpt>
<trkpt lat="53.223151" lon="-1.990256"><ele>395</ele><time>2022-11-25T10:27:29Z</time><name>PT244</name></trkpt>
<trkpt lat="53.223109" lon="-1.990291"><ele>394</ele><time>2022-11-25T10:27:32Z</time><name>PT245</name></trkpt>
<trkpt lat="53.223062" lon="-1.990340"><ele>394</ele><time>2022-11-25T10:27:37Z</time><name>PT246</name></trkpt>
<trkpt lat="53.223022" lon="-1.990367"><ele>394</ele><time>2022-11-25T10:27:41Z</time><name>PT247</name></trkpt>
<trkpt lat="53.222990" lon="-1.990374"><ele>394</ele><time>2022-11-25T10:27:44Z</time><name>PT248</name></trkpt>
<trkpt lat="53.222950" lon="-1.990386"><ele>394</ele><time>2022-11-25T10:27:47Z</time><name>PT249</name></trkpt>
<trkpt lat="53.222932" lon="-1.990394"><ele>392</ele><time>2022-11-25T10:27:50Z</time><name>PT250</name></trkpt>
<trkpt lat="53.222900" lon="-1.990393"><ele>392</ele><time>2022-11-25T10:27:53Z</time><name>PT251</name></trkpt>
<trkpt lat="53.222862" lon="-1.990405"><ele>393</ele><time>2022-11-25T10:27:58Z</time><name>PT252</name></trkpt>
<trkpt lat="53.222828" lon="-1.990409"><ele>392</ele><time>2022-11-25T10:28:02Z</time><name>PT253</name></trkpt>
<trkpt lat="53.222782" lon="-1.990407"><ele>391</ele><time>2022-11-25T10:28:05Z</time><name>PT254</name></trkpt>
<trkpt lat="53.222747" lon="-1.990411"><ele>392</ele><time>2022-11-25T10:28:08Z</time><name>PT255</name></trkpt>
<trkpt lat="53.222708" lon="-1.990407"><ele>392</ele><time>2022-11-25T10:28:12Z</time><name>PT256</name></trkpt>
<trkpt lat="53.222663" lon="-1.990414"><ele>392</ele><time>2022-11-25T10:28:16Z</time><name>PT257</name></trkpt>
<trkpt lat="53.222636" lon="-1.990420"><ele>392</ele><time>2022-11-25T10:28:19Z</time><name>PT258</name></trkpt>
<trkpt lat="53.222601" lon="-1.990413"><ele>392</ele><time>2022-11-25T10:28:22Z</time><name>PT259</name></trkpt>
<trkpt lat="53.222559" lon="-1.990410"><ele>391</ele><time>2022-11-25T10:28:25Z</time><name>PT260</name></trkpt>
<trkpt lat="53.222527" lon="-1.990403"><ele>391</ele><time>2022-11-25T10:28:28Z</time><name>PT261</name></trkpt>
<trkpt lat="53.222488" lon="-1.990393"><ele>391</ele><time>2022-11-25T10:28:31Z</time><name>PT262</name></trkpt>
<trkpt lat="53.222460" lon="-1.990388"><ele>390</ele><time>2022-11-25T10:28:34Z</time><name>PT263</name></trkpt>
<trkpt lat="53.222429" lon="-1.990385"><ele>390</ele><time>2022-11-25T10:28:38Z</time><name>PT264</name></trkpt>
<trkpt lat="53.222380" lon="-1.990380"><ele>390</ele><time>2022-11-25T10:28:41Z</time><name>PT265</name></trkpt>
<trkpt lat="53.222333" lon="-1.990398"><ele>390</ele><time>2022-11-25T10:28:46Z</time><name>PT266</name></trkpt>
<trkpt lat="53.222294" lon="-1.990390"><ele>389</ele><time>2022-11-25T10:28:50Z</time><name>PT267</name></trkpt>
<trkpt lat="53.222245" lon="-1.990386"><ele>389</ele><time>2022-11-25T10:28:53Z</time><name>PT268</name></trkpt>
<trkpt lat="53.222210" lon="-1.990386"><ele>389</ele><time>2022-11-25T10:28:56Z</time><name>PT269</name></trkpt>
<trkpt lat="53.222174" lon="-1.990396"><ele>389</ele><time>2022-11-25T10:28:59Z</time><name>PT270</name></trkpt>
<trkpt lat="53.222128" lon="-1.990389"><ele>389</ele><time>2022-11-25T10:29:04Z</time><name>PT271</name></trkpt>
<trkpt lat="53.222091" lon="-1.990381"><ele>389</ele><time>2022-11-25T10:29:08Z</time><name>PT272</name></trkpt>
<trkpt lat="53.222065" lon="-1.990385"><ele>389</ele><time>2022-11-25T10:29:11Z</time><name>PT273</name></trkpt>
<trkpt lat="53.222029" lon="-1.990376"><ele>388</ele><time>2022-11-25T10:29:14Z</time><name>PT274</name></trkpt>
<trkpt lat="53.222012" lon="-1.990372"><ele>388</ele><time>2022-11-25T10:29:19Z</time><name>PT275</name></trkpt>
<trkpt lat="53.222000" lon="-1.990370"><ele>387</ele><time>2022-11-25T10:29:23Z</time><name>PT276</name></trkpt>
<trkpt lat="53.221981" lon="-1.990371"><ele>387</ele><time>2022-11-25T10:29:26Z</time><name>PT277</name></trkpt>
<trkpt lat="53.221961" lon="-1.990372"><ele>387</ele><time>2022-11-25T10:29:29Z</time><name>PT278</name></trkpt>
<trkpt lat="53.221925" lon="-1.990366"><ele>387</ele><time>2022-11-25T10:29:32Z</time><name>PT279</name></trkpt>
<trkpt lat="53.221889" lon="-1.990362"><ele>387</ele><time>2022-11-25T10:29:37Z</time><name>PT280</name></trkpt>
<trkpt lat="53.221863" lon="-1.990357"><ele>388</ele><time>2022-11-25T10:29:40Z</time><name>PT281</name></trkpt>
<trkpt lat="53.221823" lon="-1.990366"><ele>387</ele><time>2022-11-25T10:29:44Z</time><name>PT282</name></trkpt>
<trkpt lat="53.221790" lon="-1.990351"><ele>387</ele><time>2022-11-25T10:29:47Z</time><name>PT283</name></trkpt>
<trkpt lat="53.221754" lon="-1.990343"><ele>387</ele><time>2022-11-25T10:29:52Z</time><name>PT284</name></trkpt>
<trkpt lat="53.221737" lon="-1.990339"><ele>387</ele><time>2022-11-25T10:29:55Z</time><name>PT285</name></trkpt>
<trkpt lat="53.221704" lon="-1.990326"><ele>387</ele><time>2022-11-25T10:29:59Z</time><name>PT286</name></trkpt>
<trkpt lat="53.221673" lon="-1.990316"><ele>386</ele><time>2022-11-25T10:30:02Z</time><name>PT287</name></trkpt>
<trkpt lat="53.221634" lon="-1.990307"><ele>386</ele><time>2022-11-25T10:30:05Z</time><name>PT288</name></trkpt>
<trkpt lat="53.221609" lon="-1.990290"><ele>386</ele><time>2022-11-25T10:30:08Z</time><name>PT289</name></trkpt>
<trkpt lat="53.221574" lon="-1.990282"><ele>386</ele><time>2022-11-25T10:30:13Z</time><name>PT290</name></trkpt>
<trkpt lat="53.221554" lon="-1.990273"><ele>385</ele><time>2022-11-25T10:30:16Z</time><name>PT291</name></trkpt>
<trkpt lat="53.221538" lon="-1.990263"><ele>385</ele><time>2022-11-25T10:30:19Z</time><name>PT292</name></trkpt>
<trkpt lat="53.221501" lon="-1.990242"><ele>385</ele><time>2022-11-25T10:30:23Z</time><name>PT293</name></trkpt>
<trkpt lat="53.221471" lon="-1.990243"><ele>385</ele><time>2022-11-25T10:30:26Z</time><name>PT294</name></trkpt>
<trkpt lat="53.221435" lon="-1.990242"><ele>385</ele><time>2022-11-25T10:30:29Z</time><name>PT295</name></trkpt>
<trkpt lat="53.221399" lon="-1.990244"><ele>385</ele><time>2022-11-25T10:30:34Z</time><name>PT296</name></trkpt>
<trkpt lat="53.221376" lon="-1.990246"><ele>385</ele><time>2022-11-25T10:30:37Z</time><name>PT297</name></trkpt>
<trkpt lat="53.221357" lon="-1.990253"><ele>385</ele><time>2022-11-25T10:30:40Z</time><name>PT298</name></trkpt>
<trkpt lat="53.221320" lon="-1.990256"><ele>385</ele><time>2022-11-25T10:30:44Z</time><name>PT299</name></trkpt>
<trkpt lat="53.221296" lon="-1.990263"><ele>384</ele><time>2022-11-25T10:30:47Z</time><name>PT300</name></trkpt>
<trkpt lat="53.221273" lon="-1.990271"><ele>384</ele><time>2022-11-25T10:30:50Z</time><name>PT301</name></trkpt>
<trkpt lat="53.221252" lon="-1.990275"><ele>384</ele><time>2022-11-25T10:30:53Z</time><name>PT302</name></trkpt>
<trkpt lat="53.221230" lon="-1.990287"><ele>385</ele><time>2022-11-25T10:30:56Z</time><name>PT303</name></trkpt>
<trkpt lat="53.221206" lon="-1.990294"><ele>387</ele><time>2022-11-25T10:30:59Z</time><name>PT304</name></trkpt>
<trkpt lat="53.221185" lon="-1.990287"><ele>387</ele><time>2022-11-25T10:31:04Z</time><name>PT305</name></trkpt>
<trkpt lat="53.221164" lon="-1.990283"><ele>387</ele><time>2022-11-25T10:31:07Z</time><name>PT306</name></trkpt>
<trkpt lat="53.221134" lon="-1.990281"><ele>387</ele><time>2022-11-25T10:31:11Z</time><name>PT307</name></trkpt>
<trkpt lat="53.221123" lon="-1.990289"><ele>387</ele><time>2022-11-25T10:31:14Z</time><name>PT308</name></trkpt>
<trkpt lat="53.221119" lon="-1.990288"><ele>387</ele><time>2022-11-25T10:31:17Z</time><name>PT309</name></trkpt>
<trkpt lat="53.221107" lon="-1.990271"><ele>387</ele><time>2022-11-25T10:31:20Z</time><name>PT310</name></trkpt>
<trkpt lat="53.221086" lon="-1.990275"><ele>387</ele><time>2022-11-25T10:31:23Z</time><name>PT311</name></trkpt>
<trkpt lat="53.221061" lon="-1.990279"><ele>386</ele><time>2022-11-25T10:31:28Z</time><name>PT312</name></trkpt>
<trkpt lat="53.221042" lon="-1.990268"><ele>385</ele><time>2022-11-25T10:31:31Z</time><name>PT313</name></trkpt>
<trkpt lat="53.221014" lon="-1.990257"><ele>384</ele><time>2022-11-25T10:31:35Z</time><name>PT314</name></trkpt>
<trkpt lat="53.220997" lon="-1.990237"><ele>384</ele><time>2022-11-25T10:31:38Z</time><name>PT315</name></trkpt>
<trkpt lat="53.220977" lon="-1.990223"><ele>384</ele><time>2022-11-25T10:31:41Z</time><name>PT316</name></trkpt>
<trkpt lat="53.220955" lon="-1.990217"><ele>384</ele><time>2022-11-25T10:31:44Z</time><name>PT317</name></trkpt>
<trkpt lat="53.220934" lon="-1.990214"><ele>383</ele><time>2022-11-25T10:31:47Z</time><name>PT318</name></trkpt>
<trkpt lat="53.220920" lon="-1.990204"><ele>382</ele><time>2022-11-25T10:31:52Z</time><name>PT319</name></trkpt>
<trkpt lat="53.220902" lon="-1.990197"><ele>382</ele><time>2022-11-25T10:31:55Z</time><name>PT320</name></trkpt>
<trkpt lat="53.220886" lon="-1.990190"><ele>382</ele><time>2022-11-25T10:31:59Z</time><name>PT321</name></trkpt>
<trkpt lat="53.220879" lon="-1.990186"><ele>381</ele><time>2022-11-25T10:32:02Z</time><name>PT322</name></trkpt>
<trkpt lat="53.220866" lon="-1.990193"><ele>382</ele><time>2022-11-25T10:32:05Z</time><name>PT323</name></trkpt>
<trkpt lat="53.220846" lon="-1.990191"><ele>381</ele><time>2022-11-25T10:32:08Z</time><name>PT324</name></trkpt>
<trkpt lat="53.220822" lon="-1.990187"><ele>381</ele><time>2022-11-25T10:32:11Z</time><name>PT325</name></trkpt>
<trkpt lat="53.220799" lon="-1.990178"><ele>382</ele><time>2022-11-25T10:32:16Z</time><name>PT326</name></trkpt>
<trkpt lat="53.220789" lon="-1.990178"><ele>383</ele><time>2022-11-25T10:32:19Z</time><name>PT327</name></trkpt>
<trkpt lat="53.220774" lon="-1.990160"><ele>381</ele><time>2022-11-25T10:32:23Z</time><name>PT328</name></trkpt>
<trkpt lat="53.220765" lon="-1.990154"><ele>381</ele><time>2022-11-25T10:32:26Z</time><name>PT329</name></trkpt>
<trkpt lat="53.220760" lon="-1.990155"><ele>382</ele><time>2022-11-25T10:32:29Z</time><name>PT330</name></trkpt>
<trkpt lat="53.220759" lon="-1.990144"><ele>382</ele><time>2022-11-25T10:32:34Z</time><name>PT331</name></trkpt>
<trkpt lat="53.220752" lon="-1.990148"><ele>382</ele><time>2022-11-25T10:32:37Z</time><name>PT332</name></trkpt>
<trkpt lat="53.220740" lon="-1.990157"><ele>382</ele><time>2022-11-25T10:32:40Z</time><name>PT333</name></trkpt>
<trkpt lat="53.220703" lon="-1.990156"><ele>381</ele><time>2022-11-25T10:32:44Z</time><name>PT334</name></trkpt>
<trkpt lat="53.220670" lon="-1.990133"><ele>381</ele><time>2022-11-25T10:32:47Z</time><name>PT335</name></trkpt>
<trkpt lat="53.220630" lon="-1.990114"><ele>381</ele><time>2022-11-25T10:32:50Z</time><name>PT336</name></trkpt>
<trkpt lat="53.220605" lon="-1.990112"><ele>381</ele><time>2022-11-25T10:32:55Z</time><name>PT337</name></trkpt>
<trkpt lat="53.220586" lon="-1.990093"><ele>381</ele><time>2022-11-25T10:32:58Z</time><name>PT338</name></trkpt>
<trkpt lat="53.220552" lon="-1.990086"><ele>380</ele><time>2022-11-25T10:33:02Z</time><name>PT339</name></trkpt>
<trkpt lat="53.220528" lon="-1.990070"><ele>379</ele><time>2022-11-25T10:33:05Z</time><name>PT340</name></trkpt>
<trkpt lat="53.220495" lon="-1.990026"><ele>379</ele><time>2022-11-25T10:33:08Z</time><name>PT341</name></trkpt>
<trkpt lat="53.220473" lon="-1.990016"><ele>378</ele><time>2022-11-25T10:33:11Z</time><name>PT342</name></trkpt>
<trkpt lat="53.220458" lon="-1.990032"><ele>379</ele><time>2022-11-25T10:33:14Z</time><name>PT343</name></trkpt>
<trkpt lat="53.220434" lon="-1.990045"><ele>379</ele><time>2022-11-25T10:33:17Z</time><name>PT344</name></trkpt>
<trkpt lat="53.220411" lon="-1.990047"><ele>379</ele><time>2022-11-25T10:33:22Z</time><name>PT345</name></trkpt>
<trkpt lat="53.220389" lon="-1.990047"><ele>379</ele><time>2022-11-25T10:33:26Z</time><name>PT346</name></trkpt>
<trkpt lat="53.220367" lon="-1.990031"><ele>380</ele><time>2022-11-25T10:33:29Z</time><name>PT347</name></trkpt>
<trkpt lat="53.220361" lon="-1.990021"><ele>381</ele><time>2022-11-25T10:33:32Z</time><name>PT348</name></trkpt>
<trkpt lat="53.220341" lon="-1.990041"><ele>381</ele><time>2022-11-25T10:34:05Z</time><name>PT349</name></trkpt>
<trkpt lat="53.220336" lon="-1.990043"><ele>381</ele><time>2022-11-25T10:34:08Z</time><name>PT350</name></trkpt>
<trkpt lat="53.220310" lon="-1.990034"><ele>381</ele><time>2022-11-25T10:34:11Z</time><name>PT351</name></trkpt>
<trkpt lat="53.220300" lon="-1.990029"><ele>381</ele><time>2022-11-25T10:34:14Z</time><name>PT352</name></trkpt>
<trkpt lat="53.220284" lon="-1.989997"><ele>381</ele><time>2022-11-25T10:34:17Z</time><name>PT353</name></trkpt>
<trkpt lat="53.220259" lon="-1.989967"><ele>380</ele><time>2022-11-25T10:34:22Z</time><name>PT354</name></trkpt>
<trkpt lat="53.220229" lon="-1.989959"><ele>380</ele><time>2022-11-25T10:34:25Z</time><name>PT355</name></trkpt>
<trkpt lat="53.220216" lon="-1.989957"><ele>380</ele><time>2022-11-25T10:34:29Z</time><name>PT356</name></trkpt>
<trkpt lat="53.220204" lon="-1.989963"><ele>380</ele><time>2022-11-25T10:34:32Z</time><name>PT357</name></trkpt>
<trkpt lat="53.220177" lon="-1.989939"><ele>380</ele><time>2022-11-25T10:34:35Z</time><name>PT358</name></trkpt>
<trkpt lat="53.220152" lon="-1.989925"><ele>380</ele><time>2022-11-25T10:34:40Z</time><name>PT359</name></trkpt>
<trkpt lat="53.220134" lon="-1.989915"><ele>380</ele><time>2022-11-25T10:34:43Z</time><name>PT360</name></trkpt>
<trkpt lat="53.220111" lon="-1.989902"><ele>380</ele><time>2022-11-25T10:34:47Z</time><name>PT361</name></trkpt>
<trkpt lat="53.220089" lon="-1.989886"><ele>379</ele><time>2022-11-25T10:34:50Z</time><name>PT362</name></trkpt>
<trkpt lat="53.220056" lon="-1.989876"><ele>379</ele><time>2022-11-25T10:34:53Z</time><name>PT363</name></trkpt>
<trkpt lat="53.220008" lon="-1.989872"><ele>380</ele><time>2022-11-25T10:34:56Z</time><name>PT364</name></trkpt>
<trkpt lat="53.219975" lon="-1.989881"><ele>380</ele><time>2022-11-25T10:34:59Z</time><name>PT365</name></trkpt>
<trkpt lat="53.219938" lon="-1.989900"><ele>380</ele><time>2022-11-25T10:35:04Z</time><name>PT366</name></trkpt>
<trkpt lat="53.219915" lon="-1.989914"><ele>380</ele><time>2022-11-25T10:35:07Z</time><name>PT367</name></trkpt>
<trkpt lat="53.219886" lon="-1.989939"><ele>379</ele><time>2022-11-25T10:35:11Z</time><name>PT368</name></trkpt>
<trkpt lat="53.219853" lon="-1.989946"><ele>380</ele><time>2022-11-25T10:35:14Z</time><name>PT369</name></trkpt>
<trkpt lat="53.219818" lon="-1.989965"><ele>379</ele><time>2022-11-25T10:35:17Z</time><name>PT370</name></trkpt>
<trkpt lat="53.219778" lon="-1.989990"><ele>379</ele><time>2022-11-25T10:35:20Z</time><name>PT371</name></trkpt>
<trkpt lat="53.219750" lon="-1.990003"><ele>379</ele><time>2022-11-25T10:35:23Z</time><name>PT372</name></trkpt>
<trkpt lat="53.219741" lon="-1.990006"><ele>379</ele><time>2022-11-25T10:35:26Z</time><name>PT373</name></trkpt>
<trkpt lat="53.219726" lon="-1.990020"><ele>379</ele><time>2022-11-25T10:35:31Z</time><name>PT374</name></trkpt>
<trkpt lat="53.219690" lon="-1.990038"><ele>379</ele><time>2022-11-25T10:35:35Z</time><name>PT375</name></trkpt>
<trkpt lat="53.219655" lon="-1.990054"><ele>379</ele><time>2022-11-25T10:35:38Z</time><name>PT376</name></trkpt>
<trkpt lat="53.219624" lon="-1.990062"><ele>378</ele><time>2022-11-25T10:35:41Z</time><name>PT377</name></trkpt>
<trkpt lat="53.219596" lon="-1.990073"><ele>378</ele><time>2022-11-25T10:35:44Z</time><name>PT378</name></trkpt>
<trkpt lat="53.219573" lon="-1.990074"><ele>378</ele><time>2022-11-25T10:35:47Z</time><name>PT379</name></trkpt>
<trkpt lat="53.219540" lon="-1.990079"><ele>378</ele><time>2022-11-25T10:35:52Z</time><name>PT380</name></trkpt>
<trkpt lat="53.219518" lon="-1.990083"><ele>378</ele><time>2022-11-25T10:35:55Z</time><name>PT381</name></trkpt>
<trkpt lat="53.219509" lon="-1.990080"><ele>377</ele><time>2022-11-25T10:35:59Z</time><name>PT382</name></trkpt>
<trkpt lat="53.219502" lon="-1.990078"><ele>377</ele><time>2022-11-25T10:36:11Z</time><name>PT383</name></trkpt>
<trkpt lat="53.219483" lon="-1.990083"><ele>377</ele><time>2022-11-25T10:36:14Z</time><name>PT384</name></trkpt>
<trkpt lat="53.219479" lon="-1.990088"><ele>377</ele><time>2022-11-25T10:36:17Z</time><name>PT385</name></trkpt>
<trkpt lat="53.219470" lon="-1.990089"><ele>378</ele><time>2022-11-25T10:36:22Z</time><name>PT386</name></trkpt>
<trkpt lat="53.219446" lon="-1.990093"><ele>377</ele><time>2022-11-25T10:36:29Z</time><name>PT387</name></trkpt>
<trkpt lat="53.219418" lon="-1.990104"><ele>376</ele><time>2022-11-25T10:36:32Z</time><name>PT388</name></trkpt>
<trkpt lat="53.219408" lon="-1.990106"><ele>376</ele><time>2022-11-25T10:36:35Z</time><name>PT389</name></trkpt>
<trkpt lat="53.219405" lon="-1.990107"><ele>376</ele><time>2022-11-25T10:36:38Z</time><name>PT390</name></trkpt>
<trkpt lat="53.219383" lon="-1.990087"><ele>375</ele><time>2022-11-25T10:36:47Z</time><name>PT391</name></trkpt>
<trkpt lat="53.219362" lon="-1.990078"><ele>375</ele><time>2022-11-25T10:36:50Z</time><name>PT392</name></trkpt>
<trkpt lat="53.219335" lon="-1.990069"><ele>375</ele><time>2022-11-25T10:36:53Z</time><name>PT393</name></trkpt>
<trkpt lat="53.219311" lon="-1.990055"><ele>375</ele><time>2022-11-25T10:36:58Z</time><name>PT394</name></trkpt>
<trkpt lat="53.219279" lon="-1.990032"><ele>375</ele><time>2022-11-25T10:37:02Z</time><name>PT395</name></trkpt>
<trkpt lat="53.219258" lon="-1.990007"><ele>374</ele><time>2022-11-25T10:37:05Z</time><name>PT396</name></trkpt>
<trkpt lat="53.219222" lon="-1.989973"><ele>373</ele><time>2022-11-25T10:37:10Z</time><name>PT397</name></trkpt>
<trkpt lat="53.219176" lon="-1.989946"><ele>373</ele><time>2022-11-25T10:37:14Z</time><name>PT398</name></trkpt>
<trkpt lat="53.219148" lon="-1.989931"><ele>373</ele><time>2022-11-25T10:37:17Z</time><name>PT399</name></trkpt>
<trkpt lat="53.219115" lon="-1.989919"><ele>373</ele><time>2022-11-25T10:37:20Z</time><name>PT400</name></trkpt>
<trkpt lat="53.219087" lon="-1.989905"><ele>373</ele><time>2022-11-25T10:37:23Z</time><name>PT401</name></trkpt>
<trkpt lat="53.219048" lon="-1.989889"><ele>373</ele><time>2022-11-25T10:37:28Z</time><name>PT402</name></trkpt>
<trkpt lat="53.219007" lon="-1.989879"><ele>373</ele><time>2022-11-25T10:37:31Z</time><name>PT403</name></trkpt>
<trkpt lat="53.218970" lon="-1.989865"><ele>373</ele><time>2022-11-25T10:37:35Z</time><name>PT404</name></trkpt>
<trkpt lat="53.218932" lon="-1.989856"><ele>373</ele><time>2022-11-25T10:37:38Z</time><name>PT405</name></trkpt>
<trkpt lat="53.218884" lon="-1.989858"><ele>374</ele><time>2022-11-25T10:37:43Z</time><name>PT406</name></trkpt>
<trkpt lat="53.218849" lon="-1.989857"><ele>374</ele><time>2022-11-25T10:37:46Z</time><name>PT407</name></trkpt>
<trkpt lat="53.218807" lon="-1.989848"><ele>374</ele><time>2022-11-25T10:37:50Z</time><name>PT408</name></trkpt>
<trkpt lat="53.218762" lon="-1.989822"><ele>374</ele><time>2022-11-25T10:37:53Z</time><name>PT409</name></trkpt>
<trkpt lat="53.218711" lon="-1.989798"><ele>374</ele><time>2022-11-25T10:37:58Z</time><name>PT410</name></trkpt>
<trkpt lat="53.218679" lon="-1.989778"><ele>374</ele><time>2022-11-25T10:38:01Z</time><name>PT411</name></trkpt>
<trkpt lat="53.218640" lon="-1.989772"><ele>373</ele><time>2022-11-25T10:38:05Z</time><name>PT412</name></trkpt>
<trkpt lat="53.218605" lon="-1.989762"><ele>373</ele><time>2022-11-25T10:38:08Z</time><name>PT413</name></trkpt>
<trkpt lat="53.218573" lon="-1.989760"><ele>373</ele><time>2022-11-25T10:38:11Z</time><name>PT414</name></trkpt>
<trkpt lat="53.218538" lon="-1.989754"><ele>373</ele><time>2022-11-25T10:38:14Z</time><name>PT415</name></trkpt>
<trkpt lat="53.218494" lon="-1.989744"><ele>373</ele><time>2022-11-25T10:38:17Z</time><name>PT416</name></trkpt>
<trkpt lat="53.218455" lon="-1.989731"><ele>373</ele><time>2022-11-25T10:38:22Z</time><name>PT417</name></trkpt>
<trkpt lat="53.218423" lon="-1.989720"><ele>373</ele><time>2022-11-25T10:38:25Z</time><name>PT418</name></trkpt>
<trkpt lat="53.218386" lon="-1.989715"><ele>373</ele><time>2022-11-25T10:38:29Z</time><name>PT419</name></trkpt>
<trkpt lat="53.218355" lon="-1.989715"><ele>373</ele><time>2022-11-25T10:38:32Z</time><name>PT420</name></trkpt>
<trkpt lat="53.218330" lon="-1.989710"><ele>372</ele><time>2022-11-25T10:38:35Z</time><name>PT421</name></trkpt>
<trkpt lat="53.218304" lon="-1.989721"><ele>372</ele><time>2022-11-25T10:38:38Z</time><name>PT422</name></trkpt>
<trkpt lat="53.218276" lon="-1.989690"><ele>372</ele><time>2022-11-25T10:38:41Z</time><name>PT423</name></trkpt>
<trkpt lat="53.218247" lon="-1.989668"><ele>371</ele><time>2022-11-25T10:38:46Z</time><name>PT424</name></trkpt>
<trkpt lat="53.218227" lon="-1.989672"><ele>371</ele><time>2022-11-25T10:38:49Z</time><name>PT425</name></trkpt>
<trkpt lat="53.218214" lon="-1.989672"><ele>372</ele><time>2022-11-25T10:38:53Z</time><name>PT426</name></trkpt>
<trkpt lat="53.218208" lon="-1.989671"><ele>372</ele><time>2022-11-25T10:38:56Z</time><name>PT427</name></trkpt>
<trkpt lat="53.218209" lon="-1.989671"><ele>371</ele><time>2022-11-25T10:39:01Z</time><name>PT428</name></trkpt>
<trkpt lat="53.218195" lon="-1.989670"><ele>372</ele><time>2022-11-25T10:39:14Z</time><name>PT429</name></trkpt>
<trkpt lat="53.218187" lon="-1.989674"><ele>372</ele><time>2022-11-25T10:39:17Z</time><name>PT430</name></trkpt>
<trkpt lat="53.218173" lon="-1.989682"><ele>372</ele><time>2022-11-25T10:39:23Z</time><name>PT431</name></trkpt>
<trkpt lat="53.218139" lon="-1.989679"><ele>374</ele><time>2022-11-25T10:39:28Z</time><name>PT432</name></trkpt>
<trkpt lat="53.218114" lon="-1.989705"><ele>374</ele><time>2022-11-25T10:39:32Z</time><name>PT433</name></trkpt>
<trkpt lat="53.218090" lon="-1.989722"><ele>374</ele><time>2022-11-25T10:39:35Z</time><name>PT434</name></trkpt>
<trkpt lat="53.218058" lon="-1.989717"><ele>373</ele><time>2022-11-25T10:39:40Z</time><name>PT435</name></trkpt>
<trkpt lat="53.218035" lon="-1.989719"><ele>371</ele><time>2022-11-25T10:39:43Z</time><name>PT436</name></trkpt>
<trkpt lat="53.218006" lon="-1.989712"><ele>370</ele><time>2022-11-25T10:39:47Z</time><name>PT437</name></trkpt>
<trkpt lat="53.217970" lon="-1.989709"><ele>369</ele><time>2022-11-25T10:39:50Z</time><name>PT438</name></trkpt>
<trkpt lat="53.217938" lon="-1.989702"><ele>369</ele><time>2022-11-25T10:39:53Z</time><name>PT439</name></trkpt>
<trkpt lat="53.217904" lon="-1.989693"><ele>369</ele><time>2022-11-25T10:39:58Z</time><name>PT440</name></trkpt>
<trkpt lat="53.217879" lon="-1.989678"><ele>369</ele><time>2022-11-25T10:40:01Z</time><name>PT441</name></trkpt>
<trkpt lat="53.217842" lon="-1.989671"><ele>369</ele><time>2022-11-25T10:40:05Z</time><name>PT442</name></trkpt>
<trkpt lat="53.217817" lon="-1.989674"><ele>368</ele><time>2022-11-25T10:40:08Z</time><name>PT443</name></trkpt>
<trkpt lat="53.217783" lon="-1.989671"><ele>368</ele><time>2022-11-25T10:40:11Z</time><name>PT444</name></trkpt>
<trkpt lat="53.217756" lon="-1.989660"><ele>368</ele><time>2022-11-25T10:40:14Z</time><name>PT445</name></trkpt>
<trkpt lat="53.217727" lon="-1.989645"><ele>369</ele><time>2022-11-25T10:40:17Z</time><name>PT446</name></trkpt>
<trkpt lat="53.217688" lon="-1.989617"><ele>369</ele><time>2022-11-25T10:40:22Z</time><name>PT447</name></trkpt>
<trkpt lat="53.217654" lon="-1.989605"><ele>369</ele><time>2022-11-25T10:40:25Z</time><name>PT448</name></trkpt>
<trkpt lat="53.217612" lon="-1.989592"><ele>369</ele><time>2022-11-25T10:40:29Z</time><name>PT449</name></trkpt>
<trkpt lat="53.217580" lon="-1.989592"><ele>367</ele><time>2022-11-25T10:40:32Z</time><name>PT450</name></trkpt>
<trkpt lat="53.217542" lon="-1.989591"><ele>367</ele><time>2022-11-25T10:40:35Z</time><name>PT451</name></trkpt>
<trkpt lat="53.217509" lon="-1.989592"><ele>368</ele><time>2022-11-25T10:40:40Z</time><name>PT452</name></trkpt>
<trkpt lat="53.217470" lon="-1.989604"><ele>368</ele><time>2022-11-25T10:40:44Z</time><name>PT453</name></trkpt>
<trkpt lat="53.217443" lon="-1.989630"><ele>368</ele><time>2022-11-25T10:40:47Z</time><name>PT454</name></trkpt>
<trkpt lat="53.217423" lon="-1.989646"><ele>369</ele><time>2022-11-25T10:40:50Z</time><name>PT455</name></trkpt>
<trkpt lat="53.217397" lon="-1.989673"><ele>369</ele><time>2022-11-25T10:40:55Z</time><name>PT456</name></trkpt>
<trkpt lat="53.217368" lon="-1.989700"><ele>369</ele><time>2022-11-25T10:40:59Z</time><name>PT457</name></trkpt>
<trkpt lat="53.217347" lon="-1.989735"><ele>370</ele><time>2022-11-25T10:41:02Z</time><name>PT458</name></trkpt>
<trkpt lat="53.217337" lon="-1.989754"><ele>370</ele><time>2022-11-25T10:41:05Z</time><name>PT459</name></trkpt>
<trkpt lat="53.217335" lon="-1.989759"><ele>370</ele><time>2022-11-25T10:41:08Z</time><name>PT460</name></trkpt>
<trkpt lat="53.217313" lon="-1.989779"><ele>370</ele><time>2022-11-25T10:41:13Z</time><name>PT461</name></trkpt>
<trkpt lat="53.217303" lon="-1.989787"><ele>371</ele><time>2022-11-25T10:41:16Z</time><name>PT462</name></trkpt>
<trkpt lat="53.217295" lon="-1.989794"><ele>370</ele><time>2022-11-25T10:41:20Z</time><name>PT463</name></trkpt>
<trkpt lat="53.217285" lon="-1.989814"><ele>370</ele><time>2022-11-25T10:41:23Z</time><name>PT464</name></trkpt>
<trkpt lat="53.217289" lon="-1.989828"><ele>370</ele><time>2022-11-25T10:42:07Z</time><name>PT465</name></trkpt>
<trkpt lat="53.217277" lon="-1.989842"><ele>370</ele><time>2022-11-25T10:42:11Z</time><name>PT466</name></trkpt>
<trkpt lat="53.217280" lon="-1.989852"><ele>370</ele><time>2022-11-25T10:42:32Z</time><name>PT467</name></trkpt>
<trkpt lat="53.217264" lon="-1.989876"><ele>370</ele><time>2022-11-25T10:42:35Z</time><name>PT468</name></trkpt>
<trkpt lat="53.217228" lon="-1.989872"><ele>369</ele><time>2022-11-25T10:42:38Z</time><name>PT469</name></trkpt>
<trkpt lat="53.217194" lon="-1.989854"><ele>370</ele><time>2022-11-25T10:42:41Z</time><name>PT470</name></trkpt>
<trkpt lat="53.217147" lon="-1.989832"><ele>370</ele><time>2022-11-25T10:42:46Z</time><name>PT471</name></trkpt>
<trkpt lat="53.217115" lon="-1.989824"><ele>370</ele><time>2022-11-25T10:42:49Z</time><name>PT472</name></trkpt>
<trkpt lat="53.217068" lon="-1.989799"><ele>369</ele><time>2022-11-25T10:42:53Z</time><name>PT473</name></trkpt>
<trkpt lat="53.217024" lon="-1.989778"><ele>369</ele><time>2022-11-25T10:42:56Z</time><name>PT474</name></trkpt>
<trkpt lat="53.216972" lon="-1.989767"><ele>369</ele><time>2022-11-25T10:43:01Z</time><name>PT475</name></trkpt>
<trkpt lat="53.216932" lon="-1.989780"><ele>369</ele><time>2022-11-25T10:43:04Z</time><name>PT476</name></trkpt>
<trkpt lat="53.216900" lon="-1.989785"><ele>369</ele><time>2022-11-25T10:43:07Z</time><name>PT477</name></trkpt>
<trkpt lat="53.216854" lon="-1.989795"><ele>369</ele><time>2022-11-25T10:43:11Z</time><name>PT478</name></trkpt>
<trkpt lat="53.216813" lon="-1.989792"><ele>369</ele><time>2022-11-25T10:43:14Z</time><name>PT479</name></trkpt>
<trkpt lat="53.216771" lon="-1.989801"><ele>370</ele><time>2022-11-25T10:43:17Z</time><name>PT480</name></trkpt>
<trkpt lat="53.216725" lon="-1.989802"><ele>370</ele><time>2022-11-25T10:43:20Z</time><name>PT481</name></trkpt>
<trkpt lat="53.216677" lon="-1.989816"><ele>369</ele><time>2022-11-25T10:43:25Z</time><name>PT482</name></trkpt>
<trkpt lat="53.216637" lon="-1.989823"><ele>370</ele><time>2022-11-25T10:43:28Z</time><name>PT483</name></trkpt>
<trkpt lat="53.216591" lon="-1.989843"><ele>368</ele><time>2022-11-25T10:43:32Z</time><name>PT484</name></trkpt>
<trkpt lat="53.216564" lon="-1.989857"><ele>369</ele><time>2022-11-25T10:43:35Z</time><name>PT485</name></trkpt>
<trkpt lat="53.216529" lon="-1.989871"><ele>370</ele><time>2022-11-25T10:43:38Z</time><name>PT486</name></trkpt>
<trkpt lat="53.216502" lon="-1.989879"><ele>371</ele><time>2022-11-25T10:43:41Z</time><name>PT487</name></trkpt>
<trkpt lat="53.216461" lon="-1.989896"><ele>373</ele><time>2022-11-25T10:43:44Z</time><name>PT488</name></trkpt>
<trkpt lat="53.216429" lon="-1.989912"><ele>373</ele><time>2022-11-25T10:43:47Z</time><name>PT489</name></trkpt>
<trkpt lat="53.216395" lon="-1.989930"><ele>373</ele><time>2022-11-25T10:43:52Z</time><name>PT490</name></trkpt>
<trkpt lat="53.216356" lon="-1.989936"><ele>374</ele><time>2022-11-25T10:43:55Z</time><name>PT491</name></trkpt>
<trkpt lat="53.216310" lon="-1.989946"><ele>375</ele><time>2022-11-25T10:43:59Z</time><name>PT492</name></trkpt>
<trkpt lat="53.216273" lon="-1.989950"><ele>374</ele><time>2022-11-25T10:44:02Z</time><name>PT493</name></trkpt>
<trkpt lat="53.216237" lon="-1.989952"><ele>375</ele><time>2022-11-25T10:44:05Z</time><name>PT494</name></trkpt>
<trkpt lat="53.216202" lon="-1.989952"><ele>374</ele><time>2022-11-25T10:44:08Z</time><name>PT495</name></trkpt>
<trkpt lat="53.216152" lon="-1.989953"><ele>374</ele><time>2022-11-25T10:44:11Z</time><name>PT496</name></trkpt>
<trkpt lat="53.216121" lon="-1.989957"><ele>373</ele><time>2022-11-25T10:44:14Z</time><name>PT497</name></trkpt>
<trkpt lat="53.216072" lon="-1.989951"><ele>372</ele><time>2022-11-25T10:44:19Z</time><name>PT498</name></trkpt>
<trkpt lat="53.216021" lon="-1.989945"><ele>372</ele><time>2022-11-25T10:44:23Z</time><name>PT499</name></trkpt>
<trkpt lat="53.215978" lon="-1.989936"><ele>373</ele><time>2022-11-25T10:44:26Z</time><name>PT500</name></trkpt>
<trkpt lat="53.215933" lon="-1.989913"><ele>373</ele><time>2022-11-25T10:44:29Z</time><name>PT501</name></trkpt>
<trkpt lat="53.215900" lon="-1.989901"><ele>373</ele><time>2022-11-25T10:44:32Z</time><name>PT502</name></trkpt>
<trkpt lat="53.215856" lon="-1.989890"><ele>372</ele><time>2022-11-25T10:44:37Z</time><name>PT503</name></trkpt>
<trkpt lat="53.215805" lon="-1.989867"><ele>373</ele><time>2022-11-25T10:44:41Z</time><name>PT504</name></trkpt>
<trkpt lat="53.215776" lon="-1.989853"><ele>372</ele><time>2022-11-25T10:44:44Z</time><name>PT505</name></trkpt>
<trkpt lat="53.215747" lon="-1.989841"><ele>372</ele><time>2022-11-25T10:44:47Z</time><name>PT506</name></trkpt>
<trkpt lat="53.215726" lon="-1.989825"><ele>371</ele><time>2022-11-25T10:44:50Z</time><name>PT507</name></trkpt>
<trkpt lat="53.215679" lon="-1.989799"><ele>372</ele><time>2022-11-25T10:44:55Z</time><name>PT508</name></trkpt>
<trkpt lat="53.215637" lon="-1.989767"><ele>371</ele><time>2022-11-25T10:44:59Z</time><name>PT509</name></trkpt>
<trkpt lat="53.215603" lon="-1.989744"><ele>371</ele><time>2022-11-25T10:45:02Z</time><name>PT510</name></trkpt>
<trkpt lat="53.215576" lon="-1.989717"><ele>371</ele><time>2022-11-25T10:45:05Z</time><name>PT511</name></trkpt>
<trkpt lat="53.215546" lon="-1.989679"><ele>370</ele><time>2022-11-25T10:45:08Z</time><name>PT512</name></trkpt>
<trkpt lat="53.215525" lon="-1.989644"><ele>370</ele><time>2022-11-25T10:45:11Z</time><name>PT513</name></trkpt>
<trkpt lat="53.215496" lon="-1.989609"><ele>370</ele><time>2022-11-25T10:45:16Z</time><name>PT514</name></trkpt>
<trkpt lat="53.215469" lon="-1.989573"><ele>369</ele><time>2022-11-25T10:45:19Z</time><name>PT515</name></trkpt>
<trkpt lat="53.215450" lon="-1.989542"><ele>369</ele><time>2022-11-25T10:45:22Z</time><name>PT516</name></trkpt>
<trkpt lat="53.215416" lon="-1.989498"><ele>368</ele><time>2022-11-25T10:45:26Z</time><name>PT517</name></trkpt>
<trkpt lat="53.215378" lon="-1.989439"><ele>369</ele><time>2022-11-25T10:45:29Z</time><name>PT518</name></trkpt>
<trkpt lat="53.215355" lon="-1.989399"><ele>368</ele><time>2022-11-25T10:45:32Z</time><name>PT519</name></trkpt>
<trkpt lat="53.215330" lon="-1.989352"><ele>368</ele><time>2022-11-25T10:45:35Z</time><name>PT520</name></trkpt>
<trkpt lat="53.215301" lon="-1.989305"><ele>368</ele><time>2022-11-25T10:45:40Z</time><name>PT521</name></trkpt>
<trkpt lat="53.215267" lon="-1.989244"><ele>367</ele><time>2022-11-25T10:45:44Z</time><name>PT522</name></trkpt>
<trkpt lat="53.215241" lon="-1.989208"><ele>367</ele><time>2022-11-25T10:45:47Z</time><name>PT523</name></trkpt>
<trkpt lat="53.215202" lon="-1.989151"><ele>367</ele><time>2022-11-25T10:45:50Z</time><name>PT524</name></trkpt>
<trkpt lat="53.215175" lon="-1.989122"><ele>367</ele><time>2022-11-25T10:45:53Z</time><name>PT525</name></trkpt>
<trkpt lat="53.215134" lon="-1.989069"><ele>367</ele><time>2022-11-25T10:45:58Z</time><name>PT526</name></trkpt>
<trkpt lat="53.215102" lon="-1.989034"><ele>367</ele><time>2022-11-25T10:46:01Z</time><name>PT527</name></trkpt>
<trkpt lat="53.215065" lon="-1.988990"><ele>368</ele><time>2022-11-25T10:46:05Z</time><name>PT528</name></trkpt>
<trkpt lat="53.215042" lon="-1.988966"><ele>367</ele><time>2022-11-25T10:46:08Z</time><name>PT529</name></trkpt>
<trkpt lat="53.215021" lon="-1.988923"><ele>366</ele><time>2022-11-25T10:46:11Z</time><name>PT530</name></trkpt>
<trkpt lat="53.214995" lon="-1.988895"><ele>366</ele><time>2022-11-25T10:46:14Z</time><name>PT531</name></trkpt>
<trkpt lat="53.214972" lon="-1.988844"><ele>365</ele><time>2022-11-25T10:46:17Z</time><name>PT532</name></trkpt>
<trkpt lat="53.214959" lon="-1.988811"><ele>364</ele><time>2022-11-25T10:46:20Z</time><name>PT533</name></trkpt>
<trkpt lat="53.214939" lon="-1.988781"><ele>364</ele><time>2022-11-25T10:46:25Z</time><name>PT534</name></trkpt>
<trkpt lat="53.214912" lon="-1.988734"><ele>364</ele><time>2022-11-25T10:46:29Z</time><name>PT535</name></trkpt>
<trkpt lat="53.214888" lon="-1.988690"><ele>364</ele><time>2022-11-25T10:46:32Z</time><name>PT536</name></trkpt>
<trkpt lat="53.214867" lon="-1.988648"><ele>364</ele><time>2022-11-25T10:46:35Z</time><name>PT537</name></trkpt>
<trkpt lat="53.214847" lon="-1.988610"><ele>363</ele><time>2022-11-25T10:46:38Z</time><name>PT538</name></trkpt>
<trkpt lat="53.214821" lon="-1.988563"><ele>364</ele><time>2022-11-25T10:46:41Z</time><name>PT539</name></trkpt>
<trkpt lat="53.214790" lon="-1.988536"><ele>363</ele><time>2022-11-25T10:46:46Z</time><name>PT540</name></trkpt>
<trkpt lat="53.214761" lon="-1.988503"><ele>363</ele><time>2022-11-25T10:46:49Z</time><name>PT541</name></trkpt>
<trkpt lat="53.214739" lon="-1.988466"><ele>361</ele><time>2022-11-25T10:46:53Z</time><name>PT542</name></trkpt>
<trkpt lat="53.214716" lon="-1.988421"><ele>361</ele><time>2022-11-25T10:46:56Z</time><name>PT543</name></trkpt>
<trkpt lat="53.214699" lon="-1.988387"><ele>360</ele><time>2022-11-25T10:46:59Z</time><name>PT544</name></trkpt>
<trkpt lat="53.214677" lon="-1.988339"><ele>360</ele><time>2022-11-25T10:47:04Z</time><name>PT545</name></trkpt>
<trkpt lat="53.214647" lon="-1.988287"><ele>360</ele><time>2022-11-25T10:47:08Z</time><name>PT546</name></trkpt>
<trkpt lat="53.214613" lon="-1.988238"><ele>361</ele><time>2022-11-25T10:47:11Z</time><name>PT547</name></trkpt>
<trkpt lat="53.214589" lon="-1.988204"><ele>360</ele><time>2022-11-25T10:47:14Z</time><name>PT548</name></trkpt>
<trkpt lat="53.214555" lon="-1.988158"><ele>359</ele><time>2022-11-25T10:47:19Z</time><name>PT549</name></trkpt>
<trkpt lat="53.214528" lon="-1.988120"><ele>357</ele><time>2022-11-25T10:47:23Z</time><name>PT550</name></trkpt>
<trkpt lat="53.214496" lon="-1.988087"><ele>357</ele><time>2022-11-25T10:47:26Z</time><name>PT551</name></trkpt>
<trkpt lat="53.214462" lon="-1.988048"><ele>357</ele><time>2022-11-25T10:47:31Z</time><name>PT552</name></trkpt>
<trkpt lat="53.214431" lon="-1.988006"><ele>358</ele><time>2022-11-25T10:47:34Z</time><name>PT553</name></trkpt>
<trkpt lat="53.214403" lon="-1.987959"><ele>357</ele><time>2022-11-25T10:47:38Z</time><name>PT554</name></trkpt>
<trkpt lat="53.214377" lon="-1.987935"><ele>358</ele><time>2022-11-25T10:47:41Z</time><name>PT555</name></trkpt>
<trkpt lat="53.214347" lon="-1.987896"><ele>357</ele><time>2022-11-25T10:47:44Z</time><name>PT556</name></trkpt>
<trkpt lat="53.214309" lon="-1.987865"><ele>357</ele><time>2022-11-25T10:47:49Z</time><name>PT557</name></trkpt>
<trkpt lat="53.214269" lon="-1.987846"><ele>356</ele><time>2022-11-25T10:47:53Z</time><name>PT558</name></trkpt>
<trkpt lat="53.214230" lon="-1.987823"><ele>355</ele><time>2022-11-25T10:47:56Z</time><name>PT559</name></trkpt>
<trkpt lat="53.214194" lon="-1.987797"><ele>355</ele><time>2022-11-25T10:48:01Z</time><name>PT560</name></trkpt>
<trkpt lat="53.214168" lon="-1.987790"><ele>354</ele><time>2022-11-25T10:48:04Z</time><name>PT561</name></trkpt>
<trkpt lat="53.214139" lon="-1.987778"><ele>355</ele><time>2022-11-25T10:48:07Z</time><name>PT562</name></trkpt>
<trkpt lat="53.214103" lon="-1.987756"><ele>355</ele><time>2022-11-25T10:48:11Z</time><name>PT563</name></trkpt>
<trkpt lat="53.214077" lon="-1.987738"><ele>355</ele><time>2022-11-25T10:48:14Z</time><name>PT564</name></trkpt>
<trkpt lat="53.214038" lon="-1.987713"><ele>355</ele><time>2022-11-25T10:48:17Z</time><name>PT565</name></trkpt>
<trkpt lat="53.214002" lon="-1.987690"><ele>355</ele><time>2022-11-25T10:48:22Z</time><name>PT566</name></trkpt>
<trkpt lat="53.213976" lon="-1.987668"><ele>354</ele><time>2022-11-25T10:48:25Z</time><name>PT567</name></trkpt>
<trkpt lat="53.213940" lon="-1.987629"><ele>355</ele><time>2022-11-25T10:48:29Z</time><name>PT568</name></trkpt>
<trkpt lat="53.213924" lon="-1.987584"><ele>355</ele><time>2022-11-25T10:48:32Z</time><name>PT569</name></trkpt>
<trkpt lat="53.213928" lon="-1.987526"><ele>359</ele><time>2022-11-25T10:48:35Z</time><name>PT570</name></trkpt>
<trkpt lat="53.213944" lon="-1.987486"><ele>359</ele><time>2022-11-25T10:48:40Z</time><name>PT571</name></trkpt>
<trkpt lat="53.213938" lon="-1.987479"><ele>357</ele><time>2022-11-25T10:48:43Z</time><name>PT572</name></trkpt>
<trkpt lat="53.213937" lon="-1.987480"><ele>357</ele><time>2022-11-25T10:48:47Z</time><name>PT573</name></trkpt>
<trkpt lat="53.213940" lon="-1.987446"><ele>356</ele><time>2022-11-25T10:48:59Z</time><name>PT574</name></trkpt>
<trkpt lat="53.213931" lon="-1.987401"><ele>356</ele><time>2022-11-25T10:49:02Z</time><name>PT575</name></trkpt>
<trkpt lat="53.213912" lon="-1.987357"><ele>354</ele><time>2022-11-25T10:49:05Z</time><name>PT576</name></trkpt>
<trkpt lat="53.213904" lon="-1.987341"><ele>354</ele><time>2022-11-25T10:49:10Z</time><name>PT577</name></trkpt>
<trkpt lat="53.213904" lon="-1.987340"><ele>354</ele><time>2022-11-25T10:49:13Z</time><name>PT578</name></trkpt>
<trkpt lat="53.213894" lon="-1.987328"><ele>353</ele><time>2022-11-25T10:49:28Z</time><name>PT579</name></trkpt>
<trkpt lat="53.213882" lon="-1.987329"><ele>354</ele><time>2022-11-25T10:49:31Z</time><name>PT580</name></trkpt>
<trkpt lat="53.213878" lon="-1.987334"><ele>354</ele><time>2022-11-25T10:49:44Z</time><name>PT581</name></trkpt>
<trkpt lat="53.213865" lon="-1.987319"><ele>354</ele><time>2022-11-25T10:49:47Z</time><name>PT582</name></trkpt>
<trkpt lat="53.213848" lon="-1.987309"><ele>354</ele><time>2022-11-25T10:49:52Z</time><name>PT583</name></trkpt>
<trkpt lat="53.213825" lon="-1.987291"><ele>353</ele><time>2022-11-25T10:49:56Z</time><name>PT584</name></trkpt>
<trkpt lat="53.213824" lon="-1.987289"><ele>353</ele><time>2022-11-25T10:49:59Z</time><name>PT585</name></trkpt>
<trkpt lat="53.213821" lon="-1.987283"><ele>352</ele><time>2022-11-25T10:50:02Z</time><name>PT586</name></trkpt>
<trkpt lat="53.213812" lon="-1.987271"><ele>351</ele><time>2022-11-25T10:50:26Z</time><name>PT587</name></trkpt>
<trkpt lat="53.213815" lon="-1.987266"><ele>351</ele><time>2022-11-25T10:50:29Z</time><name>PT588</name></trkpt>
<trkpt lat="53.213818" lon="-1.987256"><ele>351</ele><time>2022-11-25T10:50:32Z</time><name>PT589</name></trkpt>
<trkpt lat="53.213815" lon="-1.987238"><ele>351</ele><time>2022-11-25T10:50:35Z</time><name>PT590</name></trkpt>
<trkpt lat="53.213810" lon="-1.987220"><ele>352</ele><time>2022-11-25T10:50:58Z</time><name>PT591</name></trkpt>
<trkpt lat="53.213813" lon="-1.987219"><ele>353</ele><time>2022-11-25T10:52:52Z</time><name>PT592</name></trkpt>
<trkpt lat="53.213811" lon="-1.987205"><ele>353</ele><time>2022-11-25T10:52:55Z</time><name>PT593</name></trkpt>
<trkpt lat="53.213815" lon="-1.987196"><ele>354</ele><time>2022-11-25T10:55:14Z</time><name>PT594</name></trkpt>
<trkpt lat="53.213815" lon="-1.987177"><ele>355</ele><time>2022-11-25T10:55:17Z</time><name>PT595</name></trkpt>
<trkpt lat="53.213815" lon="-1.987172"><ele>355</ele><time>2022-11-25T10:55:20Z</time><name>PT596</name></trkpt>
<trkpt lat="53.213814" lon="-1.987169"><ele>355</ele><time>2022-11-25T10:56:02Z</time><name>PT597</name></trkpt>
<trkpt lat="53.213810" lon="-1.987175"><ele>355</ele><time>2022-11-25T10:56:07Z</time><name>PT598</name></trkpt>
<trkpt lat="53.213811" lon="-1.987176"><ele>356</ele><time>2022-11-25T10:56:10Z</time><name>PT599</name></trkpt>
<trkpt lat="53.213813" lon="-1.987173"><ele>356</ele><time>2022-11-25T10:56:16Z</time><name>PT600</name></trkpt>
<trkpt lat="53.213791" lon="-1.987125"><ele>356</ele><time>2022-11-25T10:56:20Z</time><name>PT601</name></trkpt>
<trkpt lat="53.213805" lon="-1.987132"><ele>354</ele><time>2022-11-25T10:56:23Z</time><name>PT602</name></trkpt>
<trkpt lat="53.213813" lon="-1.987133"><ele>355</ele><time>2022-11-25T10:58:01Z</time><name>PT603</name></trkpt>
<trkpt lat="53.213825" lon="-1.987274"><ele>355</ele><time>2022-11-25T10:58:05Z</time><name>PT604</name></trkpt>
<trkpt lat="53.213822" lon="-1.987289"><ele>354</ele><time>2022-11-25T10:58:08Z</time><name>PT605</name></trkpt>
<trkpt lat="53.213822" lon="-1.987267"><ele>352</ele><time>2022-11-25T10:58:49Z</time><name>PT606</name></trkpt>
<trkpt lat="53.213831" lon="-1.987270"><ele>351</ele><time>2022-11-25T10:58:52Z</time><name>PT607</name></trkpt>
<trkpt lat="53.213841" lon="-1.987264"><ele>351</ele><time>2022-11-25T10:58:55Z</time><name>PT608</name></trkpt>
<trkpt lat="53.213851" lon="-1.987273"><ele>351</ele><time>2022-11-25T10:58:59Z</time><name>PT609</name></trkpt>
<trkpt lat="53.213846" lon="-1.987286"><ele>351</ele><time>2022-11-25T10:59:05Z</time><name>PT610</name></trkpt>
<trkpt lat="53.213846" lon="-1.987300"><ele>352</ele><time>2022-11-25T10:59:08Z</time><name>PT611</name></trkpt>
<trkpt lat="53.213835" lon="-1.987319"><ele>352</ele><time>2022-11-25T10:59:13Z</time><name>PT612</name></trkpt>
<trkpt lat="53.213838" lon="-1.987332"><ele>351</ele><time>2022-11-25T10:59:17Z</time><name>PT613</name></trkpt>
<trkpt lat="53.213857" lon="-1.987337"><ele>349</ele><time>2022-11-25T10:59:41Z</time><name>PT614</name></trkpt>
<trkpt lat="53.213883" lon="-1.987363"><ele>348</ele><time>2022-11-25T10:59:46Z</time><name>PT615</name></trkpt>
<trkpt lat="53.213889" lon="-1.987373"><ele>348</ele><time>2022-11-25T10:59:49Z</time><name>PT616</name></trkpt>
<trkpt lat="53.213899" lon="-1.987393"><ele>347</ele><time>2022-11-25T10:59:56Z</time><name>PT617</name></trkpt>
<trkpt lat="53.213912" lon="-1.987413"><ele>346</ele><time>2022-11-25T10:59:59Z</time><name>PT618</name></trkpt>
<trkpt lat="53.213912" lon="-1.987416"><ele>346</ele><time>2022-11-25T11:00:02Z</time><name>PT619</name></trkpt>
<trkpt lat="53.213911" lon="-1.987425"><ele>345</ele><time>2022-11-25T11:00:07Z</time><name>PT620</name></trkpt>
<trkpt lat="53.213912" lon="-1.987425"><ele>345</ele><time>2022-11-25T11:00:10Z</time><name>PT621</name></trkpt>
<trkpt lat="53.213911" lon="-1.987435"><ele>345</ele><time>2022-11-25T11:00:26Z</time><name>PT622</name></trkpt>
<trkpt lat="53.213917" lon="-1.987466"><ele>346</ele><time>2022-11-25T11:00:31Z</time><name>PT623</name></trkpt>
<trkpt lat="53.213905" lon="-1.987455"><ele>346</ele><time>2022-11-25T11:00:47Z</time><name>PT624</name></trkpt>
<trkpt lat="53.213888" lon="-1.987433"><ele>346</ele><time>2022-11-25T11:00:50Z</time><name>PT625</name></trkpt>
<trkpt lat="53.213870" lon="-1.987388"><ele>349</ele><time>2022-11-25T11:00:53Z</time><name>PT626</name></trkpt>
<trkpt lat="53.213853" lon="-1.987352"><ele>349</ele><time>2022-11-25T11:00:56Z</time><name>PT627</name></trkpt>
<trkpt lat="53.213839" lon="-1.987362"><ele>349</ele><time>2022-11-25T11:00:59Z</time><name>PT628</name></trkpt>
<trkpt lat="53.213849" lon="-1.987360"><ele>349</ele><time>2022-11-25T11:01:02Z</time><name>PT629</name></trkpt>
<trkpt lat="53.213873" lon="-1.987303"><ele>349</ele><time>2022-11-25T11:02:41Z</time><name>PT630</name></trkpt>
<trkpt lat="53.213907" lon="-1.987266"><ele>348</ele><time>2022-11-25T11:02:44Z</time><name>PT631</name></trkpt>
<trkpt lat="53.213919" lon="-1.987271"><ele>349</ele><time>2022-11-25T11:02:47Z</time><name>PT632</name></trkpt>
<trkpt lat="53.213934" lon="-1.987261"><ele>350</ele><time>2022-11-25T11:02:52Z</time><name>PT633</name></trkpt>
<trkpt lat="53.213941" lon="-1.987256"><ele>350</ele><time>2022-11-25T11:02:58Z</time><name>PT634</name></trkpt>
<trkpt lat="53.213945" lon="-1.987259"><ele>350</ele><time>2022-11-25T11:03:01Z</time><name>PT635</name></trkpt>
<trkpt lat="53.213946" lon="-1.987249"><ele>350</ele><time>2022-11-25T11:03:05Z</time><name>PT636</name></trkpt>
<trkpt lat="53.213964" lon="-1.987237"><ele>350</ele><time>2022-11-25T11:03:08Z</time><name>PT637</name></trkpt>
<trkpt lat="53.213967" lon="-1.987234"><ele>350</ele><time>2022-11-25T11:03:13Z</time><name>PT638</name></trkpt>
<trkpt lat="53.213969" lon="-1.987187"><ele>350</ele><time>2022-11-25T11:03:17Z</time><name>PT639</name></trkpt>
<trkpt lat="53.213973" lon="-1.987141"><ele>349</ele><time>2022-11-25T11:03:20Z</time><name>PT640</name></trkpt>
<trkpt lat="53.213989" lon="-1.987086"><ele>347</ele><time>2022-11-25T11:03:23Z</time><name>PT641</name></trkpt>
<trkpt lat="53.214007" lon="-1.987057"><ele>348</ele><time>2022-11-25T11:03:26Z</time><name>PT642</name></trkpt>
<trkpt lat="53.214023" lon="-1.986999"><ele>351</ele><time>2022-11-25T11:03:31Z</time><name>PT643</name></trkpt>
<trkpt lat="53.214031" lon="-1.986955"><ele>351</ele><time>2022-11-25T11:03:34Z</time><name>PT644</name></trkpt>
<trkpt lat="53.214044" lon="-1.986911"><ele>351</ele><time>2022-11-25T11:03:37Z</time><name>PT645</name></trkpt>
<trkpt lat="53.214070" lon="-1.986866"><ele>353</ele><time>2022-11-25T11:03:41Z</time><name>PT646</name></trkpt>
<trkpt lat="53.214093" lon="-1.986811"><ele>353</ele><time>2022-11-25T11:03:44Z</time><name>PT647</name></trkpt>
<trkpt lat="53.214108" lon="-1.986781"><ele>354</ele><time>2022-11-25T11:03:47Z</time><name>PT648</name></trkpt>
<trkpt lat="53.214124" lon="-1.986751"><ele>354</ele><time>2022-11-25T11:03:50Z</time><name>PT649</name></trkpt>
<trkpt lat="53.214146" lon="-1.986723"><ele>356</ele><time>2022-11-25T11:03:53Z</time><name>PT650</name></trkpt>
<trkpt lat="53.214159" lon="-1.986694"><ele>356</ele><time>2022-11-25T11:03:56Z</time><name>PT651</name></trkpt>
<trkpt lat="53.214178" lon="-1.986644"><ele>356</ele><time>2022-11-25T11:04:01Z</time><name>PT652</name></trkpt>
<trkpt lat="53.214190" lon="-1.986614"><ele>356</ele><time>2022-11-25T11:04:04Z</time><name>PT653</name></trkpt>
<trkpt lat="53.214201" lon="-1.986572"><ele>356</ele><time>2022-11-25T11:04:08Z</time><name>PT654</name></trkpt>
<trkpt lat="53.214217" lon="-1.986541"><ele>355</ele><time>2022-11-25T11:04:11Z</time><name>PT655</name></trkpt>
<trkpt lat="53.214233" lon="-1.986505"><ele>356</ele><time>2022-11-25T11:04:14Z</time><name>PT656</name></trkpt>
<trkpt lat="53.214242" lon="-1.986466"><ele>358</ele><time>2022-11-25T11:04:19Z</time><name>PT657</name></trkpt>
<trkpt lat="53.214251" lon="-1.986444"><ele>358</ele><time>2022-11-25T11:04:23Z</time><name>PT658</name></trkpt>
<trkpt lat="53.214265" lon="-1.986408"><ele>359</ele><time>2022-11-25T11:04:26Z</time><name>PT659</name></trkpt>
<trkpt lat="53.214276" lon="-1.986377"><ele>360</ele><time>2022-11-25T11:04:31Z</time><name>PT660</name></trkpt>
<trkpt lat="53.214294" lon="-1.986330"><ele>360</ele><time>2022-11-25T11:04:35Z</time><name>PT661</name></trkpt>
<trkpt lat="53.214301" lon="-1.986306"><ele>360</ele><time>2022-11-25T11:04:38Z</time><name>PT662</name></trkpt>
<trkpt lat="53.214305" lon="-1.986279"><ele>361</ele><time>2022-11-25T11:04:41Z</time><name>PT663</name></trkpt>
<trkpt lat="53.214314" lon="-1.986250"><ele>361</ele><time>2022-11-25T11:04:44Z</time><name>PT664</name></trkpt>
<trkpt lat="53.214316" lon="-1.986216"><ele>362</ele><time>2022-11-25T11:04:47Z</time><name>PT665</name></trkpt>
<trkpt lat="53.214322" lon="-1.986169"><ele>364</ele><time>2022-11-25T11:04:52Z</time><name>PT666</name></trkpt>
<trkpt lat="53.214319" lon="-1.986131"><ele>363</ele><time>2022-11-25T11:04:56Z</time><name>PT667</name></trkpt>
<trkpt lat="53.214333" lon="-1.986105"><ele>363</ele><time>2022-11-25T11:04:59Z</time><name>PT668</name></trkpt>
<trkpt lat="53.214337" lon="-1.986075"><ele>363</ele><time>2022-11-25T11:05:02Z</time><name>PT669</name></trkpt>
<trkpt lat="53.214345" lon="-1.986041"><ele>362</ele><time>2022-11-25T11:05:05Z</time><name>PT670</name></trkpt>
<trkpt lat="53.214361" lon="-1.986006"><ele>361</ele><time>2022-11-25T11:05:10Z</time><name>PT671</name></trkpt>
<trkpt lat="53.214374" lon="-1.985986"><ele>362</ele><time>2022-11-25T11:05:13Z</time><name>PT672</name></trkpt>
<trkpt lat="53.214383" lon="-1.985956"><ele>361</ele><time>2022-11-25T11:05:17Z</time><name>PT673</name></trkpt>
<trkpt lat="53.214402" lon="-1.985922"><ele>363</ele><time>2022-11-25T11:05:20Z</time><name>PT674</name></trkpt>
<trkpt lat="53.214425" lon="-1.985900"><ele>363</ele><time>2022-11-25T11:05:23Z</time><name>PT675</name></trkpt>
<trkpt lat="53.214448" lon="-1.985854"><ele>365</ele><time>2022-11-25T11:05:28Z</time><name>PT676</name></trkpt>
<trkpt lat="53.214460" lon="-1.985832"><ele>366</ele><time>2022-11-25T11:05:31Z</time><name>PT677</name></trkpt>
<trkpt lat="53.214472" lon="-1.985796"><ele>368</ele><time>2022-11-25T11:05:35Z</time><name>PT678</name></trkpt>
<trkpt lat="53.214468" lon="-1.985756"><ele>369</ele><time>2022-11-25T11:05:38Z</time><name>PT679</name></trkpt>
<trkpt lat="53.214478" lon="-1.985721"><ele>369</ele><time>2022-11-25T11:05:43Z</time><name>PT680</name></trkpt>
<trkpt lat="53.214480" lon="-1.985683"><ele>369</ele><time>2022-11-25T11:05:46Z</time><name>PT681</name></trkpt>
<trkpt lat="53.214485" lon="-1.985647"><ele>370</ele><time>2022-11-25T11:05:49Z</time><name>PT682</name></trkpt>
<trkpt lat="53.214497" lon="-1.985593"><ele>371</ele><time>2022-11-25T11:05:53Z</time><name>PT683</name></trkpt>
<trkpt lat="53.214505" lon="-1.985553"><ele>371</ele><time>2022-11-25T11:05:56Z</time><name>PT684</name></trkpt>
<trkpt lat="53.214523" lon="-1.985513"><ele>370</ele><time>2022-11-25T11:05:59Z</time><name>PT685</name></trkpt>
<trkpt lat="53.214516" lon="-1.985468"><ele>371</ele><time>2022-11-25T11:06:04Z</time><name>PT686</name></trkpt>
<trkpt lat="53.214525" lon="-1.985422"><ele>371</ele><time>2022-11-25T11:06:08Z</time><name>PT687</name></trkpt>
<trkpt lat="53.214527" lon="-1.985408"><ele>371</ele><time>2022-11-25T11:06:11Z</time><name>PT688</name></trkpt>
<trkpt lat="53.214543" lon="-1.985347"><ele>369</ele><time>2022-11-25T11:06:14Z</time><name>PT689</name></trkpt>
<trkpt lat="53.214563" lon="-1.985279"><ele>369</ele><time>2022-11-25T11:06:17Z</time><name>PT690</name></trkpt>
<trkpt lat="53.214564" lon="-1.985228"><ele>368</ele><time>2022-11-25T11:06:22Z</time><name>PT691</name></trkpt>
<trkpt lat="53.214568" lon="-1.985206"><ele>369</ele><time>2022-11-25T11:06:26Z</time><name>PT692</name></trkpt>
<trkpt lat="53.214567" lon="-1.985173"><ele>369</ele><time>2022-11-25T11:06:32Z</time><name>PT693</name></trkpt>
<trkpt lat="53.214585" lon="-1.985102"><ele>369</ele><time>2022-11-25T11:06:35Z</time><name>PT694</name></trkpt>
<trkpt lat="53.214590" lon="-1.985038"><ele>369</ele><time>2022-11-25T11:06:38Z</time><name>PT695</name></trkpt>
<trkpt lat="53.214595" lon="-1.984976"><ele>368</ele><time>2022-11-25T11:06:43Z</time><name>PT696</name></trkpt>
<trkpt lat="53.214604" lon="-1.984915"><ele>368</ele><time>2022-11-25T11:06:47Z</time><name>PT697</name></trkpt>
<trkpt lat="53.214613" lon="-1.984862"><ele>368</ele><time>2022-11-25T11:06:50Z</time><name>PT698</name></trkpt>
<trkpt lat="53.214623" lon="-1.984808"><ele>367</ele><time>2022-11-25T11:06:55Z</time><name>PT699</name></trkpt>
<trkpt lat="53.214629" lon="-1.984774"><ele>368</ele><time>2022-11-25T11:06:58Z</time><name>PT700</name></trkpt>
<trkpt lat="53.214636" lon="-1.984720"><ele>367</ele><time>2022-11-25T11:07:02Z</time><name>PT701</name></trkpt>
<trkpt lat="53.214642" lon="-1.984683"><ele>367</ele><time>2022-11-25T11:07:05Z</time><name>PT702</name></trkpt>
<trkpt lat="53.214648" lon="-1.984646"><ele>367</ele><time>2022-11-25T11:07:08Z</time><name>PT703</name></trkpt>
<trkpt lat="53.214649" lon="-1.984591"><ele>368</ele><time>2022-11-25T11:07:11Z</time><name>PT704</name></trkpt>
<trkpt lat="53.214650" lon="-1.984520"><ele>369</ele><time>2022-11-25T11:07:14Z</time><name>PT705</name></trkpt>
<trkpt lat="53.214652" lon="-1.984469"><ele>369</ele><time>2022-11-25T11:07:17Z</time><name>PT706</name></trkpt>
<trkpt lat="53.214647" lon="-1.984419"><ele>369</ele><time>2022-11-25T11:07:20Z</time><name>PT707</name></trkpt>
<trkpt lat="53.214649" lon="-1.984350"><ele>370</ele><time>2022-11-25T11:07:25Z</time><name>PT708</name></trkpt>
<trkpt lat="53.214649" lon="-1.984277"><ele>369</ele><time>2022-11-25T11:07:29Z</time><name>PT709</name></trkpt>
<trkpt lat="53.214652" lon="-1.984203"><ele>369</ele><time>2022-11-25T11:07:32Z</time><name>PT710</name></trkpt>
<trkpt lat="53.214652" lon="-1.984145"><ele>369</ele><time>2022-11-25T11:07:35Z</time><name>PT711</name></trkpt>
<trkpt lat="53.214647" lon="-1.984082"><ele>367</ele><time>2022-11-25T11:07:40Z</time><name>PT712</name></trkpt>
<trkpt lat="53.214651" lon="-1.984025"><ele>368</ele><time>2022-11-25T11:07:43Z</time><name>PT713</name></trkpt>
<trkpt lat="53.214651" lon="-1.983947"><ele>368</ele><time>2022-11-25T11:07:47Z</time><name>PT714</name></trkpt>
<trkpt lat="53.214657" lon="-1.983884"><ele>369</ele><time>2022-11-25T11:07:50Z</time><name>PT715</name></trkpt>
<trkpt lat="53.214663" lon="-1.983823"><ele>369</ele><time>2022-11-25T11:07:53Z</time><name>PT716</name></trkpt>
<trkpt lat="53.214650" lon="-1.983764"><ele>368</ele><time>2022-11-25T11:07:58Z</time><name>PT717</name></trkpt>
<trkpt lat="53.214640" lon="-1.983735"><ele>368</ele><time>2022-11-25T11:08:01Z</time><name>PT718</name></trkpt>
<trkpt lat="53.214632" lon="-1.983706"><ele>368</ele><time>2022-11-25T11:08:04Z</time><name>PT719</name></trkpt>
<trkpt lat="53.214621" lon="-1.983669"><ele>368</ele><time>2022-11-25T11:08:08Z</time><name>PT720</name></trkpt>
<trkpt lat="53.214613" lon="-1.983654"><ele>368</ele><time>2022-11-25T11:08:11Z</time><name>PT721</name></trkpt>
<trkpt lat="53.214598" lon="-1.983619"><ele>368</ele><time>2022-11-25T11:08:16Z</time><name>PT722</name></trkpt>
<trkpt lat="53.214586" lon="-1.983589"><ele>368</ele><time>2022-11-25T11:08:19Z</time><name>PT723</name></trkpt>
<trkpt lat="53.214566" lon="-1.983553"><ele>369</ele><time>2022-11-25T11:08:22Z</time><name>PT724</name></trkpt>
<trkpt lat="53.214534" lon="-1.983516"><ele>368</ele><time>2022-11-25T11:08:26Z</time><name>PT725</name></trkpt>
<trkpt lat="53.214512" lon="-1.983494"><ele>369</ele><time>2022-11-25T11:08:29Z</time><name>PT726</name></trkpt>
<trkpt lat="53.214484" lon="-1.983467"><ele>370</ele><time>2022-11-25T11:08:32Z</time><name>PT727</name></trkpt>
<trkpt lat="53.214452" lon="-1.983439"><ele>371</ele><time>2022-11-25T11:08:37Z</time><name>PT728</name></trkpt>
<trkpt lat="53.214424" lon="-1.983420"><ele>372</ele><time>2022-11-25T11:08:40Z</time><name>PT729</name></trkpt>
<trkpt lat="53.214395" lon="-1.983402"><ele>373</ele><time>2022-11-25T11:08:44Z</time><name>PT730</name></trkpt>
<trkpt lat="53.214376" lon="-1.983399"><ele>373</ele><time>2022-11-25T11:08:47Z</time><name>PT731</name></trkpt>
<trkpt lat="53.214352" lon="-1.983374"><ele>373</ele><time>2022-11-25T11:08:50Z</time><name>PT732</name></trkpt>
<trkpt lat="53.214319" lon="-1.983347"><ele>373</ele><time>2022-11-25T11:08:55Z</time><name>PT733</name></trkpt>
<trkpt lat="53.214280" lon="-1.983323"><ele>375</ele><time>2022-11-25T11:08:59Z</time><name>PT734</name></trkpt>
<trkpt lat="53.214257" lon="-1.983306"><ele>375</ele><time>2022-11-25T11:09:02Z</time><name>PT735</name></trkpt>
<trkpt lat="53.214227" lon="-1.983292"><ele>376</ele><time>2022-11-25T11:09:05Z</time><name>PT736</name></trkpt>
<trkpt lat="53.214192" lon="-1.983279"><ele>376</ele><time>2022-11-25T11:09:08Z</time><name>PT737</name></trkpt>
<trkpt lat="53.214164" lon="-1.983266"><ele>376</ele><time>2022-11-25T11:09:11Z</time><name>PT738</name></trkpt>
<trkpt lat="53.214135" lon="-1.983246"><ele>377</ele><time>2022-11-25T11:09:14Z</time><name>PT739</name></trkpt>
<trkpt lat="53.214107" lon="-1.983228"><ele>377</ele><time>2022-11-25T11:09:17Z</time><name>PT740</name></trkpt>
<trkpt lat="53.214073" lon="-1.983207"><ele>377</ele><time>2022-11-25T11:09:22Z</time><name>PT741</name></trkpt>
<trkpt lat="53.214046" lon="-1.983189"><ele>378</ele><time>2022-11-25T11:09:25Z</time><name>PT742</name></trkpt>
<trkpt lat="53.214021" lon="-1.983161"><ele>378</ele><time>2022-11-25T11:09:29Z</time><name>PT743</name></trkpt>
<trkpt lat="53.214000" lon="-1.983133"><ele>378</ele><time>2022-11-25T11:09:32Z</time><name>PT744</name></trkpt>
<trkpt lat="53.213977" lon="-1.983092"><ele>379</ele><time>2022-11-25T11:09:35Z</time><name>PT745</name></trkpt>
<trkpt lat="53.213956" lon="-1.983059"><ele>378</ele><time>2022-11-25T11:09:40Z</time><name>PT746</name></trkpt>
<trkpt lat="53.213943" lon="-1.983034"><ele>379</ele><time>2022-11-25T11:09:43Z</time><name>PT747</name></trkpt>
<trkpt lat="53.213924" lon="-1.982997"><ele>379</ele><time>2022-11-25T11:09:47Z</time><name>PT748</name></trkpt>
<trkpt lat="53.213914" lon="-1.982970"><ele>379</ele><time>2022-11-25T11:09:50Z</time><name>PT749</name></trkpt>
<trkpt lat="53.213898" lon="-1.982927"><ele>380</ele><time>2022-11-25T11:09:53Z</time><name>PT750</name></trkpt>
<trkpt lat="53.213880" lon="-1.982888"><ele>380</ele><time>2022-11-25T11:09:58Z</time><name>PT751</name></trkpt>
<trkpt lat="53.213877" lon="-1.982869"><ele>380</ele><time>2022-11-25T11:10:01Z</time><name>PT752</name></trkpt>
<trkpt lat="53.213872" lon="-1.982860"><ele>380</ele><time>2022-11-25T11:10:05Z</time><name>PT753</name></trkpt>
<trkpt lat="53.213845" lon="-1.982812"><ele>381</ele><time>2022-11-25T11:10:11Z</time><name>PT754</name></trkpt>
<trkpt lat="53.213805" lon="-1.982761"><ele>380</ele><time>2022-11-25T11:10:16Z</time><name>PT755</name></trkpt>
<trkpt lat="53.213786" lon="-1.982727"><ele>381</ele><time>2022-11-25T11:10:19Z</time><name>PT756</name></trkpt>
<trkpt lat="53.213767" lon="-1.982692"><ele>380</ele><time>2022-11-25T11:10:23Z</time><name>PT757</name></trkpt>
<trkpt lat="53.213753" lon="-1.982669"><ele>381</ele><time>2022-11-25T11:10:26Z</time><name>PT758</name></trkpt>
<trkpt lat="53.213729" lon="-1.982636"><ele>381</ele><time>2022-11-25T11:10:29Z</time><name>PT759</name></trkpt>
<trkpt lat="53.213708" lon="-1.982602"><ele>382</ele><time>2022-11-25T11:10:34Z</time><name>PT760</name></trkpt>
<trkpt lat="53.213684" lon="-1.982576"><ele>383</ele><time>2022-11-25T11:10:38Z</time><name>PT761</name></trkpt>
<trkpt lat="53.213666" lon="-1.982546"><ele>383</ele><time>2022-11-25T11:10:41Z</time><name>PT762</name></trkpt>
<trkpt lat="53.213642" lon="-1.982518"><ele>384</ele><time>2022-11-25T11:10:46Z</time><name>PT763</name></trkpt>
<trkpt lat="53.213621" lon="-1.982485"><ele>385</ele><time>2022-11-25T11:10:50Z</time><name>PT764</name></trkpt>
<trkpt lat="53.213601" lon="-1.982460"><ele>385</ele><time>2022-11-25T11:10:53Z</time><name>PT765</name></trkpt>
<trkpt lat="53.213582" lon="-1.982428"><ele>384</ele><time>2022-11-25T11:10:58Z</time><name>PT766</name></trkpt>
<trkpt lat="53.213571" lon="-1.982401"><ele>384</ele><time>2022-11-25T11:11:01Z</time><name>PT767</name></trkpt>
<trkpt lat="53.213549" lon="-1.982374"><ele>385</ele><time>2022-11-25T11:11:05Z</time><name>PT768</name></trkpt>
<trkpt lat="53.213532" lon="-1.982350"><ele>386</ele><time>2022-11-25T11:11:08Z</time><name>PT769</name></trkpt>
<trkpt lat="53.213514" lon="-1.982327"><ele>387</ele><time>2022-11-25T11:11:11Z</time><name>PT770</name></trkpt>
<trkpt lat="53.213493" lon="-1.982304"><ele>387</ele><time>2022-11-25T11:11:14Z</time><name>PT771</name></trkpt>
<trkpt lat="53.213469" lon="-1.982271"><ele>387</ele><time>2022-11-25T11:11:19Z</time><name>PT772</name></trkpt>
<trkpt lat="53.213447" lon="-1.982246"><ele>387</ele><time>2022-11-25T11:11:22Z</time><name>PT773</name></trkpt>
<trkpt lat="53.213421" lon="-1.982218"><ele>388</ele><time>2022-11-25T11:11:26Z</time><name>PT774</name></trkpt>
<trkpt lat="53.213407" lon="-1.982193"><ele>389</ele><time>2022-11-25T11:11:29Z</time><name>PT775</name></trkpt>
<trkpt lat="53.213385" lon="-1.982162"><ele>390</ele><time>2022-11-25T11:11:32Z</time><name>PT776</name></trkpt>
<trkpt lat="53.213360" lon="-1.982130"><ele>389</ele><time>2022-11-25T11:11:37Z</time><name>PT777</name></trkpt>
<trkpt lat="53.213346" lon="-1.982103"><ele>391</ele><time>2022-11-25T11:11:41Z</time><name>PT778</name></trkpt>
<trkpt lat="53.213325" lon="-1.982073"><ele>391</ele><time>2022-11-25T11:11:44Z</time><name>PT779</name></trkpt>
<trkpt lat="53.213297" lon="-1.982030"><ele>391</ele><time>2022-11-25T11:11:47Z</time><name>PT780</name></trkpt>
<trkpt lat="53.213274" lon="-1.982012"><ele>391</ele><time>2022-11-25T11:11:50Z</time><name>PT781</name></trkpt>
<trkpt lat="53.213251" lon="-1.981984"><ele>392</ele><time>2022-11-25T11:11:53Z</time><name>PT782</name></trkpt>
<trkpt lat="53.213218" lon="-1.981944"><ele>392</ele><time>2022-11-25T11:11:58Z</time><name>PT783</name></trkpt>
<trkpt lat="53.213183" lon="-1.981907"><ele>392</ele><time>2022-11-25T11:12:02Z</time><name>PT784</name></trkpt>
<trkpt lat="53.213158" lon="-1.981869"><ele>393</ele><time>2022-11-25T11:12:05Z</time><name>PT785</name></trkpt>
<trkpt lat="53.213134" lon="-1.981842"><ele>393</ele><time>2022-11-25T11:12:10Z</time><name>PT786</name></trkpt>
<trkpt lat="53.213118" lon="-1.981811"><ele>393</ele><time>2022-11-25T11:12:13Z</time><name>PT787</name></trkpt>
<trkpt lat="53.213099" lon="-1.981785"><ele>393</ele><time>2022-11-25T11:12:16Z</time><name>PT788</name></trkpt>
<trkpt lat="53.213081" lon="-1.981759"><ele>394</ele><time>2022-11-25T11:12:19Z</time><name>PT789</name></trkpt>
<trkpt lat="53.213056" lon="-1.981723"><ele>394</ele><time>2022-11-25T11:12:23Z</time><name>PT790</name></trkpt>
<trkpt lat="53.213025" lon="-1.981689"><ele>394</ele><time>2022-11-25T11:12:26Z</time><name>PT791</name></trkpt>
<trkpt lat="53.213005" lon="-1.981672"><ele>394</ele><time>2022-11-25T11:12:29Z</time><name>PT792</name></trkpt>
<trkpt lat="53.212987" lon="-1.981653"><ele>395</ele><time>2022-11-25T11:12:32Z</time><name>PT793</name></trkpt>
<trkpt lat="53.212957" lon="-1.981621"><ele>396</ele><time>2022-11-25T11:12:37Z</time><name>PT794</name></trkpt>
<trkpt lat="53.212931" lon="-1.981601"><ele>397</ele><time>2022-11-25T11:12:40Z</time><name>PT795</name></trkpt>
<trkpt lat="53.212895" lon="-1.981579"><ele>398</ele><time>2022-11-25T11:12:44Z</time><name>PT796</name></trkpt>
<trkpt lat="53.212858" lon="-1.981555"><ele>399</ele><time>2022-11-25T11:12:47Z</time><name>PT797</name></trkpt>
<trkpt lat="53.212828" lon="-1.981538"><ele>400</ele><time>2022-11-25T11:12:50Z</time><name>PT798</name></trkpt>
<trkpt lat="53.212801" lon="-1.981521"><ele>399</ele><time>2022-11-25T11:12:53Z</time><name>PT799</name></trkpt>
<trkpt lat="53.212767" lon="-1.981496"><ele>400</ele><time>2022-11-25T11:12:58Z</time><name>PT800</name></trkpt>
<trkpt lat="53.212742" lon="-1.981479"><ele>400</ele><time>2022-11-25T11:13:01Z</time><name>PT801</name></trkpt>
<trkpt lat="53.212707" lon="-1.981456"><ele>400</ele><time>2022-11-25T11:13:05Z</time><name>PT802</name></trkpt>
<trkpt lat="53.212676" lon="-1.981436"><ele>400</ele><time>2022-11-25T11:13:08Z</time><name>PT803</name></trkpt>
<trkpt lat="53.212653" lon="-1.981423"><ele>398</ele><time>2022-11-25T11:13:11Z</time><name>PT804</name></trkpt>
<trkpt lat="53.212619" lon="-1.981404"><ele>398</ele><time>2022-11-25T11:13:16Z</time><name>PT805</name></trkpt>
<trkpt lat="53.212598" lon="-1.981393"><ele>398</ele><time>2022-11-25T11:13:19Z</time><name>PT806</name></trkpt>
<trkpt lat="53.212570" lon="-1.981371"><ele>398</ele><time>2022-11-25T11:13:23Z</time><name>PT807</name></trkpt>
<trkpt lat="53.212544" lon="-1.981354"><ele>398</ele><time>2022-11-25T11:13:26Z</time><name>PT808</name></trkpt>
<trkpt lat="53.212514" lon="-1.981339"><ele>399</ele><time>2022-11-25T11:13:29Z</time><name>PT809</name></trkpt>
<trkpt lat="53.212479" lon="-1.981314"><ele>400</ele><time>2022-11-25T11:13:32Z</time><name>PT810</name></trkpt>
<trkpt lat="53.212452" lon="-1.981294"><ele>400</ele><time>2022-11-25T11:13:35Z</time><name>PT811</name></trkpt>
<trkpt lat="53.212415" lon="-1.981264"><ele>401</ele><time>2022-11-25T11:13:40Z</time><name>PT812</name></trkpt>
<trkpt lat="53.212382" lon="-1.981246"><ele>403</ele><time>2022-11-25T11:13:43Z</time><name>PT813</name></trkpt>
<trkpt lat="53.212346" lon="-1.981218"><ele>402</ele><time>2022-11-25T11:13:47Z</time><name>PT814</name></trkpt>
<trkpt lat="53.212319" lon="-1.981190"><ele>403</ele><time>2022-11-25T11:13:50Z</time><name>PT815</name></trkpt>
<trkpt lat="53.212290" lon="-1.981150"><ele>403</ele><time>2022-11-25T11:13:53Z</time><name>PT816</name></trkpt>
<trkpt lat="53.212274" lon="-1.981110"><ele>403</ele><time>2022-11-25T11:13:56Z</time><name>PT817</name></trkpt>
<trkpt lat="53.212275" lon="-1.981069"><ele>403</ele><time>2022-11-25T11:13:59Z</time><name>PT818</name></trkpt>
<trkpt lat="53.212279" lon="-1.981011"><ele>404</ele><time>2022-11-25T11:14:04Z</time><name>PT819</name></trkpt>
<trkpt lat="53.212284" lon="-1.980968"><ele>405</ele><time>2022-11-25T11:14:07Z</time><name>PT820</name></trkpt>
<trkpt lat="53.212288" lon="-1.980932"><ele>405</ele><time>2022-11-25T11:14:10Z</time><name>PT821</name></trkpt>
<trkpt lat="53.212294" lon="-1.980871"><ele>405</ele><time>2022-11-25T11:14:14Z</time><name>PT822</name></trkpt>
<trkpt lat="53.212301" lon="-1.980816"><ele>406</ele><time>2022-11-25T11:14:17Z</time><name>PT823</name></trkpt>
<trkpt lat="53.212310" lon="-1.980760"><ele>407</ele><time>2022-11-25T11:14:22Z</time><name>PT824</name></trkpt>
<trkpt lat="53.212310" lon="-1.980723"><ele>407</ele><time>2022-11-25T11:14:25Z</time><name>PT825</name></trkpt>
<trkpt lat="53.212319" lon="-1.980669"><ele>408</ele><time>2022-11-25T11:14:29Z</time><name>PT826</name></trkpt>
<trkpt lat="53.212326" lon="-1.980628"><ele>408</ele><time>2022-11-25T11:14:32Z</time><name>PT827</name></trkpt>
<trkpt lat="53.212331" lon="-1.980563"><ele>409</ele><time>2022-11-25T11:14:35Z</time><name>PT828</name></trkpt>
<trkpt lat="53.212334" lon="-1.980487"><ele>410</ele><time>2022-11-25T11:14:40Z</time><name>PT829</name></trkpt>
<trkpt lat="53.212342" lon="-1.980427"><ele>411</ele><time>2022-11-25T11:14:44Z</time><name>PT830</name></trkpt>
<trkpt lat="53.212350" lon="-1.980383"><ele>411</ele><time>2022-11-25T11:14:47Z</time><name>PT831</name></trkpt>
<trkpt lat="53.212354" lon="-1.980318"><ele>411</ele><time>2022-11-25T11:14:50Z</time><name>PT832</name></trkpt>
<trkpt lat="53.212365" lon="-1.980255"><ele>412</ele><time>2022-11-25T11:14:55Z</time><name>PT833</name></trkpt>
<trkpt lat="53.212370" lon="-1.980213"><ele>412</ele><time>2022-11-25T11:14:58Z</time><name>PT834</name></trkpt>
<trkpt lat="53.212378" lon="-1.980157"><ele>412</ele><time>2022-11-25T11:15:02Z</time><name>PT835</name></trkpt>
<trkpt lat="53.212379" lon="-1.980118"><ele>414</ele><time>2022-11-25T11:15:05Z</time><name>PT836</name></trkpt>
<trkpt lat="53.212385" lon="-1.980070"><ele>415</ele><time>2022-11-25T11:15:08Z</time><name>PT837</name></trkpt>
<trkpt lat="53.212393" lon="-1.980020"><ele>415</ele><time>2022-11-25T11:15:11Z</time><name>PT838</name></trkpt>
<trkpt lat="53.212400" lon="-1.979958"><ele>416</ele><time>2022-11-25T11:15:14Z</time><name>PT839</name></trkpt>
<trkpt lat="53.212405" lon="-1.979904"><ele>417</ele><time>2022-11-25T11:15:17Z</time><name>PT840</name></trkpt>
<trkpt lat="53.212415" lon="-1.979842"><ele>417</ele><time>2022-11-25T11:15:22Z</time><name>PT841</name></trkpt>
<trkpt lat="53.212422" lon="-1.979799"><ele>418</ele><time>2022-11-25T11:15:25Z</time><name>PT842</name></trkpt>
<trkpt lat="53.212429" lon="-1.979740"><ele>418</ele><time>2022-11-25T11:15:29Z</time><name>PT843</name></trkpt>
<trkpt lat="53.212433" lon="-1.979697"><ele>418</ele><time>2022-11-25T11:15:32Z</time><name>PT844</name></trkpt>
<trkpt lat="53.212436" lon="-1.979659"><ele>418</ele><time>2022-11-25T11:15:35Z</time><name>PT845</name></trkpt>
<trkpt lat="53.212449" lon="-1.979611"><ele>418</ele><time>2022-11-25T11:15:38Z</time><name>PT846</name></trkpt>
<trkpt lat="53.212459" lon="-1.979556"><ele>419</ele><time>2022-11-25T11:15:43Z</time><name>PT847</name></trkpt>
<trkpt lat="53.212466" lon="-1.979490"><ele>420</ele><time>2022-11-25T11:15:47Z</time><name>PT848</name></trkpt>
<trkpt lat="53.212470" lon="-1.979441"><ele>420</ele><time>2022-11-25T11:15:50Z</time><name>PT849</name></trkpt>
<trkpt lat="53.212478" lon="-1.979377"><ele>421</ele><time>2022-11-25T11:15:53Z</time><name>PT850</name></trkpt>
<trkpt lat="53.212486" lon="-1.979331"><ele>422</ele><time>2022-11-25T11:15:56Z</time><name>PT851</name></trkpt>
<trkpt lat="53.212494" lon="-1.979274"><ele>422</ele><time>2022-11-25T11:16:01Z</time><name>PT852</name></trkpt>
<trkpt lat="53.212497" lon="-1.979220"><ele>422</ele><time>2022-11-25T11:16:05Z</time><name>PT853</name></trkpt>
<trkpt lat="53.212492" lon="-1.979180"><ele>422</ele><time>2022-11-25T11:16:08Z</time><name>PT854</name></trkpt>
<trkpt lat="53.212464" lon="-1.979129"><ele>422</ele><time>2022-11-25T11:16:11Z</time><name>PT855</name></trkpt>
<trkpt lat="53.212448" lon="-1.979096"><ele>422</ele><time>2022-11-25T11:16:14Z</time><name>PT856</name></trkpt>
<trkpt lat="53.212427" lon="-1.979062"><ele>422</ele><time>2022-11-25T11:16:17Z</time><name>PT857</name></trkpt>
<trkpt lat="53.212397" lon="-1.979012"><ele>424</ele><time>2022-11-25T11:16:22Z</time><name>PT858</name></trkpt>
<trkpt lat="53.212376" lon="-1.978982"><ele>424</ele><time>2022-11-25T11:16:25Z</time><name>PT859</name></trkpt>
<trkpt lat="53.212349" lon="-1.978953"><ele>425</ele><time>2022-11-25T11:16:28Z</time><name>PT860</name></trkpt>
<trkpt lat="53.212323" lon="-1.978949"><ele>425</ele><time>2022-11-25T11:16:31Z</time><name>PT861</name></trkpt>
<trkpt lat="53.212276" lon="-1.978901"><ele>427</ele><time>2022-11-25T11:16:35Z</time><name>PT862</name></trkpt>
<trkpt lat="53.212255" lon="-1.978853"><ele>427</ele><time>2022-11-25T11:16:38Z</time><name>PT863</name></trkpt>
<trkpt lat="53.212222" lon="-1.978827"><ele>427</ele><time>2022-11-25T11:16:41Z</time><name>PT864</name></trkpt>
<trkpt lat="53.212196" lon="-1.978805"><ele>427</ele><time>2022-11-25T11:16:44Z</time><name>PT865</name></trkpt>
<trkpt lat="53.212167" lon="-1.978766"><ele>427</ele><time>2022-11-25T11:16:49Z</time><name>PT866</name></trkpt>
<trkpt lat="53.212143" lon="-1.978724"><ele>426</ele><time>2022-11-25T11:16:52Z</time><name>PT867</name></trkpt>
<trkpt lat="53.212111" lon="-1.978686"><ele>427</ele><time>2022-11-25T11:16:56Z</time><name>PT868</name></trkpt>
<trkpt lat="53.212078" lon="-1.978644"><ele>427</ele><time>2022-11-25T11:16:59Z</time><name>PT869</name></trkpt>
<trkpt lat="53.212047" lon="-1.978599"><ele>428</ele><time>2022-11-25T11:17:04Z</time><name>PT870</name></trkpt>
<trkpt lat="53.212019" lon="-1.978543"><ele>428</ele><time>2022-11-25T11:17:08Z</time><name>PT871</name></trkpt>
<trkpt lat="53.211993" lon="-1.978514"><ele>429</ele><time>2022-11-25T11:17:11Z</time><name>PT872</name></trkpt>
<trkpt lat="53.211969" lon="-1.978484"><ele>429</ele><time>2022-11-25T11:17:14Z</time><name>PT873</name></trkpt>
<trkpt lat="53.211943" lon="-1.978455"><ele>428</ele><time>2022-11-25T11:17:17Z</time><name>PT874</name></trkpt>
<trkpt lat="53.211905" lon="-1.978421"><ele>429</ele><time>2022-11-25T11:17:20Z</time><name>PT875</name></trkpt>
<trkpt lat="53.211876" lon="-1.978396"><ele>429</ele><time>2022-11-25T11:17:23Z</time><name>PT876</name></trkpt>
<trkpt lat="53.211835" lon="-1.978355"><ele>429</ele><time>2022-11-25T11:17:28Z</time><name>PT877</name></trkpt>
<trkpt lat="53.211797" lon="-1.978312"><ele>429</ele><time>2022-11-25T11:17:32Z</time><name>PT878</name></trkpt>
<trkpt lat="53.211776" lon="-1.978262"><ele>429</ele><time>2022-11-25T11:17:35Z</time><name>PT879</name></trkpt>
<trkpt lat="53.211748" lon="-1.978215"><ele>430</ele><time>2022-11-25T11:17:38Z</time><name>PT880</name></trkpt>
<trkpt lat="53.211713" lon="-1.978157"><ele>431</ele><time>2022-11-25T11:17:41Z</time><name>PT881</name></trkpt>
<trkpt lat="53.211677" lon="-1.978096"><ele>432</ele><time>2022-11-25T11:17:44Z</time><name>PT882</name></trkpt>
<trkpt lat="53.211646" lon="-1.978039"><ele>432</ele><time>2022-11-25T11:17:47Z</time><name>PT883</name></trkpt>
<trkpt lat="53.211624" lon="-1.977994"><ele>433</ele><time>2022-11-25T11:17:50Z</time><name>PT884</name></trkpt>
<trkpt lat="53.211608" lon="-1.977936"><ele>431</ele><time>2022-11-25T11:17:55Z</time><name>PT885</name></trkpt>
<trkpt lat="53.211586" lon="-1.977881"><ele>431</ele><time>2022-11-25T11:17:59Z</time><name>PT886</name></trkpt>
<trkpt lat="53.211580" lon="-1.977858"><ele>431</ele><time>2022-11-25T11:18:02Z</time><name>PT887</name></trkpt>
<trkpt lat="53.211562" lon="-1.977834"><ele>433</ele><time>2022-11-25T11:18:05Z</time><name>PT888</name></trkpt>
<trkpt lat="53.211554" lon="-1.977841"><ele>434</ele><time>2022-11-25T11:18:08Z</time><name>PT889</name></trkpt>
<trkpt lat="53.211551" lon="-1.977844"><ele>435</ele><time>2022-11-25T11:18:11Z</time><name>PT890</name></trkpt>
<trkpt lat="53.211552" lon="-1.977855"><ele>434</ele><time>2022-11-25T11:18:32Z</time><name>PT891</name></trkpt>
<trkpt lat="53.211551" lon="-1.977856"><ele>434</ele><time>2022-11-25T11:18:35Z</time><name>PT892</name></trkpt>
<trkpt lat="53.211537" lon="-1.977843"><ele>434</ele><time>2022-11-25T11:18:44Z</time><name>PT893</name></trkpt>
<trkpt lat="53.211537" lon="-1.977838"><ele>434</ele><time>2022-11-25T11:18:47Z</time><name>PT894</name></trkpt>
<trkpt lat="53.211533" lon="-1.977822"><ele>434</ele><time>2022-11-25T11:18:50Z</time><name>PT895</name></trkpt>
<trkpt lat="53.211526" lon="-1.977821"><ele>434</ele><time>2022-11-25T11:19:05Z</time><name>PT896</name></trkpt>
<trkpt lat="53.211529" lon="-1.977813"><ele>434</ele><time>2022-11-25T11:19:41Z</time><name>PT897</name></trkpt>
<trkpt lat="53.211521" lon="-1.977804"><ele>433</ele><time>2022-11-25T11:19:44Z</time><name>PT898</name></trkpt>
<trkpt lat="53.211510" lon="-1.977835"><ele>433</ele><time>2022-11-25T11:19:49Z</time><name>PT899</name></trkpt>
<trkpt lat="53.211476" lon="-1.977866"><ele>432</ele><time>2022-11-25T11:19:53Z</time><name>PT900</name></trkpt>
<trkpt lat="53.211467" lon="-1.977890"><ele>431</ele><time>2022-11-25T11:19:56Z</time><name>PT901</name></trkpt>
<trkpt lat="53.211469" lon="-1.977914"><ele>431</ele><time>2022-11-25T11:19:59Z</time><name>PT902</name></trkpt>
<trkpt lat="53.211450" lon="-1.977993"><ele>431</ele><time>2022-11-25T11:20:04Z</time><name>PT903</name></trkpt>
<trkpt lat="53.211420" lon="-1.978070"><ele>431</ele><time>2022-11-25T11:20:08Z</time><name>PT904</name></trkpt>
<trkpt lat="53.211394" lon="-1.978145"><ele>430</ele><time>2022-11-25T11:20:11Z</time><name>PT905</name></trkpt>
<trkpt lat="53.211375" lon="-1.978220"><ele>429</ele><time>2022-11-25T11:20:16Z</time><name>PT906</name></trkpt>
<trkpt lat="53.211362" lon="-1.978277"><ele>428</ele><time>2022-11-25T11:20:19Z</time><name>PT907</name></trkpt>
<trkpt lat="53.211343" lon="-1.978354"><ele>427</ele><time>2022-11-25T11:20:23Z</time><name>PT908</name></trkpt>
<trkpt lat="53.211324" lon="-1.978408"><ele>425</ele><time>2022-11-25T11:20:26Z</time><name>PT909</name></trkpt>
<trkpt lat="53.211307" lon="-1.978491"><ele>425</ele><time>2022-11-25T11:20:29Z</time><name>PT910</name></trkpt>
<trkpt lat="53.211294" lon="-1.978553"><ele>425</ele><time>2022-11-25T11:20:32Z</time><name>PT911</name></trkpt>
<trkpt lat="53.211270" lon="-1.978630"><ele>424</ele><time>2022-11-25T11:20:37Z</time><name>PT912</name></trkpt>
<trkpt lat="53.211243" lon="-1.978701"><ele>424</ele><time>2022-11-25T11:20:41Z</time><name>PT913</name></trkpt>
<trkpt lat="53.211229" lon="-1.978756"><ele>423</ele><time>2022-11-25T11:20:44Z</time><name>PT914</name></trkpt>
<trkpt lat="53.211212" lon="-1.978803"><ele>423</ele><time>2022-11-25T11:20:47Z</time><name>PT915</name></trkpt>
<trkpt lat="53.211191" lon="-1.978852"><ele>423</ele><time>2022-11-25T11:20:50Z</time><name>PT916</name></trkpt>
<trkpt lat="53.211174" lon="-1.978906"><ele>423</ele><time>2022-11-25T11:20:53Z</time><name>PT917</name></trkpt>
<trkpt lat="53.211148" lon="-1.978972"><ele>422</ele><time>2022-11-25T11:20:56Z</time><name>PT918</name></trkpt>
<trkpt lat="53.211124" lon="-1.979018"><ele>422</ele><time>2022-11-25T11:20:59Z</time><name>PT919</name></trkpt>
<trkpt lat="53.211096" lon="-1.979082"><ele>421</ele><time>2022-11-25T11:21:04Z</time><name>PT920</name></trkpt>
<trkpt lat="53.211062" lon="-1.979143"><ele>421</ele><time>2022-11-25T11:21:08Z</time><name>PT921</name></trkpt>
<trkpt lat="53.211040" lon="-1.979196"><ele>421</ele><time>2022-11-25T11:21:11Z</time><name>PT922</name></trkpt>
<trkpt lat="53.211023" lon="-1.979249"><ele>421</ele><time>2022-11-25T11:21:14Z</time><name>PT923</name></trkpt>
<trkpt lat="53.211009" lon="-1.979306"><ele>421</ele><time>2022-11-25T11:21:17Z</time><name>PT924</name></trkpt>
<trkpt lat="53.210979" lon="-1.979360"><ele>421</ele><time>2022-11-25T11:21:20Z</time><name>PT925</name></trkpt>
<trkpt lat="53.210954" lon="-1.979406"><ele>420</ele><time>2022-11-25T11:21:23Z</time><name>PT926</name></trkpt>
<trkpt lat="53.210921" lon="-1.979441"><ele>420</ele><time>2022-11-25T11:21:26Z</time><name>PT927</name></trkpt>
<trkpt lat="53.210881" lon="-1.979470"><ele>418</ele><time>2022-11-25T11:21:31Z</time><name>PT928</name></trkpt>
<trkpt lat="53.210854" lon="-1.979529"><ele>418</ele><time>2022-11-25T11:21:35Z</time><name>PT929</name></trkpt>
<trkpt lat="53.210837" lon="-1.979572"><ele>417</ele><time>2022-11-25T11:21:38Z</time><name>PT930</name></trkpt>
<trkpt lat="53.210824" lon="-1.979618"><ele>417</ele><time>2022-11-25T11:21:41Z</time><name>PT931</name></trkpt>
<trkpt lat="53.210798" lon="-1.979678"><ele>417</ele><time>2022-11-25T11:21:44Z</time><name>PT932</name></trkpt>
<trkpt lat="53.210778" lon="-1.979741"><ele>417</ele><time>2022-11-25T11:21:49Z</time><name>PT933</name></trkpt>
<trkpt lat="53.210751" lon="-1.979793"><ele>417</ele><time>2022-11-25T11:21:53Z</time><name>PT934</name></trkpt>
<trkpt lat="53.210735" lon="-1.979841"><ele>416</ele><time>2022-11-25T11:21:56Z</time><name>PT935</name></trkpt>
<trkpt lat="53.210708" lon="-1.979905"><ele>416</ele><time>2022-11-25T11:21:59Z</time><name>PT936</name></trkpt>
<trkpt lat="53.210685" lon="-1.979979"><ele>416</ele><time>2022-11-25T11:22:04Z</time><name>PT937</name></trkpt>
<trkpt lat="53.210667" lon="-1.980024"><ele>416</ele><time>2022-11-25T11:22:07Z</time><name>PT938</name></trkpt>
<trkpt lat="53.210647" lon="-1.980087"><ele>416</ele><time>2022-11-25T11:22:11Z</time><name>PT939</name></trkpt>
<trkpt lat="53.210635" lon="-1.980129"><ele>415</ele><time>2022-11-25T11:22:14Z</time><name>PT940</name></trkpt>
<trkpt lat="53.210609" lon="-1.980192"><ele>416</ele><time>2022-11-25T11:22:17Z</time><name>PT941</name></trkpt>
<trkpt lat="53.210586" lon="-1.980263"><ele>415</ele><time>2022-11-25T11:22:22Z</time><name>PT942</name></trkpt>
<trkpt lat="53.210557" lon="-1.980323"><ele>414</ele><time>2022-11-25T11:22:26Z</time><name>PT943</name></trkpt>
<trkpt lat="53.210539" lon="-1.980382"><ele>414</ele><time>2022-11-25T11:22:29Z</time><name>PT944</name></trkpt>
<trkpt lat="53.210519" lon="-1.980433"><ele>414</ele><time>2022-11-25T11:22:32Z</time><name>PT945</name></trkpt>
<trkpt lat="53.210494" lon="-1.980510"><ele>414</ele><time>2022-11-25T11:22:35Z</time><name>PT946</name></trkpt>
<trkpt lat="53.210472" lon="-1.980562"><ele>414</ele><time>2022-11-25T11:22:38Z</time><name>PT947</name></trkpt>
<trkpt lat="53.210453" lon="-1.980630"><ele>413</ele><time>2022-11-25T11:22:43Z</time><name>PT948</name></trkpt>
<trkpt lat="53.210443" lon="-1.980705"><ele>413</ele><time>2022-11-25T11:22:47Z</time><name>PT949</name></trkpt>
<trkpt lat="53.210447" lon="-1.980767"><ele>413</ele><time>2022-11-25T11:22:50Z</time><name>PT950</name></trkpt>
<trkpt lat="53.210457" lon="-1.980820"><ele>413</ele><time>2022-11-25T11:22:53Z</time><name>PT951</name></trkpt>
<trkpt lat="53.210461" lon="-1.980873"><ele>413</ele><time>2022-11-25T11:22:58Z</time><name>PT952</name></trkpt>
<trkpt lat="53.210472" lon="-1.980911"><ele>413</ele><time>2022-11-25T11:23:02Z</time><name>PT953</name></trkpt>
<trkpt lat="53.210485" lon="-1.980932"><ele>413</ele><time>2022-11-25T11:23:05Z</time><name>PT954</name></trkpt>
<trkpt lat="53.210487" lon="-1.980930"><ele>413</ele><time>2022-11-25T11:23:08Z</time><name>PT955</name></trkpt>
<trkpt lat="53.210511" lon="-1.980991"><ele>413</ele><time>2022-11-25T11:23:17Z</time><name>PT956</name></trkpt>
<trkpt lat="53.210538" lon="-1.981029"><ele>412</ele><time>2022-11-25T11:23:20Z</time><name>PT957</name></trkpt>
<trkpt lat="53.210559" lon="-1.981070"><ele>411</ele><time>2022-11-25T11:23:23Z</time><name>PT958</name></trkpt>
<trkpt lat="53.210594" lon="-1.981124"><ele>411</ele><time>2022-11-25T11:23:26Z</time><name>PT959</name></trkpt>
<trkpt lat="53.210631" lon="-1.981193"><ele>410</ele><time>2022-11-25T11:23:31Z</time><name>PT960</name></trkpt>
<trkpt lat="53.210655" lon="-1.981238"><ele>410</ele><time>2022-11-25T11:23:34Z</time><name>PT961</name></trkpt>
<trkpt lat="53.210676" lon="-1.981292"><ele>410</ele><time>2022-11-25T11:23:37Z</time><name>PT962</name></trkpt>
<trkpt lat="53.210698" lon="-1.981350"><ele>411</ele><time>2022-11-25T11:23:41Z</time><name>PT963</name></trkpt>
<trkpt lat="53.210707" lon="-1.981390"><ele>412</ele><time>2022-11-25T11:23:44Z</time><name>PT964</name></trkpt>
<trkpt lat="53.210716" lon="-1.981420"><ele>413</ele><time>2022-11-25T11:23:47Z</time><name>PT965</name></trkpt>
<trkpt lat="53.210715" lon="-1.981449"><ele>414</ele><time>2022-11-25T11:23:52Z</time><name>PT966</name></trkpt>
<trkpt lat="53.210715" lon="-1.981450"><ele>414</ele><time>2022-11-25T11:23:55Z</time><name>PT967</name></trkpt>
<trkpt lat="53.210729" lon="-1.981479"><ele>414</ele><time>2022-11-25T11:24:02Z</time><name>PT968</name></trkpt>
<trkpt lat="53.210745" lon="-1.981565"><ele>414</ele><time>2022-11-25T11:24:05Z</time><name>PT969</name></trkpt>
<trkpt lat="53.210753" lon="-1.981627"><ele>413</ele><time>2022-11-25T11:24:08Z</time><name>PT970</name></trkpt>
<trkpt lat="53.210766" lon="-1.981705"><ele>413</ele><time>2022-11-25T11:24:13Z</time><name>PT971</name></trkpt>
<trkpt lat="53.210786" lon="-1.981767"><ele>413</ele><time>2022-11-25T11:24:17Z</time><name>PT972</name></trkpt>
<trkpt lat="53.210796" lon="-1.981821"><ele>413</ele><time>2022-11-25T11:24:20Z</time><name>PT973</name></trkpt>
<trkpt lat="53.210807" lon="-1.981883"><ele>413</ele><time>2022-11-25T11:24:23Z</time><name>PT974</name></trkpt>
<trkpt lat="53.210815" lon="-1.981910"><ele>412</ele><time>2022-11-25T11:24:28Z</time><name>PT975</name></trkpt>
<trkpt lat="53.210824" lon="-1.981918"><ele>412</ele><time>2022-11-25T11:24:32Z</time><name>PT976</name></trkpt>
<trkpt lat="53.210827" lon="-1.981921"><ele>412</ele><time>2022-11-25T11:24:35Z</time><name>PT977</name></trkpt>
<trkpt lat="53.210819" lon="-1.981971"><ele>412</ele><time>2022-11-25T11:24:41Z</time><name>PT978</name></trkpt>
<trkpt lat="53.210812" lon="-1.982024"><ele>412</ele><time>2022-11-25T11:24:44Z</time><name>PT979</name></trkpt>
<trkpt lat="53.210800" lon="-1.982103"><ele>412</ele><time>2022-11-25T11:24:49Z</time><name>PT980</name></trkpt>
<trkpt lat="53.210787" lon="-1.982169"><ele>413</ele><time>2022-11-25T11:24:53Z</time><name>PT981</name></trkpt>
<trkpt lat="53.210787" lon="-1.982209"><ele>413</ele><time>2022-11-25T11:24:56Z</time><name>PT982</name></trkpt>
<trkpt lat="53.210774" lon="-1.982256"><ele>413</ele><time>2022-11-25T11:24:59Z</time><name>PT983</name></trkpt>
<trkpt lat="53.210766" lon="-1.982284"><ele>413</ele><time>2022-11-25T11:25:04Z</time><name>PT984</name></trkpt>
<trkpt lat="53.210761" lon="-1.982295"><ele>412</ele><time>2022-11-25T11:25:07Z</time><name>PT985</name></trkpt>
<trkpt lat="53.210752" lon="-1.982306"><ele>412</ele><time>2022-11-25T11:25:10Z</time><name>PT986</name></trkpt>
<trkpt lat="53.210744" lon="-1.982314"><ele>412</ele><time>2022-11-25T11:25:14Z</time><name>PT987</name></trkpt>
<trkpt lat="53.210737" lon="-1.982332"><ele>412</ele><time>2022-11-25T11:25:17Z</time><name>PT988</name></trkpt>
<trkpt lat="53.210734" lon="-1.982341"><ele>412</ele><time>2022-11-25T11:25:20Z</time><name>PT989</name></trkpt>
<trkpt lat="53.210742" lon="-1.982365"><ele>413</ele><time>2022-11-25T11:25:23Z</time><name>PT990</name></trkpt>
<trkpt lat="53.210742" lon="-1.982423"><ele>413</ele><time>2022-11-25T11:25:28Z</time><name>PT991</name></trkpt>
<trkpt lat="53.210721" lon="-1.982486"><ele>413</ele><time>2022-11-25T11:25:32Z</time><name>PT992</name></trkpt>
<trkpt lat="53.210705" lon="-1.982543"><ele>414</ele><time>2022-11-25T11:25:35Z</time><name>PT993</name></trkpt>
<trkpt lat="53.210679" lon="-1.982605"><ele>414</ele><time>2022-11-25T11:25:38Z</time><name>PT994</name></trkpt>
<trkpt lat="53.210654" lon="-1.982683"><ele>415</ele><time>2022-11-25T11:25:43Z</time><name>PT995</name></trkpt>
<trkpt lat="53.210635" lon="-1.982769"><ele>416</ele><time>2022-11-25T11:25:47Z</time><name>PT996</name></trkpt>
<trkpt lat="53.210617" lon="-1.982829"><ele>416</ele><time>2022-11-25T11:25:50Z</time><name>PT997</name></trkpt>
<trkpt lat="53.210607" lon="-1.982886"><ele>416</ele><time>2022-11-25T11:25:53Z</time><name>PT998</name></trkpt>
<trkpt lat="53.210587" lon="-1.982959"><ele>416</ele><time>2022-11-25T11:25:56Z</time><name>PT999</name></trkpt>
<trkpt lat="53.210578" lon="-1.983011"><ele>417</ele><time>2022-11-25T11:25:59Z</time><name>PT1000</name></trkpt>
<trkpt lat="53.210560" lon="-1.983070"><ele>417</ele><time>2022-11-25T11:26:04Z</time><name>PT1001</name></trkpt>
<trkpt lat="53.210550" lon="-1.983147"><ele>418</ele><time>2022-11-25T11:26:08Z</time><name>PT1002</name></trkpt>
<trkpt lat="53.210553" lon="-1.983198"><ele>419</ele><time>2022-11-25T11:26:11Z</time><name>PT1003</name></trkpt>
<trkpt lat="53.210542" lon="-1.983234"><ele>418</ele><time>2022-11-25T11:26:14Z</time><name>PT1004</name></trkpt>
<trkpt lat="53.210517" lon="-1.983280"><ele>419</ele><time>2022-11-25T11:26:17Z</time><name>PT1005</name></trkpt>
<trkpt lat="53.210502" lon="-1.983323"><ele>419</ele><time>2022-11-25T11:26:20Z</time><name>PT1006</name></trkpt>
<trkpt lat="53.210486" lon="-1.983381"><ele>420</ele><time>2022-11-25T11:26:25Z</time><name>PT1007</name></trkpt>
<trkpt lat="53.210475" lon="-1.983423"><ele>420</ele><time>2022-11-25T11:26:28Z</time><name>PT1008</name></trkpt>
<trkpt lat="53.210459" lon="-1.983461"><ele>420</ele><time>2022-11-25T11:26:31Z</time><name>PT1009</name></trkpt>
<trkpt lat="53.210443" lon="-1.983516"><ele>420</ele><time>2022-11-25T11:26:35Z</time><name>PT1010</name></trkpt>
<trkpt lat="53.210428" lon="-1.983560"><ele>420</ele><time>2022-11-25T11:26:38Z</time><name>PT1011</name></trkpt>
<trkpt lat="53.210420" lon="-1.983624"><ele>421</ele><time>2022-11-25T11:26:41Z</time><name>PT1012</name></trkpt>
<trkpt lat="53.210424" lon="-1.983665"><ele>421</ele><time>2022-11-25T11:26:44Z</time><name>PT1013</name></trkpt>
<trkpt lat="53.210402" lon="-1.983710"><ele>422</ele><time>2022-11-25T11:26:49Z</time><name>PT1014</name></trkpt>
<trkpt lat="53.210382" lon="-1.983739"><ele>422</ele><time>2022-11-25T11:26:52Z</time><name>PT1015</name></trkpt>
<trkpt lat="53.210362" lon="-1.983776"><ele>422</ele><time>2022-11-25T11:26:55Z</time><name>PT1016</name></trkpt>
<trkpt lat="53.210344" lon="-1.983840"><ele>422</ele><time>2022-11-25T11:26:59Z</time><name>PT1017</name></trkpt>
<trkpt lat="53.210335" lon="-1.983880"><ele>422</ele><time>2022-11-25T11:27:02Z</time><name>PT1018</name></trkpt>
<trkpt lat="53.210337" lon="-1.983933"><ele>423</ele><time>2022-11-25T11:27:05Z</time><name>PT1019</name></trkpt>
<trkpt lat="53.210321" lon="-1.983994"><ele>423</ele><time>2022-11-25T11:27:08Z</time><name>PT1020</name></trkpt>
<trkpt lat="53.210307" lon="-1.984029"><ele>423</ele><time>2022-11-25T11:27:11Z</time><name>PT1021</name></trkpt>
<trkpt lat="53.210289" lon="-1.984048"><ele>423</ele><time>2022-11-25T11:27:16Z</time><name>PT1022</name></trkpt>
<trkpt lat="53.210287" lon="-1.984048"><ele>422</ele><time>2022-11-25T11:27:19Z</time><name>PT1023</name></trkpt>
<trkpt lat="53.210271" lon="-1.984066"><ele>421</ele><time>2022-11-25T11:27:34Z</time><name>PT1024</name></trkpt>
<trkpt lat="53.210257" lon="-1.984108"><ele>422</ele><time>2022-11-25T11:27:38Z</time><name>PT1025</name></trkpt>
<trkpt lat="53.210253" lon="-1.984160"><ele>423</ele><time>2022-11-25T11:27:41Z</time><name>PT1026</name></trkpt>
<trkpt lat="53.210249" lon="-1.984183"><ele>423</ele><time>2022-11-25T11:27:44Z</time><name>PT1027</name></trkpt>
<trkpt lat="53.210241" lon="-1.984202"><ele>424</ele><time>2022-11-25T11:27:47Z</time><name>PT1028</name></trkpt>
<trkpt lat="53.210215" lon="-1.984228"><ele>424</ele><time>2022-11-25T11:27:55Z</time><name>PT1029</name></trkpt>
<trkpt lat="53.210189" lon="-1.984282"><ele>425</ele><time>2022-11-25T11:27:59Z</time><name>PT1030</name></trkpt>
<trkpt lat="53.210166" lon="-1.984342"><ele>425</ele><time>2022-11-25T11:28:02Z</time><name>PT1031</name></trkpt>
<trkpt lat="53.210154" lon="-1.984389"><ele>425</ele><time>2022-11-25T11:28:05Z</time><name>PT1032</name></trkpt>
<trkpt lat="53.210138" lon="-1.984437"><ele>425</ele><time>2022-11-25T11:28:08Z</time><name>PT1033</name></trkpt>
<trkpt lat="53.210118" lon="-1.984500"><ele>425</ele><time>2022-11-25T11:28:13Z</time><name>PT1034</name></trkpt>
<trkpt lat="53.210115" lon="-1.984549"><ele>424</ele><time>2022-11-25T11:28:16Z</time><name>PT1035</name></trkpt>
<trkpt lat="53.210100" lon="-1.984589"><ele>425</ele><time>2022-11-25T11:28:19Z</time><name>PT1036</name></trkpt>
<trkpt lat="53.210075" lon="-1.984637"><ele>425</ele><time>2022-11-25T11:28:23Z</time><name>PT1037</name></trkpt>
<trkpt lat="53.210062" lon="-1.984680"><ele>425</ele><time>2022-11-25T11:28:26Z</time><name>PT1038</name></trkpt>
<trkpt lat="53.210044" lon="-1.984740"><ele>425</ele><time>2022-11-25T11:28:29Z</time><name>PT1039</name></trkpt>
<trkpt lat="53.210033" lon="-1.984792"><ele>425</ele><time>2022-11-25T11:28:34Z</time><name>PT1040</name></trkpt>
<trkpt lat="53.210014" lon="-1.984825"><ele>424</ele><time>2022-11-25T11:28:37Z</time><name>PT1041</name></trkpt>
<trkpt lat="53.210000" lon="-1.984888"><ele>425</ele><time>2022-11-25T11:28:41Z</time><name>PT1042</name></trkpt>
<trkpt lat="53.209988" lon="-1.984940"><ele>425</ele><time>2022-11-25T11:28:44Z</time><name>PT1043</name></trkpt>
<trkpt lat="53.209978" lon="-1.985000"><ele>425</ele><time>2022-11-25T11:28:47Z</time><name>PT1044</name></trkpt>
<trkpt lat="53.209964" lon="-1.985062"><ele>425</ele><time>2022-11-25T11:28:52Z</time><name>PT1045</name></trkpt>
<trkpt lat="53.209954" lon="-1.985115"><ele>426</ele><time>2022-11-25T11:28:55Z</time><name>PT1046</name></trkpt>
<trkpt lat="53.209947" lon="-1.985185"><ele>426</ele><time>2022-11-25T11:28:59Z</time><name>PT1047</name></trkpt>
<trkpt lat="53.209935" lon="-1.985247"><ele>425</ele><time>2022-11-25T11:29:02Z</time><name>PT1048</name></trkpt>
<trkpt lat="53.209919" lon="-1.985314"><ele>425</ele><time>2022-11-25T11:29:05Z</time><name>PT1049</name></trkpt>
<trkpt lat="53.209907" lon="-1.985382"><ele>425</ele><time>2022-11-25T11:29:10Z</time><name>PT1050</name></trkpt>
<trkpt lat="53.209893" lon="-1.985421"><ele>424</ele><time>2022-11-25T11:29:13Z</time><name>PT1051</name></trkpt>
<trkpt lat="53.209880" lon="-1.985480"><ele>425</ele><time>2022-11-25T11:29:17Z</time><name>PT1052</name></trkpt>
<trkpt lat="53.209878" lon="-1.985515"><ele>425</ele><time>2022-11-25T11:29:20Z</time><name>PT1053</name></trkpt>
<trkpt lat="53.209868" lon="-1.985549"><ele>425</ele><time>2022-11-25T11:29:23Z</time><name>PT1054</name></trkpt>
<trkpt lat="53.209862" lon="-1.985567"><ele>424</ele><time>2022-11-25T11:29:28Z</time><name>PT1055</name></trkpt>
<trkpt lat="53.209863" lon="-1.985565"><ele>424</ele><time>2022-11-25T11:29:32Z</time><name>PT1056</name></trkpt>
<trkpt lat="53.209862" lon="-1.985564"><ele>425</ele><time>2022-11-25T11:29:35Z</time><name>PT1057</name></trkpt>
<trkpt lat="53.209865" lon="-1.985577"><ele>425</ele><time>2022-11-25T11:29:38Z</time><name>PT1058</name></trkpt>
<trkpt lat="53.209863" lon="-1.985583"><ele>425</ele><time>2022-11-25T11:29:44Z</time><name>PT1059</name></trkpt>
<trkpt lat="53.209860" lon="-1.985589"><ele>425</ele><time>2022-11-25T11:29:47Z</time><name>PT1060</name></trkpt>
<trkpt lat="53.209862" lon="-1.985597"><ele>426</ele><time>2022-11-25T11:30:13Z</time><name>PT1061</name></trkpt>
<trkpt lat="53.209862" lon="-1.985628"><ele>426</ele><time>2022-11-25T11:30:17Z</time><name>PT1062</name></trkpt>
<trkpt lat="53.209856" lon="-1.985643"><ele>426</ele><time>2022-11-25T11:30:20Z</time><name>PT1063</name></trkpt>
<trkpt lat="53.209854" lon="-1.985680"><ele>425</ele><time>2022-11-25T11:30:23Z</time><name>PT1064</name></trkpt>
<trkpt lat="53.209845" lon="-1.985718"><ele>425</ele><time>2022-11-25T11:30:26Z</time><name>PT1065</name></trkpt>
<trkpt lat="53.209841" lon="-1.985755"><ele>424</ele><time>2022-11-25T11:30:29Z</time><name>PT1066</name></trkpt>
<trkpt lat="53.209834" lon="-1.985810"><ele>423</ele><time>2022-11-25T11:30:32Z</time><name>PT1067</name></trkpt>
<trkpt lat="53.209825" lon="-1.985865"><ele>422</ele><time>2022-11-25T11:30:35Z</time><name>PT1068</name></trkpt>
<trkpt lat="53.209809" lon="-1.985924"><ele>421</ele><time>2022-11-25T11:30:40Z</time><name>PT1069</name></trkpt>
<trkpt lat="53.209805" lon="-1.985959"><ele>420</ele><time>2022-11-25T11:30:43Z</time><name>PT1070</name></trkpt>
<trkpt lat="53.209811" lon="-1.986017"><ele>420</ele><time>2022-11-25T11:30:47Z</time><name>PT1071</name></trkpt>
<trkpt lat="53.209815" lon="-1.986078"><ele>420</ele><time>2022-11-25T11:30:50Z</time><name>PT1072</name></trkpt>
<trkpt lat="53.209810" lon="-1.986133"><ele>419</ele><time>2022-11-25T11:30:55Z</time><name>PT1073</name></trkpt>
<trkpt lat="53.209787" lon="-1.986189"><ele>418</ele><time>2022-11-25T11:30:59Z</time><name>PT1074</name></trkpt>
<trkpt lat="53.209774" lon="-1.986225"><ele>418</ele><time>2022-11-25T11:31:02Z</time><name>PT1075</name></trkpt>
<trkpt lat="53.209751" lon="-1.986257"><ele>418</ele><time>2022-11-25T11:31:05Z</time><name>PT1076</name></trkpt>
<trkpt lat="53.209732" lon="-1.986313"><ele>417</ele><time>2022-11-25T11:31:10Z</time><name>PT1077</name></trkpt>
<trkpt lat="53.209719" lon="-1.986346"><ele>416</ele><time>2022-11-25T11:31:13Z</time><name>PT1078</name></trkpt>
<trkpt lat="53.209695" lon="-1.986399"><ele>415</ele><time>2022-11-25T11:31:17Z</time><name>PT1079</name></trkpt>
<trkpt lat="53.209672" lon="-1.986427"><ele>416</ele><time>2022-11-25T11:31:20Z</time><name>PT1080</name></trkpt>
<trkpt lat="53.209644" lon="-1.986453"><ele>415</ele><time>2022-11-25T11:31:23Z</time><name>PT1081</name></trkpt>
<trkpt lat="53.209630" lon="-1.986461"><ele>414</ele><time>2022-11-25T11:31:26Z</time><name>PT1082</name></trkpt>
<trkpt lat="53.209600" lon="-1.986483"><ele>413</ele><time>2022-11-25T11:31:31Z</time><name>PT1083</name></trkpt>
<trkpt lat="53.209584" lon="-1.986495"><ele>412</ele><time>2022-11-25T11:31:34Z</time><name>PT1084</name></trkpt>
<trkpt lat="53.209561" lon="-1.986521"><ele>411</ele><time>2022-11-25T11:31:38Z</time><name>PT1085</name></trkpt>
<trkpt lat="53.209542" lon="-1.986538"><ele>410</ele><time>2022-11-25T11:31:41Z</time><name>PT1086</name></trkpt>
<trkpt lat="53.209522" lon="-1.986563"><ele>410</ele><time>2022-11-25T11:31:46Z</time><name>PT1087</name></trkpt>
<trkpt lat="53.209500" lon="-1.986591"><ele>410</ele><time>2022-11-25T11:31:50Z</time><name>PT1088</name></trkpt>
<trkpt lat="53.209483" lon="-1.986615"><ele>410</ele><time>2022-11-25T11:31:53Z</time><name>PT1089</name></trkpt>
<trkpt lat="53.209471" lon="-1.986623"><ele>409</ele><time>2022-11-25T11:31:56Z</time><name>PT1090</name></trkpt>
<trkpt lat="53.209467" lon="-1.986624"><ele>409</ele><time>2022-11-25T11:32:01Z</time><name>PT1091</name></trkpt>
<trkpt lat="53.209459" lon="-1.986641"><ele>407</ele><time>2022-11-25T11:32:07Z</time><name>PT1092</name></trkpt>
<trkpt lat="53.209427" lon="-1.986679"><ele>406</ele><time>2022-11-25T11:32:11Z</time><name>PT1093</name></trkpt>
<trkpt lat="53.209406" lon="-1.986707"><ele>404</ele><time>2022-11-25T11:32:14Z</time><name>PT1094</name></trkpt>
<trkpt lat="53.209389" lon="-1.986728"><ele>403</ele><time>2022-11-25T11:32:17Z</time><name>PT1095</name></trkpt>
<trkpt lat="53.209357" lon="-1.986769"><ele>403</ele><time>2022-11-25T11:32:22Z</time><name>PT1096</name></trkpt>
<trkpt lat="53.209332" lon="-1.986791"><ele>403</ele><time>2022-11-25T11:32:25Z</time><name>PT1097</name></trkpt>
<trkpt lat="53.209294" lon="-1.986826"><ele>402</ele><time>2022-11-25T11:32:29Z</time><name>PT1098</name></trkpt>
<trkpt lat="53.209265" lon="-1.986838"><ele>400</ele><time>2022-11-25T11:32:32Z</time><name>PT1099</name></trkpt>
<trkpt lat="53.209228" lon="-1.986869"><ele>398</ele><time>2022-11-25T11:32:35Z</time><name>PT1100</name></trkpt>
<trkpt lat="53.209194" lon="-1.986889"><ele>396</ele><time>2022-11-25T11:32:40Z</time><name>PT1101</name></trkpt>
<trkpt lat="53.209164" lon="-1.986911"><ele>395</ele><time>2022-11-25T11:32:44Z</time><name>PT1102</name></trkpt>
<trkpt lat="53.209132" lon="-1.986930"><ele>394</ele><time>2022-11-25T11:32:47Z</time><name>PT1103</name></trkpt>
<trkpt lat="53.209091" lon="-1.986957"><ele>392</ele><time>2022-11-25T11:32:52Z</time><name>PT1104</name></trkpt>
<trkpt lat="53.209046" lon="-1.986983"><ele>392</ele><time>2022-11-25T11:32:56Z</time><name>PT1105</name></trkpt>
<trkpt lat="53.209012" lon="-1.987001"><ele>392</ele><time>2022-11-25T11:32:59Z</time><name>PT1106</name></trkpt>
<trkpt lat="53.208985" lon="-1.987048"><ele>393</ele><time>2022-11-25T11:33:02Z</time><name>PT1107</name></trkpt>
<trkpt lat="53.208959" lon="-1.987068"><ele>392</ele><time>2022-11-25T11:33:05Z</time><name>PT1108</name></trkpt>
<trkpt lat="53.208934" lon="-1.987083"><ele>390</ele><time>2022-11-25T11:33:08Z</time><name>PT1109</name></trkpt>
<trkpt lat="53.208885" lon="-1.987119"><ele>390</ele><time>2022-11-25T11:33:13Z</time><name>PT1110</name></trkpt>
<trkpt lat="53.208861" lon="-1.987146"><ele>391</ele><time>2022-11-25T11:33:16Z</time><name>PT1111</name></trkpt>
<trkpt lat="53.208843" lon="-1.987173"><ele>392</ele><time>2022-11-25T11:33:19Z</time><name>PT1112</name></trkpt>
<trkpt lat="53.208820" lon="-1.987187"><ele>392</ele><time>2022-11-25T11:33:23Z</time><name>PT1113</name></trkpt>
<trkpt lat="53.208779" lon="-1.987210"><ele>391</ele><time>2022-11-25T11:33:26Z</time><name>PT1114</name></trkpt>
<trkpt lat="53.208756" lon="-1.987208"><ele>390</ele><time>2022-11-25T11:33:29Z</time><name>PT1115</name></trkpt>
<trkpt lat="53.208710" lon="-1.987232"><ele>387</ele><time>2022-11-25T11:33:32Z</time><name>PT1116</name></trkpt>
<trkpt lat="53.208675" lon="-1.987244"><ele>386</ele><time>2022-11-25T11:33:37Z</time><name>PT1117</name></trkpt>
<trkpt lat="53.208648" lon="-1.987255"><ele>383</ele><time>2022-11-25T11:33:40Z</time><name>PT1118</name></trkpt>
<trkpt lat="53.208617" lon="-1.987300"><ele>384</ele><time>2022-11-25T11:33:44Z</time><name>PT1119</name></trkpt>
<trkpt lat="53.208576" lon="-1.987314"><ele>385</ele><time>2022-11-25T11:33:47Z</time><name>PT1120</name></trkpt>
<trkpt lat="53.208542" lon="-1.987345"><ele>385</ele><time>2022-11-25T11:33:52Z</time><name>PT1121</name></trkpt>
<trkpt lat="53.208508" lon="-1.987376"><ele>384</ele><time>2022-11-25T11:33:56Z</time><name>PT1122</name></trkpt>
<trkpt lat="53.208475" lon="-1.987403"><ele>383</ele><time>2022-11-25T11:33:59Z</time><name>PT1123</name></trkpt>
<trkpt lat="53.208443" lon="-1.987445"><ele>385</ele><time>2022-11-25T11:34:02Z</time><name>PT1124</name></trkpt>
<trkpt lat="53.208419" lon="-1.987483"><ele>383</ele><time>2022-11-25T11:34:07Z</time><name>PT1125</name></trkpt>
<trkpt lat="53.208399" lon="-1.987530"><ele>384</ele><time>2022-11-25T11:34:10Z</time><name>PT1126</name></trkpt>
<trkpt lat="53.208368" lon="-1.987570"><ele>385</ele><time>2022-11-25T11:34:14Z</time><name>PT1127</name></trkpt>
<trkpt lat="53.208340" lon="-1.987587"><ele>384</ele><time>2022-11-25T11:34:17Z</time><name>PT1128</name></trkpt>
<trkpt lat="53.208306" lon="-1.987612"><ele>382</ele><time>2022-11-25T11:34:20Z</time><name>PT1129</name></trkpt>
<trkpt lat="53.208282" lon="-1.987636"><ele>381</ele><time>2022-11-25T11:34:23Z</time><name>PT1130</name></trkpt>
<trkpt lat="53.208231" lon="-1.987695"><ele>383</ele><time>2022-11-25T11:34:28Z</time><name>PT1131</name></trkpt>
<trkpt lat="53.208200" lon="-1.987736"><ele>384</ele><time>2022-11-25T11:34:31Z</time><name>PT1132</name></trkpt>
<trkpt lat="53.208167" lon="-1.987791"><ele>386</ele><time>2022-11-25T11:34:34Z</time><name>PT1133</name></trkpt>
<trkpt lat="53.208136" lon="-1.987816"><ele>386</ele><time>2022-11-25T11:34:38Z</time><name>PT1134</name></trkpt>
<trkpt lat="53.208098" lon="-1.987842"><ele>386</ele><time>2022-11-25T11:34:41Z</time><name>PT1135</name></trkpt>
<trkpt lat="53.208068" lon="-1.987867"><ele>384</ele><time>2022-11-25T11:34:44Z</time><name>PT1136</name></trkpt>
<trkpt lat="53.208032" lon="-1.987913"><ele>385</ele><time>2022-11-25T11:34:47Z</time><name>PT1137</name></trkpt>
<trkpt lat="53.208007" lon="-1.987933"><ele>385</ele><time>2022-11-25T11:34:50Z</time><name>PT1138</name></trkpt>
<trkpt lat="53.207983" lon="-1.987958"><ele>384</ele><time>2022-11-25T11:34:55Z</time><name>PT1139</name></trkpt>
<trkpt lat="53.207972" lon="-1.987975"><ele>385</ele><time>2022-11-25T11:34:59Z</time><name>PT1140</name></trkpt>
<trkpt lat="53.207971" lon="-1.987984"><ele>385</ele><time>2022-11-25T11:35:13Z</time><name>PT1141</name></trkpt>
<trkpt lat="53.207967" lon="-1.987992"><ele>385</ele><time>2022-11-25T11:35:17Z</time><name>PT1142</name></trkpt>
<trkpt lat="53.207941" lon="-1.987982"><ele>384</ele><time>2022-11-25T11:35:20Z</time><name>PT1143</name></trkpt>
<trkpt lat="53.207906" lon="-1.988062"><ele>384</ele><time>2022-11-25T11:35:23Z</time><name>PT1144</name></trkpt>
<trkpt lat="53.207874" lon="-1.988104"><ele>383</ele><time>2022-11-25T11:35:26Z</time><name>PT1145</name></trkpt>
<trkpt lat="53.207837" lon="-1.988137"><ele>384</ele><time>2022-11-25T11:35:31Z</time><name>PT1146</name></trkpt>
<trkpt lat="53.207807" lon="-1.988167"><ele>383</ele><time>2022-11-25T11:35:34Z</time><name>PT1147</name></trkpt>
<trkpt lat="53.207764" lon="-1.988216"><ele>381</ele><time>2022-11-25T11:35:38Z</time><name>PT1148</name></trkpt>
<trkpt lat="53.207726" lon="-1.988269"><ele>378</ele><time>2022-11-25T11:35:41Z</time><name>PT1149</name></trkpt>
<trkpt lat="53.207696" lon="-1.988312"><ele>378</ele><time>2022-11-25T11:35:44Z</time><name>PT1150</name></trkpt>
<trkpt lat="53.207668" lon="-1.988373"><ele>379</ele><time>2022-11-25T11:35:47Z</time><name>PT1151</name></trkpt>
<trkpt lat="53.207637" lon="-1.988450"><ele>379</ele><time>2022-11-25T11:35:52Z</time><name>PT1152</name></trkpt>
<trkpt lat="53.207624" lon="-1.988498"><ele>378</ele><time>2022-11-25T11:35:55Z</time><name>PT1153</name></trkpt>
<trkpt lat="53.207602" lon="-1.988547"><ele>378</ele><time>2022-11-25T11:35:58Z</time><name>PT1154</name></trkpt>
<trkpt lat="53.207574" lon="-1.988589"><ele>377</ele><time>2022-11-25T11:36:01Z</time><name>PT1155</name></trkpt>
<trkpt lat="53.207520" lon="-1.988623"><ele>376</ele><time>2022-11-25T11:36:05Z</time><name>PT1156</name></trkpt>
<trkpt lat="53.207485" lon="-1.988654"><ele>377</ele><time>2022-11-25T11:36:08Z</time><name>PT1157</name></trkpt>
<trkpt lat="53.207446" lon="-1.988689"><ele>376</ele><time>2022-11-25T11:36:11Z</time><name>PT1158</name></trkpt>
<trkpt lat="53.207392" lon="-1.988702"><ele>376</ele><time>2022-11-25T11:36:14Z</time><name>PT1159</name></trkpt>
<trkpt lat="53.207353" lon="-1.988718"><ele>376</ele><time>2022-11-25T11:36:17Z</time><name>PT1160</name></trkpt>
<trkpt lat="53.207304" lon="-1.988741"><ele>376</ele><time>2022-11-25T11:36:22Z</time><name>PT1161</name></trkpt>
<trkpt lat="53.207266" lon="-1.988751"><ele>375</ele><time>2022-11-25T11:36:25Z</time><name>PT1162</name></trkpt>
<trkpt lat="53.207217" lon="-1.988764"><ele>375</ele><time>2022-11-25T11:36:29Z</time><name>PT1163</name></trkpt>
<trkpt lat="53.207178" lon="-1.988757"><ele>375</ele><time>2022-11-25T11:36:32Z</time><name>PT1164</name></trkpt>
<trkpt lat="53.207139" lon="-1.988764"><ele>375</ele><time>2022-11-25T11:36:35Z</time><name>PT1165</name></trkpt>
<trkpt lat="53.207099" lon="-1.988777"><ele>375</ele><time>2022-11-25T11:36:38Z</time><name>PT1166</name></trkpt>
<trkpt lat="53.207050" lon="-1.988802"><ele>374</ele><time>2022-11-25T11:36:41Z</time><name>PT1167</name></trkpt>
<trkpt lat="53.207013" lon="-1.988817"><ele>373</ele><time>2022-11-25T11:36:46Z</time><name>PT1168</name></trkpt>
<trkpt lat="53.206984" lon="-1.988824"><ele>373</ele><time>2022-11-25T11:36:49Z</time><name>PT1169</name></trkpt>
<trkpt lat="53.206936" lon="-1.988826"><ele>372</ele><time>2022-11-25T11:36:53Z</time><name>PT1170</name></trkpt>
<trkpt lat="53.206902" lon="-1.988844"><ele>373</ele><time>2022-11-25T11:36:56Z</time><name>PT1171</name></trkpt>
<trkpt lat="53.206871" lon="-1.988852"><ele>373</ele><time>2022-11-25T11:36:59Z</time><name>PT1172</name></trkpt>
<trkpt lat="53.206840" lon="-1.988878"><ele>372</ele><time>2022-11-25T11:37:02Z</time><name>PT1173</name></trkpt>
<trkpt lat="53.206809" lon="-1.988889"><ele>372</ele><time>2022-11-25T11:37:05Z</time><name>PT1174</name></trkpt>
<trkpt lat="53.206764" lon="-1.988905"><ele>372</ele><time>2022-11-25T11:37:08Z</time><name>PT1175</name></trkpt>
<trkpt lat="53.206747" lon="-1.988908"><ele>372</ele><time>2022-11-25T11:37:11Z</time><name>PT1176</name></trkpt>
<trkpt lat="53.206743" lon="-1.988909"><ele>372</ele><time>2022-11-25T11:37:16Z</time><name>PT1177</name></trkpt>
<trkpt lat="53.206739" lon="-1.988900"><ele>372</ele><time>2022-11-25T11:37:23Z</time><name>PT1178</name></trkpt>
<trkpt lat="53.206708" lon="-1.988903"><ele>372</ele><time>2022-11-25T11:37:26Z</time><name>PT1179</name></trkpt>
<trkpt lat="53.206658" lon="-1.988915"><ele>373</ele><time>2022-11-25T11:37:29Z</time><name>PT1180</name></trkpt>
<trkpt lat="53.206614" lon="-1.988924"><ele>372</ele><time>2022-11-25T11:37:34Z</time><name>PT1181</name></trkpt>
<trkpt lat="53.206579" lon="-1.988937"><ele>372</ele><time>2022-11-25T11:37:37Z</time><name>PT1182</name></trkpt>
<trkpt lat="53.206556" lon="-1.988930"><ele>372</ele><time>2022-11-25T11:37:40Z</time><name>PT1183</name></trkpt>
<trkpt lat="53.206517" lon="-1.988942"><ele>371</ele><time>2022-11-25T11:37:44Z</time><name>PT1184</name></trkpt>
<trkpt lat="53.206466" lon="-1.988958"><ele>371</ele><time>2022-11-25T11:37:47Z</time><name>PT1185</name></trkpt>
<trkpt lat="53.206438" lon="-1.988976"><ele>371</ele><time>2022-11-25T11:37:50Z</time><name>PT1186</name></trkpt>
<trkpt lat="53.206412" lon="-1.988985"><ele>372</ele><time>2022-11-25T11:37:53Z</time><name>PT1187</name></trkpt>
<trkpt lat="53.206385" lon="-1.988996"><ele>372</ele><time>2022-11-25T11:37:56Z</time><name>PT1188</name></trkpt>
<trkpt lat="53.206350" lon="-1.989018"><ele>372</ele><time>2022-11-25T11:38:01Z</time><name>PT1189</name></trkpt>
<trkpt lat="53.206318" lon="-1.989022"><ele>372</ele><time>2022-11-25T11:38:04Z</time><name>PT1190</name></trkpt>
<trkpt lat="53.206286" lon="-1.989030"><ele>372</ele><time>2022-11-25T11:38:07Z</time><name>PT1191</name></trkpt>
<trkpt lat="53.206244" lon="-1.989038"><ele>372</ele><time>2022-11-25T11:38:11Z</time><name>PT1192</name></trkpt>
<trkpt lat="53.206209" lon="-1.989035"><ele>373</ele><time>2022-11-25T11:38:14Z</time><name>PT1193</name></trkpt>
<trkpt lat="53.206178" lon="-1.989034"><ele>372</ele><time>2022-11-25T11:38:17Z</time><name>PT1194</name></trkpt>
<trkpt lat="53.206134" lon="-1.989034"><ele>373</ele><time>2022-11-25T11:38:20Z</time><name>PT1195</name></trkpt>
<trkpt lat="53.206093" lon="-1.989022"><ele>373</ele><time>2022-11-25T11:38:25Z</time><name>PT1196</name></trkpt>
<trkpt lat="53.206049" lon="-1.989015"><ele>373</ele><time>2022-11-25T11:38:29Z</time><name>PT1197</name></trkpt>
<trkpt lat="53.206011" lon="-1.988988"><ele>372</ele><time>2022-11-25T11:38:32Z</time><name>PT1198</name></trkpt>
<trkpt lat="53.205983" lon="-1.988968"><ele>373</ele><time>2022-11-25T11:38:35Z</time><name>PT1199</name></trkpt>
<trkpt lat="53.205939" lon="-1.988948"><ele>373</ele><time>2022-11-25T11:38:40Z</time><name>PT1200</name></trkpt>
<trkpt lat="53.205898" lon="-1.988930"><ele>373</ele><time>2022-11-25T11:38:44Z</time><name>PT1201</name></trkpt>
<trkpt lat="53.205865" lon="-1.988922"><ele>373</ele><time>2022-11-25T11:38:47Z</time><name>PT1202</name></trkpt>
<trkpt lat="53.205840" lon="-1.988914"><ele>373</ele><time>2022-11-25T11:38:50Z</time><name>PT1203</name></trkpt>
<trkpt lat="53.205804" lon="-1.988893"><ele>374</ele><time>2022-11-25T11:38:53Z</time><name>PT1204</name></trkpt>
<trkpt lat="53.205771" lon="-1.988862"><ele>373</ele><time>2022-11-25T11:38:58Z</time><name>PT1205</name></trkpt>
<trkpt lat="53.205739" lon="-1.988835"><ele>373</ele><time>2022-11-25T11:39:02Z</time><name>PT1206</name></trkpt>
<trkpt lat="53.205709" lon="-1.988807"><ele>373</ele><time>2022-11-25T11:39:05Z</time><name>PT1207</name></trkpt>
<trkpt lat="53.205685" lon="-1.988790"><ele>373</ele><time>2022-11-25T11:39:08Z</time><name>PT1208</name></trkpt>
<trkpt lat="53.205652" lon="-1.988758"><ele>374</ele><time>2022-11-25T11:39:11Z</time><name>PT1209</name></trkpt>
<trkpt lat="53.205609" lon="-1.988731"><ele>374</ele><time>2022-11-25T11:39:16Z</time><name>PT1210</name></trkpt>
<trkpt lat="53.205585" lon="-1.988713"><ele>374</ele><time>2022-11-25T11:39:19Z</time><name>PT1211</name></trkpt>
<trkpt lat="53.205549" lon="-1.988686"><ele>374</ele><time>2022-11-25T11:39:23Z</time><name>PT1212</name></trkpt>
<trkpt lat="53.205523" lon="-1.988665"><ele>374</ele><time>2022-11-25T11:39:26Z</time><name>PT1213</name></trkpt>
<trkpt lat="53.205490" lon="-1.988650"><ele>374</ele><time>2022-11-25T11:39:29Z</time><name>PT1214</name></trkpt>
<trkpt lat="53.205468" lon="-1.988633"><ele>374</ele><time>2022-11-25T11:39:32Z</time><name>PT1215</name></trkpt>
<trkpt lat="53.205437" lon="-1.988618"><ele>375</ele><time>2022-11-25T11:39:35Z</time><name>PT1216</name></trkpt>
<trkpt lat="53.205397" lon="-1.988606"><ele>376</ele><time>2022-11-25T11:39:40Z</time><name>PT1217</name></trkpt>
<trkpt lat="53.205363" lon="-1.988581"><ele>376</ele><time>2022-11-25T11:39:44Z</time><name>PT1218</name></trkpt>
<trkpt lat="53.205340" lon="-1.988561"><ele>376</ele><time>2022-11-25T11:39:47Z</time><name>PT1219</name></trkpt>
<trkpt lat="53.205311" lon="-1.988535"><ele>376</ele><time>2022-11-25T11:39:50Z</time><name>PT1220</name></trkpt>
<trkpt lat="53.205289" lon="-1.988507"><ele>375</ele><time>2022-11-25T11:39:53Z</time><name>PT1221</name></trkpt>
<trkpt lat="53.205249" lon="-1.988476"><ele>375</ele><time>2022-11-25T11:39:58Z</time><name>PT1222</name></trkpt>
<trkpt lat="53.205218" lon="-1.988443"><ele>376</ele><time>2022-11-25T11:40:02Z</time><name>PT1223</name></trkpt>
<trkpt lat="53.205197" lon="-1.988411"><ele>375</ele><time>2022-11-25T11:40:05Z</time><name>PT1224</name></trkpt>
<trkpt lat="53.205168" lon="-1.988384"><ele>375</ele><time>2022-11-25T11:40:08Z</time><name>PT1225</name></trkpt>
<trkpt lat="53.205126" lon="-1.988355"><ele>375</ele><time>2022-11-25T11:40:13Z</time><name>PT1226</name></trkpt>
<trkpt lat="53.205077" lon="-1.988335"><ele>376</ele><time>2022-11-25T11:40:17Z</time><name>PT1227</name></trkpt>
<trkpt lat="53.205048" lon="-1.988313"><ele>376</ele><time>2022-11-25T11:40:20Z</time><name>PT1228</name></trkpt>
<trkpt lat="53.205022" lon="-1.988285"><ele>377</ele><time>2022-11-25T11:40:23Z</time><name>PT1229</name></trkpt>
<trkpt lat="53.204985" lon="-1.988245"><ele>378</ele><time>2022-11-25T11:40:26Z</time><name>PT1230</name></trkpt>
<trkpt lat="53.204950" lon="-1.988222"><ele>378</ele><time>2022-11-25T11:40:29Z</time><name>PT1231</name></trkpt>
<trkpt lat="53.204919" lon="-1.988180"><ele>379</ele><time>2022-11-25T11:40:34Z</time><name>PT1232</name></trkpt>
<trkpt lat="53.204891" lon="-1.988142"><ele>379</ele><time>2022-11-25T11:40:37Z</time><name>PT1233</name></trkpt>
<trkpt lat="53.204856" lon="-1.988103"><ele>380</ele><time>2022-11-25T11:40:41Z</time><name>PT1234</name></trkpt>
<trkpt lat="53.204819" lon="-1.988063"><ele>380</ele><time>2022-11-25T11:40:44Z</time><name>PT1235</name></trkpt>
<trkpt lat="53.204786" lon="-1.988021"><ele>381</ele><time>2022-11-25T11:40:49Z</time><name>PT1236</name></trkpt>
<trkpt lat="53.204758" lon="-1.987988"><ele>381</ele><time>2022-11-25T11:40:52Z</time><name>PT1237</name></trkpt>
<trkpt lat="53.204711" lon="-1.987943"><ele>382</ele><time>2022-11-25T11:40:56Z</time><name>PT1238</name></trkpt>
<trkpt lat="53.204678" lon="-1.987910"><ele>384</ele><time>2022-11-25T11:40:59Z</time><name>PT1239</name></trkpt>
<trkpt lat="53.204657" lon="-1.987890"><ele>384</ele><time>2022-11-25T11:41:02Z</time><name>PT1240</name></trkpt>
<trkpt lat="53.204627" lon="-1.987850"><ele>383</ele><time>2022-11-25T11:41:05Z</time><name>PT1241</name></trkpt>
<trkpt lat="53.204592" lon="-1.987814"><ele>384</ele><time>2022-11-25T11:41:10Z</time><name>PT1242</name></trkpt>
<trkpt lat="53.204569" lon="-1.987769"><ele>383</ele><time>2022-11-25T11:41:13Z</time><name>PT1243</name></trkpt>
<trkpt lat="53.204536" lon="-1.987724"><ele>383</ele><time>2022-11-25T11:41:17Z</time><name>PT1244</name></trkpt>
<trkpt lat="53.204510" lon="-1.987684"><ele>382</ele><time>2022-11-25T11:41:20Z</time><name>PT1245</name></trkpt>
<trkpt lat="53.204492" lon="-1.987649"><ele>383</ele><time>2022-11-25T11:41:23Z</time><name>PT1246</name></trkpt>
<trkpt lat="53.204470" lon="-1.987623"><ele>383</ele><time>2022-11-25T11:41:26Z</time><name>PT1247</name></trkpt>
<trkpt lat="53.204459" lon="-1.987604"><ele>384</ele><time>2022-11-25T11:41:29Z</time><name>PT1248</name></trkpt>
<trkpt lat="53.204457" lon="-1.987597"><ele>383</ele><time>2022-11-25T11:41:34Z</time><name>PT1249</name></trkpt>
<trkpt lat="53.204436" lon="-1.987576"><ele>384</ele><time>2022-11-25T11:41:37Z</time><name>PT1250</name></trkpt>
<trkpt lat="53.204434" lon="-1.987576"><ele>384</ele><time>2022-11-25T11:41:44Z</time><name>PT1251</name></trkpt>
<trkpt lat="53.204419" lon="-1.987591"><ele>383</ele><time>2022-11-25T11:41:47Z</time><name>PT1252</name></trkpt>
<trkpt lat="53.204388" lon="-1.987601"><ele>382</ele><time>2022-11-25T11:41:52Z</time><name>PT1253</name></trkpt>
<trkpt lat="53.204357" lon="-1.987600"><ele>381</ele><time>2022-11-25T11:41:55Z</time><name>PT1254</name></trkpt>
<trkpt lat="53.204324" lon="-1.987614"><ele>379</ele><time>2022-11-25T11:41:59Z</time><name>PT1255</name></trkpt>
<trkpt lat="53.204301" lon="-1.987629"><ele>379</ele><time>2022-11-25T11:42:02Z</time><name>PT1256</name></trkpt>
<trkpt lat="53.204279" lon="-1.987635"><ele>378</ele><time>2022-11-25T11:42:05Z</time><name>PT1257</name></trkpt>
<trkpt lat="53.204252" lon="-1.987644"><ele>378</ele><time>2022-11-25T11:42:08Z</time><name>PT1258</name></trkpt>
<trkpt lat="53.204237" lon="-1.987644"><ele>380</ele><time>2022-11-25T11:42:11Z</time><name>PT1259</name></trkpt>
<trkpt lat="53.204221" lon="-1.987646"><ele>381</ele><time>2022-11-25T11:42:14Z</time><name>PT1260</name></trkpt>
<trkpt lat="53.204209" lon="-1.987677"><ele>380</ele><time>2022-11-25T11:42:19Z</time><name>PT1261</name></trkpt>
<trkpt lat="53.204173" lon="-1.987691"><ele>379</ele><time>2022-11-25T11:42:23Z</time><name>PT1262</name></trkpt>
<trkpt lat="53.204143" lon="-1.987695"><ele>378</ele><time>2022-11-25T11:42:26Z</time><name>PT1263</name></trkpt>
<trkpt lat="53.204112" lon="-1.987712"><ele>378</ele><time>2022-11-25T11:42:29Z</time><name>PT1264</name></trkpt>
<trkpt lat="53.204088" lon="-1.987714"><ele>377</ele><time>2022-11-25T11:42:32Z</time><name>PT1265</name></trkpt>
<trkpt lat="53.204060" lon="-1.987705"><ele>377</ele><time>2022-11-25T11:42:35Z</time><name>PT1266</name></trkpt>
<trkpt lat="53.204037" lon="-1.987692"><ele>376</ele><time>2022-11-25T11:42:38Z</time><name>PT1267</name></trkpt>
<trkpt lat="53.204016" lon="-1.987682"><ele>376</ele><time>2022-11-25T11:42:41Z</time><name>PT1268</name></trkpt>
<trkpt lat="53.203975" lon="-1.987663"><ele>375</ele><time>2022-11-25T11:42:46Z</time><name>PT1269</name></trkpt>
<trkpt lat="53.203942" lon="-1.987645"><ele>375</ele><time>2022-11-25T11:42:49Z</time><name>PT1270</name></trkpt>
<trkpt lat="53.203897" lon="-1.987638"><ele>375</ele><time>2022-11-25T11:42:53Z</time><name>PT1271</name></trkpt>
<trkpt lat="53.203863" lon="-1.987618"><ele>375</ele><time>2022-11-25T11:42:56Z</time><name>PT1272</name></trkpt>
<trkpt lat="53.203837" lon="-1.987620"><ele>376</ele><time>2022-11-25T11:42:59Z</time><name>PT1273</name></trkpt>
<trkpt lat="53.203809" lon="-1.987627"><ele>375</ele><time>2022-11-25T11:43:02Z</time><name>PT1274</name></trkpt>
<trkpt lat="53.203783" lon="-1.987621"><ele>375</ele><time>2022-11-25T11:43:05Z</time><name>PT1275</name></trkpt>
<trkpt lat="53.203753" lon="-1.987607"><ele>375</ele><time>2022-11-25T11:43:10Z</time><name>PT1276</name></trkpt>
<trkpt lat="53.203730" lon="-1.987598"><ele>374</ele><time>2022-11-25T11:43:13Z</time><name>PT1277</name></trkpt>
<trkpt lat="53.203699" lon="-1.987572"><ele>374</ele><time>2022-11-25T11:43:17Z</time><name>PT1278</name></trkpt>
<trkpt lat="53.203671" lon="-1.987570"><ele>373</ele><time>2022-11-25T11:43:20Z</time><name>PT1279</name></trkpt>
<trkpt lat="53.203629" lon="-1.987579"><ele>373</ele><time>2022-11-25T11:43:23Z</time><name>PT1280</name></trkpt>
<trkpt lat="53.203586" lon="-1.987583"><ele>374</ele><time>2022-11-25T11:43:28Z</time><name>PT1281</name></trkpt>
<trkpt lat="53.203543" lon="-1.987583"><ele>374</ele><time>2022-11-25T11:43:32Z</time><name>PT1282</name></trkpt>
<trkpt lat="53.203506" lon="-1.987579"><ele>373</ele><time>2022-11-25T11:43:35Z</time><name>PT1283</name></trkpt>
<trkpt lat="53.203462" lon="-1.987558"><ele>372</ele><time>2022-11-25T11:43:40Z</time><name>PT1284</name></trkpt>
<trkpt lat="53.203424" lon="-1.987552"><ele>372</ele><time>2022-11-25T11:43:44Z</time><name>PT1285</name></trkpt>
<trkpt lat="53.203385" lon="-1.987557"><ele>371</ele><time>2022-11-25T11:43:47Z</time><name>PT1286</name></trkpt>
<trkpt lat="53.203339" lon="-1.987559"><ele>371</ele><time>2022-11-25T11:43:50Z</time><name>PT1287</name></trkpt>
<trkpt lat="53.203291" lon="-1.987568"><ele>371</ele><time>2022-11-25T11:43:55Z</time><name>PT1288</name></trkpt>
<trkpt lat="53.203243" lon="-1.987570"><ele>371</ele><time>2022-11-25T11:43:59Z</time><name>PT1289</name></trkpt>
<trkpt lat="53.203209" lon="-1.987581"><ele>370</ele><time>2022-11-25T11:44:02Z</time><name>PT1290</name></trkpt>
<trkpt lat="53.203178" lon="-1.987586"><ele>370</ele><time>2022-11-25T11:44:05Z</time><name>PT1291</name></trkpt>
<trkpt lat="53.203133" lon="-1.987602"><ele>370</ele><time>2022-11-25T11:44:08Z</time><name>PT1292</name></trkpt>
<trkpt lat="53.203105" lon="-1.987606"><ele>369</ele><time>2022-11-25T11:44:11Z</time><name>PT1293</name></trkpt>
<trkpt lat="53.203068" lon="-1.987602"><ele>369</ele><time>2022-11-25T11:44:16Z</time><name>PT1294</name></trkpt>
<trkpt lat="53.203028" lon="-1.987580"><ele>369</ele><time>2022-11-25T11:44:20Z</time><name>PT1295</name></trkpt>
<trkpt lat="53.202993" lon="-1.987568"><ele>369</ele><time>2022-11-25T11:44:23Z</time><name>PT1296</name></trkpt>
<trkpt lat="53.202959" lon="-1.987582"><ele>368</ele><time>2022-11-25T11:44:26Z</time><name>PT1297</name></trkpt>
<trkpt lat="53.202922" lon="-1.987614"><ele>366</ele><time>2022-11-25T11:44:29Z</time><name>PT1298</name></trkpt>
<trkpt lat="53.202893" lon="-1.987649"><ele>366</ele><time>2022-11-25T11:44:32Z</time><name>PT1299</name></trkpt>
<trkpt lat="53.202869" lon="-1.987685"><ele>365</ele><time>2022-11-25T11:44:35Z</time><name>PT1300</name></trkpt>
<trkpt lat="53.202842" lon="-1.987714"><ele>364</ele><time>2022-11-25T11:44:40Z</time><name>PT1301</name></trkpt>
<trkpt lat="53.202823" lon="-1.987729"><ele>364</ele><time>2022-11-25T11:44:43Z</time><name>PT1302</name></trkpt>
<trkpt lat="53.202818" lon="-1.987748"><ele>364</ele><time>2022-11-25T11:44:47Z</time><name>PT1303</name></trkpt>
<trkpt lat="53.202810" lon="-1.987762"><ele>365</ele><time>2022-11-25T11:44:50Z</time><name>PT1304</name></trkpt>
<trkpt lat="53.202812" lon="-1.987765"><ele>365</ele><time>2022-11-25T11:44:58Z</time><name>PT1305</name></trkpt>
<trkpt lat="53.202809" lon="-1.987801"><ele>365</ele><time>2022-11-25T11:45:01Z</time><name>PT1306</name></trkpt>
<trkpt lat="53.202804" lon="-1.987826"><ele>365</ele><time>2022-11-25T11:45:04Z</time><name>PT1307</name></trkpt>
<trkpt lat="53.202770" lon="-1.987808"><ele>365</ele><time>2022-11-25T11:45:07Z</time><name>PT1308</name></trkpt>
<trkpt lat="53.202743" lon="-1.987814"><ele>363</ele><time>2022-11-25T11:45:11Z</time><name>PT1309</name></trkpt>
<trkpt lat="53.202735" lon="-1.987812"><ele>363</ele><time>2022-11-25T11:45:14Z</time><name>PT1310</name></trkpt>
<trkpt lat="53.202737" lon="-1.987808"><ele>364</ele><time>2022-11-25T11:45:29Z</time><name>PT1311</name></trkpt>
<trkpt lat="53.202735" lon="-1.987814"><ele>364</ele><time>2022-11-25T11:45:53Z</time><name>PT1312</name></trkpt>
<trkpt lat="53.202701" lon="-1.987816"><ele>364</ele><time>2022-11-25T11:45:56Z</time><name>PT1313</name></trkpt>
<trkpt lat="53.202672" lon="-1.987826"><ele>364</ele><time>2022-11-25T11:45:59Z</time><name>PT1314</name></trkpt>
<trkpt lat="53.202631" lon="-1.987827"><ele>363</ele><time>2022-11-25T11:46:04Z</time><name>PT1315</name></trkpt>
<trkpt lat="53.202593" lon="-1.987826"><ele>364</ele><time>2022-11-25T11:46:07Z</time><name>PT1316</name></trkpt>
<trkpt lat="53.202548" lon="-1.987809"><ele>363</ele><time>2022-11-25T11:46:11Z</time><name>PT1317</name></trkpt>
<trkpt lat="53.202514" lon="-1.987805"><ele>363</ele><time>2022-11-25T11:46:14Z</time><name>PT1318</name></trkpt>
<trkpt lat="53.202463" lon="-1.987803"><ele>364</ele><time>2022-11-25T11:46:17Z</time><name>PT1319</name></trkpt>
<trkpt lat="53.202412" lon="-1.987793"><ele>364</ele><time>2022-11-25T11:46:22Z</time><name>PT1320</name></trkpt>
<trkpt lat="53.202365" lon="-1.987795"><ele>364</ele><time>2022-11-25T11:46:26Z</time><name>PT1321</name></trkpt>
<trkpt lat="53.202330" lon="-1.987787"><ele>365</ele><time>2022-11-25T11:46:29Z</time><name>PT1322</name></trkpt>
<trkpt lat="53.202274" lon="-1.987784"><ele>365</ele><time>2022-11-25T11:46:32Z</time><name>PT1323</name></trkpt>
<trkpt lat="53.202244" lon="-1.987774"><ele>365</ele><time>2022-11-25T11:46:35Z</time><name>PT1324</name></trkpt>
<trkpt lat="53.202202" lon="-1.987776"><ele>363</ele><time>2022-11-25T11:46:40Z</time><name>PT1325</name></trkpt>
<trkpt lat="53.202161" lon="-1.987784"><ele>364</ele><time>2022-11-25T11:46:43Z</time><name>PT1326</name></trkpt>
<trkpt lat="53.202123" lon="-1.987786"><ele>363</ele><time>2022-11-25T11:46:46Z</time><name>PT1327</name></trkpt>
<trkpt lat="53.202074" lon="-1.987788"><ele>362</ele><time>2022-11-25T11:46:50Z</time><name>PT1328</name></trkpt>
<trkpt lat="53.202036" lon="-1.987799"><ele>363</ele><time>2022-11-25T11:46:53Z</time><name>PT1329</name></trkpt>
<trkpt lat="53.201984" lon="-1.987798"><ele>362</ele><time>2022-11-25T11:46:56Z</time><name>PT1330</name></trkpt>
<trkpt lat="53.201942" lon="-1.987800"><ele>362</ele><time>2022-11-25T11:46:59Z</time><name>PT1331</name></trkpt>
<trkpt lat="53.201891" lon="-1.987793"><ele>360</ele><time>2022-11-25T11:47:04Z</time><name>PT1332</name></trkpt>
<trkpt lat="53.201855" lon="-1.987773"><ele>359</ele><time>2022-11-25T11:47:07Z</time><name>PT1333</name></trkpt>
<trkpt lat="53.201817" lon="-1.987773"><ele>359</ele><time>2022-11-25T11:47:10Z</time><name>PT1334</name></trkpt>
<trkpt lat="53.201773" lon="-1.987749"><ele>357</ele><time>2022-11-25T11:47:14Z</time><name>PT1335</name></trkpt>
<trkpt lat="53.201736" lon="-1.987752"><ele>357</ele><time>2022-11-25T11:47:17Z</time><name>PT1336</name></trkpt>
<trkpt lat="53.201700" lon="-1.987750"><ele>356</ele><time>2022-11-25T11:47:20Z</time><name>PT1337</name></trkpt>
<trkpt lat="53.201653" lon="-1.987742"><ele>357</ele><time>2022-11-25T11:47:23Z</time><name>PT1338</name></trkpt>
<trkpt lat="53.201607" lon="-1.987747"><ele>357</ele><time>2022-11-25T11:47:28Z</time><name>PT1339</name></trkpt>
<trkpt lat="53.201577" lon="-1.987750"><ele>357</ele><time>2022-11-25T11:47:31Z</time><name>PT1340</name></trkpt>
<trkpt lat="53.201533" lon="-1.987745"><ele>357</ele><time>2022-11-25T11:47:35Z</time><name>PT1341</name></trkpt>
<trkpt lat="53.201502" lon="-1.987746"><ele>356</ele><time>2022-11-25T11:47:38Z</time><name>PT1342</name></trkpt>
<trkpt lat="53.201468" lon="-1.987736"><ele>355</ele><time>2022-11-25T11:47:41Z</time><name>PT1343</name></trkpt>
<trkpt lat="53.201434" lon="-1.987739"><ele>354</ele><time>2022-11-25T11:47:44Z</time><name>PT1344</name></trkpt>
<trkpt lat="53.201414" lon="-1.987741"><ele>354</ele><time>2022-11-25T11:47:47Z</time><name>PT1345</name></trkpt>
<trkpt lat="53.201410" lon="-1.987738"><ele>354</ele><time>2022-11-25T11:47:55Z</time><name>PT1346</name></trkpt>
<trkpt lat="53.201360" lon="-1.987768"><ele>352</ele><time>2022-11-25T11:47:59Z</time><name>PT1347</name></trkpt>
<trkpt lat="53.201321" lon="-1.987774"><ele>352</ele><time>2022-11-25T11:48:02Z</time><name>PT1348</name></trkpt>
<trkpt lat="53.201274" lon="-1.987772"><ele>352</ele><time>2022-11-25T11:48:05Z</time><name>PT1349</name></trkpt>
<trkpt lat="53.201240" lon="-1.987782"><ele>352</ele><time>2022-11-25T11:48:08Z</time><name>PT1350</name></trkpt>
<trkpt lat="53.201200" lon="-1.987772"><ele>352</ele><time>2022-11-25T11:48:13Z</time><name>PT1351</name></trkpt>
<trkpt lat="53.201152" lon="-1.987769"><ele>352</ele><time>2022-11-25T11:48:17Z</time><name>PT1352</name></trkpt>
<trkpt lat="53.201116" lon="-1.987765"><ele>352</ele><time>2022-11-25T11:48:20Z</time><name>PT1353</name></trkpt>
<trkpt lat="53.201085" lon="-1.987758"><ele>351</ele><time>2022-11-25T11:48:23Z</time><name>PT1354</name></trkpt>
<trkpt lat="53.201042" lon="-1.987736"><ele>351</ele><time>2022-11-25T11:48:26Z</time><name>PT1355</name></trkpt>
<trkpt lat="53.200997" lon="-1.987698"><ele>351</ele><time>2022-11-25T11:48:31Z</time><name>PT1356</name></trkpt>
<trkpt lat="53.200969" lon="-1.987669"><ele>350</ele><time>2022-11-25T11:48:34Z</time><name>PT1357</name></trkpt>
<trkpt lat="53.200936" lon="-1.987608"><ele>348</ele><time>2022-11-25T11:48:38Z</time><name>PT1358</name></trkpt>
<trkpt lat="53.200900" lon="-1.987552"><ele>348</ele><time>2022-11-25T11:48:41Z</time><name>PT1359</name></trkpt>
<trkpt lat="53.200877" lon="-1.987506"><ele>348</ele><time>2022-11-25T11:48:44Z</time><name>PT1360</name></trkpt>
<trkpt lat="53.200841" lon="-1.987443"><ele>347</ele><time>2022-11-25T11:48:49Z</time><name>PT1361</name></trkpt>
<trkpt lat="53.200809" lon="-1.987383"><ele>346</ele><time>2022-11-25T11:48:53Z</time><name>PT1362</name></trkpt>
<trkpt lat="53.200794" lon="-1.987330"><ele>347</ele><time>2022-11-25T11:48:56Z</time><name>PT1363</name></trkpt>
<trkpt lat="53.200771" lon="-1.987295"><ele>347</ele><time>2022-11-25T11:48:59Z</time><name>PT1364</name></trkpt>
<trkpt lat="53.200739" lon="-1.987237"><ele>346</ele><time>2022-11-25T11:49:02Z</time><name>PT1365</name></trkpt>
<trkpt lat="53.200704" lon="-1.987171"><ele>345</ele><time>2022-11-25T11:49:07Z</time><name>PT1366</name></trkpt>
<trkpt lat="53.200681" lon="-1.987123"><ele>344</ele><time>2022-11-25T11:49:10Z</time><name>PT1367</name></trkpt>
<trkpt lat="53.200650" lon="-1.987060"><ele>343</ele><time>2022-11-25T11:49:14Z</time><name>PT1368</name></trkpt>
<trkpt lat="53.200628" lon="-1.987026"><ele>342</ele><time>2022-11-25T11:49:17Z</time><name>PT1369</name></trkpt>
<trkpt lat="53.200603" lon="-1.986985"><ele>341</ele><time>2022-11-25T11:49:20Z</time><name>PT1370</name></trkpt>
<trkpt lat="53.200564" lon="-1.986917"><ele>341</ele><time>2022-11-25T11:49:23Z</time><name>PT1371</name></trkpt>
<trkpt lat="53.200530" lon="-1.986852"><ele>340</ele><time>2022-11-25T11:49:28Z</time><name>PT1372</name></trkpt>
<trkpt lat="53.200503" lon="-1.986805"><ele>340</ele><time>2022-11-25T11:49:31Z</time><name>PT1373</name></trkpt>
<trkpt lat="53.200474" lon="-1.986765"><ele>339</ele><time>2022-11-25T11:49:34Z</time><name>PT1374</name></trkpt>
<trkpt lat="53.200451" lon="-1.986714"><ele>339</ele><time>2022-11-25T11:49:37Z</time><name>PT1375</name></trkpt>
<trkpt lat="53.200417" lon="-1.986659"><ele>339</ele><time>2022-11-25T11:49:41Z</time><name>PT1376</name></trkpt>
<trkpt lat="53.200383" lon="-1.986593"><ele>338</ele><time>2022-11-25T11:49:44Z</time><name>PT1377</name></trkpt>
<trkpt lat="53.200359" lon="-1.986562"><ele>336</ele><time>2022-11-25T11:49:47Z</time><name>PT1378</name></trkpt>
<trkpt lat="53.200327" lon="-1.986494"><ele>337</ele><time>2022-11-25T11:49:52Z</time><name>PT1379</name></trkpt>
<trkpt lat="53.200297" lon="-1.986444"><ele>337</ele><time>2022-11-25T11:49:55Z</time><name>PT1380</name></trkpt>
<trkpt lat="53.200265" lon="-1.986397"><ele>336</ele><time>2022-11-25T11:49:59Z</time><name>PT1381</name></trkpt>
<trkpt lat="53.200244" lon="-1.986360"><ele>336</ele><time>2022-11-25T11:50:02Z</time><name>PT1382</name></trkpt>
<trkpt lat="53.200209" lon="-1.986299"><ele>335</ele><time>2022-11-25T11:50:05Z</time><name>PT1383</name></trkpt>
<trkpt lat="53.200179" lon="-1.986249"><ele>334</ele><time>2022-11-25T11:50:10Z</time><name>PT1384</name></trkpt>
<trkpt lat="53.200157" lon="-1.986210"><ele>334</ele><time>2022-11-25T11:50:13Z</time><name>PT1385</name></trkpt>
<trkpt lat="53.200131" lon="-1.986157"><ele>333</ele><time>2022-11-25T11:50:17Z</time><name>PT1386</name></trkpt>
<trkpt lat="53.200103" lon="-1.986128"><ele>333</ele><time>2022-11-25T11:50:20Z</time><name>PT1387</name></trkpt>
<trkpt lat="53.200071" lon="-1.986078"><ele>332</ele><time>2022-11-25T11:50:23Z</time><name>PT1388</name></trkpt>
<trkpt lat="53.200038" lon="-1.986029"><ele>332</ele><time>2022-11-25T11:50:28Z</time><name>PT1389</name></trkpt>
<trkpt lat="53.200006" lon="-1.985983"><ele>331</ele><time>2022-11-25T11:50:32Z</time><name>PT1390</name></trkpt>
<trkpt lat="53.199978" lon="-1.985939"><ele>330</ele><time>2022-11-25T11:50:35Z</time><name>PT1391</name></trkpt>
<trkpt lat="53.199954" lon="-1.985917"><ele>330</ele><time>2022-11-25T11:50:38Z</time><name>PT1392</name></trkpt>
<trkpt lat="53.199935" lon="-1.985886"><ele>329</ele><time>2022-11-25T11:50:41Z</time><name>PT1393</name></trkpt>
<trkpt lat="53.199902" lon="-1.985846"><ele>328</ele><time>2022-11-25T11:50:44Z</time><name>PT1394</name></trkpt>
<trkpt lat="53.199874" lon="-1.985818"><ele>327</ele><time>2022-11-25T11:50:47Z</time><name>PT1395</name></trkpt>
<trkpt lat="53.199843" lon="-1.985765"><ele>327</ele><time>2022-11-25T11:50:52Z</time><name>PT1396</name></trkpt>
<trkpt lat="53.199810" lon="-1.985721"><ele>326</ele><time>2022-11-25T11:50:56Z</time><name>PT1397</name></trkpt>
<trkpt lat="53.199790" lon="-1.985692"><ele>326</ele><time>2022-11-25T11:50:59Z</time><name>PT1398</name></trkpt>
<trkpt lat="53.199765" lon="-1.985662"><ele>325</ele><time>2022-11-25T11:51:02Z</time><name>PT1399</name></trkpt>
<trkpt lat="53.199736" lon="-1.985653"><ele>324</ele><time>2022-11-25T11:51:05Z</time><name>PT1400</name></trkpt>
<trkpt lat="53.199692" lon="-1.985654"><ele>325</ele><time>2022-11-25T11:51:08Z</time><name>PT1401</name></trkpt>
<trkpt lat="53.199662" lon="-1.985684"><ele>324</ele><time>2022-11-25T11:51:13Z</time><name>PT1402</name></trkpt>
<trkpt lat="53.199632" lon="-1.985707"><ele>323</ele><time>2022-11-25T11:51:16Z</time><name>PT1403</name></trkpt>
<trkpt lat="53.199599" lon="-1.985752"><ele>323</ele><time>2022-11-25T11:51:20Z</time><name>PT1404</name></trkpt>
<trkpt lat="53.199559" lon="-1.985794"><ele>322</ele><time>2022-11-25T11:51:23Z</time><name>PT1405</name></trkpt>
<trkpt lat="53.199527" lon="-1.985822"><ele>323</ele><time>2022-11-25T11:51:26Z</time><name>PT1406</name></trkpt>
<trkpt lat="53.199494" lon="-1.985843"><ele>323</ele><time>2022-11-25T11:51:29Z</time><name>PT1407</name></trkpt>
<trkpt lat="53.199461" lon="-1.985838"><ele>322</ele><time>2022-11-25T11:51:32Z</time><name>PT1408</name></trkpt>
<trkpt lat="53.199434" lon="-1.985781"><ele>320</ele><time>2022-11-25T11:51:37Z</time><name>PT1409</name></trkpt>
<trkpt lat="53.199415" lon="-1.985724"><ele>319</ele><time>2022-11-25T11:51:41Z</time><name>PT1410</name></trkpt>
<trkpt lat="53.199407" lon="-1.985685"><ele>318</ele><time>2022-11-25T11:51:44Z</time><name>PT1411</name></trkpt>
<trkpt lat="53.199402" lon="-1.985638"><ele>316</ele><time>2022-11-25T11:51:47Z</time><name>PT1412</name></trkpt>
<trkpt lat="53.199396" lon="-1.985582"><ele>316</ele><time>2022-11-25T11:51:52Z</time><name>PT1413</name></trkpt>
<trkpt lat="53.199382" lon="-1.985554"><ele>315</ele><time>2022-11-25T11:51:55Z</time><name>PT1414</name></trkpt>
<trkpt lat="53.199351" lon="-1.985524"><ele>314</ele><time>2022-11-25T11:51:59Z</time><name>PT1415</name></trkpt>
<trkpt lat="53.199340" lon="-1.985510"><ele>315</ele><time>2022-11-25T11:52:02Z</time><name>PT1416</name></trkpt>
<trkpt lat="53.199339" lon="-1.985508"><ele>315</ele><time>2022-11-25T11:52:05Z</time><name>PT1417</name></trkpt>
<trkpt lat="53.199332" lon="-1.985498"><ele>315</ele><time>2022-11-25T11:52:08Z</time><name>PT1418</name></trkpt>
<trkpt lat="53.199319" lon="-1.985497"><ele>316</ele><time>2022-11-25T11:52:34Z</time><name>PT1419</name></trkpt>
<trkpt lat="53.199274" lon="-1.985507"><ele>315</ele><time>2022-11-25T11:52:38Z</time><name>PT1420</name></trkpt>
<trkpt lat="53.199250" lon="-1.985505"><ele>315</ele><time>2022-11-25T11:52:41Z</time><name>PT1421</name></trkpt>
<trkpt lat="53.199240" lon="-1.985502"><ele>315</ele><time>2022-11-25T11:52:44Z</time><name>PT1422</name></trkpt>
<trkpt lat="53.199229" lon="-1.985507"><ele>316</ele><time>2022-11-25T11:52:53Z</time><name>PT1423</name></trkpt>
<trkpt lat="53.199217" lon="-1.985500"><ele>315</ele><time>2022-11-25T11:52:57Z</time><name>PT1424</name></trkpt>
<trkpt lat="53.199192" lon="-1.985452"><ele>313</ele><time>2022-11-25T11:53:14Z</time><name>PT1425</name></trkpt>
<trkpt lat="53.199180" lon="-1.985413"><ele>311</ele><time>2022-11-25T11:53:17Z</time><name>PT1426</name></trkpt>
<trkpt lat="53.199180" lon="-1.985408"><ele>311</ele><time>2022-11-25T11:53:21Z</time><name>PT1427</name></trkpt>
<trkpt lat="53.199175" lon="-1.985381"><ele>310</ele><time>2022-11-25T11:53:25Z</time><name>PT1428</name></trkpt>
<trkpt lat="53.199169" lon="-1.985329"><ele>309</ele><time>2022-11-25T11:53:29Z</time><name>PT1429</name></trkpt>
<trkpt lat="53.199164" lon="-1.985266"><ele>311</ele><time>2022-11-25T11:53:32Z</time><name>PT1430</name></trkpt>
<trkpt lat="53.199182" lon="-1.985243"><ele>311</ele><time>2022-11-25T11:53:35Z</time><name>PT1431</name></trkpt>
<trkpt lat="53.199187" lon="-1.985233"><ele>311</ele><time>2022-11-25T11:53:38Z</time><name>PT1432</name></trkpt>
<trkpt lat="53.199185" lon="-1.985231"><ele>311</ele><time>2022-11-25T11:53:42Z</time><name>PT1433</name></trkpt>
<trkpt lat="53.199192" lon="-1.985232"><ele>311</ele><time>2022-11-25T11:53:45Z</time><name>PT1434</name></trkpt>
<trkpt lat="53.199198" lon="-1.985222"><ele>311</ele><time>2022-11-25T11:53:49Z</time><name>PT1435</name></trkpt>
<trkpt lat="53.199202" lon="-1.985196"><ele>311</ele><time>2022-11-25T11:53:56Z</time><name>PT1436</name></trkpt>
<trkpt lat="53.199187" lon="-1.985179"><ele>310</ele><time>2022-11-25T11:53:59Z</time><name>PT1437</name></trkpt>
<trkpt lat="53.199160" lon="-1.985135"><ele>310</ele><time>2022-11-25T11:54:03Z</time><name>PT1438</name></trkpt>
<trkpt lat="53.199137" lon="-1.985102"><ele>310</ele><time>2022-11-25T11:54:07Z</time><name>PT1439</name></trkpt>
<trkpt lat="53.199119" lon="-1.985072"><ele>311</ele><time>2022-11-25T11:54:11Z</time><name>PT1440</name></trkpt>
<trkpt lat="53.199103" lon="-1.985075"><ele>313</ele><time>2022-11-25T11:54:14Z</time><name>PT1441</name></trkpt>
<trkpt lat="53.199094" lon="-1.985068"><ele>314</ele><time>2022-11-25T11:54:22Z</time><name>PT1442</name></trkpt>
<trkpt lat="53.199074" lon="-1.985073"><ele>315</ele><time>2022-11-25T11:54:25Z</time><name>PT1443</name></trkpt>
<trkpt lat="53.199068" lon="-1.985051"><ele>316</ele><time>2022-11-25T11:54:35Z</time><name>PT1444</name></trkpt>
<trkpt lat="53.199043" lon="-1.985000"><ele>317</ele><time>2022-11-25T11:54:40Z</time><name>PT1445</name></trkpt>
<trkpt lat="53.199034" lon="-1.984977"><ele>317</ele><time>2022-11-25T11:54:44Z</time><name>PT1446</name></trkpt>
<trkpt lat="53.199016" lon="-1.984945"><ele>318</ele><time>2022-11-25T11:54:50Z</time><name>PT1447</name></trkpt>
<trkpt lat="53.199007" lon="-1.984919"><ele>318</ele><time>2022-11-25T11:54:53Z</time><name>PT1448</name></trkpt>
<trkpt lat="53.198999" lon="-1.984895"><ele>319</ele><time>2022-11-25T11:54:56Z</time><name>PT1449</name></trkpt>
<trkpt lat="53.198984" lon="-1.984865"><ele>320</ele><time>2022-11-25T11:55:07Z</time><name>PT1450</name></trkpt>
<trkpt lat="53.198966" lon="-1.984825"><ele>320</ele><time>2022-11-25T11:55:10Z</time><name>PT1451</name></trkpt>
<trkpt lat="53.198951" lon="-1.984784"><ele>321</ele><time>2022-11-25T11:55:14Z</time><name>PT1452</name></trkpt>
<trkpt lat="53.198950" lon="-1.984758"><ele>322</ele><time>2022-11-25T11:55:17Z</time><name>PT1453</name></trkpt>
<trkpt lat="53.198941" lon="-1.984737"><ele>323</ele><time>2022-11-25T11:55:24Z</time><name>PT1454</name></trkpt>
<trkpt lat="53.198929" lon="-1.984690"><ele>324</ele><time>2022-11-25T11:55:29Z</time><name>PT1455</name></trkpt>
<trkpt lat="53.198914" lon="-1.984661"><ele>325</ele><time>2022-11-25T11:55:32Z</time><name>PT1456</name></trkpt>
<trkpt lat="53.198909" lon="-1.984647"><ele>326</ele><time>2022-11-25T11:55:39Z</time><name>PT1457</name></trkpt>
<trkpt lat="53.198892" lon="-1.984616"><ele>327</ele><time>2022-11-25T11:55:43Z</time><name>PT1458</name></trkpt>
<trkpt lat="53.198867" lon="-1.984604"><ele>328</ele><time>2022-11-25T11:55:47Z</time><name>PT1459</name></trkpt>
<trkpt lat="53.198863" lon="-1.984599"><ele>328</ele><time>2022-11-25T11:55:50Z</time><name>PT1460</name></trkpt>
<trkpt lat="53.198839" lon="-1.984582"><ele>329</ele><time>2022-11-25T11:55:53Z</time><name>PT1461</name></trkpt>
<trkpt lat="53.198835" lon="-1.984574"><ele>330</ele><time>2022-11-25T11:55:56Z</time><name>PT1462</name></trkpt>
<trkpt lat="53.198814" lon="-1.984540"><ele>329</ele><time>2022-11-25T11:55:59Z</time><name>PT1463</name></trkpt>
<trkpt lat="53.198792" lon="-1.984483"><ele>330</ele><time>2022-11-25T11:56:04Z</time><name>PT1464</name></trkpt>
<trkpt lat="53.198760" lon="-1.984442"><ele>331</ele><time>2022-11-25T11:56:08Z</time><name>PT1465</name></trkpt>
<trkpt lat="53.198744" lon="-1.984417"><ele>331</ele><time>2022-11-25T11:56:11Z</time><name>PT1466</name></trkpt>
<trkpt lat="53.198736" lon="-1.984393"><ele>333</ele><time>2022-11-25T11:56:14Z</time><name>PT1467</name></trkpt>
<trkpt lat="53.198721" lon="-1.984376"><ele>335</ele><time>2022-11-25T11:56:18Z</time><name>PT1468</name></trkpt>
<trkpt lat="53.198703" lon="-1.984354"><ele>337</ele><time>2022-11-25T11:56:23Z</time><name>PT1469</name></trkpt>
<trkpt lat="53.198694" lon="-1.984342"><ele>337</ele><time>2022-11-25T11:56:26Z</time><name>PT1470</name></trkpt>
<trkpt lat="53.198671" lon="-1.984312"><ele>339</ele><time>2022-11-25T11:56:44Z</time><name>PT1471</name></trkpt>
<trkpt lat="53.198648" lon="-1.984290"><ele>339</ele><time>2022-11-25T11:56:47Z</time><name>PT1472</name></trkpt>
<trkpt lat="53.198615" lon="-1.984265"><ele>338</ele><time>2022-11-25T11:56:50Z</time><name>PT1473</name></trkpt>
<trkpt lat="53.198591" lon="-1.984246"><ele>339</ele><time>2022-11-25T11:56:53Z</time><name>PT1474</name></trkpt>
<trkpt lat="53.198544" lon="-1.984170"><ele>340</ele><time>2022-11-25T11:56:58Z</time><name>PT1475</name></trkpt>
<trkpt lat="53.198510" lon="-1.984144"><ele>341</ele><time>2022-11-25T11:57:02Z</time><name>PT1476</name></trkpt>
<trkpt lat="53.198478" lon="-1.984126"><ele>342</ele><time>2022-11-25T11:57:05Z</time><name>PT1477</name></trkpt>
<trkpt lat="53.198448" lon="-1.984115"><ele>343</ele><time>2022-11-25T11:57:09Z</time><name>PT1478</name></trkpt>
<trkpt lat="53.198426" lon="-1.984098"><ele>343</ele><time>2022-11-25T11:57:14Z</time><name>PT1479</name></trkpt>
<trkpt lat="53.198398" lon="-1.984102"><ele>343</ele><time>2022-11-25T11:57:17Z</time><name>PT1480</name></trkpt>
<trkpt lat="53.198376" lon="-1.984097"><ele>343</ele><time>2022-11-25T11:57:20Z</time><name>PT1481</name></trkpt>
<trkpt lat="53.198356" lon="-1.984082"><ele>343</ele><time>2022-11-25T11:57:23Z</time><name>PT1482</name></trkpt>
<trkpt lat="53.198329" lon="-1.984075"><ele>343</ele><time>2022-11-25T11:57:27Z</time><name>PT1483</name></trkpt>
<trkpt lat="53.198311" lon="-1.984064"><ele>344</ele><time>2022-11-25T11:57:30Z</time><name>PT1484</name></trkpt>
<trkpt lat="53.198292" lon="-1.984043"><ele>344</ele><time>2022-11-25T11:57:35Z</time><name>PT1485</name></trkpt>
<trkpt lat="53.198280" lon="-1.984024"><ele>344</ele><time>2022-11-25T11:57:38Z</time><name>PT1486</name></trkpt>
<trkpt lat="53.198257" lon="-1.984003"><ele>343</ele><time>2022-11-25T11:57:42Z</time><name>PT1487</name></trkpt>
<trkpt lat="53.198255" lon="-1.983992"><ele>344</ele><time>2022-11-25T11:57:47Z</time><name>PT1488</name></trkpt>
<trkpt lat="53.198256" lon="-1.983988"><ele>346</ele><time>2022-11-25T11:57:50Z</time><name>PT1489</name></trkpt>
<trkpt lat="53.198264" lon="-1.983990"><ele>346</ele><time>2022-11-25T11:58:11Z</time><name>PT1490</name></trkpt>
<trkpt lat="53.198267" lon="-1.983968"><ele>347</ele><time>2022-11-25T11:58:42Z</time><name>PT1491</name></trkpt>
<trkpt lat="53.198278" lon="-1.983910"><ele>346</ele><time>2022-11-25T11:58:45Z</time><name>PT1492</name></trkpt>
<trkpt lat="53.198305" lon="-1.983857"><ele>346</ele><time>2022-11-25T11:58:50Z</time><name>PT1493</name></trkpt>
<trkpt lat="53.198307" lon="-1.983814"><ele>345</ele><time>2022-11-25T11:58:53Z</time><name>PT1494</name></trkpt>
<trkpt lat="53.198298" lon="-1.983775"><ele>344</ele><time>2022-11-25T11:58:56Z</time><name>PT1495</name></trkpt>
<trkpt lat="53.198293" lon="-1.983755"><ele>344</ele><time>2022-11-25T11:59:00Z</time><name>PT1496</name></trkpt>
<trkpt lat="53.198280" lon="-1.983731"><ele>344</ele><time>2022-11-25T11:59:04Z</time><name>PT1497</name></trkpt>
<trkpt lat="53.198258" lon="-1.983720"><ele>343</ele><time>2022-11-25T11:59:08Z</time><name>PT1498</name></trkpt>
<trkpt lat="53.198225" lon="-1.983719"><ele>341</ele><time>2022-11-25T11:59:11Z</time><name>PT1499</name></trkpt>
<trkpt lat="53.198199" lon="-1.983682"><ele>342</ele><time>2022-11-25T11:59:15Z</time><name>PT1500</name></trkpt>
<trkpt lat="53.198187" lon="-1.983684"><ele>345</ele><time>2022-11-25T11:59:18Z</time><name>PT1501</name></trkpt>
<trkpt lat="53.198169" lon="-1.983685"><ele>346</ele><time>2022-11-25T11:59:21Z</time><name>PT1502</name></trkpt>
<trkpt lat="53.198157" lon="-1.983700"><ele>347</ele><time>2022-11-25T11:59:25Z</time><name>PT1503</name></trkpt>
<trkpt lat="53.198139" lon="-1.983719"><ele>347</ele><time>2022-11-25T11:59:29Z</time><name>PT1504</name></trkpt>
<trkpt lat="53.198114" lon="-1.983728"><ele>348</ele><time>2022-11-25T11:59:32Z</time><name>PT1505</name></trkpt>
<trkpt lat="53.198082" lon="-1.983748"><ele>347</ele><time>2022-11-25T11:59:36Z</time><name>PT1506</name></trkpt>
<trkpt lat="53.198042" lon="-1.983767"><ele>347</ele><time>2022-11-25T11:59:41Z</time><name>PT1507</name></trkpt>
<trkpt lat="53.198025" lon="-1.983766"><ele>347</ele><time>2022-11-25T11:59:44Z</time><name>PT1508</name></trkpt>
<trkpt lat="53.198012" lon="-1.983759"><ele>349</ele><time>2022-11-25T11:59:47Z</time><name>PT1509</name></trkpt>
<trkpt lat="53.198006" lon="-1.983752"><ele>350</ele><time>2022-11-25T11:59:50Z</time><name>PT1510</name></trkpt>
<trkpt lat="53.197990" lon="-1.983757"><ele>350</ele><time>2022-11-25T11:59:55Z</time><name>PT1511</name></trkpt>
<trkpt lat="53.197967" lon="-1.983756"><ele>350</ele><time>2022-11-25T11:59:59Z</time><name>PT1512</name></trkpt>
<trkpt lat="53.197936" lon="-1.983756"><ele>350</ele><time>2022-11-25T12:00:02Z</time><name>PT1513</name></trkpt>
<trkpt lat="53.197910" lon="-1.983757"><ele>350</ele><time>2022-11-25T12:00:05Z</time><name>PT1514</name></trkpt>
<trkpt lat="53.197875" lon="-1.983754"><ele>351</ele><time>2022-11-25T12:00:09Z</time><name>PT1515</name></trkpt>
<trkpt lat="53.197837" lon="-1.983760"><ele>352</ele><time>2022-11-25T12:00:14Z</time><name>PT1516</name></trkpt>
<trkpt lat="53.197802" lon="-1.983764"><ele>352</ele><time>2022-11-25T12:00:17Z</time><name>PT1517</name></trkpt>
<trkpt lat="53.197771" lon="-1.983772"><ele>352</ele><time>2022-11-25T12:00:20Z</time><name>PT1518</name></trkpt>
<trkpt lat="53.197732" lon="-1.983781"><ele>352</ele><time>2022-11-25T12:00:24Z</time><name>PT1519</name></trkpt>
<trkpt lat="53.197693" lon="-1.983781"><ele>352</ele><time>2022-11-25T12:00:29Z</time><name>PT1520</name></trkpt>
<trkpt lat="53.197662" lon="-1.983786"><ele>352</ele><time>2022-11-25T12:00:32Z</time><name>PT1521</name></trkpt>
<trkpt lat="53.197622" lon="-1.983799"><ele>352</ele><time>2022-11-25T12:00:35Z</time><name>PT1522</name></trkpt>
<trkpt lat="53.197576" lon="-1.983806"><ele>351</ele><time>2022-11-25T12:00:39Z</time><name>PT1523</name></trkpt>
<trkpt lat="53.197545" lon="-1.983813"><ele>351</ele><time>2022-11-25T12:00:42Z</time><name>PT1524</name></trkpt>
<trkpt lat="53.197506" lon="-1.983818"><ele>352</ele><time>2022-11-25T12:00:47Z</time><name>PT1525</name></trkpt>
<trkpt lat="53.197476" lon="-1.983818"><ele>351</ele><time>2022-11-25T12:00:50Z</time><name>PT1526</name></trkpt>
<trkpt lat="53.197435" lon="-1.983819"><ele>351</ele><time>2022-11-25T12:00:53Z</time><name>PT1527</name></trkpt>
<trkpt lat="53.197395" lon="-1.983825"><ele>352</ele><time>2022-11-25T12:00:57Z</time><name>PT1528</name></trkpt>
<trkpt lat="53.197354" lon="-1.983819"><ele>352</ele><time>2022-11-25T12:01:02Z</time><name>PT1529</name></trkpt>
<trkpt lat="53.197321" lon="-1.983817"><ele>353</ele><time>2022-11-25T12:01:05Z</time><name>PT1530</name></trkpt>
<trkpt lat="53.197290" lon="-1.983809"><ele>352</ele><time>2022-11-25T12:01:08Z</time><name>PT1531</name></trkpt>
<trkpt lat="53.197263" lon="-1.983797"><ele>352</ele><time>2022-11-25T12:01:11Z</time><name>PT1532</name></trkpt>
<trkpt lat="53.197226" lon="-1.983770"><ele>352</ele><time>2022-11-25T12:01:14Z</time><name>PT1533</name></trkpt>
<trkpt lat="53.197197" lon="-1.983749"><ele>352</ele><time>2022-11-25T12:01:17Z</time><name>PT1534</name></trkpt>
<trkpt lat="53.197152" lon="-1.983721"><ele>352</ele><time>2022-11-25T12:01:21Z</time><name>PT1535</name></trkpt>
<trkpt lat="53.197120" lon="-1.983702"><ele>353</ele><time>2022-11-25T12:01:24Z</time><name>PT1536</name></trkpt>
<trkpt lat="53.197078" lon="-1.983679"><ele>353</ele><time>2022-11-25T12:01:29Z</time><name>PT1537</name></trkpt>
<trkpt lat="53.197045" lon="-1.983663"><ele>353</ele><time>2022-11-25T12:01:32Z</time><name>PT1538</name></trkpt>
<trkpt lat="53.197010" lon="-1.983639"><ele>354</ele><time>2022-11-25T12:01:35Z</time><name>PT1539</name></trkpt>
<trkpt lat="53.196971" lon="-1.983613"><ele>354</ele><time>2022-11-25T12:01:38Z</time><name>PT1540</name></trkpt>
<trkpt lat="53.196939" lon="-1.983596"><ele>355</ele><time>2022-11-25T12:01:41Z</time><name>PT1541</name></trkpt>
<trkpt lat="53.196898" lon="-1.983574"><ele>355</ele><time>2022-11-25T12:01:46Z</time><name>PT1542</name></trkpt>
<trkpt lat="53.196857" lon="-1.983550"><ele>355</ele><time>2022-11-25T12:01:50Z</time><name>PT1543</name></trkpt>
<trkpt lat="53.196814" lon="-1.983535"><ele>356</ele><time>2022-11-25T12:01:53Z</time><name>PT1544</name></trkpt>
<trkpt lat="53.196775" lon="-1.983514"><ele>356</ele><time>2022-11-25T12:01:57Z</time><name>PT1545</name></trkpt>
<trkpt lat="53.196743" lon="-1.983492"><ele>357</ele><time>2022-11-25T12:02:01Z</time><name>PT1546</name></trkpt>
<trkpt lat="53.196705" lon="-1.983474"><ele>356</ele><time>2022-11-25T12:02:05Z</time><name>PT1547</name></trkpt>
<trkpt lat="53.196676" lon="-1.983459"><ele>356</ele><time>2022-11-25T12:02:08Z</time><name>PT1548</name></trkpt>
<trkpt lat="53.196636" lon="-1.983444"><ele>355</ele><time>2022-11-25T12:02:11Z</time><name>PT1549</name></trkpt>
<trkpt lat="53.196604" lon="-1.983433"><ele>355</ele><time>2022-11-25T12:02:14Z</time><name>PT1550</name></trkpt>
<trkpt lat="53.196567" lon="-1.983414"><ele>355</ele><time>2022-11-25T12:02:18Z</time><name>PT1551</name></trkpt>
<trkpt lat="53.196526" lon="-1.983397"><ele>354</ele><time>2022-11-25T12:02:23Z</time><name>PT1552</name></trkpt>
<trkpt lat="53.196497" lon="-1.983394"><ele>355</ele><time>2022-11-25T12:02:26Z</time><name>PT1553</name></trkpt>
<trkpt lat="53.196459" lon="-1.983396"><ele>355</ele><time>2022-11-25T12:02:29Z</time><name>PT1554</name></trkpt>
<trkpt lat="53.196433" lon="-1.983394"><ele>355</ele><time>2022-11-25T12:02:32Z</time><name>PT1555</name></trkpt>
<trkpt lat="53.196422" lon="-1.983391"><ele>355</ele><time>2022-11-25T12:02:35Z</time><name>PT1556</name></trkpt>
<trkpt lat="53.196419" lon="-1.983392"><ele>355</ele><time>2022-11-25T12:02:39Z</time><name>PT1557</name></trkpt>
<trkpt lat="53.196396" lon="-1.983388"><ele>355</ele><time>2022-11-25T12:02:47Z</time><name>PT1558</name></trkpt>
<trkpt lat="53.196364" lon="-1.983379"><ele>355</ele><time>2022-11-25T12:02:50Z</time><name>PT1559</name></trkpt>
<trkpt lat="53.196318" lon="-1.983353"><ele>354</ele><time>2022-11-25T12:02:53Z</time><name>PT1560</name></trkpt>
<trkpt lat="53.196275" lon="-1.983329"><ele>354</ele><time>2022-11-25T12:02:57Z</time><name>PT1561</name></trkpt>
<trkpt lat="53.196244" lon="-1.983309"><ele>354</ele><time>2022-11-25T12:03:00Z</time><name>PT1562</name></trkpt>
<trkpt lat="53.196212" lon="-1.983293"><ele>354</ele><time>2022-11-25T12:03:04Z</time><name>PT1563</name></trkpt>
<trkpt lat="53.196164" lon="-1.983274"><ele>354</ele><time>2022-11-25T12:03:08Z</time><name>PT1564</name></trkpt>
<trkpt lat="53.196119" lon="-1.983253"><ele>355</ele><time>2022-11-25T12:03:11Z</time><name>PT1565</name></trkpt>
<trkpt lat="53.196085" lon="-1.983231"><ele>355</ele><time>2022-11-25T12:03:14Z</time><name>PT1566</name></trkpt>
<trkpt lat="53.196054" lon="-1.983206"><ele>355</ele><time>2022-11-25T12:03:17Z</time><name>PT1567</name></trkpt>
<trkpt lat="53.196012" lon="-1.983184"><ele>355</ele><time>2022-11-25T12:03:21Z</time><name>PT1568</name></trkpt>
<trkpt lat="53.195974" lon="-1.983150"><ele>355</ele><time>2022-11-25T12:03:26Z</time><name>PT1569</name></trkpt>
<trkpt lat="53.195943" lon="-1.983125"><ele>355</ele><time>2022-11-25T12:03:29Z</time><name>PT1570</name></trkpt>
<trkpt lat="53.195905" lon="-1.983098"><ele>355</ele><time>2022-11-25T12:03:32Z</time><name>PT1571</name></trkpt>
<trkpt lat="53.195864" lon="-1.983072"><ele>355</ele><time>2022-11-25T12:03:37Z</time><name>PT1572</name></trkpt>
<trkpt lat="53.195832" lon="-1.983051"><ele>355</ele><time>2022-11-25T12:03:41Z</time><name>PT1573</name></trkpt>
<trkpt lat="53.195800" lon="-1.983038"><ele>354</ele><time>2022-11-25T12:03:44Z</time><name>PT1574</name></trkpt>
<trkpt lat="53.195779" lon="-1.983024"><ele>354</ele><time>2022-11-25T12:03:47Z</time><name>PT1575</name></trkpt>
<trkpt lat="53.195767" lon="-1.983013"><ele>354</ele><time>2022-11-25T12:03:51Z</time><name>PT1576</name></trkpt>
<trkpt lat="53.195764" lon="-1.983012"><ele>354</ele><time>2022-11-25T12:03:54Z</time><name>PT1577</name></trkpt>
<trkpt lat="53.195746" lon="-1.983005"><ele>354</ele><time>2022-11-25T12:03:57Z</time><name>PT1578</name></trkpt>
<trkpt lat="53.195713" lon="-1.982965"><ele>353</ele><time>2022-11-25T12:04:02Z</time><name>PT1579</name></trkpt>
<trkpt lat="53.195678" lon="-1.982934"><ele>353</ele><time>2022-11-25T12:04:05Z</time><name>PT1580</name></trkpt>
<trkpt lat="53.195635" lon="-1.982907"><ele>353</ele><time>2022-11-25T12:04:09Z</time><name>PT1581</name></trkpt>
<trkpt lat="53.195600" lon="-1.982879"><ele>353</ele><time>2022-11-25T12:04:14Z</time><name>PT1582</name></trkpt>
<trkpt lat="53.195585" lon="-1.982861"><ele>353</ele><time>2022-11-25T12:04:17Z</time><name>PT1583</name></trkpt>
<trkpt lat="53.195580" lon="-1.982859"><ele>353</ele><time>2022-11-25T12:04:20Z</time><name>PT1584</name></trkpt>
<trkpt lat="53.195559" lon="-1.982830"><ele>354</ele><time>2022-11-25T12:05:14Z</time><name>PT1585</name></trkpt>
<trkpt lat="53.195545" lon="-1.982803"><ele>354</ele><time>2022-11-25T12:05:17Z</time><name>PT1586</name></trkpt>
<trkpt lat="53.195528" lon="-1.982785"><ele>355</ele><time>2022-11-25T12:05:54Z</time><name>PT1587</name></trkpt>
<trkpt lat="53.195522" lon="-1.982785"><ele>355</ele><time>2022-11-25T12:05:59Z</time><name>PT1588</name></trkpt>
<trkpt lat="53.195498" lon="-1.982769"><ele>355</ele><time>2022-11-25T12:06:33Z</time><name>PT1589</name></trkpt>
<trkpt lat="53.195482" lon="-1.982766"><ele>356</ele><time>2022-11-25T12:06:38Z</time><name>PT1590</name></trkpt>
<trkpt lat="53.195474" lon="-1.982773"><ele>356</ele><time>2022-11-25T12:06:41Z</time><name>PT1591</name></trkpt>
<trkpt lat="53.195474" lon="-1.982776"><ele>357</ele><time>2022-11-25T12:06:45Z</time><name>PT1592</name></trkpt>
<trkpt lat="53.195465" lon="-1.982780"><ele>358</ele><time>2022-11-25T12:07:17Z</time><name>PT1593</name></trkpt>
<trkpt lat="53.195465" lon="-1.982782"><ele>357</ele><time>2022-11-25T12:07:20Z</time><name>PT1594</name></trkpt>
<trkpt lat="53.195458" lon="-1.982768"><ele>357</ele><time>2022-11-25T12:07:28Z</time><name>PT1595</name></trkpt>
<trkpt lat="53.195433" lon="-1.982728"><ele>357</ele><time>2022-11-25T12:07:32Z</time><name>PT1596</name></trkpt>
<trkpt lat="53.195420" lon="-1.982699"><ele>357</ele><time>2022-11-25T12:07:35Z</time><name>PT1597</name></trkpt>
<trkpt lat="53.195401" lon="-1.982670"><ele>356</ele><time>2022-11-25T12:07:38Z</time><name>PT1598</name></trkpt>
<trkpt lat="53.195379" lon="-1.982668"><ele>355</ele><time>2022-11-25T12:07:41Z</time><name>PT1599</name></trkpt>
<trkpt lat="53.195369" lon="-1.982636"><ele>355</ele><time>2022-11-25T12:07:44Z</time><name>PT1600</name></trkpt>
<trkpt lat="53.195357" lon="-1.982611"><ele>355</ele><time>2022-11-25T12:07:47Z</time><name>PT1601</name></trkpt>
<trkpt lat="53.195361" lon="-1.982580"><ele>356</ele><time>2022-11-25T12:07:51Z</time><name>PT1602</name></trkpt>
<trkpt lat="53.195353" lon="-1.982567"><ele>356</ele><time>2022-11-25T12:07:56Z</time><name>PT1603</name></trkpt>
<trkpt lat="53.195342" lon="-1.982554"><ele>356</ele><time>2022-11-25T12:07:59Z</time><name>PT1604</name></trkpt>
<trkpt lat="53.195335" lon="-1.982524"><ele>356</ele><time>2022-11-25T12:08:02Z</time><name>PT1605</name></trkpt>
<trkpt lat="53.195312" lon="-1.982491"><ele>357</ele><time>2022-11-25T12:08:05Z</time><name>PT1606</name></trkpt>
<trkpt lat="53.195292" lon="-1.982465"><ele>357</ele><time>2022-11-25T12:08:08Z</time><name>PT1607</name></trkpt>
<trkpt lat="53.195276" lon="-1.982426"><ele>357</ele><time>2022-11-25T12:08:12Z</time><name>PT1608</name></trkpt>
<trkpt lat="53.195265" lon="-1.982396"><ele>358</ele><time>2022-11-25T12:08:15Z</time><name>PT1609</name></trkpt>
<trkpt lat="53.195252" lon="-1.982362"><ele>359</ele><time>2022-11-25T12:08:19Z</time><name>PT1610</name></trkpt>
<trkpt lat="53.195236" lon="-1.982318"><ele>359</ele><time>2022-11-25T12:08:23Z</time><name>PT1611</name></trkpt>
<trkpt lat="53.195229" lon="-1.982287"><ele>359</ele><time>2022-11-25T12:08:26Z</time><name>PT1612</name></trkpt>
<trkpt lat="53.195215" lon="-1.982231"><ele>360</ele><time>2022-11-25T12:08:29Z</time><name>PT1613</name></trkpt>
<trkpt lat="53.195201" lon="-1.982177"><ele>360</ele><time>2022-11-25T12:08:33Z</time><name>PT1614</name></trkpt>
<trkpt lat="53.195189" lon="-1.982148"><ele>360</ele><time>2022-11-25T12:08:36Z</time><name>PT1615</name></trkpt>
<trkpt lat="53.195169" lon="-1.982109"><ele>359</ele><time>2022-11-25T12:08:41Z</time><name>PT1616</name></trkpt>
<trkpt lat="53.195163" lon="-1.982066"><ele>359</ele><time>2022-11-25T12:08:44Z</time><name>PT1617</name></trkpt>
<trkpt lat="53.195149" lon="-1.982019"><ele>359</ele><time>2022-11-25T12:08:47Z</time><name>PT1618</name></trkpt>
<trkpt lat="53.195127" lon="-1.981962"><ele>359</ele><time>2022-11-25T12:08:51Z</time><name>PT1619</name></trkpt>
<trkpt lat="53.195114" lon="-1.981922"><ele>358</ele><time>2022-11-25T12:08:54Z</time><name>PT1620</name></trkpt>
<trkpt lat="53.195089" lon="-1.981882"><ele>358</ele><time>2022-11-25T12:08:59Z</time><name>PT1621</name></trkpt>
<trkpt lat="53.195073" lon="-1.981841"><ele>359</ele><time>2022-11-25T12:09:02Z</time><name>PT1622</name></trkpt>
<trkpt lat="53.195050" lon="-1.981792"><ele>359</ele><time>2022-11-25T12:09:05Z</time><name>PT1623</name></trkpt>
<trkpt lat="53.195035" lon="-1.981754"><ele>359</ele><time>2022-11-25T12:09:09Z</time><name>PT1624</name></trkpt>
<trkpt lat="53.195023" lon="-1.981712"><ele>359</ele><time>2022-11-25T12:09:12Z</time><name>PT1625</name></trkpt>
<trkpt lat="53.194998" lon="-1.981664"><ele>359</ele><time>2022-11-25T12:09:17Z</time><name>PT1626</name></trkpt>
<trkpt lat="53.194967" lon="-1.981616"><ele>359</ele><time>2022-11-25T12:09:20Z</time><name>PT1627</name></trkpt>
<trkpt lat="53.194942" lon="-1.981573"><ele>359</ele><time>2022-11-25T12:09:24Z</time><name>PT1628</name></trkpt>
<trkpt lat="53.194914" lon="-1.981523"><ele>358</ele><time>2022-11-25T12:09:29Z</time><name>PT1629</name></trkpt>
<trkpt lat="53.194891" lon="-1.981488"><ele>358</ele><time>2022-11-25T12:09:32Z</time><name>PT1630</name></trkpt>
<trkpt lat="53.194868" lon="-1.981449"><ele>359</ele><time>2022-11-25T12:09:35Z</time><name>PT1631</name></trkpt>
<trkpt lat="53.194846" lon="-1.981397"><ele>359</ele><time>2022-11-25T12:09:38Z</time><name>PT1632</name></trkpt>
<trkpt lat="53.194828" lon="-1.981357"><ele>359</ele><time>2022-11-25T12:09:41Z</time><name>PT1633</name></trkpt>
<trkpt lat="53.194808" lon="-1.981317"><ele>359</ele><time>2022-11-25T12:09:44Z</time><name>PT1634</name></trkpt>
<trkpt lat="53.194790" lon="-1.981278"><ele>359</ele><time>2022-11-25T12:09:48Z</time><name>PT1635</name></trkpt>
<trkpt lat="53.194774" lon="-1.981225"><ele>360</ele><time>2022-11-25T12:09:53Z</time><name>PT1636</name></trkpt>
<trkpt lat="53.194764" lon="-1.981179"><ele>360</ele><time>2022-11-25T12:09:56Z</time><name>PT1637</name></trkpt>
<trkpt lat="53.194746" lon="-1.981131"><ele>360</ele><time>2022-11-25T12:09:59Z</time><name>PT1638</name></trkpt>
<trkpt lat="53.194720" lon="-1.981089"><ele>360</ele><time>2022-11-25T12:10:02Z</time><name>PT1639</name></trkpt>
<trkpt lat="53.194699" lon="-1.981055"><ele>359</ele><time>2022-11-25T12:10:05Z</time><name>PT1640</name></trkpt>
<trkpt lat="53.194675" lon="-1.981027"><ele>359</ele><time>2022-11-25T12:10:08Z</time><name>PT1641</name></trkpt>
<trkpt lat="53.194653" lon="-1.980982"><ele>359</ele><time>2022-11-25T12:10:11Z</time><name>PT1642</name></trkpt>
<trkpt lat="53.194636" lon="-1.980910"><ele>359</ele><time>2022-11-25T12:10:15Z</time><name>PT1643</name></trkpt>
<trkpt lat="53.194628" lon="-1.980856"><ele>359</ele><time>2022-11-25T12:10:18Z</time><name>PT1644</name></trkpt>
<trkpt lat="53.194614" lon="-1.980788"><ele>360</ele><time>2022-11-25T12:10:23Z</time><name>PT1645</name></trkpt>
<trkpt lat="53.194602" lon="-1.980735"><ele>361</ele><time>2022-11-25T12:10:26Z</time><name>PT1646</name></trkpt>
<trkpt lat="53.194596" lon="-1.980680"><ele>361</ele><time>2022-11-25T12:10:29Z</time><name>PT1647</name></trkpt>
<trkpt lat="53.194587" lon="-1.980629"><ele>361</ele><time>2022-11-25T12:10:32Z</time><name>PT1648</name></trkpt>
<trkpt lat="53.194570" lon="-1.980549"><ele>361</ele><time>2022-11-25T12:10:37Z</time><name>PT1649</name></trkpt>
<trkpt lat="53.194560" lon="-1.980480"><ele>361</ele><time>2022-11-25T12:10:41Z</time><name>PT1650</name></trkpt>
<trkpt lat="53.194553" lon="-1.980419"><ele>362</ele><time>2022-11-25T12:10:44Z</time><name>PT1651</name></trkpt>
<trkpt lat="53.194542" lon="-1.980347"><ele>362</ele><time>2022-11-25T12:10:47Z</time><name>PT1652</name></trkpt>
<trkpt lat="53.194530" lon="-1.980279"><ele>363</ele><time>2022-11-25T12:10:51Z</time><name>PT1653</name></trkpt>
<trkpt lat="53.194518" lon="-1.980221"><ele>362</ele><time>2022-11-25T12:10:54Z</time><name>PT1654</name></trkpt>
<trkpt lat="53.194501" lon="-1.980155"><ele>362</ele><time>2022-11-25T12:10:59Z</time><name>PT1655</name></trkpt>
<trkpt lat="53.194490" lon="-1.980103"><ele>362</ele><time>2022-11-25T12:11:02Z</time><name>PT1656</name></trkpt>
<trkpt lat="53.194474" lon="-1.980042"><ele>363</ele><time>2022-11-25T12:11:05Z</time><name>PT1657</name></trkpt>
<trkpt lat="53.194458" lon="-1.979997"><ele>363</ele><time>2022-11-25T12:11:08Z</time><name>PT1658</name></trkpt>
<trkpt lat="53.194441" lon="-1.979931"><ele>362</ele><time>2022-11-25T12:11:12Z</time><name>PT1659</name></trkpt>
<trkpt lat="53.194426" lon="-1.979867"><ele>363</ele><time>2022-11-25T12:11:17Z</time><name>PT1660</name></trkpt>
<trkpt lat="53.194407" lon="-1.979822"><ele>363</ele><time>2022-11-25T12:11:20Z</time><name>PT1661</name></trkpt>
<trkpt lat="53.194393" lon="-1.979782"><ele>364</ele><time>2022-11-25T12:11:23Z</time><name>PT1662</name></trkpt>
<trkpt lat="53.194388" lon="-1.979731"><ele>364</ele><time>2022-11-25T12:11:26Z</time><name>PT1663</name></trkpt>
<trkpt lat="53.194386" lon="-1.979688"><ele>365</ele><time>2022-11-25T12:11:29Z</time><name>PT1664</name></trkpt>
<trkpt lat="53.194379" lon="-1.979633"><ele>366</ele><time>2022-11-25T12:11:32Z</time><name>PT1665</name></trkpt>
<trkpt lat="53.194377" lon="-1.979576"><ele>367</ele><time>2022-11-25T12:11:36Z</time><name>PT1666</name></trkpt>
<trkpt lat="53.194375" lon="-1.979555"><ele>366</ele><time>2022-11-25T12:11:39Z</time><name>PT1667</name></trkpt>
<trkpt lat="53.194369" lon="-1.979538"><ele>366</ele><time>2022-11-25T12:11:44Z</time><name>PT1668</name></trkpt>
<trkpt lat="53.194358" lon="-1.979511"><ele>366</ele><time>2022-11-25T12:11:47Z</time><name>PT1669</name></trkpt>
<trkpt lat="53.194358" lon="-1.979507"><ele>366</ele><time>2022-11-25T12:11:50Z</time><name>PT1670</name></trkpt>
<trkpt lat="53.194329" lon="-1.979459"><ele>366</ele><time>2022-11-25T12:11:54Z</time><name>PT1671</name></trkpt>
<trkpt lat="53.194307" lon="-1.979409"><ele>365</ele><time>2022-11-25T12:11:57Z</time><name>PT1672</name></trkpt>
<trkpt lat="53.194287" lon="-1.979355"><ele>366</ele><time>2022-11-25T12:12:00Z</time><name>PT1673</name></trkpt>
<trkpt lat="53.194261" lon="-1.979297"><ele>366</ele><time>2022-11-25T12:12:05Z</time><name>PT1674</name></trkpt>
<trkpt lat="53.194232" lon="-1.979238"><ele>366</ele><time>2022-11-25T12:12:08Z</time><name>PT1675</name></trkpt>
<trkpt lat="53.194214" lon="-1.979176"><ele>367</ele><time>2022-11-25T12:12:11Z</time><name>PT1676</name></trkpt>
<trkpt lat="53.194182" lon="-1.979110"><ele>368</ele><time>2022-11-25T12:12:15Z</time><name>PT1677</name></trkpt>
<trkpt lat="53.194154" lon="-1.979050"><ele>368</ele><time>2022-11-25T12:12:20Z</time><name>PT1678</name></trkpt>
<trkpt lat="53.194139" lon="-1.979011"><ele>369</ele><time>2022-11-25T12:12:23Z</time><name>PT1679</name></trkpt>
<trkpt lat="53.194112" lon="-1.978948"><ele>369</ele><time>2022-11-25T12:12:26Z</time><name>PT1680</name></trkpt>
<trkpt lat="53.194086" lon="-1.978903"><ele>369</ele><time>2022-11-25T12:12:29Z</time><name>PT1681</name></trkpt>
<trkpt lat="53.194055" lon="-1.978836"><ele>369</ele><time>2022-11-25T12:12:33Z</time><name>PT1682</name></trkpt>
<trkpt lat="53.194033" lon="-1.978783"><ele>369</ele><time>2022-11-25T12:12:36Z</time><name>PT1683</name></trkpt>
<trkpt lat="53.194005" lon="-1.978728"><ele>370</ele><time>2022-11-25T12:12:41Z</time><name>PT1684</name></trkpt>
<trkpt lat="53.193986" lon="-1.978681"><ele>370</ele><time>2022-11-25T12:12:44Z</time><name>PT1685</name></trkpt>
<trkpt lat="53.193962" lon="-1.978622"><ele>371</ele><time>2022-11-25T12:12:47Z</time><name>PT1686</name></trkpt>
<trkpt lat="53.193935" lon="-1.978563"><ele>371</ele><time>2022-11-25T12:12:51Z</time><name>PT1687</name></trkpt>
<trkpt lat="53.193912" lon="-1.978525"><ele>371</ele><time>2022-11-25T12:12:54Z</time><name>PT1688</name></trkpt>
<trkpt lat="53.193888" lon="-1.978452"><ele>371</ele><time>2022-11-25T12:12:59Z</time><name>PT1689</name></trkpt>
<trkpt lat="53.193876" lon="-1.978405"><ele>371</ele><time>2022-11-25T12:13:02Z</time><name>PT1690</name></trkpt>
<trkpt lat="53.193849" lon="-1.978337"><ele>372</ele><time>2022-11-25T12:13:05Z</time><name>PT1691</name></trkpt>
<trkpt lat="53.193834" lon="-1.978270"><ele>372</ele><time>2022-11-25T12:13:09Z</time><name>PT1692</name></trkpt>
<trkpt lat="53.193811" lon="-1.978201"><ele>373</ele><time>2022-11-25T12:13:14Z</time><name>PT1693</name></trkpt>
<trkpt lat="53.193794" lon="-1.978141"><ele>373</ele><time>2022-11-25T12:13:17Z</time><name>PT1694</name></trkpt>
<trkpt lat="53.193777" lon="-1.978077"><ele>373</ele><time>2022-11-25T12:13:21Z</time><name>PT1695</name></trkpt>
<trkpt lat="53.193768" lon="-1.978035"><ele>373</ele><time>2022-11-25T12:13:24Z</time><name>PT1696</name></trkpt>
<trkpt lat="53.193748" lon="-1.977980"><ele>372</ele><time>2022-11-25T12:13:29Z</time><name>PT1697</name></trkpt>
<trkpt lat="53.193737" lon="-1.977944"><ele>372</ele><time>2022-11-25T12:13:32Z</time><name>PT1698</name></trkpt>
<trkpt lat="53.193717" lon="-1.977907"><ele>372</ele><time>2022-11-25T12:13:35Z</time><name>PT1699</name></trkpt>
<trkpt lat="53.193699" lon="-1.977847"><ele>372</ele><time>2022-11-25T12:13:38Z</time><name>PT1700</name></trkpt>
<trkpt lat="53.193684" lon="-1.977777"><ele>372</ele><time>2022-11-25T12:13:42Z</time><name>PT1701</name></trkpt>
<trkpt lat="53.193677" lon="-1.977722"><ele>372</ele><time>2022-11-25T12:13:45Z</time><name>PT1702</name></trkpt>
<trkpt lat="53.193666" lon="-1.977648"><ele>372</ele><time>2022-11-25T12:13:50Z</time><name>PT1703</name></trkpt>
<trkpt lat="53.193656" lon="-1.977576"><ele>372</ele><time>2022-11-25T12:13:53Z</time><name>PT1704</name></trkpt>
<trkpt lat="53.193643" lon="-1.977522"><ele>371</ele><time>2022-11-25T12:13:56Z</time><name>PT1705</name></trkpt>
<trkpt lat="53.193629" lon="-1.977465"><ele>371</ele><time>2022-11-25T12:14:00Z</time><name>PT1706</name></trkpt>
<trkpt lat="53.193624" lon="-1.977414"><ele>371</ele><time>2022-11-25T12:14:03Z</time><name>PT1707</name></trkpt>
<trkpt lat="53.193611" lon="-1.977332"><ele>372</ele><time>2022-11-25T12:14:08Z</time><name>PT1708</name></trkpt>
<trkpt lat="53.193607" lon="-1.977276"><ele>372</ele><time>2022-11-25T12:14:11Z</time><name>PT1709</name></trkpt>
<trkpt lat="53.193600" lon="-1.977214"><ele>372</ele><time>2022-11-25T12:14:14Z</time><name>PT1710</name></trkpt>
<trkpt lat="53.193595" lon="-1.977168"><ele>372</ele><time>2022-11-25T12:14:17Z</time><name>PT1711</name></trkpt>
<trkpt lat="53.193588" lon="-1.977109"><ele>373</ele><time>2022-11-25T12:14:21Z</time><name>PT1712</name></trkpt>
<trkpt lat="53.193590" lon="-1.977074"><ele>372</ele><time>2022-11-25T12:14:24Z</time><name>PT1713</name></trkpt>
<trkpt lat="53.193585" lon="-1.977041"><ele>373</ele><time>2022-11-25T12:14:29Z</time><name>PT1714</name></trkpt>
<trkpt lat="53.193573" lon="-1.977012"><ele>372</ele><time>2022-11-25T12:14:32Z</time><name>PT1715</name></trkpt>
<trkpt lat="53.193572" lon="-1.976995"><ele>373</ele><time>2022-11-25T12:14:35Z</time><name>PT1716</name></trkpt>
<trkpt lat="53.193569" lon="-1.976986"><ele>374</ele><time>2022-11-25T12:14:56Z</time><name>PT1717</name></trkpt>
<trkpt lat="53.193569" lon="-1.976976"><ele>373</ele><time>2022-11-25T12:14:59Z</time><name>PT1718</name></trkpt>
<trkpt lat="53.193571" lon="-1.976966"><ele>373</ele><time>2022-11-25T12:15:14Z</time><name>PT1719</name></trkpt>
<trkpt lat="53.193571" lon="-1.976961"><ele>373</ele><time>2022-11-25T12:15:17Z</time><name>PT1720</name></trkpt>
<trkpt lat="53.193553" lon="-1.976938"><ele>373</ele><time>2022-11-25T12:15:48Z</time><name>PT1721</name></trkpt>
<trkpt lat="53.193539" lon="-1.976917"><ele>374</ele><time>2022-11-25T12:15:51Z</time><name>PT1722</name></trkpt>
<trkpt lat="53.193525" lon="-1.976886"><ele>375</ele><time>2022-11-25T12:15:56Z</time><name>PT1723</name></trkpt>
<trkpt lat="53.193513" lon="-1.976860"><ele>376</ele><time>2022-11-25T12:15:59Z</time><name>PT1724</name></trkpt>
<trkpt lat="53.193492" lon="-1.976817"><ele>376</ele><time>2022-11-25T12:16:02Z</time><name>PT1725</name></trkpt>
<trkpt lat="53.193470" lon="-1.976780"><ele>377</ele><time>2022-11-25T12:16:06Z</time><name>PT1726</name></trkpt>
<trkpt lat="53.193469" lon="-1.976741"><ele>378</ele><time>2022-11-25T12:16:09Z</time><name>PT1727</name></trkpt>
<trkpt lat="53.193471" lon="-1.976711"><ele>378</ele><time>2022-11-25T12:16:12Z</time><name>PT1728</name></trkpt>
<trkpt lat="53.193457" lon="-1.976675"><ele>379</ele><time>2022-11-25T12:16:17Z</time><name>PT1729</name></trkpt>
<trkpt lat="53.193462" lon="-1.976662"><ele>380</ele><time>2022-11-25T12:16:20Z</time><name>PT1730</name></trkpt>
<trkpt lat="53.193461" lon="-1.976666"><ele>379</ele><time>2022-11-25T12:16:23Z</time><name>PT1731</name></trkpt>
<trkpt lat="53.193449" lon="-1.976629"><ele>379</ele><time>2022-11-25T12:16:35Z</time><name>PT1732</name></trkpt>
<trkpt lat="53.193440" lon="-1.976598"><ele>378</ele><time>2022-11-25T12:16:38Z</time><name>PT1733</name></trkpt>
<trkpt lat="53.193436" lon="-1.976573"><ele>379</ele><time>2022-11-25T12:16:41Z</time><name>PT1734</name></trkpt>
<trkpt lat="53.193434" lon="-1.976562"><ele>379</ele><time>2022-11-25T12:16:44Z</time><name>PT1735</name></trkpt>
<trkpt lat="53.193421" lon="-1.976555"><ele>379</ele><time>2022-11-25T12:16:48Z</time><name>PT1736</name></trkpt>
<trkpt lat="53.193425" lon="-1.976555"><ele>378</ele><time>2022-11-25T12:16:53Z</time><name>PT1737</name></trkpt>
<trkpt lat="53.193418" lon="-1.976531"><ele>379</ele><time>2022-11-25T12:16:59Z</time><name>PT1738</name></trkpt>
<trkpt lat="53.193421" lon="-1.976495"><ele>379</ele><time>2022-11-25T12:17:02Z</time><name>PT1739</name></trkpt>
<trkpt lat="53.193418" lon="-1.976440"><ele>380</ele><time>2022-11-25T12:17:05Z</time><name>PT1740</name></trkpt>
<trkpt lat="53.193420" lon="-1.976378"><ele>381</ele><time>2022-11-25T12:17:10Z</time><name>PT1741</name></trkpt>
<trkpt lat="53.193427" lon="-1.976308"><ele>382</ele><time>2022-11-25T12:17:14Z</time><name>PT1742</name></trkpt>
<trkpt lat="53.193431" lon="-1.976219"><ele>383</ele><time>2022-11-25T12:17:17Z</time><name>PT1743</name></trkpt>
<trkpt lat="53.193440" lon="-1.976173"><ele>384</ele><time>2022-11-25T12:17:20Z</time><name>PT1744</name></trkpt>
<trkpt lat="53.193450" lon="-1.976123"><ele>384</ele><time>2022-11-25T12:17:23Z</time><name>PT1745</name></trkpt>
<trkpt lat="53.193453" lon="-1.976096"><ele>385</ele><time>2022-11-25T12:17:26Z</time><name>PT1746</name></trkpt>
<trkpt lat="53.193463" lon="-1.976069"><ele>385</ele><time>2022-11-25T12:17:29Z</time><name>PT1747</name></trkpt>
<trkpt lat="53.193471" lon="-1.976046"><ele>385</ele><time>2022-11-25T12:17:33Z</time><name>PT1748</name></trkpt>
<trkpt lat="53.193471" lon="-1.976045"><ele>385</ele><time>2022-11-25T12:17:36Z</time><name>PT1749</name></trkpt>
<trkpt lat="53.193471" lon="-1.976045"><ele>385</ele><time>2022-11-25T12:17:39Z</time><name>PT1750</name></trkpt>
<trkpt lat="53.193474" lon="-1.976037"><ele>385</ele><time>2022-11-25T12:17:44Z</time><name>PT1751</name></trkpt>
<trkpt lat="53.193484" lon="-1.975992"><ele>385</ele><time>2022-11-25T12:17:47Z</time><name>PT1752</name></trkpt>
<trkpt lat="53.193495" lon="-1.975934"><ele>386</ele><time>2022-11-25T12:17:50Z</time><name>PT1753</name></trkpt>
<trkpt lat="53.193507" lon="-1.975888"><ele>386</ele><time>2022-11-25T12:17:53Z</time><name>PT1754</name></trkpt>
<trkpt lat="53.193525" lon="-1.975832"><ele>386</ele><time>2022-11-25T12:17:57Z</time><name>PT1755</name></trkpt>
<trkpt lat="53.193533" lon="-1.975814"><ele>386</ele><time>2022-11-25T12:18:02Z</time><name>PT1756</name></trkpt>
<trkpt lat="53.193532" lon="-1.975813"><ele>386</ele><time>2022-11-25T12:18:05Z</time><name>PT1757</name></trkpt>
<trkpt lat="53.193535" lon="-1.975803"><ele>386</ele><time>2022-11-25T12:18:17Z</time><name>PT1758</name></trkpt>
<trkpt lat="53.193555" lon="-1.975758"><ele>386</ele><time>2022-11-25T12:18:20Z</time><name>PT1759</name></trkpt>
<trkpt lat="53.193582" lon="-1.975735"><ele>387</ele><time>2022-11-25T12:18:23Z</time><name>PT1760</name></trkpt>
<trkpt lat="53.193621" lon="-1.975720"><ele>387</ele><time>2022-11-25T12:18:26Z</time><name>PT1761</name></trkpt>
<trkpt lat="53.193651" lon="-1.975702"><ele>388</ele><time>2022-11-25T12:18:29Z</time><name>PT1762</name></trkpt>
<trkpt lat="53.193681" lon="-1.975674"><ele>387</ele><time>2022-11-25T12:18:33Z</time><name>PT1763</name></trkpt>
<trkpt lat="53.193706" lon="-1.975665"><ele>387</ele><time>2022-11-25T12:18:36Z</time><name>PT1764</name></trkpt>
<trkpt lat="53.193742" lon="-1.975659"><ele>388</ele><time>2022-11-25T12:18:41Z</time><name>PT1765</name></trkpt>
<trkpt lat="53.193770" lon="-1.975655"><ele>387</ele><time>2022-11-25T12:18:44Z</time><name>PT1766</name></trkpt>
<trkpt lat="53.193807" lon="-1.975649"><ele>388</ele><time>2022-11-25T12:18:47Z</time><name>PT1767</name></trkpt>
<trkpt lat="53.193842" lon="-1.975676"><ele>388</ele><time>2022-11-25T12:18:51Z</time><name>PT1768</name></trkpt>
<trkpt lat="53.193860" lon="-1.975709"><ele>387</ele><time>2022-11-25T12:18:54Z</time><name>PT1769</name></trkpt>
<trkpt lat="53.193889" lon="-1.975731"><ele>387</ele><time>2022-11-25T12:18:59Z</time><name>PT1770</name></trkpt>
<trkpt lat="53.193911" lon="-1.975758"><ele>386</ele><time>2022-11-25T12:19:02Z</time><name>PT1771</name></trkpt>
<trkpt lat="53.193936" lon="-1.975795"><ele>385</ele><time>2022-11-25T12:19:05Z</time><name>PT1772</name></trkpt>
<trkpt lat="53.193971" lon="-1.975826"><ele>384</ele><time>2022-11-25T12:19:09Z</time><name>PT1773</name></trkpt>
<trkpt lat="53.193999" lon="-1.975852"><ele>384</ele><time>2022-11-25T12:19:12Z</time><name>PT1774</name></trkpt>
<trkpt lat="53.194029" lon="-1.975889"><ele>383</ele><time>2022-11-25T12:19:15Z</time><name>PT1775</name></trkpt>
<trkpt lat="53.194048" lon="-1.975938"><ele>382</ele><time>2022-11-25T12:19:18Z</time><name>PT1776</name></trkpt>
<trkpt lat="53.194068" lon="-1.975984"><ele>382</ele><time>2022-11-25T12:19:21Z</time><name>PT1777</name></trkpt>
<trkpt lat="53.194097" lon="-1.976048"><ele>383</ele><time>2022-11-25T12:19:26Z</time><name>PT1778</name></trkpt>
<trkpt lat="53.194119" lon="-1.976107"><ele>383</ele><time>2022-11-25T12:19:29Z</time><name>PT1779</name></trkpt>
<trkpt lat="53.194137" lon="-1.976166"><ele>383</ele><time>2022-11-25T12:19:33Z</time><name>PT1780</name></trkpt>
<trkpt lat="53.194148" lon="-1.976196"><ele>383</ele><time>2022-11-25T12:19:38Z</time><name>PT1781</name></trkpt>
<trkpt lat="53.194148" lon="-1.976195"><ele>384</ele><time>2022-11-25T12:19:41Z</time><name>PT1782</name></trkpt>
<trkpt lat="53.194149" lon="-1.976196"><ele>383</ele><time>2022-11-25T12:19:50Z</time><name>PT1783</name></trkpt>
<trkpt lat="53.194158" lon="-1.976171"><ele>383</ele><time>2022-11-25T12:19:54Z</time><name>PT1784</name></trkpt>
<trkpt lat="53.194177" lon="-1.976158"><ele>384</ele><time>2022-11-25T12:19:59Z</time><name>PT1785</name></trkpt>
<trkpt lat="53.194181" lon="-1.976151"><ele>384</ele><time>2022-11-25T12:20:02Z</time><name>PT1786</name></trkpt>
<trkpt lat="53.194197" lon="-1.976165"><ele>383</ele><time>2022-11-25T12:20:06Z</time><name>PT1787</name></trkpt>
<trkpt lat="53.194215" lon="-1.976205"><ele>383</ele><time>2022-11-25T12:20:09Z</time><name>PT1788</name></trkpt>
<trkpt lat="53.194233" lon="-1.976218"><ele>384</ele><time>2022-11-25T12:20:12Z</time><name>PT1789</name></trkpt>
<trkpt lat="53.194268" lon="-1.976227"><ele>384</ele><time>2022-11-25T12:20:17Z</time><name>PT1790</name></trkpt>
<trkpt lat="53.194303" lon="-1.976238"><ele>385</ele><time>2022-11-25T12:20:20Z</time><name>PT1791</name></trkpt>
<trkpt lat="53.194327" lon="-1.976220"><ele>385</ele><time>2022-11-25T12:20:24Z</time><name>PT1792</name></trkpt>
<trkpt lat="53.194327" lon="-1.976219"><ele>385</ele><time>2022-11-25T12:20:27Z</time><name>PT1793</name></trkpt>
<trkpt lat="53.194336" lon="-1.976215"><ele>386</ele><time>2022-11-25T12:20:32Z</time><name>PT1794</name></trkpt>
<trkpt lat="53.194361" lon="-1.976215"><ele>386</ele><time>2022-11-25T12:20:35Z</time><name>PT1795</name></trkpt>
<trkpt lat="53.194381" lon="-1.976208"><ele>386</ele><time>2022-11-25T12:20:38Z</time><name>PT1796</name></trkpt>
<trkpt lat="53.194413" lon="-1.976199"><ele>386</ele><time>2022-11-25T12:20:41Z</time><name>PT1797</name></trkpt>
<trkpt lat="53.194431" lon="-1.976192"><ele>387</ele><time>2022-11-25T12:20:44Z</time><name>PT1798</name></trkpt>
<trkpt lat="53.194442" lon="-1.976183"><ele>387</ele><time>2022-11-25T12:20:48Z</time><name>PT1799</name></trkpt>
<trkpt lat="53.194463" lon="-1.976184"><ele>388</ele><time>2022-11-25T12:20:51Z</time><name>PT1800</name></trkpt>
<trkpt lat="53.194485" lon="-1.976198"><ele>388</ele><time>2022-11-25T12:20:55Z</time><name>PT1801</name></trkpt>
<trkpt lat="53.194513" lon="-1.976207"><ele>388</ele><time>2022-11-25T12:20:59Z</time><name>PT1802</name></trkpt>
<trkpt lat="53.194542" lon="-1.976207"><ele>388</ele><time>2022-11-25T12:21:02Z</time><name>PT1803</name></trkpt>
<trkpt lat="53.194563" lon="-1.976200"><ele>389</ele><time>2022-11-25T12:21:05Z</time><name>PT1804</name></trkpt>
<trkpt lat="53.194594" lon="-1.976182"><ele>389</ele><time>2022-11-25T12:21:09Z</time><name>PT1805</name></trkpt>
<trkpt lat="53.194615" lon="-1.976163"><ele>389</ele><time>2022-11-25T12:21:12Z</time><name>PT1806</name></trkpt>
<trkpt lat="53.194636" lon="-1.976158"><ele>390</ele><time>2022-11-25T12:21:17Z</time><name>PT1807</name></trkpt>
<trkpt lat="53.194639" lon="-1.976159"><ele>390</ele><time>2022-11-25T12:21:20Z</time><name>PT1808</name></trkpt>
<trkpt lat="53.194640" lon="-1.976160"><ele>390</ele><time>2022-11-25T12:21:23Z</time><name>PT1809</name></trkpt>
<trkpt lat="53.194641" lon="-1.976162"><ele>390</ele><time>2022-11-25T12:21:29Z</time><name>PT1810</name></trkpt>
<trkpt lat="53.194652" lon="-1.976160"><ele>390</ele><time>2022-11-25T12:21:41Z</time><name>PT1811</name></trkpt>
<trkpt lat="53.194680" lon="-1.976127"><ele>391</ele><time>2022-11-25T12:21:44Z</time><name>PT1812</name></trkpt>
<trkpt lat="53.194707" lon="-1.976110"><ele>391</ele><time>2022-11-25T12:21:47Z</time><name>PT1813</name></trkpt>
<trkpt lat="53.194739" lon="-1.976085"><ele>391</ele><time>2022-11-25T12:21:51Z</time><name>PT1814</name></trkpt>
<trkpt lat="53.194771" lon="-1.976086"><ele>391</ele><time>2022-11-25T12:21:56Z</time><name>PT1815</name></trkpt>
<trkpt lat="53.194779" lon="-1.976083"><ele>391</ele><time>2022-11-25T12:21:59Z</time><name>PT1816</name></trkpt>
<trkpt lat="53.194779" lon="-1.976083"><ele>391</ele><time>2022-11-25T12:22:02Z</time><name>PT1817</name></trkpt>
<trkpt lat="53.194780" lon="-1.976083"><ele>390</ele><time>2022-11-25T12:23:02Z</time><name>PT1818</name></trkpt>
<trkpt lat="53.194783" lon="-1.976086"><ele>390</ele><time>2022-11-25T12:23:05Z</time><name>PT1819</name></trkpt>
<trkpt lat="53.194784" lon="-1.976087"><ele>390</ele><time>2022-11-25T12:23:08Z</time><name>PT1820</name></trkpt>
<trkpt lat="53.194785" lon="-1.976083"><ele>389</ele><time>2022-11-25T12:24:17Z</time><name>PT1821</name></trkpt>
<trkpt lat="53.194806" lon="-1.976112"><ele>389</ele><time>2022-11-25T12:24:20Z</time><name>PT1822</name></trkpt>
<trkpt lat="53.194830" lon="-1.976140"><ele>390</ele><time>2022-11-25T12:24:23Z</time><name>PT1823</name></trkpt>
<trkpt lat="53.194856" lon="-1.976163"><ele>390</ele><time>2022-11-25T12:24:27Z</time><name>PT1824</name></trkpt>
<trkpt lat="53.194867" lon="-1.976202"><ele>391</ele><time>2022-11-25T12:24:30Z</time><name>PT1825</name></trkpt>
<trkpt lat="53.194878" lon="-1.976236"><ele>391</ele><time>2022-11-25T12:24:33Z</time><name>PT1826</name></trkpt>
<trkpt lat="53.194878" lon="-1.976287"><ele>391</ele><time>2022-11-25T12:24:36Z</time><name>PT1827</name></trkpt>
<trkpt lat="53.194870" lon="-1.976353"><ele>390</ele><time>2022-11-25T12:24:41Z</time><name>PT1828</name></trkpt>
<trkpt lat="53.194870" lon="-1.976397"><ele>390</ele><time>2022-11-25T12:24:44Z</time><name>PT1829</name></trkpt>
<trkpt lat="53.194874" lon="-1.976420"><ele>390</ele><time>2022-11-25T12:24:47Z</time><name>PT1830</name></trkpt>
<trkpt lat="53.194874" lon="-1.976433"><ele>390</ele><time>2022-11-25T12:24:50Z</time><name>PT1831</name></trkpt>
<trkpt lat="53.194875" lon="-1.976437"><ele>390</ele><time>2022-11-25T12:24:53Z</time><name>PT1832</name></trkpt>
<trkpt lat="53.194882" lon="-1.976448"><ele>390</ele><time>2022-11-25T12:24:57Z</time><name>PT1833</name></trkpt>
<trkpt lat="53.194913" lon="-1.976453"><ele>390</ele><time>2022-11-25T12:25:02Z</time><name>PT1834</name></trkpt>
<trkpt lat="53.194946" lon="-1.976431"><ele>391</ele><time>2022-11-25T12:25:05Z</time><name>PT1835</name></trkpt>
<trkpt lat="53.194974" lon="-1.976414"><ele>391</ele><time>2022-11-25T12:25:09Z</time><name>PT1836</name></trkpt>
<trkpt lat="53.194995" lon="-1.976394"><ele>392</ele><time>2022-11-25T12:25:12Z</time><name>PT1837</name></trkpt>
<trkpt lat="53.195020" lon="-1.976373"><ele>392</ele><time>2022-11-25T12:25:15Z</time><name>PT1838</name></trkpt>
<trkpt lat="53.195047" lon="-1.976355"><ele>392</ele><time>2022-11-25T12:25:18Z</time><name>PT1839</name></trkpt>
<trkpt lat="53.195082" lon="-1.976312"><ele>392</ele><time>2022-11-25T12:25:23Z</time><name>PT1840</name></trkpt>
<trkpt lat="53.195113" lon="-1.976269"><ele>392</ele><time>2022-11-25T12:25:26Z</time><name>PT1841</name></trkpt>
<trkpt lat="53.195135" lon="-1.976252"><ele>392</ele><time>2022-11-25T12:25:30Z</time><name>PT1842</name></trkpt>
<trkpt lat="53.195150" lon="-1.976243"><ele>392</ele><time>2022-11-25T12:25:33Z</time><name>PT1843</name></trkpt>
<trkpt lat="53.195180" lon="-1.976247"><ele>392</ele><time>2022-11-25T12:25:36Z</time><name>PT1844</name></trkpt>
<trkpt lat="53.195209" lon="-1.976258"><ele>393</ele><time>2022-11-25T12:25:39Z</time><name>PT1845</name></trkpt>
<trkpt lat="53.195240" lon="-1.976264"><ele>394</ele><time>2022-11-25T12:25:42Z</time><name>PT1846</name></trkpt>
<trkpt lat="53.195271" lon="-1.976268"><ele>394</ele><time>2022-11-25T12:25:45Z</time><name>PT1847</name></trkpt>
<trkpt lat="53.195300" lon="-1.976273"><ele>395</ele><time>2022-11-25T12:25:49Z</time><name>PT1848</name></trkpt>
<trkpt lat="53.195338" lon="-1.976285"><ele>395</ele><time>2022-11-25T12:25:53Z</time><name>PT1849</name></trkpt>
<trkpt lat="53.195381" lon="-1.976297"><ele>394</ele><time>2022-11-25T12:25:56Z</time><name>PT1850</name></trkpt>
<trkpt lat="53.195413" lon="-1.976296"><ele>394</ele><time>2022-11-25T12:25:59Z</time><name>PT1851</name></trkpt>
<trkpt lat="53.195447" lon="-1.976298"><ele>395</ele><time>2022-11-25T12:26:02Z</time><name>PT1852</name></trkpt>
<trkpt lat="53.195492" lon="-1.976301"><ele>397</ele><time>2022-11-25T12:26:06Z</time><name>PT1853</name></trkpt>
<trkpt lat="53.195523" lon="-1.976307"><ele>397</ele><time>2022-11-25T12:26:10Z</time><name>PT1854</name></trkpt>
<trkpt lat="53.195564" lon="-1.976304"><ele>397</ele><time>2022-11-25T12:26:14Z</time><name>PT1855</name></trkpt>
<trkpt lat="53.195607" lon="-1.976306"><ele>397</ele><time>2022-11-25T12:26:17Z</time><name>PT1856</name></trkpt>
<trkpt lat="53.195642" lon="-1.976300"><ele>397</ele><time>2022-11-25T12:26:20Z</time><name>PT1857</name></trkpt>
<trkpt lat="53.195672" lon="-1.976301"><ele>398</ele><time>2022-11-25T12:26:23Z</time><name>PT1858</name></trkpt>
<trkpt lat="53.195712" lon="-1.976298"><ele>398</ele><time>2022-11-25T12:26:27Z</time><name>PT1859</name></trkpt>
<trkpt lat="53.195760" lon="-1.976306"><ele>400</ele><time>2022-11-25T12:26:32Z</time><name>PT1860</name></trkpt>
<trkpt lat="53.195798" lon="-1.976310"><ele>400</ele><time>2022-11-25T12:26:35Z</time><name>PT1861</name></trkpt>
<trkpt lat="53.195838" lon="-1.976317"><ele>400</ele><time>2022-11-25T12:26:38Z</time><name>PT1862</name></trkpt>
<trkpt lat="53.195869" lon="-1.976322"><ele>401</ele><time>2022-11-25T12:26:41Z</time><name>PT1863</name></trkpt>
<trkpt lat="53.195902" lon="-1.976329"><ele>401</ele><time>2022-11-25T12:26:44Z</time><name>PT1864</name></trkpt>
<trkpt lat="53.195944" lon="-1.976333"><ele>402</ele><time>2022-11-25T12:26:48Z</time><name>PT1865</name></trkpt>
<trkpt lat="53.195970" lon="-1.976337"><ele>402</ele><time>2022-11-25T12:26:51Z</time><name>PT1866</name></trkpt>
<trkpt lat="53.196013" lon="-1.976333"><ele>403</ele><time>2022-11-25T12:26:56Z</time><name>PT1867</name></trkpt>
<trkpt lat="53.196027" lon="-1.976301"><ele>403</ele><time>2022-11-25T12:26:59Z</time><name>PT1868</name></trkpt>
<trkpt lat="53.196045" lon="-1.976269"><ele>403</ele><time>2022-11-25T12:27:02Z</time><name>PT1869</name></trkpt>
<trkpt lat="53.196068" lon="-1.976235"><ele>403</ele><time>2022-11-25T12:27:05Z</time><name>PT1870</name></trkpt>
<trkpt lat="53.196083" lon="-1.976180"><ele>403</ele><time>2022-11-25T12:27:09Z</time><name>PT1871</name></trkpt>
<trkpt lat="53.196088" lon="-1.976132"><ele>403</ele><time>2022-11-25T12:27:12Z</time><name>PT1872</name></trkpt>
<trkpt lat="53.196077" lon="-1.976058"><ele>403</ele><time>2022-11-25T12:27:17Z</time><name>PT1873</name></trkpt>
<trkpt lat="53.196064" lon="-1.975998"><ele>402</ele><time>2022-11-25T12:27:20Z</time><name>PT1874</name></trkpt>
<trkpt lat="53.196054" lon="-1.975943"><ele>402</ele><time>2022-11-25T12:27:23Z</time><name>PT1875</name></trkpt>
<trkpt lat="53.196037" lon="-1.975876"><ele>402</ele><time>2022-11-25T12:27:26Z</time><name>PT1876</name></trkpt>
<trkpt lat="53.196017" lon="-1.975829"><ele>402</ele><time>2022-11-25T12:27:29Z</time><name>PT1877</name></trkpt>
<trkpt lat="53.196007" lon="-1.975746"><ele>402</ele><time>2022-11-25T12:27:33Z</time><name>PT1878</name></trkpt>
<trkpt lat="53.196004" lon="-1.975673"><ele>403</ele><time>2022-11-25T12:27:36Z</time><name>PT1879</name></trkpt>
<trkpt lat="53.196004" lon="-1.975612"><ele>403</ele><time>2022-11-25T12:27:39Z</time><name>PT1880</name></trkpt>
<trkpt lat="53.195991" lon="-1.975539"><ele>404</ele><time>2022-11-25T12:27:44Z</time><name>PT1881</name></trkpt>
<trkpt lat="53.195979" lon="-1.975473"><ele>403</ele><time>2022-11-25T12:27:47Z</time><name>PT1882</name></trkpt>
<trkpt lat="53.195974" lon="-1.975438"><ele>403</ele><time>2022-11-25T12:27:51Z</time><name>PT1883</name></trkpt>
<trkpt lat="53.195957" lon="-1.975407"><ele>403</ele><time>2022-11-25T12:27:54Z</time><name>PT1884</name></trkpt>
<trkpt lat="53.195949" lon="-1.975393"><ele>402</ele><time>2022-11-25T12:27:57Z</time><name>PT1885</name></trkpt>
<trkpt lat="53.195951" lon="-1.975388"><ele>402</ele><time>2022-11-25T12:28:02Z</time><name>PT1886</name></trkpt>
<trkpt lat="53.195957" lon="-1.975405"><ele>403</ele><time>2022-11-25T12:28:05Z</time><name>PT1887</name></trkpt>
<trkpt lat="53.195971" lon="-1.975416"><ele>403</ele><time>2022-11-25T12:28:08Z</time><name>PT1888</name></trkpt>
<trkpt lat="53.195995" lon="-1.975404"><ele>403</ele><time>2022-11-25T12:28:12Z</time><name>PT1889</name></trkpt>
<trkpt lat="53.196025" lon="-1.975394"><ele>403</ele><time>2022-11-25T12:28:15Z</time><name>PT1890</name></trkpt>
<trkpt lat="53.196068" lon="-1.975378"><ele>403</ele><time>2022-11-25T12:28:20Z</time><name>PT1891</name></trkpt>
<trkpt lat="53.196119" lon="-1.975357"><ele>404</ele><time>2022-11-25T12:28:23Z</time><name>PT1892</name></trkpt>
<trkpt lat="53.196165" lon="-1.975332"><ele>404</ele><time>2022-11-25T12:28:27Z</time><name>PT1893</name></trkpt>
<trkpt lat="53.196206" lon="-1.975300"><ele>405</ele><time>2022-11-25T12:28:32Z</time><name>PT1894</name></trkpt>
<trkpt lat="53.196247" lon="-1.975268"><ele>405</ele><time>2022-11-25T12:28:35Z</time><name>PT1895</name></trkpt>
<trkpt lat="53.196277" lon="-1.975247"><ele>405</ele><time>2022-11-25T12:28:38Z</time><name>PT1896</name></trkpt>
<trkpt lat="53.196308" lon="-1.975223"><ele>405</ele><time>2022-11-25T12:28:41Z</time><name>PT1897</name></trkpt>
<trkpt lat="53.196353" lon="-1.975198"><ele>405</ele><time>2022-11-25T12:28:45Z</time><name>PT1898</name></trkpt>
<trkpt lat="53.196385" lon="-1.975181"><ele>405</ele><time>2022-11-25T12:28:48Z</time><name>PT1899</name></trkpt>
<trkpt lat="53.196427" lon="-1.975155"><ele>406</ele><time>2022-11-25T12:28:53Z</time><name>PT1900</name></trkpt>
<trkpt lat="53.196471" lon="-1.975123"><ele>406</ele><time>2022-11-25T12:28:56Z</time><name>PT1901</name></trkpt>
<trkpt lat="53.196514" lon="-1.975091"><ele>406</ele><time>2022-11-25T12:29:01Z</time><name>PT1902</name></trkpt>
<trkpt lat="53.196557" lon="-1.975068"><ele>406</ele><time>2022-11-25T12:29:05Z</time><name>PT1903</name></trkpt>
<trkpt lat="53.196599" lon="-1.975035"><ele>406</ele><time>2022-11-25T12:29:08Z</time><name>PT1904</name></trkpt>
<trkpt lat="53.196643" lon="-1.975000"><ele>406</ele><time>2022-11-25T12:29:12Z</time><name>PT1905</name></trkpt>
<trkpt lat="53.196680" lon="-1.974968"><ele>407</ele><time>2022-11-25T12:29:17Z</time><name>PT1906</name></trkpt>
<trkpt lat="53.196689" lon="-1.974954"><ele>407</ele><time>2022-11-25T12:29:20Z</time><name>PT1907</name></trkpt>
<trkpt lat="53.196717" lon="-1.974904"><ele>407</ele><time>2022-11-25T12:29:23Z</time><name>PT1908</name></trkpt>
<trkpt lat="53.196728" lon="-1.974890"><ele>407</ele><time>2022-11-25T12:29:27Z</time><name>PT1909</name></trkpt>
<trkpt lat="53.196730" lon="-1.974903"><ele>407</ele><time>2022-11-25T12:29:31Z</time><name>PT1910</name></trkpt>
<trkpt lat="53.196730" lon="-1.974894"><ele>407</ele><time>2022-11-25T12:29:35Z</time><name>PT1911</name></trkpt>
<trkpt lat="53.196737" lon="-1.974880"><ele>407</ele><time>2022-11-25T12:29:38Z</time><name>PT1912</name></trkpt>
<trkpt lat="53.196736" lon="-1.974874"><ele>407</ele><time>2022-11-25T12:29:42Z</time><name>PT1913</name></trkpt>
<trkpt lat="53.196740" lon="-1.974865"><ele>407</ele><time>2022-11-25T12:29:47Z</time><name>PT1914</name></trkpt>
<trkpt lat="53.196742" lon="-1.974867"><ele>407</ele><time>2022-11-25T12:29:50Z</time><name>PT1915</name></trkpt>
<trkpt lat="53.196743" lon="-1.974867"><ele>407</ele><time>2022-11-25T12:29:56Z</time><name>PT1916</name></trkpt>
<trkpt lat="53.196746" lon="-1.974859"><ele>407</ele><time>2022-11-25T12:30:00Z</time><name>PT1917</name></trkpt>
<trkpt lat="53.196745" lon="-1.974856"><ele>407</ele><time>2022-11-25T12:30:03Z</time><name>PT1918</name></trkpt>
<trkpt lat="53.196750" lon="-1.974800"><ele>407</ele><time>2022-11-25T12:30:14Z</time><name>PT1919</name></trkpt>
<trkpt lat="53.196762" lon="-1.974750"><ele>407</ele><time>2022-11-25T12:30:17Z</time><name>PT1920</name></trkpt>
<trkpt lat="53.196768" lon="-1.974699"><ele>407</ele><time>2022-11-25T12:30:20Z</time><name>PT1921</name></trkpt>
<trkpt lat="53.196787" lon="-1.974639"><ele>408</ele><time>2022-11-25T12:30:24Z</time><name>PT1922</name></trkpt>
<trkpt lat="53.196794" lon="-1.974601"><ele>408</ele><time>2022-11-25T12:30:27Z</time><name>PT1923</name></trkpt>
<trkpt lat="53.196807" lon="-1.974540"><ele>408</ele><time>2022-11-25T12:30:32Z</time><name>PT1924</name></trkpt>
<trkpt lat="53.196819" lon="-1.974489"><ele>408</ele><time>2022-11-25T12:30:35Z</time><name>PT1925</name></trkpt>
<trkpt lat="53.196837" lon="-1.974423"><ele>409</ele><time>2022-11-25T12:30:38Z</time><name>PT1926</name></trkpt>
<trkpt lat="53.196850" lon="-1.974381"><ele>409</ele><time>2022-11-25T12:30:41Z</time><name>PT1927</name></trkpt>
<trkpt lat="53.196869" lon="-1.974321"><ele>409</ele><time>2022-11-25T12:30:45Z</time><name>PT1928</name></trkpt>
<trkpt lat="53.196881" lon="-1.974273"><ele>410</ele><time>2022-11-25T12:30:48Z</time><name>PT1929</name></trkpt>
<trkpt lat="53.196896" lon="-1.974221"><ele>409</ele><time>2022-11-25T12:30:53Z</time><name>PT1930</name></trkpt>
<trkpt lat="53.196904" lon="-1.974191"><ele>410</ele><time>2022-11-25T12:30:56Z</time><name>PT1931</name></trkpt>
<trkpt lat="53.196912" lon="-1.974165"><ele>410</ele><time>2022-11-25T12:30:59Z</time><name>PT1932</name></trkpt>
<trkpt lat="53.196929" lon="-1.974121"><ele>410</ele><time>2022-11-25T12:31:02Z</time><name>PT1933</name></trkpt>
<trkpt lat="53.196938" lon="-1.974088"><ele>410</ele><time>2022-11-25T12:31:05Z</time><name>PT1934</name></trkpt>
<trkpt lat="53.196947" lon="-1.974052"><ele>411</ele><time>2022-11-25T12:31:09Z</time><name>PT1935</name></trkpt>
<trkpt lat="53.196966" lon="-1.974026"><ele>411</ele><time>2022-11-25T12:31:12Z</time><name>PT1936</name></trkpt>
<trkpt lat="53.196983" lon="-1.973993"><ele>411</ele><time>2022-11-25T12:31:15Z</time><name>PT1937</name></trkpt>
<trkpt lat="53.197008" lon="-1.973979"><ele>412</ele><time>2022-11-25T12:31:20Z</time><name>PT1938</name></trkpt>
<trkpt lat="53.197026" lon="-1.973960"><ele>411</ele><time>2022-11-25T12:31:23Z</time><name>PT1939</name></trkpt>
<trkpt lat="53.197037" lon="-1.973954"><ele>411</ele><time>2022-11-25T12:31:27Z</time><name>PT1940</name></trkpt>
<trkpt lat="53.197058" lon="-1.973940"><ele>411</ele><time>2022-11-25T12:31:32Z</time><name>PT1941</name></trkpt>
<trkpt lat="53.197054" lon="-1.973930"><ele>411</ele><time>2022-11-25T12:31:35Z</time><name>PT1942</name></trkpt>
<trkpt lat="53.197060" lon="-1.973932"><ele>411</ele><time>2022-11-25T12:31:39Z</time><name>PT1943</name></trkpt>
<trkpt lat="53.197061" lon="-1.973932"><ele>412</ele><time>2022-11-25T12:31:42Z</time><name>PT1944</name></trkpt>
<trkpt lat="53.197063" lon="-1.973929"><ele>412</ele><time>2022-11-25T12:31:45Z</time><name>PT1945</name></trkpt>
<trkpt lat="53.197083" lon="-1.973926"><ele>412</ele><time>2022-11-25T12:31:50Z</time><name>PT1946</name></trkpt>
<trkpt lat="53.197101" lon="-1.973934"><ele>412</ele><time>2022-11-25T12:31:53Z</time><name>PT1947</name></trkpt>
<trkpt lat="53.197118" lon="-1.973929"><ele>412</ele><time>2022-11-25T12:31:57Z</time><name>PT1948</name></trkpt>
<trkpt lat="53.197127" lon="-1.973933"><ele>412</ele><time>2022-11-25T12:32:02Z</time><name>PT1949</name></trkpt>
<trkpt lat="53.197140" lon="-1.973936"><ele>412</ele><time>2022-11-25T12:32:05Z</time><name>PT1950</name></trkpt>
<trkpt lat="53.197178" lon="-1.973931"><ele>412</ele><time>2022-11-25T12:32:09Z</time><name>PT1951</name></trkpt>
<trkpt lat="53.197204" lon="-1.973932"><ele>412</ele><time>2022-11-25T12:32:12Z</time><name>PT1952</name></trkpt>
<trkpt lat="53.197239" lon="-1.973931"><ele>411</ele><time>2022-11-25T12:32:17Z</time><name>PT1953</name></trkpt>
<trkpt lat="53.197276" lon="-1.973932"><ele>412</ele><time>2022-11-25T12:32:20Z</time><name>PT1954</name></trkpt>
<trkpt lat="53.197306" lon="-1.973926"><ele>412</ele><time>2022-11-25T12:32:23Z</time><name>PT1955</name></trkpt>
<trkpt lat="53.197338" lon="-1.973932"><ele>411</ele><time>2022-11-25T12:32:27Z</time><name>PT1956</name></trkpt>
<trkpt lat="53.197369" lon="-1.973933"><ele>411</ele><time>2022-11-25T12:32:32Z</time><name>PT1957</name></trkpt>
<trkpt lat="53.197398" lon="-1.973930"><ele>410</ele><time>2022-11-25T12:32:35Z</time><name>PT1958</name></trkpt>
<trkpt lat="53.197428" lon="-1.973943"><ele>410</ele><time>2022-11-25T12:32:38Z</time><name>PT1959</name></trkpt>
<trkpt lat="53.197469" lon="-1.973949"><ele>410</ele><time>2022-11-25T12:32:42Z</time><name>PT1960</name></trkpt>
<trkpt lat="53.197498" lon="-1.973952"><ele>410</ele><time>2022-11-25T12:32:45Z</time><name>PT1961</name></trkpt>
<trkpt lat="53.197543" lon="-1.973953"><ele>411</ele><time>2022-11-25T12:32:50Z</time><name>PT1962</name></trkpt>
<trkpt lat="53.197576" lon="-1.973961"><ele>410</ele><time>2022-11-25T12:32:53Z</time><name>PT1963</name></trkpt>
<trkpt lat="53.197621" lon="-1.973969"><ele>410</ele><time>2022-11-25T12:32:56Z</time><name>PT1964</name></trkpt>
<trkpt lat="53.197649" lon="-1.973980"><ele>409</ele><time>2022-11-25T12:32:59Z</time><name>PT1965</name></trkpt>
<trkpt lat="53.197688" lon="-1.974000"><ele>410</ele><time>2022-11-25T12:33:03Z</time><name>PT1966</name></trkpt>
<trkpt lat="53.197728" lon="-1.974012"><ele>409</ele><time>2022-11-25T12:33:08Z</time><name>PT1967</name></trkpt>
<trkpt lat="53.197766" lon="-1.974020"><ele>409</ele><time>2022-11-25T12:33:11Z</time><name>PT1968</name></trkpt>
<trkpt lat="53.197804" lon="-1.974018"><ele>410</ele><time>2022-11-25T12:33:14Z</time><name>PT1969</name></trkpt>
<trkpt lat="53.197834" lon="-1.974006"><ele>409</ele><time>2022-11-25T12:33:17Z</time><name>PT1970</name></trkpt>
<trkpt lat="53.197865" lon="-1.973994"><ele>409</ele><time>2022-11-25T12:33:21Z</time><name>PT1971</name></trkpt>
<trkpt lat="53.197868" lon="-1.973990"><ele>409</ele><time>2022-11-25T12:33:24Z</time><name>PT1972</name></trkpt>
<trkpt lat="53.197895" lon="-1.973981"><ele>409</ele><time>2022-11-25T12:33:32Z</time><name>PT1973</name></trkpt>
<trkpt lat="53.197936" lon="-1.973953"><ele>408</ele><time>2022-11-25T12:33:35Z</time><name>PT1974</name></trkpt>
<trkpt lat="53.197969" lon="-1.973940"><ele>407</ele><time>2022-11-25T12:33:38Z</time><name>PT1975</name></trkpt>
<trkpt lat="53.198006" lon="-1.973916"><ele>406</ele><time>2022-11-25T12:33:43Z</time><name>PT1976</name></trkpt>
<trkpt lat="53.198044" lon="-1.973917"><ele>405</ele><time>2022-11-25T12:33:47Z</time><name>PT1977</name></trkpt>
<trkpt lat="53.198074" lon="-1.973907"><ele>405</ele><time>2022-11-25T12:33:50Z</time><name>PT1978</name></trkpt>
<trkpt lat="53.198112" lon="-1.973914"><ele>405</ele><time>2022-11-25T12:33:53Z</time><name>PT1979</name></trkpt>
<trkpt lat="53.198139" lon="-1.973909"><ele>404</ele><time>2022-11-25T12:33:56Z</time><name>PT1980</name></trkpt>
<trkpt lat="53.198177" lon="-1.973916"><ele>403</ele><time>2022-11-25T12:34:00Z</time><name>PT1981</name></trkpt>
<trkpt lat="53.198215" lon="-1.973905"><ele>403</ele><time>2022-11-25T12:34:05Z</time><name>PT1982</name></trkpt>
<trkpt lat="53.198249" lon="-1.973897"><ele>403</ele><time>2022-11-25T12:34:08Z</time><name>PT1983</name></trkpt>
<trkpt lat="53.198292" lon="-1.973884"><ele>402</ele><time>2022-11-25T12:34:11Z</time><name>PT1984</name></trkpt>
<trkpt lat="53.198312" lon="-1.973867"><ele>401</ele><time>2022-11-25T12:34:14Z</time><name>PT1985</name></trkpt>
<trkpt lat="53.198347" lon="-1.973845"><ele>401</ele><time>2022-11-25T12:34:18Z</time><name>PT1986</name></trkpt>
<trkpt lat="53.198371" lon="-1.973834"><ele>400</ele><time>2022-11-25T12:34:21Z</time><name>PT1987</name></trkpt>
<trkpt lat="53.198391" lon="-1.973809"><ele>400</ele><time>2022-11-25T12:34:24Z</time><name>PT1988</name></trkpt>
<trkpt lat="53.198405" lon="-1.973740"><ele>401</ele><time>2022-11-25T12:34:29Z</time><name>PT1989</name></trkpt>
<trkpt lat="53.198403" lon="-1.973695"><ele>401</ele><time>2022-11-25T12:34:32Z</time><name>PT1990</name></trkpt>
<trkpt lat="53.198409" lon="-1.973646"><ele>401</ele><time>2022-11-25T12:34:35Z</time><name>PT1991</name></trkpt>
<trkpt lat="53.198429" lon="-1.973602"><ele>402</ele><time>2022-11-25T12:34:38Z</time><name>PT1992</name></trkpt>
<trkpt lat="53.198449" lon="-1.973575"><ele>403</ele><time>2022-11-25T12:34:41Z</time><name>PT1993</name></trkpt>
<trkpt lat="53.198472" lon="-1.973543"><ele>404</ele><time>2022-11-25T12:34:45Z</time><name>PT1994</name></trkpt>
<trkpt lat="53.198488" lon="-1.973530"><ele>404</ele><time>2022-11-25T12:34:50Z</time><name>PT1995</name></trkpt>
<trkpt lat="53.198492" lon="-1.973527"><ele>405</ele><time>2022-11-25T12:34:53Z</time><name>PT1996</name></trkpt>
<trkpt lat="53.198492" lon="-1.973527"><ele>405</ele><time>2022-11-25T12:34:57Z</time><name>PT1997</name></trkpt>
<trkpt lat="53.198525" lon="-1.973503"><ele>404</ele><time>2022-11-25T12:35:02Z</time><name>PT1998</name></trkpt>
<trkpt lat="53.198549" lon="-1.973479"><ele>403</ele><time>2022-11-25T12:35:05Z</time><name>PT1999</name></trkpt>
<trkpt lat="53.198577" lon="-1.973439"><ele>401</ele><time>2022-11-25T12:35:08Z</time><name>PT2000</name></trkpt>
<trkpt lat="53.198601" lon="-1.973413"><ele>401</ele><time>2022-11-25T12:35:11Z</time><name>PT2001</name></trkpt>
<trkpt lat="53.198644" lon="-1.973367"><ele>401</ele><time>2022-11-25T12:35:15Z</time><name>PT2002</name></trkpt>
<trkpt lat="53.198678" lon="-1.973343"><ele>401</ele><time>2022-11-25T12:35:18Z</time><name>PT2003</name></trkpt>
<trkpt lat="53.198719" lon="-1.973302"><ele>401</ele><time>2022-11-25T12:35:23Z</time><name>PT2004</name></trkpt>
<trkpt lat="53.198751" lon="-1.973278"><ele>401</ele><time>2022-11-25T12:35:26Z</time><name>PT2005</name></trkpt>
<trkpt lat="53.198789" lon="-1.973246"><ele>402</ele><time>2022-11-25T12:35:29Z</time><name>PT2006</name></trkpt>
<trkpt lat="53.198817" lon="-1.973230"><ele>401</ele><time>2022-11-25T12:35:32Z</time><name>PT2007</name></trkpt>
<trkpt lat="53.198851" lon="-1.973222"><ele>401</ele><time>2022-11-25T12:35:35Z</time><name>PT2008</name></trkpt>
<trkpt lat="53.198867" lon="-1.973185"><ele>400</ele><time>2022-11-25T12:35:38Z</time><name>PT2009</name></trkpt>
<trkpt lat="53.198909" lon="-1.973149"><ele>400</ele><time>2022-11-25T12:35:42Z</time><name>PT2010</name></trkpt>
<trkpt lat="53.198937" lon="-1.973098"><ele>399</ele><time>2022-11-25T12:35:47Z</time><name>PT2011</name></trkpt>
<trkpt lat="53.198969" lon="-1.973076"><ele>399</ele><time>2022-11-25T12:35:50Z</time><name>PT2012</name></trkpt>
<trkpt lat="53.199010" lon="-1.973019"><ele>401</ele><time>2022-11-25T12:35:53Z</time><name>PT2013</name></trkpt>
<trkpt lat="53.199047" lon="-1.972989"><ele>402</ele><time>2022-11-25T12:35:56Z</time><name>PT2014</name></trkpt>
<trkpt lat="53.199088" lon="-1.972938"><ele>403</ele><time>2022-11-25T12:36:00Z</time><name>PT2015</name></trkpt>
<trkpt lat="53.199118" lon="-1.972874"><ele>404</ele><time>2022-11-25T12:36:05Z</time><name>PT2016</name></trkpt>
<trkpt lat="53.199152" lon="-1.972816"><ele>404</ele><time>2022-11-25T12:36:08Z</time><name>PT2017</name></trkpt>
<trkpt lat="53.199181" lon="-1.972784"><ele>405</ele><time>2022-11-25T12:36:11Z</time><name>PT2018</name></trkpt>
<trkpt lat="53.199219" lon="-1.972744"><ele>405</ele><time>2022-11-25T12:36:15Z</time><name>PT2019</name></trkpt>
<trkpt lat="53.199246" lon="-1.972720"><ele>405</ele><time>2022-11-25T12:36:18Z</time><name>PT2020</name></trkpt>
<trkpt lat="53.199276" lon="-1.972695"><ele>406</ele><time>2022-11-25T12:36:22Z</time><name>PT2021</name></trkpt>
<trkpt lat="53.199313" lon="-1.972660"><ele>406</ele><time>2022-11-25T12:36:26Z</time><name>PT2022</name></trkpt>
<trkpt lat="53.199353" lon="-1.972626"><ele>405</ele><time>2022-11-25T12:36:29Z</time><name>PT2023</name></trkpt>
<trkpt lat="53.199378" lon="-1.972601"><ele>405</ele><time>2022-11-25T12:36:32Z</time><name>PT2024</name></trkpt>
<trkpt lat="53.199413" lon="-1.972571"><ele>406</ele><time>2022-11-25T12:36:36Z</time><name>PT2025</name></trkpt>
<trkpt lat="53.199435" lon="-1.972541"><ele>405</ele><time>2022-11-25T12:36:39Z</time><name>PT2026</name></trkpt>
<trkpt lat="53.199467" lon="-1.972499"><ele>405</ele><time>2022-11-25T12:36:44Z</time><name>PT2027</name></trkpt>
<trkpt lat="53.199496" lon="-1.972478"><ele>405</ele><time>2022-11-25T12:36:47Z</time><name>PT2028</name></trkpt>
<trkpt lat="53.199518" lon="-1.972450"><ele>405</ele><time>2022-11-25T12:36:51Z</time><name>PT2029</name></trkpt>
<trkpt lat="53.199551" lon="-1.972405"><ele>406</ele><time>2022-11-25T12:36:56Z</time><name>PT2030</name></trkpt>
<trkpt lat="53.199583" lon="-1.972383"><ele>407</ele><time>2022-11-25T12:36:59Z</time><name>PT2031</name></trkpt>
<trkpt lat="53.199623" lon="-1.972350"><ele>407</ele><time>2022-11-25T12:37:02Z</time><name>PT2032</name></trkpt>
<trkpt lat="53.199654" lon="-1.972325"><ele>408</ele><time>2022-11-25T12:37:05Z</time><name>PT2033</name></trkpt>
<trkpt lat="53.199685" lon="-1.972301"><ele>408</ele><time>2022-11-25T12:37:08Z</time><name>PT2034</name></trkpt>
<trkpt lat="53.199712" lon="-1.972277"><ele>408</ele><time>2022-11-25T12:37:11Z</time><name>PT2035</name></trkpt>
<trkpt lat="53.199743" lon="-1.972254"><ele>409</ele><time>2022-11-25T12:37:14Z</time><name>PT2036</name></trkpt>
<trkpt lat="53.199779" lon="-1.972225"><ele>409</ele><time>2022-11-25T12:37:18Z</time><name>PT2037</name></trkpt>
<trkpt lat="53.199802" lon="-1.972203"><ele>410</ele><time>2022-11-25T12:37:21Z</time><name>PT2038</name></trkpt>
<trkpt lat="53.199821" lon="-1.972174"><ele>409</ele><time>2022-11-25T12:37:25Z</time><name>PT2039</name></trkpt>
<trkpt lat="53.199829" lon="-1.972147"><ele>410</ele><time>2022-11-25T12:37:29Z</time><name>PT2040</name></trkpt>
<trkpt lat="53.199831" lon="-1.972143"><ele>410</ele><time>2022-11-25T12:37:32Z</time><name>PT2041</name></trkpt>
<trkpt lat="53.199833" lon="-1.972138"><ele>410</ele><time>2022-11-25T12:37:35Z</time><name>PT2042</name></trkpt>
<trkpt lat="53.199858" lon="-1.972114"><ele>410</ele><time>2022-11-25T12:37:38Z</time><name>PT2043</name></trkpt>
<trkpt lat="53.199889" lon="-1.972079"><ele>410</ele><time>2022-11-25T12:37:42Z</time><name>PT2044</name></trkpt>
<trkpt lat="53.199922" lon="-1.972049"><ele>410</ele><time>2022-11-25T12:37:47Z</time><name>PT2045</name></trkpt>
<trkpt lat="53.199948" lon="-1.972022"><ele>410</ele><time>2022-11-25T12:37:50Z</time><name>PT2046</name></trkpt>
<trkpt lat="53.199965" lon="-1.971995"><ele>411</ele><time>2022-11-25T12:37:53Z</time><name>PT2047</name></trkpt>
<trkpt lat="53.199988" lon="-1.971985"><ele>411</ele><time>2022-11-25T12:37:56Z</time><name>PT2048</name></trkpt>
<trkpt lat="53.200004" lon="-1.971977"><ele>410</ele><time>2022-11-25T12:37:59Z</time><name>PT2049</name></trkpt>
<trkpt lat="53.200009" lon="-1.971977"><ele>410</ele><time>2022-11-25T12:38:02Z</time><name>PT2050</name></trkpt>
<trkpt lat="53.200015" lon="-1.971972"><ele>410</ele><time>2022-11-25T12:38:06Z</time><name>PT2051</name></trkpt>
<trkpt lat="53.200027" lon="-1.971950"><ele>410</ele><time>2022-11-25T12:38:11Z</time><name>PT2052</name></trkpt>
<trkpt lat="53.200056" lon="-1.971923"><ele>410</ele><time>2022-11-25T12:38:14Z</time><name>PT2053</name></trkpt>
<trkpt lat="53.200092" lon="-1.971885"><ele>411</ele><time>2022-11-25T12:38:17Z</time><name>PT2054</name></trkpt>
<trkpt lat="53.200126" lon="-1.971871"><ele>412</ele><time>2022-11-25T12:38:21Z</time><name>PT2055</name></trkpt>
<trkpt lat="53.200154" lon="-1.971852"><ele>412</ele><time>2022-11-25T12:38:24Z</time><name>PT2056</name></trkpt>
<trkpt lat="53.200194" lon="-1.971825"><ele>412</ele><time>2022-11-25T12:38:29Z</time><name>PT2057</name></trkpt>
<trkpt lat="53.200232" lon="-1.971801"><ele>411</ele><time>2022-11-25T12:38:32Z</time><name>PT2058</name></trkpt>
<trkpt lat="53.200277" lon="-1.971781"><ele>412</ele><time>2022-11-25T12:38:36Z</time><name>PT2059</name></trkpt>
<trkpt lat="53.200295" lon="-1.971772"><ele>412</ele><time>2022-11-25T12:38:39Z</time><name>PT2060</name></trkpt>
<trkpt lat="53.200303" lon="-1.971772"><ele>412</ele><time>2022-11-25T12:38:44Z</time><name>PT2061</name></trkpt>
<trkpt lat="53.200316" lon="-1.971739"><ele>411</ele><time>2022-11-25T12:38:50Z</time><name>PT2062</name></trkpt>
<trkpt lat="53.200338" lon="-1.971708"><ele>412</ele><time>2022-11-25T12:38:53Z</time><name>PT2063</name></trkpt>
<trkpt lat="53.200353" lon="-1.971649"><ele>410</ele><time>2022-11-25T12:38:57Z</time><name>PT2064</name></trkpt>
<trkpt lat="53.200378" lon="-1.971601"><ele>410</ele><time>2022-11-25T12:39:02Z</time><name>PT2065</name></trkpt>
<trkpt lat="53.200394" lon="-1.971560"><ele>410</ele><time>2022-11-25T12:39:05Z</time><name>PT2066</name></trkpt>
<trkpt lat="53.200419" lon="-1.971524"><ele>410</ele><time>2022-11-25T12:39:08Z</time><name>PT2067</name></trkpt>
<trkpt lat="53.200446" lon="-1.971495"><ele>411</ele><time>2022-11-25T12:39:11Z</time><name>PT2068</name></trkpt>
<trkpt lat="53.200479" lon="-1.971463"><ele>411</ele><time>2022-11-25T12:39:14Z</time><name>PT2069</name></trkpt>
<trkpt lat="53.200511" lon="-1.971436"><ele>411</ele><time>2022-11-25T12:39:17Z</time><name>PT2070</name></trkpt>
<trkpt lat="53.200539" lon="-1.971408"><ele>414</ele><time>2022-11-25T12:39:21Z</time><name>PT2071</name></trkpt>
<trkpt lat="53.200577" lon="-1.971385"><ele>416</ele><time>2022-11-25T12:39:24Z</time><name>PT2072</name></trkpt>
<trkpt lat="53.200599" lon="-1.971361"><ele>417</ele><time>2022-11-25T12:39:28Z</time><name>PT2073</name></trkpt>
<trkpt lat="53.200613" lon="-1.971341"><ele>417</ele><time>2022-11-25T12:39:32Z</time><name>PT2074</name></trkpt>
<trkpt lat="53.200624" lon="-1.971334"><ele>417</ele><time>2022-11-25T12:39:35Z</time><name>PT2075</name></trkpt>
<trkpt lat="53.200626" lon="-1.971322"><ele>417</ele><time>2022-11-25T12:39:41Z</time><name>PT2076</name></trkpt>
<trkpt lat="53.200626" lon="-1.971313"><ele>417</ele><time>2022-11-25T12:40:02Z</time><name>PT2077</name></trkpt>
<trkpt lat="53.200627" lon="-1.971302"><ele>417</ele><time>2022-11-25T12:40:06Z</time><name>PT2078</name></trkpt>
<trkpt lat="53.200628" lon="-1.971291"><ele>417</ele><time>2022-11-25T12:41:12Z</time><name>PT2079</name></trkpt>
<trkpt lat="53.200635" lon="-1.971301"><ele>417</ele><time>2022-11-25T12:41:15Z</time><name>PT2080</name></trkpt>
<trkpt lat="53.200638" lon="-1.971299"><ele>418</ele><time>2022-11-25T12:42:14Z</time><name>PT2081</name></trkpt>
<trkpt lat="53.200655" lon="-1.971251"><ele>417</ele><time>2022-11-25T12:42:17Z</time><name>PT2082</name></trkpt>
<trkpt lat="53.200671" lon="-1.971200"><ele>418</ele><time>2022-11-25T12:42:21Z</time><name>PT2083</name></trkpt>
<trkpt lat="53.200682" lon="-1.971159"><ele>418</ele><time>2022-11-25T12:42:24Z</time><name>PT2084</name></trkpt>
<trkpt lat="53.200709" lon="-1.971105"><ele>419</ele><time>2022-11-25T12:42:29Z</time><name>PT2085</name></trkpt>
<trkpt lat="53.200727" lon="-1.971058"><ele>420</ele><time>2022-11-25T12:42:32Z</time><name>PT2086</name></trkpt>
<trkpt lat="53.200749" lon="-1.971004"><ele>421</ele><time>2022-11-25T12:42:35Z</time><name>PT2087</name></trkpt>
<trkpt lat="53.200765" lon="-1.970957"><ele>422</ele><time>2022-11-25T12:42:38Z</time><name>PT2088</name></trkpt>
<trkpt lat="53.200778" lon="-1.970913"><ele>423</ele><time>2022-11-25T12:42:41Z</time><name>PT2089</name></trkpt>
<trkpt lat="53.200793" lon="-1.970874"><ele>423</ele><time>2022-11-25T12:42:44Z</time><name>PT2090</name></trkpt>
<trkpt lat="53.200812" lon="-1.970816"><ele>423</ele><time>2022-11-25T12:42:48Z</time><name>PT2091</name></trkpt>
<trkpt lat="53.200827" lon="-1.970754"><ele>423</ele><time>2022-11-25T12:42:53Z</time><name>PT2092</name></trkpt>
<trkpt lat="53.200838" lon="-1.970712"><ele>423</ele><time>2022-11-25T12:42:56Z</time><name>PT2093</name></trkpt>
<trkpt lat="53.200855" lon="-1.970668"><ele>424</ele><time>2022-11-25T12:42:59Z</time><name>PT2094</name></trkpt>
<trkpt lat="53.200866" lon="-1.970613"><ele>424</ele><time>2022-11-25T12:43:02Z</time><name>PT2095</name></trkpt>
<trkpt lat="53.200883" lon="-1.970556"><ele>424</ele><time>2022-11-25T12:43:06Z</time><name>PT2096</name></trkpt>
<trkpt lat="53.200894" lon="-1.970508"><ele>424</ele><time>2022-11-25T12:43:09Z</time><name>PT2097</name></trkpt>
<trkpt lat="53.200913" lon="-1.970450"><ele>425</ele><time>2022-11-25T12:43:14Z</time><name>PT2098</name></trkpt>
<trkpt lat="53.200927" lon="-1.970394"><ele>426</ele><time>2022-11-25T12:43:17Z</time><name>PT2099</name></trkpt>
<trkpt lat="53.200941" lon="-1.970337"><ele>426</ele><time>2022-11-25T12:43:21Z</time><name>PT2100</name></trkpt>
<trkpt lat="53.200951" lon="-1.970292"><ele>426</ele><time>2022-11-25T12:43:24Z</time><name>PT2101</name></trkpt>
<trkpt lat="53.200966" lon="-1.970234"><ele>427</ele><time>2022-11-25T12:43:29Z</time><name>PT2102</name></trkpt>
<trkpt lat="53.200980" lon="-1.970195"><ele>427</ele><time>2022-11-25T12:43:32Z</time><name>PT2103</name></trkpt>
<trkpt lat="53.200994" lon="-1.970141"><ele>428</ele><time>2022-11-25T12:43:35Z</time><name>PT2104</name></trkpt>
<trkpt lat="53.201006" lon="-1.970098"><ele>428</ele><time>2022-11-25T12:43:38Z</time><name>PT2105</name></trkpt>
<trkpt lat="53.201021" lon="-1.970038"><ele>428</ele><time>2022-11-25T12:43:42Z</time><name>PT2106</name></trkpt>
<trkpt lat="53.201030" lon="-1.969977"><ele>429</ele><time>2022-11-25T12:43:47Z</time><name>PT2107</name></trkpt>
<trkpt lat="53.201040" lon="-1.969916"><ele>430</ele><time>2022-11-25T12:43:50Z</time><name>PT2108</name></trkpt>
<trkpt lat="53.201055" lon="-1.969861"><ele>431</ele><time>2022-11-25T12:43:54Z</time><name>PT2109</name></trkpt>
<trkpt lat="53.201063" lon="-1.969811"><ele>432</ele><time>2022-11-25T12:43:59Z</time><name>PT2110</name></trkpt>
<trkpt lat="53.201073" lon="-1.969753"><ele>433</ele><time>2022-11-25T12:44:02Z</time><name>PT2111</name></trkpt>
<trkpt lat="53.201081" lon="-1.969684"><ele>433</ele><time>2022-11-25T12:44:05Z</time><name>PT2112</name></trkpt>
<trkpt lat="53.201093" lon="-1.969637"><ele>433</ele><time>2022-11-25T12:44:08Z</time><name>PT2113</name></trkpt>
<trkpt lat="53.201097" lon="-1.969577"><ele>433</ele><time>2022-11-25T12:44:12Z</time><name>PT2114</name></trkpt>
<trkpt lat="53.201107" lon="-1.969515"><ele>434</ele><time>2022-11-25T12:44:17Z</time><name>PT2115</name></trkpt>
<trkpt lat="53.201113" lon="-1.969466"><ele>435</ele><time>2022-11-25T12:44:20Z</time><name>PT2116</name></trkpt>
<trkpt lat="53.201122" lon="-1.969392"><ele>435</ele><time>2022-11-25T12:44:23Z</time><name>PT2117</name></trkpt>
<trkpt lat="53.201129" lon="-1.969326"><ele>435</ele><time>2022-11-25T12:44:27Z</time><name>PT2118</name></trkpt>
<trkpt lat="53.201134" lon="-1.969269"><ele>435</ele><time>2022-11-25T12:44:32Z</time><name>PT2119</name></trkpt>
<trkpt lat="53.201138" lon="-1.969230"><ele>435</ele><time>2022-11-25T12:44:35Z</time><name>PT2120</name></trkpt>
<trkpt lat="53.201145" lon="-1.969178"><ele>436</ele><time>2022-11-25T12:44:38Z</time><name>PT2121</name></trkpt>
<trkpt lat="53.201148" lon="-1.969116"><ele>436</ele><time>2022-11-25T12:44:41Z</time><name>PT2122</name></trkpt>
<trkpt lat="53.201156" lon="-1.969063"><ele>437</ele><time>2022-11-25T12:44:44Z</time><name>PT2123</name></trkpt>
<trkpt lat="53.201162" lon="-1.968991"><ele>438</ele><time>2022-11-25T12:44:48Z</time><name>PT2124</name></trkpt>
<trkpt lat="53.201159" lon="-1.968934"><ele>438</ele><time>2022-11-25T12:44:51Z</time><name>PT2125</name></trkpt>
<trkpt lat="53.201161" lon="-1.968858"><ele>439</ele><time>2022-11-25T12:44:56Z</time><name>PT2126</name></trkpt>
<trkpt lat="53.201166" lon="-1.968788"><ele>439</ele><time>2022-11-25T12:44:59Z</time><name>PT2127</name></trkpt>
<trkpt lat="53.201168" lon="-1.968742"><ele>439</ele><time>2022-11-25T12:45:02Z</time><name>PT2128</name></trkpt>
<trkpt lat="53.201169" lon="-1.968675"><ele>439</ele><time>2022-11-25T12:45:06Z</time><name>PT2129</name></trkpt>
<trkpt lat="53.201179" lon="-1.968606"><ele>439</ele><time>2022-11-25T12:45:11Z</time><name>PT2130</name></trkpt>
<trkpt lat="53.201185" lon="-1.968533"><ele>440</ele><time>2022-11-25T12:45:14Z</time><name>PT2131</name></trkpt>
<trkpt lat="53.201188" lon="-1.968484"><ele>441</ele><time>2022-11-25T12:45:17Z</time><name>PT2132</name></trkpt>
<trkpt lat="53.201194" lon="-1.968429"><ele>442</ele><time>2022-11-25T12:45:20Z</time><name>PT2133</name></trkpt>
<trkpt lat="53.201202" lon="-1.968380"><ele>443</ele><time>2022-11-25T12:45:23Z</time><name>PT2134</name></trkpt>
<trkpt lat="53.201216" lon="-1.968312"><ele>444</ele><time>2022-11-25T12:45:27Z</time><name>PT2135</name></trkpt>
<trkpt lat="53.201218" lon="-1.968265"><ele>444</ele><time>2022-11-25T12:45:30Z</time><name>PT2136</name></trkpt>
<trkpt lat="53.201226" lon="-1.968221"><ele>444</ele><time>2022-11-25T12:45:33Z</time><name>PT2137</name></trkpt>
<trkpt lat="53.201233" lon="-1.968175"><ele>444</ele><time>2022-11-25T12:45:36Z</time><name>PT2138</name></trkpt>
<trkpt lat="53.201248" lon="-1.968116"><ele>445</ele><time>2022-11-25T12:45:41Z</time><name>PT2139</name></trkpt>
<trkpt lat="53.201260" lon="-1.968049"><ele>446</ele><time>2022-11-25T12:45:44Z</time><name>PT2140</name></trkpt>
<trkpt lat="53.201266" lon="-1.968001"><ele>446</ele><time>2022-11-25T12:45:47Z</time><name>PT2141</name></trkpt>
<trkpt lat="53.201275" lon="-1.967930"><ele>447</ele><time>2022-11-25T12:45:51Z</time><name>PT2142</name></trkpt>
<trkpt lat="53.201284" lon="-1.967880"><ele>447</ele><time>2022-11-25T12:45:54Z</time><name>PT2143</name></trkpt>
<trkpt lat="53.201297" lon="-1.967814"><ele>449</ele><time>2022-11-25T12:45:59Z</time><name>PT2144</name></trkpt>
<trkpt lat="53.201302" lon="-1.967768"><ele>449</ele><time>2022-11-25T12:46:02Z</time><name>PT2145</name></trkpt>
<trkpt lat="53.201312" lon="-1.967713"><ele>450</ele><time>2022-11-25T12:46:05Z</time><name>PT2146</name></trkpt>
<trkpt lat="53.201314" lon="-1.967673"><ele>451</ele><time>2022-11-25T12:46:08Z</time><name>PT2147</name></trkpt>
<trkpt lat="53.201313" lon="-1.967622"><ele>452</ele><time>2022-11-25T12:46:11Z</time><name>PT2148</name></trkpt>
<trkpt lat="53.201306" lon="-1.967559"><ele>453</ele><time>2022-11-25T12:46:15Z</time><name>PT2149</name></trkpt>
<trkpt lat="53.201301" lon="-1.967508"><ele>454</ele><time>2022-11-25T12:46:18Z</time><name>PT2150</name></trkpt>
<trkpt lat="53.201293" lon="-1.967443"><ele>455</ele><time>2022-11-25T12:46:23Z</time><name>PT2151</name></trkpt>
<trkpt lat="53.201283" lon="-1.967402"><ele>456</ele><time>2022-11-25T12:46:26Z</time><name>PT2152</name></trkpt>
<trkpt lat="53.201268" lon="-1.967342"><ele>457</ele><time>2022-11-25T12:46:29Z</time><name>PT2153</name></trkpt>
<trkpt lat="53.201261" lon="-1.967290"><ele>458</ele><time>2022-11-25T12:46:32Z</time><name>PT2154</name></trkpt>
<trkpt lat="53.201251" lon="-1.967247"><ele>458</ele><time>2022-11-25T12:46:35Z</time><name>PT2155</name></trkpt>
<trkpt lat="53.201237" lon="-1.967178"><ele>460</ele><time>2022-11-25T12:46:39Z</time><name>PT2156</name></trkpt>
<trkpt lat="53.201224" lon="-1.967108"><ele>461</ele><time>2022-11-25T12:46:44Z</time><name>PT2157</name></trkpt>
<trkpt lat="53.201212" lon="-1.967046"><ele>462</ele><time>2022-11-25T12:46:47Z</time><name>PT2158</name></trkpt>
<trkpt lat="53.201201" lon="-1.966978"><ele>463</ele><time>2022-11-25T12:46:51Z</time><name>PT2159</name></trkpt>
<trkpt lat="53.201199" lon="-1.966914"><ele>464</ele><time>2022-11-25T12:46:56Z</time><name>PT2160</name></trkpt>
<trkpt lat="53.201195" lon="-1.966848"><ele>465</ele><time>2022-11-25T12:46:59Z</time><name>PT2161</name></trkpt>
<trkpt lat="53.201194" lon="-1.966797"><ele>466</ele><time>2022-11-25T12:47:02Z</time><name>PT2162</name></trkpt>
<trkpt lat="53.201190" lon="-1.966738"><ele>467</ele><time>2022-11-25T12:47:05Z</time><name>PT2163</name></trkpt>
<trkpt lat="53.201187" lon="-1.966672"><ele>467</ele><time>2022-11-25T12:47:09Z</time><name>PT2164</name></trkpt>
<trkpt lat="53.201190" lon="-1.966602"><ele>468</ele><time>2022-11-25T12:47:14Z</time><name>PT2165</name></trkpt>
<trkpt lat="53.201193" lon="-1.966535"><ele>468</ele><time>2022-11-25T12:47:17Z</time><name>PT2166</name></trkpt>
<trkpt lat="53.201197" lon="-1.966462"><ele>469</ele><time>2022-11-25T12:47:21Z</time><name>PT2167</name></trkpt>
<trkpt lat="53.201205" lon="-1.966391"><ele>469</ele><time>2022-11-25T12:47:26Z</time><name>PT2168</name></trkpt>
<trkpt lat="53.201207" lon="-1.966316"><ele>472</ele><time>2022-11-25T12:47:29Z</time><name>PT2169</name></trkpt>
<trkpt lat="53.201209" lon="-1.966308"><ele>473</ele><time>2022-11-25T12:47:32Z</time><name>PT2170</name></trkpt>
<trkpt lat="53.201218" lon="-1.966265"><ele>473</ele><time>2022-11-25T12:47:36Z</time><name>PT2171</name></trkpt>
<trkpt lat="53.201236" lon="-1.966198"><ele>473</ele><time>2022-11-25T12:47:39Z</time><name>PT2172</name></trkpt>
<trkpt lat="53.201259" lon="-1.966141"><ele>473</ele><time>2022-11-25T12:47:44Z</time><name>PT2173</name></trkpt>
<trkpt lat="53.201273" lon="-1.966085"><ele>471</ele><time>2022-11-25T12:47:47Z</time><name>PT2174</name></trkpt>
<trkpt lat="53.201289" lon="-1.966011"><ele>470</ele><time>2022-11-25T12:47:50Z</time><name>PT2175</name></trkpt>
<trkpt lat="53.201304" lon="-1.965958"><ele>469</ele><time>2022-11-25T12:47:53Z</time><name>PT2176</name></trkpt>
<trkpt lat="53.201325" lon="-1.965889"><ele>469</ele><time>2022-11-25T12:47:56Z</time><name>PT2177</name></trkpt>
<trkpt lat="53.201352" lon="-1.965819"><ele>468</ele><time>2022-11-25T12:48:00Z</time><name>PT2178</name></trkpt>
<trkpt lat="53.201360" lon="-1.965714"><ele>469</ele><time>2022-11-25T12:48:05Z</time><name>PT2179</name></trkpt>
<trkpt lat="53.201368" lon="-1.965652"><ele>468</ele><time>2022-11-25T12:48:08Z</time><name>PT2180</name></trkpt>
<trkpt lat="53.201389" lon="-1.965574"><ele>469</ele><time>2022-11-25T12:48:11Z</time><name>PT2181</name></trkpt>
<trkpt lat="53.201411" lon="-1.965494"><ele>469</ele><time>2022-11-25T12:48:15Z</time><name>PT2182</name></trkpt>
<trkpt lat="53.201424" lon="-1.965443"><ele>469</ele><time>2022-11-25T12:48:18Z</time><name>PT2183</name></trkpt>
<trkpt lat="53.201440" lon="-1.965367"><ele>469</ele><time>2022-11-25T12:48:23Z</time><name>PT2184</name></trkpt>
<trkpt lat="53.201451" lon="-1.965317"><ele>468</ele><time>2022-11-25T12:48:26Z</time><name>PT2185</name></trkpt>
<trkpt lat="53.201474" lon="-1.965276"><ele>469</ele><time>2022-11-25T12:48:29Z</time><name>PT2186</name></trkpt>
<trkpt lat="53.201486" lon="-1.965247"><ele>471</ele><time>2022-11-25T12:48:33Z</time><name>PT2187</name></trkpt>
<trkpt lat="53.201488" lon="-1.965242"><ele>470</ele><time>2022-11-25T12:48:38Z</time><name>PT2188</name></trkpt>
<trkpt lat="53.201499" lon="-1.965275"><ele>470</ele><time>2022-11-25T12:48:41Z</time><name>PT2189</name></trkpt>
<trkpt lat="53.201524" lon="-1.965307"><ele>471</ele><time>2022-11-25T12:48:45Z</time><name>PT2190</name></trkpt>
<trkpt lat="53.201547" lon="-1.965329"><ele>473</ele><time>2022-11-25T12:48:48Z</time><name>PT2191</name></trkpt>
<trkpt lat="53.201563" lon="-1.965362"><ele>474</ele><time>2022-11-25T12:48:53Z</time><name>PT2192</name></trkpt>
<trkpt lat="53.201572" lon="-1.965424"><ele>475</ele><time>2022-11-25T12:48:56Z</time><name>PT2193</name></trkpt>
<trkpt lat="53.201575" lon="-1.965475"><ele>475</ele><time>2022-11-25T12:48:59Z</time><name>PT2194</name></trkpt>
<trkpt lat="53.201572" lon="-1.965529"><ele>476</ele><time>2022-11-25T12:49:03Z</time><name>PT2195</name></trkpt>
<trkpt lat="53.201568" lon="-1.965576"><ele>477</ele><time>2022-11-25T12:49:06Z</time><name>PT2196</name></trkpt>
<trkpt lat="53.201571" lon="-1.965602"><ele>477</ele><time>2022-11-25T12:49:09Z</time><name>PT2197</name></trkpt>
<trkpt lat="53.201574" lon="-1.965660"><ele>478</ele><time>2022-11-25T12:49:14Z</time><name>PT2198</name></trkpt>
<trkpt lat="53.201572" lon="-1.965709"><ele>478</ele><time>2022-11-25T12:49:17Z</time><name>PT2199</name></trkpt>
<trkpt lat="53.201574" lon="-1.965775"><ele>479</ele><time>2022-11-25T12:49:20Z</time><name>PT2200</name></trkpt>
<trkpt lat="53.201575" lon="-1.965824"><ele>479</ele><time>2022-11-25T12:49:23Z</time><name>PT2201</name></trkpt>
<trkpt lat="53.201584" lon="-1.965872"><ele>479</ele><time>2022-11-25T12:49:26Z</time><name>PT2202</name></trkpt>
<trkpt lat="53.201596" lon="-1.965924"><ele>480</ele><time>2022-11-25T12:49:29Z</time><name>PT2203</name></trkpt>
<trkpt lat="53.201617" lon="-1.965971"><ele>481</ele><time>2022-11-25T12:49:33Z</time><name>PT2204</name></trkpt>
<trkpt lat="53.201635" lon="-1.965972"><ele>481</ele><time>2022-11-25T12:49:36Z</time><name>PT2205</name></trkpt>
<trkpt lat="53.201667" lon="-1.966010"><ele>481</ele><time>2022-11-25T12:49:41Z</time><name>PT2206</name></trkpt>
<trkpt lat="53.201695" lon="-1.966042"><ele>481</ele><time>2022-11-25T12:49:44Z</time><name>PT2207</name></trkpt>
<trkpt lat="53.201708" lon="-1.966050"><ele>481</ele><time>2022-11-25T12:49:48Z</time><name>PT2208</name></trkpt>
<trkpt lat="53.201710" lon="-1.966055"><ele>481</ele><time>2022-11-25T12:49:53Z</time><name>PT2209</name></trkpt>
<trkpt lat="53.201710" lon="-1.966057"><ele>481</ele><time>2022-11-25T12:49:56Z</time><name>PT2210</name></trkpt>
<trkpt lat="53.201709" lon="-1.966052"><ele>481</ele><time>2022-11-25T12:50:00Z</time><name>PT2211</name></trkpt>
<trkpt lat="53.201711" lon="-1.966062"><ele>481</ele><time>2022-11-25T12:50:51Z</time><name>PT2212</name></trkpt>
<trkpt lat="53.201711" lon="-1.966061"><ele>481</ele><time>2022-11-25T12:50:56Z</time><name>PT2213</name></trkpt>
<trkpt lat="53.201687" lon="-1.966035"><ele>481</ele><time>2022-11-25T12:51:11Z</time><name>PT2214</name></trkpt>
<trkpt lat="53.201667" lon="-1.966012"><ele>481</ele><time>2022-11-25T12:51:14Z</time><name>PT2215</name></trkpt>
<trkpt lat="53.201661" lon="-1.966011"><ele>481</ele><time>2022-11-25T12:51:18Z</time><name>PT2216</name></trkpt>
<trkpt lat="53.201651" lon="-1.966001"><ele>481</ele><time>2022-11-25T12:51:21Z</time><name>PT2217</name></trkpt>
<trkpt lat="53.201640" lon="-1.966007"><ele>482</ele><time>2022-11-25T12:51:26Z</time><name>PT2218</name></trkpt>
<trkpt lat="53.201613" lon="-1.966030"><ele>481</ele><time>2022-11-25T12:51:29Z</time><name>PT2219</name></trkpt>
<trkpt lat="53.201611" lon="-1.966055"><ele>481</ele><time>2022-11-25T12:51:32Z</time><name>PT2220</name></trkpt>
<trkpt lat="53.201618" lon="-1.966093"><ele>481</ele><time>2022-11-25T12:51:35Z</time><name>PT2221</name></trkpt>
<trkpt lat="53.201629" lon="-1.966142"><ele>480</ele><time>2022-11-25T12:51:38Z</time><name>PT2222</name></trkpt>
<trkpt lat="53.201644" lon="-1.966197"><ele>480</ele><time>2022-11-25T12:51:42Z</time><name>PT2223</name></trkpt>
<trkpt lat="53.201663" lon="-1.966255"><ele>480</ele><time>2022-11-25T12:51:47Z</time><name>PT2224</name></trkpt>
<trkpt lat="53.201689" lon="-1.966311"><ele>479</ele><time>2022-11-25T12:51:50Z</time><name>PT2225</name></trkpt>
<trkpt lat="53.201707" lon="-1.966352"><ele>479</ele><time>2022-11-25T12:51:53Z</time><name>PT2226</name></trkpt>
<trkpt lat="53.201726" lon="-1.966401"><ele>479</ele><time>2022-11-25T12:51:56Z</time><name>PT2227</name></trkpt>
<trkpt lat="53.201755" lon="-1.966452"><ele>478</ele><time>2022-11-25T12:52:00Z</time><name>PT2228</name></trkpt>
<trkpt lat="53.201781" lon="-1.966486"><ele>478</ele><time>2022-11-25T12:52:03Z</time><name>PT2229</name></trkpt>
<trkpt lat="53.201813" lon="-1.966536"><ele>478</ele><time>2022-11-25T12:52:08Z</time><name>PT2230</name></trkpt>
<trkpt lat="53.201836" lon="-1.966572"><ele>477</ele><time>2022-11-25T12:52:11Z</time><name>PT2231</name></trkpt>
<trkpt lat="53.201860" lon="-1.966613"><ele>477</ele><time>2022-11-25T12:52:14Z</time><name>PT2232</name></trkpt>
<trkpt lat="53.201896" lon="-1.966680"><ele>476</ele><time>2022-11-25T12:52:17Z</time><name>PT2233</name></trkpt>
<trkpt lat="53.201915" lon="-1.966734"><ele>476</ele><time>2022-11-25T12:52:20Z</time><name>PT2234</name></trkpt>
<trkpt lat="53.201939" lon="-1.966774"><ele>476</ele><time>2022-11-25T12:52:23Z</time><name>PT2235</name></trkpt>
<trkpt lat="53.201968" lon="-1.966822"><ele>476</ele><time>2022-11-25T12:52:27Z</time><name>PT2236</name></trkpt>
<trkpt lat="53.202003" lon="-1.966847"><ele>475</ele><time>2022-11-25T12:52:32Z</time><name>PT2237</name></trkpt>
<trkpt lat="53.202022" lon="-1.966858"><ele>474</ele><time>2022-11-25T12:52:35Z</time><name>PT2238</name></trkpt>
<trkpt lat="53.202028" lon="-1.966860"><ele>474</ele><time>2022-11-25T12:52:38Z</time><name>PT2239</name></trkpt>
<trkpt lat="53.202034" lon="-1.966868"><ele>474</ele><time>2022-11-25T12:52:41Z</time><name>PT2240</name></trkpt>
<trkpt lat="53.202045" lon="-1.966883"><ele>473</ele><time>2022-11-25T12:52:45Z</time><name>PT2241</name></trkpt>
<trkpt lat="53.202061" lon="-1.966893"><ele>472</ele><time>2022-11-25T12:52:48Z</time><name>PT2242</name></trkpt>
<trkpt lat="53.202080" lon="-1.966904"><ele>471</ele><time>2022-11-25T12:52:51Z</time><name>PT2243</name></trkpt>
<trkpt lat="53.202095" lon="-1.966915"><ele>471</ele><time>2022-11-25T12:52:54Z</time><name>PT2244</name></trkpt>
<trkpt lat="53.202105" lon="-1.966922"><ele>472</ele><time>2022-11-25T12:52:59Z</time><name>PT2245</name></trkpt>
<trkpt lat="53.202103" lon="-1.966922"><ele>472</ele><time>2022-11-25T12:53:12Z</time><name>PT2246</name></trkpt>
<trkpt lat="53.202104" lon="-1.966930"><ele>472</ele><time>2022-11-25T12:53:15Z</time><name>PT2247</name></trkpt>
<trkpt lat="53.202109" lon="-1.966921"><ele>472</ele><time>2022-11-25T12:53:20Z</time><name>PT2248</name></trkpt>
<trkpt lat="53.202109" lon="-1.966920"><ele>472</ele><time>2022-11-25T12:53:23Z</time><name>PT2249</name></trkpt>
<trkpt lat="53.202102" lon="-1.966933"><ele>471</ele><time>2022-11-25T12:53:38Z</time><name>PT2250</name></trkpt>
<trkpt lat="53.202106" lon="-1.966932"><ele>470</ele><time>2022-11-25T12:53:41Z</time><name>PT2251</name></trkpt>
<trkpt lat="53.202112" lon="-1.966928"><ele>470</ele><time>2022-11-25T12:53:44Z</time><name>PT2252</name></trkpt>
<trkpt lat="53.202111" lon="-1.966930"><ele>469</ele><time>2022-11-25T12:54:03Z</time><name>PT2253</name></trkpt>
<trkpt lat="53.202111" lon="-1.966927"><ele>469</ele><time>2022-11-25T12:54:06Z</time><name>PT2254</name></trkpt>
<trkpt lat="53.202111" lon="-1.966931"><ele>469</ele><time>2022-11-25T12:54:38Z</time><name>PT2255</name></trkpt>
<trkpt lat="53.202114" lon="-1.966927"><ele>468</ele><time>2022-11-25T12:54:42Z</time><name>PT2256</name></trkpt>
<trkpt lat="53.202114" lon="-1.966920"><ele>469</ele><time>2022-11-25T12:57:45Z</time><name>PT2257</name></trkpt>
<trkpt lat="53.202114" lon="-1.966926"><ele>470</ele><time>2022-11-25T12:57:48Z</time><name>PT2258</name></trkpt>
<trkpt lat="53.202113" lon="-1.966926"><ele>470</ele><time>2022-11-25T12:58:29Z</time><name>PT2259</name></trkpt>
<trkpt lat="53.202110" lon="-1.966926"><ele>470</ele><time>2022-11-25T12:58:32Z</time><name>PT2260</name></trkpt>
<trkpt lat="53.202106" lon="-1.966923"><ele>470</ele><time>2022-11-25T12:58:41Z</time><name>PT2261</name></trkpt>
<trkpt lat="53.202106" lon="-1.966922"><ele>470</ele><time>2022-11-25T12:58:45Z</time><name>PT2262</name></trkpt>
<trkpt lat="53.202108" lon="-1.966926"><ele>469</ele><time>2022-11-25T13:00:11Z</time><name>PT2263</name></trkpt>
<trkpt lat="53.202104" lon="-1.966936"><ele>469</ele><time>2022-11-25T13:02:44Z</time><name>PT2264</name></trkpt>
<trkpt lat="53.202108" lon="-1.966940"><ele>469</ele><time>2022-11-25T13:02:47Z</time><name>PT2265</name></trkpt>
<trkpt lat="53.202108" lon="-1.966934"><ele>469</ele><time>2022-11-25T13:05:51Z</time><name>PT2266</name></trkpt>
<trkpt lat="53.202105" lon="-1.966934"><ele>469</ele><time>2022-11-25T13:05:56Z</time><name>PT2267</name></trkpt>
<trkpt lat="53.202099" lon="-1.966914"><ele>468</ele><time>2022-11-25T13:05:59Z</time><name>PT2268</name></trkpt>
<trkpt lat="53.202101" lon="-1.966916"><ele>468</ele><time>2022-11-25T13:06:15Z</time><name>PT2269</name></trkpt>
<trkpt lat="53.202102" lon="-1.966920"><ele>468</ele><time>2022-11-25T13:06:20Z</time><name>PT2270</name></trkpt>
<trkpt lat="53.202099" lon="-1.966920"><ele>468</ele><time>2022-11-25T13:06:26Z</time><name>PT2271</name></trkpt>
<trkpt lat="53.202102" lon="-1.966927"><ele>468</ele><time>2022-11-25T13:07:09Z</time><name>PT2272</name></trkpt>
<trkpt lat="53.202110" lon="-1.966945"><ele>467</ele><time>2022-11-25T13:07:14Z</time><name>PT2273</name></trkpt>
<trkpt lat="53.202116" lon="-1.966948"><ele>467</ele><time>2022-11-25T13:08:59Z</time><name>PT2274</name></trkpt>
<trkpt lat="53.202118" lon="-1.966934"><ele>467</ele><time>2022-11-25T13:09:02Z</time><name>PT2275</name></trkpt>
<trkpt lat="53.202123" lon="-1.966945"><ele>469</ele><time>2022-11-25T13:09:56Z</time><name>PT2276</name></trkpt>
<trkpt lat="53.202122" lon="-1.966947"><ele>469</ele><time>2022-11-25T13:09:59Z</time><name>PT2277</name></trkpt>
<trkpt lat="53.202122" lon="-1.966945"><ele>469</ele><time>2022-11-25T13:10:05Z</time><name>PT2278</name></trkpt>
<trkpt lat="53.202121" lon="-1.966947"><ele>470</ele><time>2022-11-25T13:10:32Z</time><name>PT2279</name></trkpt>
<trkpt lat="53.202120" lon="-1.966947"><ele>470</ele><time>2022-11-25T13:10:38Z</time><name>PT2280</name></trkpt>
<trkpt lat="53.202124" lon="-1.966955"><ele>471</ele><time>2022-11-25T13:10:42Z</time><name>PT2281</name></trkpt>
<trkpt lat="53.202123" lon="-1.966953"><ele>470</ele><time>2022-11-25T13:10:45Z</time><name>PT2282</name></trkpt>
<trkpt lat="53.202144" lon="-1.966964"><ele>470</ele><time>2022-11-25T13:11:32Z</time><name>PT2283</name></trkpt>
<trkpt lat="53.202165" lon="-1.966978"><ele>470</ele><time>2022-11-25T13:11:35Z</time><name>PT2284</name></trkpt>
<trkpt lat="53.202195" lon="-1.966987"><ele>470</ele><time>2022-11-25T13:11:50Z</time><name>PT2285</name></trkpt>
<trkpt lat="53.202217" lon="-1.966990"><ele>470</ele><time>2022-11-25T13:11:53Z</time><name>PT2286</name></trkpt>
<trkpt lat="53.202230" lon="-1.966990"><ele>470</ele><time>2022-11-25T13:11:56Z</time><name>PT2287</name></trkpt>
<trkpt lat="53.202238" lon="-1.966992"><ele>470</ele><time>2022-11-25T13:12:00Z</time><name>PT2288</name></trkpt>
<trkpt lat="53.202240" lon="-1.966999"><ele>470</ele><time>2022-11-25T13:12:29Z</time><name>PT2289</name></trkpt>
<trkpt lat="53.202247" lon="-1.967004"><ele>471</ele><time>2022-11-25T13:12:36Z</time><name>PT2290</name></trkpt>
<trkpt lat="53.202250" lon="-1.967006"><ele>470</ele><time>2022-11-25T13:12:41Z</time><name>PT2291</name></trkpt>
<trkpt lat="53.202250" lon="-1.967008"><ele>470</ele><time>2022-11-25T13:12:44Z</time><name>PT2292</name></trkpt>
<trkpt lat="53.202253" lon="-1.967005"><ele>470</ele><time>2022-11-25T13:12:47Z</time><name>PT2293</name></trkpt>
<trkpt lat="53.202254" lon="-1.967005"><ele>470</ele><time>2022-11-25T13:12:50Z</time><name>PT2294</name></trkpt>
<trkpt lat="53.202258" lon="-1.966996"><ele>470</ele><time>2022-11-25T13:13:00Z</time><name>PT2295</name></trkpt>
<trkpt lat="53.202259" lon="-1.966992"><ele>470</ele><time>2022-11-25T13:13:05Z</time><name>PT2296</name></trkpt>
<trkpt lat="53.202259" lon="-1.966998"><ele>470</ele><time>2022-11-25T13:13:08Z</time><name>PT2297</name></trkpt>
<trkpt lat="53.202259" lon="-1.967003"><ele>470</ele><time>2022-11-25T13:13:12Z</time><name>PT2298</name></trkpt>
<trkpt lat="53.202274" lon="-1.967026"><ele>470</ele><time>2022-11-25T13:13:33Z</time><name>PT2299</name></trkpt>
<trkpt lat="53.202276" lon="-1.967017"><ele>469</ele><time>2022-11-25T13:13:36Z</time><name>PT2300</name></trkpt>
<trkpt lat="53.202286" lon="-1.967034"><ele>469</ele><time>2022-11-25T13:13:44Z</time><name>PT2301</name></trkpt>
<trkpt lat="53.202303" lon="-1.967036"><ele>469</ele><time>2022-11-25T13:13:49Z</time><name>PT2302</name></trkpt>
<trkpt lat="53.202315" lon="-1.967031"><ele>468</ele><time>2022-11-25T13:13:53Z</time><name>PT2303</name></trkpt>
<trkpt lat="53.202313" lon="-1.967027"><ele>469</ele><time>2022-11-25T13:14:05Z</time><name>PT2304</name></trkpt>
<trkpt lat="53.202313" lon="-1.967026"><ele>468</ele><time>2022-11-25T13:14:08Z</time><name>PT2305</name></trkpt>
<trkpt lat="53.202318" lon="-1.967016"><ele>468</ele><time>2022-11-25T13:14:11Z</time><name>PT2306</name></trkpt>
<trkpt lat="53.202322" lon="-1.967017"><ele>468</ele><time>2022-11-25T13:14:15Z</time><name>PT2307</name></trkpt>
<trkpt lat="53.202329" lon="-1.967014"><ele>467</ele><time>2022-11-25T13:14:20Z</time><name>PT2308</name></trkpt>
<trkpt lat="53.202366" lon="-1.967010"><ele>467</ele><time>2022-11-25T13:14:23Z</time><name>PT2309</name></trkpt>
<trkpt lat="53.202410" lon="-1.967012"><ele>467</ele><time>2022-11-25T13:14:27Z</time><name>PT2310</name></trkpt>
<trkpt lat="53.202435" lon="-1.967011"><ele>468</ele><time>2022-11-25T13:14:32Z</time><name>PT2311</name></trkpt>
<trkpt lat="53.202466" lon="-1.967001"><ele>468</ele><time>2022-11-25T13:14:35Z</time><name>PT2312</name></trkpt>
<trkpt lat="53.202511" lon="-1.966990"><ele>468</ele><time>2022-11-25T13:14:38Z</time><name>PT2313</name></trkpt>
<trkpt lat="53.202537" lon="-1.966984"><ele>468</ele><time>2022-11-25T13:14:41Z</time><name>PT2314</name></trkpt>
<trkpt lat="53.202571" lon="-1.966981"><ele>469</ele><time>2022-11-25T13:14:44Z</time><name>PT2315</name></trkpt>
<trkpt lat="53.202592" lon="-1.966977"><ele>469</ele><time>2022-11-25T13:14:48Z</time><name>PT2316</name></trkpt>
<trkpt lat="53.202640" lon="-1.966952"><ele>469</ele><time>2022-11-25T13:14:53Z</time><name>PT2317</name></trkpt>
<trkpt lat="53.202674" lon="-1.966913"><ele>469</ele><time>2022-11-25T13:14:56Z</time><name>PT2318</name></trkpt>
<trkpt lat="53.202685" lon="-1.966892"><ele>469</ele><time>2022-11-25T13:15:00Z</time><name>PT2319</name></trkpt>
<trkpt lat="53.202707" lon="-1.966860"><ele>469</ele><time>2022-11-25T13:15:03Z</time><name>PT2320</name></trkpt>
<trkpt lat="53.202719" lon="-1.966820"><ele>468</ele><time>2022-11-25T13:15:06Z</time><name>PT2321</name></trkpt>
<trkpt lat="53.202747" lon="-1.966770"><ele>468</ele><time>2022-11-25T13:15:11Z</time><name>PT2322</name></trkpt>
<trkpt lat="53.202773" lon="-1.966737"><ele>468</ele><time>2022-11-25T13:15:14Z</time><name>PT2323</name></trkpt>
<trkpt lat="53.202813" lon="-1.966699"><ele>468</ele><time>2022-11-25T13:15:17Z</time><name>PT2324</name></trkpt>
<trkpt lat="53.202856" lon="-1.966658"><ele>468</ele><time>2022-11-25T13:15:21Z</time><name>PT2325</name></trkpt>
<trkpt lat="53.202896" lon="-1.966622"><ele>468</ele><time>2022-11-25T13:15:26Z</time><name>PT2326</name></trkpt>
<trkpt lat="53.202937" lon="-1.966593"><ele>468</ele><time>2022-11-25T13:15:29Z</time><name>PT2327</name></trkpt>
<trkpt lat="53.202965" lon="-1.966569"><ele>469</ele><time>2022-11-25T13:15:32Z</time><name>PT2328</name></trkpt>
<trkpt lat="53.202998" lon="-1.966544"><ele>469</ele><time>2022-11-25T13:15:36Z</time><name>PT2329</name></trkpt>
<trkpt lat="53.203031" lon="-1.966516"><ele>469</ele><time>2022-11-25T13:15:41Z</time><name>PT2330</name></trkpt>
<trkpt lat="53.203058" lon="-1.966495"><ele>470</ele><time>2022-11-25T13:15:44Z</time><name>PT2331</name></trkpt>
<trkpt lat="53.203091" lon="-1.966461"><ele>470</ele><time>2022-11-25T13:15:47Z</time><name>PT2332</name></trkpt>
<trkpt lat="53.203120" lon="-1.966431"><ele>471</ele><time>2022-11-25T13:15:50Z</time><name>PT2333</name></trkpt>
<trkpt lat="53.203148" lon="-1.966405"><ele>471</ele><time>2022-11-25T13:15:53Z</time><name>PT2334</name></trkpt>
<trkpt lat="53.203185" lon="-1.966370"><ele>471</ele><time>2022-11-25T13:15:57Z</time><name>PT2335</name></trkpt>
<trkpt lat="53.203218" lon="-1.966343"><ele>472</ele><time>2022-11-25T13:16:02Z</time><name>PT2336</name></trkpt>
<trkpt lat="53.203247" lon="-1.966325"><ele>472</ele><time>2022-11-25T13:16:05Z</time><name>PT2337</name></trkpt>
<trkpt lat="53.203267" lon="-1.966303"><ele>472</ele><time>2022-11-25T13:16:08Z</time><name>PT2338</name></trkpt>
<trkpt lat="53.203300" lon="-1.966274"><ele>472</ele><time>2022-11-25T13:16:11Z</time><name>PT2339</name></trkpt>
<trkpt lat="53.203331" lon="-1.966244"><ele>473</ele><time>2022-11-25T13:16:15Z</time><name>PT2340</name></trkpt>
<trkpt lat="53.203355" lon="-1.966220"><ele>473</ele><time>2022-11-25T13:16:18Z</time><name>PT2341</name></trkpt>
<trkpt lat="53.203382" lon="-1.966193"><ele>473</ele><time>2022-11-25T13:16:23Z</time><name>PT2342</name></trkpt>
<trkpt lat="53.203403" lon="-1.966173"><ele>473</ele><time>2022-11-25T13:16:26Z</time><name>PT2343</name></trkpt>
<trkpt lat="53.203431" lon="-1.966155"><ele>474</ele><time>2022-11-25T13:16:29Z</time><name>PT2344</name></trkpt>
<trkpt lat="53.203469" lon="-1.966121"><ele>474</ele><time>2022-11-25T13:16:32Z</time><name>PT2345</name></trkpt>
<trkpt lat="53.203502" lon="-1.966089"><ele>474</ele><time>2022-11-25T13:16:36Z</time><name>PT2346</name></trkpt>
<trkpt lat="53.203537" lon="-1.966057"><ele>474</ele><time>2022-11-25T13:16:41Z</time><name>PT2347</name></trkpt>
<trkpt lat="53.203574" lon="-1.966028"><ele>475</ele><time>2022-11-25T13:16:44Z</time><name>PT2348</name></trkpt>
<trkpt lat="53.203605" lon="-1.966008"><ele>475</ele><time>2022-11-25T13:16:47Z</time><name>PT2349</name></trkpt>
<trkpt lat="53.203642" lon="-1.965979"><ele>476</ele><time>2022-11-25T13:16:51Z</time><name>PT2350</name></trkpt>
<trkpt lat="53.203671" lon="-1.965959"><ele>476</ele><time>2022-11-25T13:16:54Z</time><name>PT2351</name></trkpt>
<trkpt lat="53.203706" lon="-1.965924"><ele>476</ele><time>2022-11-25T13:16:59Z</time><name>PT2352</name></trkpt>
<trkpt lat="53.203748" lon="-1.965888"><ele>477</ele><time>2022-11-25T13:17:02Z</time><name>PT2353</name></trkpt>
<trkpt lat="53.203777" lon="-1.965861"><ele>477</ele><time>2022-11-25T13:17:05Z</time><name>PT2354</name></trkpt>
<trkpt lat="53.203802" lon="-1.965832"><ele>477</ele><time>2022-11-25T13:17:08Z</time><name>PT2355</name></trkpt>
<trkpt lat="53.203840" lon="-1.965799"><ele>477</ele><time>2022-11-25T13:17:12Z</time><name>PT2356</name></trkpt>
<trkpt lat="53.203867" lon="-1.965781"><ele>477</ele><time>2022-11-25T13:17:15Z</time><name>PT2357</name></trkpt>
<trkpt lat="53.203890" lon="-1.965769"><ele>478</ele><time>2022-11-25T13:17:19Z</time><name>PT2358</name></trkpt>
<trkpt lat="53.203925" lon="-1.965750"><ele>478</ele><time>2022-11-25T13:17:23Z</time><name>PT2359</name></trkpt>
<trkpt lat="53.203952" lon="-1.965723"><ele>479</ele><time>2022-11-25T13:17:26Z</time><name>PT2360</name></trkpt>
<trkpt lat="53.203976" lon="-1.965714"><ele>480</ele><time>2022-11-25T13:17:30Z</time><name>PT2361</name></trkpt>
<trkpt lat="53.203977" lon="-1.965710"><ele>480</ele><time>2022-11-25T13:17:35Z</time><name>PT2362</name></trkpt>
<trkpt lat="53.203984" lon="-1.965709"><ele>480</ele><time>2022-11-25T13:17:38Z</time><name>PT2363</name></trkpt>
<trkpt lat="53.203986" lon="-1.965705"><ele>479</ele><time>2022-11-25T13:17:41Z</time><name>PT2364</name></trkpt>
<trkpt lat="53.203987" lon="-1.965699"><ele>479</ele><time>2022-11-25T13:17:47Z</time><name>PT2365</name></trkpt>
<trkpt lat="53.203993" lon="-1.965699"><ele>479</ele><time>2022-11-25T13:17:51Z</time><name>PT2366</name></trkpt>
<trkpt lat="53.204000" lon="-1.965704"><ele>480</ele><time>2022-11-25T13:17:54Z</time><name>PT2367</name></trkpt>
<trkpt lat="53.204003" lon="-1.965709"><ele>479</ele><time>2022-11-25T13:17:59Z</time><name>PT2368</name></trkpt>
<trkpt lat="53.204007" lon="-1.965702"><ele>480</ele><time>2022-11-25T13:18:02Z</time><name>PT2369</name></trkpt>
<trkpt lat="53.204039" lon="-1.965676"><ele>481</ele><time>2022-11-25T13:18:05Z</time><name>PT2370</name></trkpt>
<trkpt lat="53.204067" lon="-1.965666"><ele>481</ele><time>2022-11-25T13:18:08Z</time><name>PT2371</name></trkpt>
<trkpt lat="53.204095" lon="-1.965660"><ele>481</ele><time>2022-11-25T13:18:11Z</time><name>PT2372</name></trkpt>
<trkpt lat="53.204120" lon="-1.965661"><ele>481</ele><time>2022-11-25T13:18:15Z</time><name>PT2373</name></trkpt>
<trkpt lat="53.204145" lon="-1.965646"><ele>481</ele><time>2022-11-25T13:18:18Z</time><name>PT2374</name></trkpt>
<trkpt lat="53.204190" lon="-1.965649"><ele>481</ele><time>2022-11-25T13:18:23Z</time><name>PT2375</name></trkpt>
<trkpt lat="53.204222" lon="-1.965652"><ele>481</ele><time>2022-11-25T13:18:26Z</time><name>PT2376</name></trkpt>
<trkpt lat="53.204261" lon="-1.965663"><ele>480</ele><time>2022-11-25T13:18:29Z</time><name>PT2377</name></trkpt>
<trkpt lat="53.204296" lon="-1.965668"><ele>480</ele><time>2022-11-25T13:18:32Z</time><name>PT2378</name></trkpt>
<trkpt lat="53.204338" lon="-1.965676"><ele>480</ele><time>2022-11-25T13:18:35Z</time><name>PT2379</name></trkpt>
<trkpt lat="53.204382" lon="-1.965688"><ele>480</ele><time>2022-11-25T13:18:39Z</time><name>PT2380</name></trkpt>
<trkpt lat="53.204430" lon="-1.965685"><ele>480</ele><time>2022-11-25T13:18:44Z</time><name>PT2381</name></trkpt>
<trkpt lat="53.204465" lon="-1.965683"><ele>480</ele><time>2022-11-25T13:18:47Z</time><name>PT2382</name></trkpt>
<trkpt lat="53.204496" lon="-1.965671"><ele>479</ele><time>2022-11-25T13:18:50Z</time><name>PT2383</name></trkpt>
<trkpt lat="53.204529" lon="-1.965674"><ele>479</ele><time>2022-11-25T13:18:53Z</time><name>PT2384</name></trkpt>
<trkpt lat="53.204575" lon="-1.965666"><ele>479</ele><time>2022-11-25T13:18:56Z</time><name>PT2385</name></trkpt>
<trkpt lat="53.204605" lon="-1.965659"><ele>480</ele><time>2022-11-25T13:18:59Z</time><name>PT2386</name></trkpt>
<trkpt lat="53.204651" lon="-1.965641"><ele>479</ele><time>2022-11-25T13:19:03Z</time><name>PT2387</name></trkpt>
<trkpt lat="53.204686" lon="-1.965638"><ele>479</ele><time>2022-11-25T13:19:06Z</time><name>PT2388</name></trkpt>
<trkpt lat="53.204725" lon="-1.965648"><ele>479</ele><time>2022-11-25T13:19:11Z</time><name>PT2389</name></trkpt>
<trkpt lat="53.204744" lon="-1.965646"><ele>479</ele><time>2022-11-25T13:19:14Z</time><name>PT2390</name></trkpt>
<trkpt lat="53.204747" lon="-1.965641"><ele>479</ele><time>2022-11-25T13:19:17Z</time><name>PT2391</name></trkpt>
<trkpt lat="53.204754" lon="-1.965637"><ele>479</ele><time>2022-11-25T13:19:20Z</time><name>PT2392</name></trkpt>
<trkpt lat="53.204772" lon="-1.965628"><ele>479</ele><time>2022-11-25T13:19:23Z</time><name>PT2393</name></trkpt>
<trkpt lat="53.204807" lon="-1.965608"><ele>479</ele><time>2022-11-25T13:19:26Z</time><name>PT2394</name></trkpt>
<trkpt lat="53.204833" lon="-1.965579"><ele>480</ele><time>2022-11-25T13:19:30Z</time><name>PT2395</name></trkpt>
<trkpt lat="53.204858" lon="-1.965550"><ele>479</ele><time>2022-11-25T13:19:33Z</time><name>PT2396</name></trkpt>
<trkpt lat="53.204887" lon="-1.965531"><ele>479</ele><time>2022-11-25T13:19:36Z</time><name>PT2397</name></trkpt>
<trkpt lat="53.204915" lon="-1.965510"><ele>479</ele><time>2022-11-25T13:19:39Z</time><name>PT2398</name></trkpt>
<trkpt lat="53.204953" lon="-1.965484"><ele>480</ele><time>2022-11-25T13:19:42Z</time><name>PT2399</name></trkpt>
<trkpt lat="53.204990" lon="-1.965458"><ele>479</ele><time>2022-11-25T13:19:47Z</time><name>PT2400</name></trkpt>
<trkpt lat="53.205022" lon="-1.965459"><ele>479</ele><time>2022-11-25T13:19:50Z</time><name>PT2401</name></trkpt>
<trkpt lat="53.205059" lon="-1.965454"><ele>479</ele><time>2022-11-25T13:19:53Z</time><name>PT2402</name></trkpt>
<trkpt lat="53.205093" lon="-1.965439"><ele>479</ele><time>2022-11-25T13:19:56Z</time><name>PT2403</name></trkpt>
<trkpt lat="53.205136" lon="-1.965407"><ele>479</ele><time>2022-11-25T13:19:59Z</time><name>PT2404</name></trkpt>
<trkpt lat="53.205178" lon="-1.965383"><ele>479</ele><time>2022-11-25T13:20:02Z</time><name>PT2405</name></trkpt>
<trkpt lat="53.205201" lon="-1.965353"><ele>479</ele><time>2022-11-25T13:20:06Z</time><name>PT2406</name></trkpt>
<trkpt lat="53.205203" lon="-1.965357"><ele>479</ele><time>2022-11-25T13:20:09Z</time><name>PT2407</name></trkpt>
<trkpt lat="53.205203" lon="-1.965361"><ele>479</ele><time>2022-11-25T13:20:12Z</time><name>PT2408</name></trkpt>
<trkpt lat="53.205210" lon="-1.965357"><ele>480</ele><time>2022-11-25T13:20:17Z</time><name>PT2409</name></trkpt>
<trkpt lat="53.205232" lon="-1.965335"><ele>480</ele><time>2022-11-25T13:20:20Z</time><name>PT2410</name></trkpt>
<trkpt lat="53.205255" lon="-1.965308"><ele>480</ele><time>2022-11-25T13:20:23Z</time><name>PT2411</name></trkpt>
<trkpt lat="53.205250" lon="-1.965311"><ele>480</ele><time>2022-11-25T13:20:27Z</time><name>PT2412</name></trkpt>
<trkpt lat="53.205251" lon="-1.965309"><ele>480</ele><time>2022-11-25T13:20:32Z</time><name>PT2413</name></trkpt>
<trkpt lat="53.205258" lon="-1.965304"><ele>480</ele><time>2022-11-25T13:20:35Z</time><name>PT2414</name></trkpt>
<trkpt lat="53.205260" lon="-1.965304"><ele>480</ele><time>2022-11-25T13:20:41Z</time><name>PT2415</name></trkpt>
<trkpt lat="53.205298" lon="-1.965273"><ele>481</ele><time>2022-11-25T13:20:45Z</time><name>PT2416</name></trkpt>
<trkpt lat="53.205334" lon="-1.965245"><ele>481</ele><time>2022-11-25T13:20:50Z</time><name>PT2417</name></trkpt>
<trkpt lat="53.205371" lon="-1.965214"><ele>481</ele><time>2022-11-25T13:20:53Z</time><name>PT2418</name></trkpt>
<trkpt lat="53.205417" lon="-1.965196"><ele>481</ele><time>2022-11-25T13:20:57Z</time><name>PT2419</name></trkpt>
<trkpt lat="53.205464" lon="-1.965187"><ele>481</ele><time>2022-11-25T13:21:02Z</time><name>PT2420</name></trkpt>
<trkpt lat="53.205516" lon="-1.965174"><ele>481</ele><time>2022-11-25T13:21:05Z</time><name>PT2421</name></trkpt>
<trkpt lat="53.205553" lon="-1.965162"><ele>482</ele><time>2022-11-25T13:21:09Z</time><name>PT2422</name></trkpt>
<trkpt lat="53.205597" lon="-1.965142"><ele>482</ele><time>2022-11-25T13:21:14Z</time><name>PT2423</name></trkpt>
<trkpt lat="53.205631" lon="-1.965134"><ele>481</ele><time>2022-11-25T13:21:17Z</time><name>PT2424</name></trkpt>
<trkpt lat="53.205664" lon="-1.965121"><ele>482</ele><time>2022-11-25T13:21:20Z</time><name>PT2425</name></trkpt>
<trkpt lat="53.205696" lon="-1.965108"><ele>482</ele><time>2022-11-25T13:21:23Z</time><name>PT2426</name></trkpt>
<trkpt lat="53.205731" lon="-1.965101"><ele>481</ele><time>2022-11-25T13:21:26Z</time><name>PT2427</name></trkpt>
<trkpt lat="53.205781" lon="-1.965102"><ele>483</ele><time>2022-11-25T13:21:30Z</time><name>PT2428</name></trkpt>
<trkpt lat="53.205803" lon="-1.965110"><ele>486</ele><time>2022-11-25T13:21:33Z</time><name>PT2429</name></trkpt>
<trkpt lat="53.205805" lon="-1.965109"><ele>486</ele><time>2022-11-25T13:21:36Z</time><name>PT2430</name></trkpt>
<trkpt lat="53.205806" lon="-1.965124"><ele>486</ele><time>2022-11-25T13:21:39Z</time><name>PT2431</name></trkpt>
<trkpt lat="53.205804" lon="-1.965123"><ele>486</ele><time>2022-11-25T13:21:44Z</time><name>PT2432</name></trkpt>
<trkpt lat="53.205811" lon="-1.965125"><ele>487</ele><time>2022-11-25T13:21:50Z</time><name>PT2433</name></trkpt>
<trkpt lat="53.205813" lon="-1.965128"><ele>487</ele><time>2022-11-25T13:21:53Z</time><name>PT2434</name></trkpt>
<trkpt lat="53.205809" lon="-1.965135"><ele>487</ele><time>2022-11-25T13:21:56Z</time><name>PT2435</name></trkpt>
<trkpt lat="53.205810" lon="-1.965136"><ele>487</ele><time>2022-11-25T13:21:59Z</time><name>PT2436</name></trkpt>
<trkpt lat="53.205819" lon="-1.965135"><ele>487</ele><time>2022-11-25T13:22:03Z</time><name>PT2437</name></trkpt>
<trkpt lat="53.205825" lon="-1.965144"><ele>487</ele><time>2022-11-25T13:22:06Z</time><name>PT2438</name></trkpt>
<trkpt lat="53.205832" lon="-1.965152"><ele>488</ele><time>2022-11-25T13:22:11Z</time><name>PT2439</name></trkpt>
<trkpt lat="53.205833" lon="-1.965150"><ele>488</ele><time>2022-11-25T13:22:14Z</time><name>PT2440</name></trkpt>
<trkpt lat="53.205831" lon="-1.965157"><ele>488</ele><time>2022-11-25T13:22:20Z</time><name>PT2441</name></trkpt>
<trkpt lat="53.205830" lon="-1.965164"><ele>487</ele><time>2022-11-25T13:22:24Z</time><name>PT2442</name></trkpt>
<trkpt lat="53.205848" lon="-1.965206"><ele>488</ele><time>2022-11-25T13:22:50Z</time><name>PT2443</name></trkpt>
<trkpt lat="53.205861" lon="-1.965253"><ele>488</ele><time>2022-11-25T13:22:53Z</time><name>PT2444</name></trkpt>
<trkpt lat="53.205879" lon="-1.965304"><ele>488</ele><time>2022-11-25T13:22:56Z</time><name>PT2445</name></trkpt>
<trkpt lat="53.205896" lon="-1.965354"><ele>489</ele><time>2022-11-25T13:22:59Z</time><name>PT2446</name></trkpt>
<trkpt lat="53.205918" lon="-1.965406"><ele>489</ele><time>2022-11-25T13:23:03Z</time><name>PT2447</name></trkpt>
<trkpt lat="53.205940" lon="-1.965473"><ele>489</ele><time>2022-11-25T13:23:08Z</time><name>PT2448</name></trkpt>
<trkpt lat="53.205964" lon="-1.965540"><ele>489</ele><time>2022-11-25T13:23:11Z</time><name>PT2449</name></trkpt>
<trkpt lat="53.205989" lon="-1.965608"><ele>489</ele><time>2022-11-25T13:23:15Z</time><name>PT2450</name></trkpt>
<trkpt lat="53.206004" lon="-1.965660"><ele>489</ele><time>2022-11-25T13:23:18Z</time><name>PT2451</name></trkpt>
<trkpt lat="53.206028" lon="-1.965718"><ele>488</ele><time>2022-11-25T13:23:23Z</time><name>PT2452</name></trkpt>
<trkpt lat="53.206045" lon="-1.965758"><ele>488</ele><time>2022-11-25T13:23:26Z</time><name>PT2453</name></trkpt>
<trkpt lat="53.206057" lon="-1.965803"><ele>489</ele><time>2022-11-25T13:23:29Z</time><name>PT2454</name></trkpt>
<trkpt lat="53.206073" lon="-1.965859"><ele>490</ele><time>2022-11-25T13:23:32Z</time><name>PT2455</name></trkpt>
<trkpt lat="53.206086" lon="-1.965905"><ele>490</ele><time>2022-11-25T13:23:35Z</time><name>PT2456</name></trkpt>
<trkpt lat="53.206106" lon="-1.965950"><ele>490</ele><time>2022-11-25T13:23:38Z</time><name>PT2457</name></trkpt>
<trkpt lat="53.206119" lon="-1.965997"><ele>491</ele><time>2022-11-25T13:23:41Z</time><name>PT2458</name></trkpt>
<trkpt lat="53.206144" lon="-1.966045"><ele>491</ele><time>2022-11-25T13:23:45Z</time><name>PT2459</name></trkpt>
<trkpt lat="53.206168" lon="-1.966074"><ele>492</ele><time>2022-11-25T13:23:50Z</time><name>PT2460</name></trkpt>
<trkpt lat="53.206207" lon="-1.966080"><ele>491</ele><time>2022-11-25T13:23:53Z</time><name>PT2461</name></trkpt>
<trkpt lat="53.206238" lon="-1.966091"><ele>492</ele><time>2022-11-25T13:23:57Z</time><name>PT2462</name></trkpt>
<trkpt lat="53.206261" lon="-1.966109"><ele>492</ele><time>2022-11-25T13:24:00Z</time><name>PT2463</name></trkpt>
<trkpt lat="53.206294" lon="-1.966125"><ele>493</ele><time>2022-11-25T13:24:05Z</time><name>PT2464</name></trkpt>
<trkpt lat="53.206322" lon="-1.966137"><ele>494</ele><time>2022-11-25T13:24:08Z</time><name>PT2465</name></trkpt>
<trkpt lat="53.206356" lon="-1.966158"><ele>494</ele><time>2022-11-25T13:24:11Z</time><name>PT2466</name></trkpt>
<trkpt lat="53.206386" lon="-1.966179"><ele>495</ele><time>2022-11-25T13:24:15Z</time><name>PT2467</name></trkpt>
<trkpt lat="53.206419" lon="-1.966186"><ele>495</ele><time>2022-11-25T13:24:20Z</time><name>PT2468</name></trkpt>
<trkpt lat="53.206452" lon="-1.966226"><ele>495</ele><time>2022-11-25T13:24:23Z</time><name>PT2469</name></trkpt>
<trkpt lat="53.206467" lon="-1.966258"><ele>494</ele><time>2022-11-25T13:24:26Z</time><name>PT2470</name></trkpt>
<trkpt lat="53.206502" lon="-1.966279"><ele>493</ele><time>2022-11-25T13:24:30Z</time><name>PT2471</name></trkpt>
<trkpt lat="53.206548" lon="-1.966287"><ele>492</ele><time>2022-11-25T13:24:35Z</time><name>PT2472</name></trkpt>
<trkpt lat="53.206582" lon="-1.966293"><ele>492</ele><time>2022-11-25T13:24:38Z</time><name>PT2473</name></trkpt>
<trkpt lat="53.206613" lon="-1.966288"><ele>492</ele><time>2022-11-25T13:24:41Z</time><name>PT2474</name></trkpt>
<trkpt lat="53.206627" lon="-1.966291"><ele>493</ele><time>2022-11-25T13:24:45Z</time><name>PT2475</name></trkpt>
<trkpt lat="53.206670" lon="-1.966307"><ele>492</ele><time>2022-11-25T13:24:50Z</time><name>PT2476</name></trkpt>
<trkpt lat="53.206700" lon="-1.966317"><ele>491</ele><time>2022-11-25T13:24:53Z</time><name>PT2477</name></trkpt>
<trkpt lat="53.206738" lon="-1.966327"><ele>491</ele><time>2022-11-25T13:24:56Z</time><name>PT2478</name></trkpt>
<trkpt lat="53.206775" lon="-1.966338"><ele>492</ele><time>2022-11-25T13:24:59Z</time><name>PT2479</name></trkpt>
<trkpt lat="53.206809" lon="-1.966351"><ele>491</ele><time>2022-11-25T13:25:02Z</time><name>PT2480</name></trkpt>
<trkpt lat="53.206850" lon="-1.966365"><ele>490</ele><time>2022-11-25T13:25:05Z</time><name>PT2481</name></trkpt>
<trkpt lat="53.206877" lon="-1.966385"><ele>490</ele><time>2022-11-25T13:25:08Z</time><name>PT2482</name></trkpt>
<trkpt lat="53.206917" lon="-1.966417"><ele>489</ele><time>2022-11-25T13:25:12Z</time><name>PT2483</name></trkpt>
<trkpt lat="53.206946" lon="-1.966450"><ele>490</ele><time>2022-11-25T13:25:15Z</time><name>PT2484</name></trkpt>
<trkpt lat="53.206983" lon="-1.966501"><ele>490</ele><time>2022-11-25T13:25:20Z</time><name>PT2485</name></trkpt>
<trkpt lat="53.207008" lon="-1.966533"><ele>489</ele><time>2022-11-25T13:25:23Z</time><name>PT2486</name></trkpt>
<trkpt lat="53.207050" lon="-1.966563"><ele>489</ele><time>2022-11-25T13:25:26Z</time><name>PT2487</name></trkpt>
<trkpt lat="53.207074" lon="-1.966598"><ele>489</ele><time>2022-11-25T13:25:29Z</time><name>PT2488</name></trkpt>
<trkpt lat="53.207104" lon="-1.966641"><ele>488</ele><time>2022-11-25T13:25:33Z</time><name>PT2489</name></trkpt>
<trkpt lat="53.207126" lon="-1.966659"><ele>487</ele><time>2022-11-25T13:25:36Z</time><name>PT2490</name></trkpt>
<trkpt lat="53.207152" lon="-1.966675"><ele>487</ele><time>2022-11-25T13:25:39Z</time><name>PT2491</name></trkpt>
<trkpt lat="53.207176" lon="-1.966706"><ele>485</ele><time>2022-11-25T13:25:44Z</time><name>PT2492</name></trkpt>
<trkpt lat="53.207197" lon="-1.966737"><ele>486</ele><time>2022-11-25T13:25:47Z</time><name>PT2493</name></trkpt>
<trkpt lat="53.207221" lon="-1.966793"><ele>484</ele><time>2022-11-25T13:25:51Z</time><name>PT2494</name></trkpt>
<trkpt lat="53.207245" lon="-1.966848"><ele>483</ele><time>2022-11-25T13:25:56Z</time><name>PT2495</name></trkpt>
<trkpt lat="53.207277" lon="-1.966892"><ele>483</ele><time>2022-11-25T13:25:59Z</time><name>PT2496</name></trkpt>
<trkpt lat="53.207303" lon="-1.966928"><ele>483</ele><time>2022-11-25T13:26:02Z</time><name>PT2497</name></trkpt>
<trkpt lat="53.207339" lon="-1.966970"><ele>482</ele><time>2022-11-25T13:26:06Z</time><name>PT2498</name></trkpt>
<trkpt lat="53.207367" lon="-1.967003"><ele>482</ele><time>2022-11-25T13:26:09Z</time><name>PT2499</name></trkpt>
<trkpt lat="53.207386" lon="-1.967038"><ele>482</ele><time>2022-11-25T13:26:12Z</time><name>PT2500</name></trkpt>
<trkpt lat="53.207424" lon="-1.967075"><ele>482</ele><time>2022-11-25T13:26:17Z</time><name>PT2501</name></trkpt>
<trkpt lat="53.207464" lon="-1.967095"><ele>480</ele><time>2022-11-25T13:26:20Z</time><name>PT2502</name></trkpt>
<trkpt lat="53.207496" lon="-1.967111"><ele>481</ele><time>2022-11-25T13:26:23Z</time><name>PT2503</name></trkpt>
<trkpt lat="53.207522" lon="-1.967129"><ele>481</ele><time>2022-11-25T13:26:27Z</time><name>PT2504</name></trkpt>
<trkpt lat="53.207528" lon="-1.967129"><ele>480</ele><time>2022-11-25T13:26:32Z</time><name>PT2505</name></trkpt>
<trkpt lat="53.207536" lon="-1.967127"><ele>480</ele><time>2022-11-25T13:26:35Z</time><name>PT2506</name></trkpt>
<trkpt lat="53.207549" lon="-1.967114"><ele>479</ele><time>2022-11-25T13:26:38Z</time><name>PT2507</name></trkpt>
<trkpt lat="53.207569" lon="-1.967137"><ele>479</ele><time>2022-11-25T13:26:41Z</time><name>PT2508</name></trkpt>
<trkpt lat="53.207584" lon="-1.967177"><ele>478</ele><time>2022-11-25T13:26:45Z</time><name>PT2509</name></trkpt>
<trkpt lat="53.207603" lon="-1.967210"><ele>478</ele><time>2022-11-25T13:26:48Z</time><name>PT2510</name></trkpt>
<trkpt lat="53.207622" lon="-1.967255"><ele>477</ele><time>2022-11-25T13:26:53Z</time><name>PT2511</name></trkpt>
<trkpt lat="53.207633" lon="-1.967285"><ele>476</ele><time>2022-11-25T13:26:56Z</time><name>PT2512</name></trkpt>
<trkpt lat="53.207646" lon="-1.967304"><ele>475</ele><time>2022-11-25T13:26:59Z</time><name>PT2513</name></trkpt>
<trkpt lat="53.207677" lon="-1.967340"><ele>475</ele><time>2022-11-25T13:27:02Z</time><name>PT2514</name></trkpt>
<trkpt lat="53.207699" lon="-1.967382"><ele>475</ele><time>2022-11-25T13:27:06Z</time><name>PT2515</name></trkpt>
<trkpt lat="53.207718" lon="-1.967404"><ele>475</ele><time>2022-11-25T13:27:09Z</time><name>PT2516</name></trkpt>
<trkpt lat="53.207744" lon="-1.967448"><ele>474</ele><time>2022-11-25T13:27:14Z</time><name>PT2517</name></trkpt>
<trkpt lat="53.207767" lon="-1.967487"><ele>474</ele><time>2022-11-25T13:27:17Z</time><name>PT2518</name></trkpt>
<trkpt lat="53.207798" lon="-1.967538"><ele>474</ele><time>2022-11-25T13:27:20Z</time><name>PT2519</name></trkpt>
<trkpt lat="53.207819" lon="-1.967563"><ele>474</ele><time>2022-11-25T13:27:23Z</time><name>PT2520</name></trkpt>
<trkpt lat="53.207851" lon="-1.967612"><ele>474</ele><time>2022-11-25T13:27:27Z</time><name>PT2521</name></trkpt>
<trkpt lat="53.207878" lon="-1.967656"><ele>474</ele><time>2022-11-25T13:27:32Z</time><name>PT2522</name></trkpt>
<trkpt lat="53.207904" lon="-1.967702"><ele>473</ele><time>2022-11-25T13:27:35Z</time><name>PT2523</name></trkpt>
<trkpt lat="53.207925" lon="-1.967731"><ele>472</ele><time>2022-11-25T13:27:38Z</time><name>PT2524</name></trkpt>
<trkpt lat="53.207949" lon="-1.967771"><ele>471</ele><time>2022-11-25T13:27:41Z</time><name>PT2525</name></trkpt>
<trkpt lat="53.207964" lon="-1.967799"><ele>470</ele><time>2022-11-25T13:27:44Z</time><name>PT2526</name></trkpt>
<trkpt lat="53.207974" lon="-1.967837"><ele>469</ele><time>2022-11-25T13:27:47Z</time><name>PT2527</name></trkpt>
<trkpt lat="53.208000" lon="-1.967883"><ele>468</ele><time>2022-11-25T13:27:51Z</time><name>PT2528</name></trkpt>
<trkpt lat="53.208028" lon="-1.967931"><ele>467</ele><time>2022-11-25T13:27:56Z</time><name>PT2529</name></trkpt>
<trkpt lat="53.208047" lon="-1.967955"><ele>467</ele><time>2022-11-25T13:27:59Z</time><name>PT2530</name></trkpt>
<trkpt lat="53.208074" lon="-1.967986"><ele>465</ele><time>2022-11-25T13:28:02Z</time><name>PT2531</name></trkpt>
<trkpt lat="53.208098" lon="-1.968043"><ele>463</ele><time>2022-11-25T13:28:06Z</time><name>PT2532</name></trkpt>
<trkpt lat="53.208118" lon="-1.968096"><ele>462</ele><time>2022-11-25T13:28:11Z</time><name>PT2533</name></trkpt>
<trkpt lat="53.208146" lon="-1.968130"><ele>462</ele><time>2022-11-25T13:28:14Z</time><name>PT2534</name></trkpt>
<trkpt lat="53.208162" lon="-1.968183"><ele>461</ele><time>2022-11-25T13:28:18Z</time><name>PT2535</name></trkpt>
<trkpt lat="53.208186" lon="-1.968236"><ele>461</ele><time>2022-11-25T13:28:23Z</time><name>PT2536</name></trkpt>
<trkpt lat="53.208203" lon="-1.968281"><ele>460</ele><time>2022-11-25T13:28:26Z</time><name>PT2537</name></trkpt>
<trkpt lat="53.208222" lon="-1.968321"><ele>459</ele><time>2022-11-25T13:28:29Z</time><name>PT2538</name></trkpt>
<trkpt lat="53.208234" lon="-1.968345"><ele>459</ele><time>2022-11-25T13:28:32Z</time><name>PT2539</name></trkpt>
<trkpt lat="53.208265" lon="-1.968383"><ele>458</ele><time>2022-11-25T13:28:36Z</time><name>PT2540</name></trkpt>
<trkpt lat="53.208297" lon="-1.968427"><ele>458</ele><time>2022-11-25T13:28:41Z</time><name>PT2541</name></trkpt>
<trkpt lat="53.208309" lon="-1.968456"><ele>458</ele><time>2022-11-25T13:28:44Z</time><name>PT2542</name></trkpt>
<trkpt lat="53.208307" lon="-1.968507"><ele>457</ele><time>2022-11-25T13:28:47Z</time><name>PT2543</name></trkpt>
<trkpt lat="53.208325" lon="-1.968544"><ele>457</ele><time>2022-11-25T13:28:51Z</time><name>PT2544</name></trkpt>
<trkpt lat="53.208352" lon="-1.968553"><ele>457</ele><time>2022-11-25T13:28:54Z</time><name>PT2545</name></trkpt>
<trkpt lat="53.208391" lon="-1.968584"><ele>455</ele><time>2022-11-25T13:28:59Z</time><name>PT2546</name></trkpt>
<trkpt lat="53.208409" lon="-1.968632"><ele>454</ele><time>2022-11-25T13:29:02Z</time><name>PT2547</name></trkpt>
<trkpt lat="53.208429" lon="-1.968684"><ele>454</ele><time>2022-11-25T13:29:05Z</time><name>PT2548</name></trkpt>
<trkpt lat="53.208460" lon="-1.968712"><ele>453</ele><time>2022-11-25T13:29:09Z</time><name>PT2549</name></trkpt>
<trkpt lat="53.208495" lon="-1.968737"><ele>452</ele><time>2022-11-25T13:29:14Z</time><name>PT2550</name></trkpt>
<trkpt lat="53.208516" lon="-1.968795"><ele>451</ele><time>2022-11-25T13:29:17Z</time><name>PT2551</name></trkpt>
<trkpt lat="53.208537" lon="-1.968832"><ele>451</ele><time>2022-11-25T13:29:20Z</time><name>PT2552</name></trkpt>
<trkpt lat="53.208560" lon="-1.968868"><ele>450</ele><time>2022-11-25T13:29:23Z</time><name>PT2553</name></trkpt>
<trkpt lat="53.208580" lon="-1.968879"><ele>450</ele><time>2022-11-25T13:29:26Z</time><name>PT2554</name></trkpt>
<trkpt lat="53.208592" lon="-1.968904"><ele>449</ele><time>2022-11-25T13:29:30Z</time><name>PT2555</name></trkpt>
<trkpt lat="53.208607" lon="-1.968915"><ele>448</ele><time>2022-11-25T13:29:33Z</time><name>PT2556</name></trkpt>
<trkpt lat="53.208641" lon="-1.968938"><ele>447</ele><time>2022-11-25T13:29:36Z</time><name>PT2557</name></trkpt>
<trkpt lat="53.208673" lon="-1.968972"><ele>447</ele><time>2022-11-25T13:29:41Z</time><name>PT2558</name></trkpt>
<trkpt lat="53.208702" lon="-1.969012"><ele>446</ele><time>2022-11-25T13:29:44Z</time><name>PT2559</name></trkpt>
<trkpt lat="53.208722" lon="-1.969018"><ele>446</ele><time>2022-11-25T13:29:47Z</time><name>PT2560</name></trkpt>
<trkpt lat="53.208754" lon="-1.969036"><ele>445</ele><time>2022-11-25T13:29:51Z</time><name>PT2561</name></trkpt>
<trkpt lat="53.208769" lon="-1.969087"><ele>445</ele><time>2022-11-25T13:29:56Z</time><name>PT2562</name></trkpt>
<trkpt lat="53.208784" lon="-1.969116"><ele>445</ele><time>2022-11-25T13:29:59Z</time><name>PT2563</name></trkpt>
<trkpt lat="53.208800" lon="-1.969147"><ele>445</ele><time>2022-11-25T13:30:02Z</time><name>PT2564</name></trkpt>
<trkpt lat="53.208819" lon="-1.969187"><ele>444</ele><time>2022-11-25T13:30:05Z</time><name>PT2565</name></trkpt>
<trkpt lat="53.208847" lon="-1.969240"><ele>444</ele><time>2022-11-25T13:30:08Z</time><name>PT2566</name></trkpt>
<trkpt lat="53.208869" lon="-1.969302"><ele>443</ele><time>2022-11-25T13:30:12Z</time><name>PT2567</name></trkpt>
<trkpt lat="53.208905" lon="-1.969348"><ele>442</ele><time>2022-11-25T13:30:17Z</time><name>PT2568</name></trkpt>
<trkpt lat="53.208925" lon="-1.969373"><ele>442</ele><time>2022-11-25T13:30:20Z</time><name>PT2569</name></trkpt>
<trkpt lat="53.208962" lon="-1.969405"><ele>440</ele><time>2022-11-25T13:30:23Z</time><name>PT2570</name></trkpt>
<trkpt lat="53.208981" lon="-1.969422"><ele>441</ele><time>2022-11-25T13:30:26Z</time><name>PT2571</name></trkpt>
<trkpt lat="53.208981" lon="-1.969457"><ele>440</ele><time>2022-11-25T13:30:29Z</time><name>PT2572</name></trkpt>
<trkpt lat="53.208976" lon="-1.969482"><ele>438</ele><time>2022-11-25T13:30:33Z</time><name>PT2573</name></trkpt>
<trkpt lat="53.208976" lon="-1.969480"><ele>438</ele><time>2022-11-25T13:30:36Z</time><name>PT2574</name></trkpt>
<trkpt lat="53.208983" lon="-1.969497"><ele>437</ele><time>2022-11-25T13:30:50Z</time><name>PT2575</name></trkpt>
<trkpt lat="53.209012" lon="-1.969550"><ele>435</ele><time>2022-11-25T13:30:55Z</time><name>PT2576</name></trkpt>
<trkpt lat="53.209036" lon="-1.969582"><ele>435</ele><time>2022-11-25T13:30:58Z</time><name>PT2577</name></trkpt>
<trkpt lat="53.209060" lon="-1.969601"><ele>434</ele><time>2022-11-25T13:31:01Z</time><name>PT2578</name></trkpt>
<trkpt lat="53.209083" lon="-1.969630"><ele>434</ele><time>2022-11-25T13:31:04Z</time><name>PT2579</name></trkpt>
<trkpt lat="53.209102" lon="-1.969672"><ele>433</ele><time>2022-11-25T13:31:07Z</time><name>PT2580</name></trkpt>
<trkpt lat="53.209124" lon="-1.969705"><ele>433</ele><time>2022-11-25T13:31:10Z</time><name>PT2581</name></trkpt>
<trkpt lat="53.209158" lon="-1.969741"><ele>433</ele><time>2022-11-25T13:31:14Z</time><name>PT2582</name></trkpt>
<trkpt lat="53.209201" lon="-1.969788"><ele>432</ele><time>2022-11-25T13:31:19Z</time><name>PT2583</name></trkpt>
<trkpt lat="53.209225" lon="-1.969823"><ele>431</ele><time>2022-11-25T13:31:22Z</time><name>PT2584</name></trkpt>
<trkpt lat="53.209246" lon="-1.969860"><ele>432</ele><time>2022-11-25T13:31:25Z</time><name>PT2585</name></trkpt>
<trkpt lat="53.209259" lon="-1.969900"><ele>431</ele><time>2022-11-25T13:31:28Z</time><name>PT2586</name></trkpt>
<trkpt lat="53.209277" lon="-1.969953"><ele>430</ele><time>2022-11-25T13:31:31Z</time><name>PT2587</name></trkpt>
<trkpt lat="53.209307" lon="-1.969980"><ele>430</ele><time>2022-11-25T13:31:35Z</time><name>PT2588</name></trkpt>
<trkpt lat="53.209316" lon="-1.970005"><ele>430</ele><time>2022-11-25T13:31:39Z</time><name>PT2589</name></trkpt>
<trkpt lat="53.209332" lon="-1.970044"><ele>430</ele><time>2022-11-25T13:31:42Z</time><name>PT2590</name></trkpt>
<trkpt lat="53.209351" lon="-1.970101"><ele>430</ele><time>2022-11-25T13:31:46Z</time><name>PT2591</name></trkpt>
<trkpt lat="53.209374" lon="-1.970121"><ele>430</ele><time>2022-11-25T13:31:49Z</time><name>PT2592</name></trkpt>
<trkpt lat="53.209404" lon="-1.970155"><ele>429</ele><time>2022-11-25T13:31:52Z</time><name>PT2593</name></trkpt>
<trkpt lat="53.209431" lon="-1.970169"><ele>429</ele><time>2022-11-25T13:31:55Z</time><name>PT2594</name></trkpt>
<trkpt lat="53.209439" lon="-1.970205"><ele>428</ele><time>2022-11-25T13:31:58Z</time><name>PT2595</name></trkpt>
<trkpt lat="53.209463" lon="-1.970241"><ele>427</ele><time>2022-11-25T13:32:02Z</time><name>PT2596</name></trkpt>
<trkpt lat="53.209479" lon="-1.970255"><ele>426</ele><time>2022-11-25T13:32:05Z</time><name>PT2597</name></trkpt>
<trkpt lat="53.209487" lon="-1.970299"><ele>425</ele><time>2022-11-25T13:32:10Z</time><name>PT2598</name></trkpt>
<trkpt lat="53.209497" lon="-1.970326"><ele>426</ele><time>2022-11-25T13:32:13Z</time><name>PT2599</name></trkpt>
<trkpt lat="53.209500" lon="-1.970368"><ele>426</ele><time>2022-11-25T13:32:16Z</time><name>PT2600</name></trkpt>
<trkpt lat="53.209501" lon="-1.970419"><ele>425</ele><time>2022-11-25T13:32:19Z</time><name>PT2601</name></trkpt>
<trkpt lat="53.209508" lon="-1.970486"><ele>424</ele><time>2022-11-25T13:32:22Z</time><name>PT2602</name></trkpt>
<trkpt lat="53.209511" lon="-1.970549"><ele>423</ele><time>2022-11-25T13:32:26Z</time><name>PT2603</name></trkpt>
<trkpt lat="53.209516" lon="-1.970592"><ele>423</ele><time>2022-11-25T13:32:29Z</time><name>PT2604</name></trkpt>
<trkpt lat="53.209522" lon="-1.970640"><ele>423</ele><time>2022-11-25T13:32:32Z</time><name>PT2605</name></trkpt>
<trkpt lat="53.209518" lon="-1.970679"><ele>422</ele><time>2022-11-25T13:32:35Z</time><name>PT2606</name></trkpt>
<trkpt lat="53.209525" lon="-1.970746"><ele>423</ele><time>2022-11-25T13:32:40Z</time><name>PT2607</name></trkpt>
<trkpt lat="53.209532" lon="-1.970815"><ele>423</ele><time>2022-11-25T13:32:43Z</time><name>PT2608</name></trkpt>
<trkpt lat="53.209538" lon="-1.970876"><ele>423</ele><time>2022-11-25T13:32:46Z</time><name>PT2609</name></trkpt>
<trkpt lat="53.209564" lon="-1.970913"><ele>424</ele><time>2022-11-25T13:32:50Z</time><name>PT2610</name></trkpt>
<trkpt lat="53.209573" lon="-1.970963"><ele>423</ele><time>2022-11-25T13:32:55Z</time><name>PT2611</name></trkpt>
<trkpt lat="53.209581" lon="-1.971006"><ele>423</ele><time>2022-11-25T13:32:58Z</time><name>PT2612</name></trkpt>
<trkpt lat="53.209596" lon="-1.971031"><ele>422</ele><time>2022-11-25T13:33:01Z</time><name>PT2613</name></trkpt>
<trkpt lat="53.209609" lon="-1.971045"><ele>422</ele><time>2022-11-25T13:33:04Z</time><name>PT2614</name></trkpt>
<trkpt lat="53.209596" lon="-1.971110"><ele>420</ele><time>2022-11-25T13:33:08Z</time><name>PT2615</name></trkpt>
<trkpt lat="53.209586" lon="-1.971166"><ele>419</ele><time>2022-11-25T13:33:13Z</time><name>PT2616</name></trkpt>
<trkpt lat="53.209594" lon="-1.971212"><ele>419</ele><time>2022-11-25T13:33:16Z</time><name>PT2617</name></trkpt>
<trkpt lat="53.209607" lon="-1.971223"><ele>419</ele><time>2022-11-25T13:33:19Z</time><name>PT2618</name></trkpt>
<trkpt lat="53.209635" lon="-1.971273"><ele>418</ele><time>2022-11-25T13:33:23Z</time><name>PT2619</name></trkpt>
<trkpt lat="53.209650" lon="-1.971308"><ele>418</ele><time>2022-11-25T13:33:26Z</time><name>PT2620</name></trkpt>
<trkpt lat="53.209669" lon="-1.971333"><ele>417</ele><time>2022-11-25T13:33:31Z</time><name>PT2621</name></trkpt>
<trkpt lat="53.209688" lon="-1.971379"><ele>417</ele><time>2022-11-25T13:33:34Z</time><name>PT2622</name></trkpt>
<trkpt lat="53.209705" lon="-1.971429"><ele>417</ele><time>2022-11-25T13:33:37Z</time><name>PT2623</name></trkpt>
<trkpt lat="53.209723" lon="-1.971437"><ele>416</ele><time>2022-11-25T13:33:40Z</time><name>PT2624</name></trkpt>
<trkpt lat="53.209744" lon="-1.971474"><ele>415</ele><time>2022-11-25T13:33:44Z</time><name>PT2625</name></trkpt>
<trkpt lat="53.209748" lon="-1.971513"><ele>415</ele><time>2022-11-25T13:33:47Z</time><name>PT2626</name></trkpt>
<trkpt lat="53.209767" lon="-1.971539"><ele>414</ele><time>2022-11-25T13:33:52Z</time><name>PT2627</name></trkpt>
<trkpt lat="53.209783" lon="-1.971553"><ele>413</ele><time>2022-11-25T13:33:55Z</time><name>PT2628</name></trkpt>
<trkpt lat="53.209796" lon="-1.971579"><ele>413</ele><time>2022-11-25T13:33:58Z</time><name>PT2629</name></trkpt>
<trkpt lat="53.209802" lon="-1.971612"><ele>413</ele><time>2022-11-25T13:34:01Z</time><name>PT2630</name></trkpt>
<trkpt lat="53.209812" lon="-1.971649"><ele>412</ele><time>2022-11-25T13:34:04Z</time><name>PT2631</name></trkpt>
<trkpt lat="53.209819" lon="-1.971678"><ele>412</ele><time>2022-11-25T13:34:07Z</time><name>PT2632</name></trkpt>
<trkpt lat="53.209833" lon="-1.971701"><ele>411</ele><time>2022-11-25T13:34:10Z</time><name>PT2633</name></trkpt>
<trkpt lat="53.209847" lon="-1.971766"><ele>411</ele><time>2022-11-25T13:34:14Z</time><name>PT2634</name></trkpt>
<trkpt lat="53.209863" lon="-1.971798"><ele>411</ele><time>2022-11-25T13:34:17Z</time><name>PT2635</name></trkpt>
<trkpt lat="53.209877" lon="-1.971845"><ele>409</ele><time>2022-11-25T13:34:20Z</time><name>PT2636</name></trkpt>
<trkpt lat="53.209884" lon="-1.971889"><ele>408</ele><time>2022-11-25T13:34:25Z</time><name>PT2637</name></trkpt>
<trkpt lat="53.209890" lon="-1.971912"><ele>407</ele><time>2022-11-25T13:34:28Z</time><name>PT2638</name></trkpt>
<trkpt lat="53.209894" lon="-1.971943"><ele>407</ele><time>2022-11-25T13:34:31Z</time><name>PT2639</name></trkpt>
<trkpt lat="53.209892" lon="-1.971957"><ele>407</ele><time>2022-11-25T13:34:35Z</time><name>PT2640</name></trkpt>
<trkpt lat="53.209885" lon="-1.971963"><ele>408</ele><time>2022-11-25T13:34:42Z</time><name>PT2641</name></trkpt>
<trkpt lat="53.209871" lon="-1.971965"><ele>407</ele><time>2022-11-25T13:34:45Z</time><name>PT2642</name></trkpt>
<trkpt lat="53.209860" lon="-1.971966"><ele>408</ele><time>2022-11-25T13:34:48Z</time><name>PT2643</name></trkpt>
<trkpt lat="53.209860" lon="-1.971977"><ele>408</ele><time>2022-11-25T13:34:51Z</time><name>PT2644</name></trkpt>
<trkpt lat="53.209854" lon="-1.972023"><ele>408</ele><time>2022-11-25T13:34:55Z</time><name>PT2645</name></trkpt>
<trkpt lat="53.209837" lon="-1.972078"><ele>408</ele><time>2022-11-25T13:34:58Z</time><name>PT2646</name></trkpt>
<trkpt lat="53.209822" lon="-1.972139"><ele>408</ele><time>2022-11-25T13:35:02Z</time><name>PT2647</name></trkpt>
<trkpt lat="53.209819" lon="-1.972123"><ele>406</ele><time>2022-11-25T13:35:07Z</time><name>PT2648</name></trkpt>
<trkpt lat="53.209832" lon="-1.972102"><ele>405</ele><time>2022-11-25T13:35:10Z</time><name>PT2649</name></trkpt>
<trkpt lat="53.209844" lon="-1.972053"><ele>404</ele><time>2022-11-25T13:35:13Z</time><name>PT2650</name></trkpt>
<trkpt lat="53.209851" lon="-1.972031"><ele>403</ele><time>2022-11-25T13:35:17Z</time><name>PT2651</name></trkpt>
<trkpt lat="53.209858" lon="-1.972004"><ele>403</ele><time>2022-11-25T13:35:22Z</time><name>PT2652</name></trkpt>
<trkpt lat="53.209858" lon="-1.972004"><ele>403</ele><time>2022-11-25T13:35:25Z</time><name>PT2653</name></trkpt>
<trkpt lat="53.209858" lon="-1.972001"><ele>403</ele><time>2022-11-25T13:36:25Z</time><name>PT2654</name></trkpt>
<trkpt lat="53.209859" lon="-1.972002"><ele>403</ele><time>2022-11-25T13:36:28Z</time><name>PT2655</name></trkpt>
<trkpt lat="53.209870" lon="-1.972014"><ele>403</ele><time>2022-11-25T13:36:44Z</time><name>PT2656</name></trkpt>
<trkpt lat="53.209878" lon="-1.972010"><ele>404</ele><time>2022-11-25T13:36:49Z</time><name>PT2657</name></trkpt>
<trkpt lat="53.209881" lon="-1.972001"><ele>405</ele><time>2022-11-25T13:36:52Z</time><name>PT2658</name></trkpt>
<trkpt lat="53.209872" lon="-1.972006"><ele>404</ele><time>2022-11-25T13:36:56Z</time><name>PT2659</name></trkpt>
<trkpt lat="53.209868" lon="-1.972009"><ele>404</ele><time>2022-11-25T13:37:07Z</time><name>PT2660</name></trkpt>
<trkpt lat="53.209865" lon="-1.972000"><ele>404</ele><time>2022-11-25T13:37:11Z</time><name>PT2661</name></trkpt>
<trkpt lat="53.209863" lon="-1.971997"><ele>403</ele><time>2022-11-25T13:37:14Z</time><name>PT2662</name></trkpt>
<trkpt lat="53.209863" lon="-1.971981"><ele>403</ele><time>2022-11-25T13:37:17Z</time><name>PT2663</name></trkpt>
<trkpt lat="53.209865" lon="-1.971987"><ele>402</ele><time>2022-11-25T13:37:20Z</time><name>PT2664</name></trkpt>
<trkpt lat="53.209867" lon="-1.971996"><ele>402</ele><time>2022-11-25T13:37:25Z</time><name>PT2665</name></trkpt>
<trkpt lat="53.209869" lon="-1.972001"><ele>403</ele><time>2022-11-25T13:37:28Z</time><name>PT2666</name></trkpt>
<trkpt lat="53.209874" lon="-1.972013"><ele>402</ele><time>2022-11-25T13:37:32Z</time><name>PT2667</name></trkpt>
<trkpt lat="53.209861" lon="-1.972000"><ele>405</ele><time>2022-11-25T13:37:37Z</time><name>PT2668</name></trkpt>
<trkpt lat="53.209864" lon="-1.972013"><ele>404</ele><time>2022-11-25T13:37:40Z</time><name>PT2669</name></trkpt>
<trkpt lat="53.209870" lon="-1.972004"><ele>402</ele><time>2022-11-25T13:37:43Z</time><name>PT2670</name></trkpt>
<trkpt lat="53.209865" lon="-1.972008"><ele>402</ele><time>2022-11-25T13:37:47Z</time><name>PT2671</name></trkpt>
<trkpt lat="53.209865" lon="-1.972007"><ele>403</ele><time>2022-11-25T13:37:50Z</time><name>PT2672</name></trkpt>
<trkpt lat="53.209854" lon="-1.971996"><ele>404</ele><time>2022-11-25T13:37:55Z</time><name>PT2673</name></trkpt>
<trkpt lat="53.209856" lon="-1.971988"><ele>403</ele><time>2022-11-25T13:37:58Z</time><name>PT2674</name></trkpt>
<trkpt lat="53.209858" lon="-1.971974"><ele>403</ele><time>2022-11-25T13:38:01Z</time><name>PT2675</name></trkpt>
<trkpt lat="53.209866" lon="-1.971966"><ele>402</ele><time>2022-11-25T13:38:05Z</time><name>PT2676</name></trkpt>
<trkpt lat="53.209870" lon="-1.971970"><ele>402</ele><time>2022-11-25T13:38:08Z</time><name>PT2677</name></trkpt>
<trkpt lat="53.209865" lon="-1.971975"><ele>401</ele><time>2022-11-25T13:38:11Z</time><name>PT2678</name></trkpt>
<trkpt lat="53.209883" lon="-1.972003"><ele>402</ele><time>2022-11-25T13:38:22Z</time><name>PT2679</name></trkpt>
<trkpt lat="53.209880" lon="-1.972000"><ele>401</ele><time>2022-11-25T13:38:26Z</time><name>PT2680</name></trkpt>
<trkpt lat="53.209882" lon="-1.972005"><ele>401</ele><time>2022-11-25T13:38:29Z</time><name>PT2681</name></trkpt>
<trkpt lat="53.209880" lon="-1.972011"><ele>401</ele><time>2022-11-25T13:38:34Z</time><name>PT2682</name></trkpt>
<trkpt lat="53.209884" lon="-1.972009"><ele>401</ele><time>2022-11-25T13:38:37Z</time><name>PT2683</name></trkpt>
<trkpt lat="53.209883" lon="-1.972005"><ele>401</ele><time>2022-11-25T13:38:40Z</time><name>PT2684</name></trkpt>
<trkpt lat="53.209878" lon="-1.972007"><ele>401</ele><time>2022-11-25T13:38:50Z</time><name>PT2685</name></trkpt>
<trkpt lat="53.209874" lon="-1.972008"><ele>400</ele><time>2022-11-25T13:38:53Z</time><name>PT2686</name></trkpt>
<trkpt lat="53.209869" lon="-1.972004"><ele>400</ele><time>2022-11-25T13:38:58Z</time><name>PT2687</name></trkpt>
<trkpt lat="53.209873" lon="-1.971997"><ele>401</ele><time>2022-11-25T13:40:43Z</time><name>PT2688</name></trkpt>
<trkpt lat="53.209875" lon="-1.971995"><ele>401</ele><time>2022-11-25T13:40:46Z</time><name>PT2689</name></trkpt>
<trkpt lat="53.209879" lon="-1.971999"><ele>401</ele><time>2022-11-25T13:40:58Z</time><name>PT2690</name></trkpt>
<trkpt lat="53.209889" lon="-1.971999"><ele>402</ele><time>2022-11-25T13:41:01Z</time><name>PT2691</name></trkpt>
<trkpt lat="53.209889" lon="-1.971998"><ele>402</ele><time>2022-11-25T13:41:04Z</time><name>PT2692</name></trkpt>
<trkpt lat="53.209894" lon="-1.971990"><ele>402</ele><time>2022-11-25T13:41:11Z</time><name>PT2693</name></trkpt>
<trkpt lat="53.209910" lon="-1.971952"><ele>402</ele><time>2022-11-25T13:41:16Z</time><name>PT2694</name></trkpt>
<trkpt lat="53.209934" lon="-1.971913"><ele>401</ele><time>2022-11-25T13:41:19Z</time><name>PT2695</name></trkpt>
<trkpt lat="53.209941" lon="-1.971880"><ele>400</ele><time>2022-11-25T13:41:22Z</time><name>PT2696</name></trkpt>
<trkpt lat="53.209962" lon="-1.971839"><ele>400</ele><time>2022-11-25T13:41:26Z</time><name>PT2697</name></trkpt>
<trkpt lat="53.209984" lon="-1.971782"><ele>400</ele><time>2022-11-25T13:41:31Z</time><name>PT2698</name></trkpt>
<trkpt lat="53.209997" lon="-1.971731"><ele>401</ele><time>2022-11-25T13:41:34Z</time><name>PT2699</name></trkpt>
<trkpt lat="53.210018" lon="-1.971665"><ele>401</ele><time>2022-11-25T13:41:37Z</time><name>PT2700</name></trkpt>
<trkpt lat="53.210038" lon="-1.971602"><ele>401</ele><time>2022-11-25T13:41:41Z</time><name>PT2701</name></trkpt>
<trkpt lat="53.210058" lon="-1.971546"><ele>401</ele><time>2022-11-25T13:41:46Z</time><name>PT2702</name></trkpt>
<trkpt lat="53.210067" lon="-1.971511"><ele>401</ele><time>2022-11-25T13:41:49Z</time><name>PT2703</name></trkpt>
<trkpt lat="53.210089" lon="-1.971459"><ele>402</ele><time>2022-11-25T13:41:53Z</time><name>PT2704</name></trkpt>
<trkpt lat="53.210101" lon="-1.971416"><ele>401</ele><time>2022-11-25T13:41:56Z</time><name>PT2705</name></trkpt>
<trkpt lat="53.210116" lon="-1.971361"><ele>401</ele><time>2022-11-25T13:42:01Z</time><name>PT2706</name></trkpt>
<trkpt lat="53.210125" lon="-1.971308"><ele>402</ele><time>2022-11-25T13:42:04Z</time><name>PT2707</name></trkpt>
<trkpt lat="53.210133" lon="-1.971235"><ele>402</ele><time>2022-11-25T13:42:07Z</time><name>PT2708</name></trkpt>
<trkpt lat="53.210136" lon="-1.971153"><ele>403</ele><time>2022-11-25T13:42:11Z</time><name>PT2709</name></trkpt>
<trkpt lat="53.210137" lon="-1.971101"><ele>404</ele><time>2022-11-25T13:42:14Z</time><name>PT2710</name></trkpt>
<trkpt lat="53.210140" lon="-1.971044"><ele>404</ele><time>2022-11-25T13:42:17Z</time><name>PT2711</name></trkpt>
<trkpt lat="53.210139" lon="-1.970975"><ele>405</ele><time>2022-11-25T13:42:22Z</time><name>PT2712</name></trkpt>
<trkpt lat="53.210141" lon="-1.970922"><ele>405</ele><time>2022-11-25T13:42:25Z</time><name>PT2713</name></trkpt>
<trkpt lat="53.210149" lon="-1.970862"><ele>405</ele><time>2022-11-25T13:42:28Z</time><name>PT2714</name></trkpt>
<trkpt lat="53.210154" lon="-1.970796"><ele>406</ele><time>2022-11-25T13:42:32Z</time><name>PT2715</name></trkpt>
<trkpt lat="53.210163" lon="-1.970745"><ele>406</ele><time>2022-11-25T13:42:35Z</time><name>PT2716</name></trkpt>
<trkpt lat="53.210173" lon="-1.970688"><ele>407</ele><time>2022-11-25T13:42:40Z</time><name>PT2717</name></trkpt>
<trkpt lat="53.210182" lon="-1.970627"><ele>408</ele><time>2022-11-25T13:42:43Z</time><name>PT2718</name></trkpt>
<trkpt lat="53.210197" lon="-1.970580"><ele>408</ele><time>2022-11-25T13:42:46Z</time><name>PT2719</name></trkpt>
<trkpt lat="53.210218" lon="-1.970535"><ele>408</ele><time>2022-11-25T13:42:49Z</time><name>PT2720</name></trkpt>
<trkpt lat="53.210235" lon="-1.970490"><ele>408</ele><time>2022-11-25T13:42:52Z</time><name>PT2721</name></trkpt>
<trkpt lat="53.210236" lon="-1.970479"><ele>408</ele><time>2022-11-25T13:42:55Z</time><name>PT2722</name></trkpt>
<trkpt lat="53.210249" lon="-1.970414"><ele>409</ele><time>2022-11-25T13:42:59Z</time><name>PT2723</name></trkpt>
<trkpt lat="53.210275" lon="-1.970352"><ele>408</ele><time>2022-11-25T13:43:04Z</time><name>PT2724</name></trkpt>
<trkpt lat="53.210286" lon="-1.970318"><ele>409</ele><time>2022-11-25T13:43:07Z</time><name>PT2725</name></trkpt>
<trkpt lat="53.210300" lon="-1.970268"><ele>409</ele><time>2022-11-25T13:43:10Z</time><name>PT2726</name></trkpt>
<trkpt lat="53.210328" lon="-1.970206"><ele>410</ele><time>2022-11-25T13:43:13Z</time><name>PT2727</name></trkpt>
<trkpt lat="53.210341" lon="-1.970154"><ele>410</ele><time>2022-11-25T13:43:16Z</time><name>PT2728</name></trkpt>
<trkpt lat="53.210363" lon="-1.970107"><ele>410</ele><time>2022-11-25T13:43:19Z</time><name>PT2729</name></trkpt>
<trkpt lat="53.210387" lon="-1.970041"><ele>409</ele><time>2022-11-25T13:43:23Z</time><name>PT2730</name></trkpt>
<trkpt lat="53.210418" lon="-1.969982"><ele>408</ele><time>2022-11-25T13:43:28Z</time><name>PT2731</name></trkpt>
<trkpt lat="53.210444" lon="-1.969914"><ele>408</ele><time>2022-11-25T13:43:31Z</time><name>PT2732</name></trkpt>
<trkpt lat="53.210464" lon="-1.969848"><ele>409</ele><time>2022-11-25T13:43:35Z</time><name>PT2733</name></trkpt>
<trkpt lat="53.210485" lon="-1.969803"><ele>408</ele><time>2022-11-25T13:43:38Z</time><name>PT2734</name></trkpt>
<trkpt lat="53.210508" lon="-1.969742"><ele>408</ele><time>2022-11-25T13:43:43Z</time><name>PT2735</name></trkpt>
<trkpt lat="53.210526" lon="-1.969697"><ele>409</ele><time>2022-11-25T13:43:46Z</time><name>PT2736</name></trkpt>
<trkpt lat="53.210542" lon="-1.969643"><ele>409</ele><time>2022-11-25T13:43:49Z</time><name>PT2737</name></trkpt>
<trkpt lat="53.210560" lon="-1.969597"><ele>409</ele><time>2022-11-25T13:43:52Z</time><name>PT2738</name></trkpt>
<trkpt lat="53.210588" lon="-1.969529"><ele>409</ele><time>2022-11-25T13:43:55Z</time><name>PT2739</name></trkpt>
<trkpt lat="53.210611" lon="-1.969482"><ele>409</ele><time>2022-11-25T13:43:58Z</time><name>PT2740</name></trkpt>
<trkpt lat="53.210632" lon="-1.969437"><ele>408</ele><time>2022-11-25T13:44:02Z</time><name>PT2741</name></trkpt>
<trkpt lat="53.210657" lon="-1.969403"><ele>408</ele><time>2022-11-25T13:44:05Z</time><name>PT2742</name></trkpt>
<trkpt lat="53.210683" lon="-1.969345"><ele>408</ele><time>2022-11-25T13:44:10Z</time><name>PT2743</name></trkpt>
<trkpt lat="53.210723" lon="-1.969279"><ele>407</ele><time>2022-11-25T13:44:13Z</time><name>PT2744</name></trkpt>
<trkpt lat="53.210751" lon="-1.969217"><ele>406</ele><time>2022-11-25T13:44:17Z</time><name>PT2745</name></trkpt>
<trkpt lat="53.210776" lon="-1.969175"><ele>405</ele><time>2022-11-25T13:44:20Z</time><name>PT2746</name></trkpt>
<trkpt lat="53.210810" lon="-1.969115"><ele>405</ele><time>2022-11-25T13:44:25Z</time><name>PT2747</name></trkpt>
<trkpt lat="53.210843" lon="-1.969067"><ele>405</ele><time>2022-11-25T13:44:28Z</time><name>PT2748</name></trkpt>
<trkpt lat="53.210869" lon="-1.969017"><ele>405</ele><time>2022-11-25T13:44:31Z</time><name>PT2749</name></trkpt>
<trkpt lat="53.210910" lon="-1.968937"><ele>406</ele><time>2022-11-25T13:44:34Z</time><name>PT2750</name></trkpt>
<trkpt lat="53.210950" lon="-1.968859"><ele>407</ele><time>2022-11-25T13:44:38Z</time><name>PT2751</name></trkpt>
<trkpt lat="53.210974" lon="-1.968803"><ele>408</ele><time>2022-11-25T13:44:41Z</time><name>PT2752</name></trkpt>
<trkpt lat="53.210998" lon="-1.968728"><ele>408</ele><time>2022-11-25T13:44:46Z</time><name>PT2753</name></trkpt>
<trkpt lat="53.211026" lon="-1.968653"><ele>408</ele><time>2022-11-25T13:44:49Z</time><name>PT2754</name></trkpt>
<trkpt lat="53.211045" lon="-1.968594"><ele>409</ele><time>2022-11-25T13:44:52Z</time><name>PT2755</name></trkpt>
<trkpt lat="53.211065" lon="-1.968541"><ele>409</ele><time>2022-11-25T13:44:55Z</time><name>PT2756</name></trkpt>
<trkpt lat="53.211093" lon="-1.968477"><ele>410</ele><time>2022-11-25T13:44:59Z</time><name>PT2757</name></trkpt>
<trkpt lat="53.211119" lon="-1.968425"><ele>410</ele><time>2022-11-25T13:45:02Z</time><name>PT2758</name></trkpt>
<trkpt lat="53.211150" lon="-1.968352"><ele>411</ele><time>2022-11-25T13:45:07Z</time><name>PT2759</name></trkpt>
<trkpt lat="53.211185" lon="-1.968289"><ele>412</ele><time>2022-11-25T13:45:10Z</time><name>PT2760</name></trkpt>
<trkpt lat="53.211225" lon="-1.968196"><ele>414</ele><time>2022-11-25T13:45:14Z</time><name>PT2761</name></trkpt>
<trkpt lat="53.211269" lon="-1.968135"><ele>416</ele><time>2022-11-25T13:45:19Z</time><name>PT2762</name></trkpt>
<trkpt lat="53.211298" lon="-1.968088"><ele>417</ele><time>2022-11-25T13:45:22Z</time><name>PT2763</name></trkpt>
<trkpt lat="53.211335" lon="-1.968022"><ele>417</ele><time>2022-11-25T13:45:25Z</time><name>PT2764</name></trkpt>
<trkpt lat="53.211358" lon="-1.967964"><ele>417</ele><time>2022-11-25T13:45:29Z</time><name>PT2765</name></trkpt>
<trkpt lat="53.211383" lon="-1.967934"><ele>417</ele><time>2022-11-25T13:45:32Z</time><name>PT2766</name></trkpt>
<trkpt lat="53.211418" lon="-1.967891"><ele>417</ele><time>2022-11-25T13:45:37Z</time><name>PT2767</name></trkpt>
<trkpt lat="53.211459" lon="-1.967876"><ele>419</ele><time>2022-11-25T13:45:40Z</time><name>PT2768</name></trkpt>
<trkpt lat="53.211487" lon="-1.967866"><ele>419</ele><time>2022-11-25T13:45:43Z</time><name>PT2769</name></trkpt>
<trkpt lat="53.211518" lon="-1.967850"><ele>419</ele><time>2022-11-25T13:45:46Z</time><name>PT2770</name></trkpt>
<trkpt lat="53.211557" lon="-1.967823"><ele>420</ele><time>2022-11-25T13:45:50Z</time><name>PT2771</name></trkpt>
<trkpt lat="53.211592" lon="-1.967796"><ele>420</ele><time>2022-11-25T13:45:55Z</time><name>PT2772</name></trkpt>
<trkpt lat="53.211620" lon="-1.967760"><ele>421</ele><time>2022-11-25T13:45:58Z</time><name>PT2773</name></trkpt>
<trkpt lat="53.211655" lon="-1.967715"><ele>421</ele><time>2022-11-25T13:46:01Z</time><name>PT2774</name></trkpt>
<trkpt lat="53.211693" lon="-1.967677"><ele>421</ele><time>2022-11-25T13:46:05Z</time><name>PT2775</name></trkpt>
<trkpt lat="53.211737" lon="-1.967638"><ele>421</ele><time>2022-11-25T13:46:10Z</time><name>PT2776</name></trkpt>
<trkpt lat="53.211772" lon="-1.967590"><ele>420</ele><time>2022-11-25T13:46:13Z</time><name>PT2777</name></trkpt>
<trkpt lat="53.211810" lon="-1.967546"><ele>421</ele><time>2022-11-25T13:46:17Z</time><name>PT2778</name></trkpt>
<trkpt lat="53.211844" lon="-1.967515"><ele>420</ele><time>2022-11-25T13:46:22Z</time><name>PT2779</name></trkpt>
<trkpt lat="53.211885" lon="-1.967475"><ele>420</ele><time>2022-11-25T13:46:25Z</time><name>PT2780</name></trkpt>
<trkpt lat="53.211915" lon="-1.967449"><ele>420</ele><time>2022-11-25T13:46:28Z</time><name>PT2781</name></trkpt>
<trkpt lat="53.211961" lon="-1.967422"><ele>420</ele><time>2022-11-25T13:46:32Z</time><name>PT2782</name></trkpt>
<trkpt lat="53.211988" lon="-1.967406"><ele>420</ele><time>2022-11-25T13:46:35Z</time><name>PT2783</name></trkpt>
<trkpt lat="53.212035" lon="-1.967405"><ele>421</ele><time>2022-11-25T13:46:40Z</time><name>PT2784</name></trkpt>
<trkpt lat="53.212085" lon="-1.967409"><ele>422</ele><time>2022-11-25T13:46:43Z</time><name>PT2785</name></trkpt>
<trkpt lat="53.212124" lon="-1.967425"><ele>423</ele><time>2022-11-25T13:46:46Z</time><name>PT2786</name></trkpt>
<trkpt lat="53.212168" lon="-1.967442"><ele>424</ele><time>2022-11-25T13:46:50Z</time><name>PT2787</name></trkpt>
<trkpt lat="53.212208" lon="-1.967461"><ele>423</ele><time>2022-11-25T13:46:55Z</time><name>PT2788</name></trkpt>
<trkpt lat="53.212245" lon="-1.967485"><ele>425</ele><time>2022-11-25T13:46:58Z</time><name>PT2789</name></trkpt>
<trkpt lat="53.212276" lon="-1.967495"><ele>426</ele><time>2022-11-25T13:47:01Z</time><name>PT2790</name></trkpt>
<trkpt lat="53.212320" lon="-1.967511"><ele>426</ele><time>2022-11-25T13:47:04Z</time><name>PT2791</name></trkpt>
<trkpt lat="53.212367" lon="-1.967523"><ele>427</ele><time>2022-11-25T13:47:08Z</time><name>PT2792</name></trkpt>
<trkpt lat="53.212415" lon="-1.967548"><ele>428</ele><time>2022-11-25T13:47:13Z</time><name>PT2793</name></trkpt>
<trkpt lat="53.212461" lon="-1.967574"><ele>429</ele><time>2022-11-25T13:47:16Z</time><name>PT2794</name></trkpt>
<trkpt lat="53.212496" lon="-1.967592"><ele>430</ele><time>2022-11-25T13:47:19Z</time><name>PT2795</name></trkpt>
<trkpt lat="53.212535" lon="-1.967615"><ele>431</ele><time>2022-11-25T13:47:22Z</time><name>PT2796</name></trkpt>
<trkpt lat="53.212569" lon="-1.967622"><ele>431</ele><time>2022-11-25T13:47:25Z</time><name>PT2797</name></trkpt>
<trkpt lat="53.212608" lon="-1.967640"><ele>432</ele><time>2022-11-25T13:47:28Z</time><name>PT2798</name></trkpt>
<trkpt lat="53.212655" lon="-1.967658"><ele>432</ele><time>2022-11-25T13:47:32Z</time><name>PT2799</name></trkpt>
<trkpt lat="53.212697" lon="-1.967691"><ele>433</ele><time>2022-11-25T13:47:37Z</time><name>PT2800</name></trkpt>
<trkpt lat="53.212734" lon="-1.967705"><ele>433</ele><time>2022-11-25T13:47:40Z</time><name>PT2801</name></trkpt>
<trkpt lat="53.212777" lon="-1.967725"><ele>434</ele><time>2022-11-25T13:47:43Z</time><name>PT2802</name></trkpt>
<trkpt lat="53.212822" lon="-1.967749"><ele>434</ele><time>2022-11-25T13:47:47Z</time><name>PT2803</name></trkpt>
<trkpt lat="53.212859" lon="-1.967769"><ele>435</ele><time>2022-11-25T13:47:50Z</time><name>PT2804</name></trkpt>
<trkpt lat="53.212901" lon="-1.967784"><ele>435</ele><time>2022-11-25T13:47:55Z</time><name>PT2805</name></trkpt>
<trkpt lat="53.212936" lon="-1.967794"><ele>436</ele><time>2022-11-25T13:47:58Z</time><name>PT2806</name></trkpt>
<trkpt lat="53.212985" lon="-1.967820"><ele>437</ele><time>2022-11-25T13:48:01Z</time><name>PT2807</name></trkpt>
<trkpt lat="53.213027" lon="-1.967838"><ele>437</ele><time>2022-11-25T13:48:05Z</time><name>PT2808</name></trkpt>
<trkpt lat="53.213066" lon="-1.967856"><ele>437</ele><time>2022-11-25T13:48:10Z</time><name>PT2809</name></trkpt>
<trkpt lat="53.213101" lon="-1.967871"><ele>437</ele><time>2022-11-25T13:48:13Z</time><name>PT2810</name></trkpt>
<trkpt lat="53.213133" lon="-1.967888"><ele>437</ele><time>2022-11-25T13:48:16Z</time><name>PT2811</name></trkpt>
<trkpt lat="53.213163" lon="-1.967902"><ele>437</ele><time>2022-11-25T13:48:19Z</time><name>PT2812</name></trkpt>
<trkpt lat="53.213203" lon="-1.967918"><ele>436</ele><time>2022-11-25T13:48:23Z</time><name>PT2813</name></trkpt>
<trkpt lat="53.213241" lon="-1.967926"><ele>437</ele><time>2022-11-25T13:48:26Z</time><name>PT2814</name></trkpt>
<trkpt lat="53.213272" lon="-1.967941"><ele>437</ele><time>2022-11-25T13:48:29Z</time><name>PT2815</name></trkpt>
<trkpt lat="53.213322" lon="-1.967953"><ele>438</ele><time>2022-11-25T13:48:34Z</time><name>PT2816</name></trkpt>
<trkpt lat="53.213370" lon="-1.967977"><ele>439</ele><time>2022-11-25T13:48:37Z</time><name>PT2817</name></trkpt>
<trkpt lat="53.213405" lon="-1.967992"><ele>439</ele><time>2022-11-25T13:48:40Z</time><name>PT2818</name></trkpt>
<trkpt lat="53.213447" lon="-1.968013"><ele>439</ele><time>2022-11-25T13:48:44Z</time><name>PT2819</name></trkpt>
<trkpt lat="53.213490" lon="-1.968041"><ele>440</ele><time>2022-11-25T13:48:49Z</time><name>PT2820</name></trkpt>
<trkpt lat="53.213515" lon="-1.968057"><ele>441</ele><time>2022-11-25T13:48:52Z</time><name>PT2821</name></trkpt>
<trkpt lat="53.213540" lon="-1.968083"><ele>441</ele><time>2022-11-25T13:48:55Z</time><name>PT2822</name></trkpt>
<trkpt lat="53.213573" lon="-1.968110"><ele>442</ele><time>2022-11-25T13:48:58Z</time><name>PT2823</name></trkpt>
<trkpt lat="53.213598" lon="-1.968123"><ele>442</ele><time>2022-11-25T13:49:01Z</time><name>PT2824</name></trkpt>
<trkpt lat="53.213629" lon="-1.968141"><ele>443</ele><time>2022-11-25T13:49:04Z</time><name>PT2825</name></trkpt>
<trkpt lat="53.213676" lon="-1.968157"><ele>444</ele><time>2022-11-25T13:49:08Z</time><name>PT2826</name></trkpt>
<trkpt lat="53.213703" lon="-1.968158"><ele>444</ele><time>2022-11-25T13:49:11Z</time><name>PT2827</name></trkpt>
<trkpt lat="53.213725" lon="-1.968152"><ele>444</ele><time>2022-11-25T13:49:14Z</time><name>PT2828</name></trkpt>
<trkpt lat="53.213756" lon="-1.968155"><ele>444</ele><time>2022-11-25T13:49:19Z</time><name>PT2829</name></trkpt>
<trkpt lat="53.213774" lon="-1.968179"><ele>444</ele><time>2022-11-25T13:49:22Z</time><name>PT2830</name></trkpt>
<trkpt lat="53.213783" lon="-1.968203"><ele>443</ele><time>2022-11-25T13:49:25Z</time><name>PT2831</name></trkpt>
<trkpt lat="53.213778" lon="-1.968214"><ele>443</ele><time>2022-11-25T13:49:29Z</time><name>PT2832</name></trkpt>
<trkpt lat="53.213774" lon="-1.968225"><ele>443</ele><time>2022-11-25T13:49:32Z</time><name>PT2833</name></trkpt>
<trkpt lat="53.213769" lon="-1.968234"><ele>442</ele><time>2022-11-25T13:49:37Z</time><name>PT2834</name></trkpt>
<trkpt lat="53.213771" lon="-1.968242"><ele>442</ele><time>2022-11-25T13:49:50Z</time><name>PT2835</name></trkpt>
<trkpt lat="53.213761" lon="-1.968251"><ele>442</ele><time>2022-11-25T13:49:56Z</time><name>PT2836</name></trkpt>
<trkpt lat="53.213740" lon="-1.968312"><ele>442</ele><time>2022-11-25T13:50:01Z</time><name>PT2837</name></trkpt>
<trkpt lat="53.213737" lon="-1.968309"><ele>441</ele><time>2022-11-25T13:50:04Z</time><name>PT2838</name></trkpt>
<trkpt lat="53.213743" lon="-1.968329"><ele>442</ele><time>2022-11-25T13:50:16Z</time><name>PT2839</name></trkpt>
<trkpt lat="53.213748" lon="-1.968365"><ele>442</ele><time>2022-11-25T13:50:19Z</time><name>PT2840</name></trkpt>
<trkpt lat="53.213750" lon="-1.968416"><ele>443</ele><time>2022-11-25T13:50:23Z</time><name>PT2841</name></trkpt>
<trkpt lat="53.213748" lon="-1.968490"><ele>443</ele><time>2022-11-25T13:50:28Z</time><name>PT2842</name></trkpt>
<trkpt lat="53.213750" lon="-1.968553"><ele>443</ele><time>2022-11-25T13:50:31Z</time><name>PT2843</name></trkpt>
<trkpt lat="53.213750" lon="-1.968576"><ele>443</ele><time>2022-11-25T13:50:35Z</time><name>PT2844</name></trkpt>
<trkpt lat="53.213743" lon="-1.968581"><ele>443</ele><time>2022-11-25T13:50:40Z</time><name>PT2845</name></trkpt>
<trkpt lat="53.213746" lon="-1.968587"><ele>443</ele><time>2022-11-25T13:50:43Z</time><name>PT2846</name></trkpt>
<trkpt lat="53.213744" lon="-1.968589"><ele>443</ele><time>2022-11-25T13:50:46Z</time><name>PT2847</name></trkpt>
<trkpt lat="53.213749" lon="-1.968613"><ele>443</ele><time>2022-11-25T13:50:49Z</time><name>PT2848</name></trkpt>
<trkpt lat="53.213751" lon="-1.968639"><ele>444</ele><time>2022-11-25T13:50:53Z</time><name>PT2849</name></trkpt>
<trkpt lat="53.213750" lon="-1.968625"><ele>444</ele><time>2022-11-25T13:50:56Z</time><name>PT2850</name></trkpt>
<trkpt lat="53.213751" lon="-1.968625"><ele>444</ele><time>2022-11-25T13:50:59Z</time><name>PT2851</name></trkpt>
<trkpt lat="53.213748" lon="-1.968630"><ele>443</ele><time>2022-11-25T13:51:04Z</time><name>PT2852</name></trkpt>
<trkpt lat="53.213752" lon="-1.968673"><ele>443</ele><time>2022-11-25T13:51:07Z</time><name>PT2853</name></trkpt>
<trkpt lat="53.213752" lon="-1.968726"><ele>443</ele><time>2022-11-25T13:51:10Z</time><name>PT2854</name></trkpt>
<trkpt lat="53.213745" lon="-1.968787"><ele>442</ele><time>2022-11-25T13:51:14Z</time><name>PT2855</name></trkpt>
<trkpt lat="53.213736" lon="-1.968838"><ele>442</ele><time>2022-11-25T13:51:17Z</time><name>PT2856</name></trkpt>
<trkpt lat="53.213739" lon="-1.968897"><ele>442</ele><time>2022-11-25T13:51:20Z</time><name>PT2857</name></trkpt>
<trkpt lat="53.213743" lon="-1.968959"><ele>442</ele><time>2022-11-25T13:51:24Z</time><name>PT2858</name></trkpt>
<trkpt lat="53.213746" lon="-1.969037"><ele>442</ele><time>2022-11-25T13:51:28Z</time><name>PT2859</name></trkpt>
<trkpt lat="53.213749" lon="-1.969093"><ele>442</ele><time>2022-11-25T13:51:31Z</time><name>PT2860</name></trkpt>
<trkpt lat="53.213748" lon="-1.969191"><ele>443</ele><time>2022-11-25T13:51:34Z</time><name>PT2861</name></trkpt>
<trkpt lat="53.213747" lon="-1.969249"><ele>443</ele><time>2022-11-25T13:51:37Z</time><name>PT2862</name></trkpt>
<trkpt lat="53.213753" lon="-1.969325"><ele>443</ele><time>2022-11-25T13:51:41Z</time><name>PT2863</name></trkpt>
<trkpt lat="53.213756" lon="-1.969411"><ele>443</ele><time>2022-11-25T13:51:46Z</time><name>PT2864</name></trkpt>
<trkpt lat="53.213765" lon="-1.969484"><ele>443</ele><time>2022-11-25T13:51:49Z</time><name>PT2865</name></trkpt>
<trkpt lat="53.213772" lon="-1.969548"><ele>443</ele><time>2022-11-25T13:51:52Z</time><name>PT2866</name></trkpt>
<trkpt lat="53.213779" lon="-1.969619"><ele>443</ele><time>2022-11-25T13:51:56Z</time><name>PT2867</name></trkpt>
<trkpt lat="53.213778" lon="-1.969676"><ele>443</ele><time>2022-11-25T13:51:59Z</time><name>PT2868</name></trkpt>
<trkpt lat="53.213778" lon="-1.969734"><ele>443</ele><time>2022-11-25T13:52:02Z</time><name>PT2869</name></trkpt>
<trkpt lat="53.213776" lon="-1.969794"><ele>443</ele><time>2022-11-25T13:52:05Z</time><name>PT2870</name></trkpt>
<trkpt lat="53.213766" lon="-1.969872"><ele>443</ele><time>2022-11-25T13:52:10Z</time><name>PT2871</name></trkpt>
<trkpt lat="53.213764" lon="-1.969904"><ele>443</ele><time>2022-11-25T13:52:13Z</time><name>PT2872</name></trkpt>
<trkpt lat="53.213764" lon="-1.969950"><ele>443</ele><time>2022-11-25T13:52:16Z</time><name>PT2873</name></trkpt>
<trkpt lat="53.213773" lon="-1.970029"><ele>442</ele><time>2022-11-25T13:52:19Z</time><name>PT2874</name></trkpt>
<trkpt lat="53.213780" lon="-1.970110"><ele>442</ele><time>2022-11-25T13:52:24Z</time><name>PT2875</name></trkpt>
<trkpt lat="53.213786" lon="-1.970191"><ele>441</ele><time>2022-11-25T13:52:28Z</time><name>PT2876</name></trkpt>
<trkpt lat="53.213791" lon="-1.970266"><ele>441</ele><time>2022-11-25T13:52:31Z</time><name>PT2877</name></trkpt>
<trkpt lat="53.213792" lon="-1.970324"><ele>442</ele><time>2022-11-25T13:52:35Z</time><name>PT2878</name></trkpt>
<trkpt lat="53.213798" lon="-1.970399"><ele>445</ele><time>2022-11-25T13:52:40Z</time><name>PT2879</name></trkpt>
<trkpt lat="53.213808" lon="-1.970447"><ele>445</ele><time>2022-11-25T13:52:43Z</time><name>PT2880</name></trkpt>
<trkpt lat="53.213815" lon="-1.970515"><ele>445</ele><time>2022-11-25T13:52:46Z</time><name>PT2881</name></trkpt>
<trkpt lat="53.213830" lon="-1.970578"><ele>447</ele><time>2022-11-25T13:52:50Z</time><name>PT2882</name></trkpt>
<trkpt lat="53.213836" lon="-1.970633"><ele>447</ele><time>2022-11-25T13:52:53Z</time><name>PT2883</name></trkpt>
<trkpt lat="53.213850" lon="-1.970699"><ele>446</ele><time>2022-11-25T13:52:58Z</time><name>PT2884</name></trkpt>
<trkpt lat="53.213861" lon="-1.970749"><ele>446</ele><time>2022-11-25T13:53:01Z</time><name>PT2885</name></trkpt>
<trkpt lat="53.213871" lon="-1.970793"><ele>448</ele><time>2022-11-25T13:53:04Z</time><name>PT2886</name></trkpt>
<trkpt lat="53.213877" lon="-1.970832"><ele>447</ele><time>2022-11-25T13:53:07Z</time><name>PT2887</name></trkpt>
<trkpt lat="53.213881" lon="-1.970900"><ele>447</ele><time>2022-11-25T13:53:10Z</time><name>PT2888</name></trkpt>
<trkpt lat="53.213893" lon="-1.970932"><ele>449</ele><time>2022-11-25T13:53:13Z</time><name>PT2889</name></trkpt>
<trkpt lat="53.213903" lon="-1.970977"><ele>448</ele><time>2022-11-25T13:53:17Z</time><name>PT2890</name></trkpt>
<trkpt lat="53.213901" lon="-1.971012"><ele>446</ele><time>2022-11-25T13:53:20Z</time><name>PT2891</name></trkpt>
<trkpt lat="53.213891" lon="-1.971058"><ele>447</ele><time>2022-11-25T13:53:25Z</time><name>PT2892</name></trkpt>
<trkpt lat="53.213903" lon="-1.971090"><ele>448</ele><time>2022-11-25T13:53:28Z</time><name>PT2893</name></trkpt>
<trkpt lat="53.213880" lon="-1.971125"><ele>449</ele><time>2022-11-25T13:53:31Z</time><name>PT2894</name></trkpt>
<trkpt lat="53.213867" lon="-1.971181"><ele>447</ele><time>2022-11-25T13:53:34Z</time><name>PT2895</name></trkpt>
<trkpt lat="53.213860" lon="-1.971205"><ele>448</ele><time>2022-11-25T13:53:37Z</time><name>PT2896</name></trkpt>
<trkpt lat="53.213841" lon="-1.971261"><ele>447</ele><time>2022-11-25T13:53:41Z</time><name>PT2897</name></trkpt>
<trkpt lat="53.213822" lon="-1.971307"><ele>447</ele><time>2022-11-25T13:53:44Z</time><name>PT2898</name></trkpt>
<trkpt lat="53.213800" lon="-1.971370"><ele>447</ele><time>2022-11-25T13:53:49Z</time><name>PT2899</name></trkpt>
<trkpt lat="53.213780" lon="-1.971418"><ele>447</ele><time>2022-11-25T13:53:52Z</time><name>PT2900</name></trkpt>
<trkpt lat="53.213763" lon="-1.971464"><ele>447</ele><time>2022-11-25T13:53:55Z</time><name>PT2901</name></trkpt>
<trkpt lat="53.213746" lon="-1.971515"><ele>448</ele><time>2022-11-25T13:53:58Z</time><name>PT2902</name></trkpt>
<trkpt lat="53.213721" lon="-1.971579"><ele>449</ele><time>2022-11-25T13:54:02Z</time><name>PT2903</name></trkpt>
<trkpt lat="53.213699" lon="-1.971632"><ele>450</ele><time>2022-11-25T13:54:05Z</time><name>PT2904</name></trkpt>
<trkpt lat="53.213678" lon="-1.971691"><ele>450</ele><time>2022-11-25T13:54:08Z</time><name>PT2905</name></trkpt>
<trkpt lat="53.213652" lon="-1.971761"><ele>448</ele><time>2022-11-25T13:54:13Z</time><name>PT2906</name></trkpt>
<trkpt lat="53.213637" lon="-1.971809"><ele>446</ele><time>2022-11-25T13:54:16Z</time><name>PT2907</name></trkpt>
<trkpt lat="53.213612" lon="-1.971868"><ele>445</ele><time>2022-11-25T13:54:19Z</time><name>PT2908</name></trkpt>
<trkpt lat="53.213584" lon="-1.971933"><ele>445</ele><time>2022-11-25T13:54:23Z</time><name>PT2909</name></trkpt>
<trkpt lat="53.213569" lon="-1.971986"><ele>445</ele><time>2022-11-25T13:54:26Z</time><name>PT2910</name></trkpt>
<trkpt lat="53.213539" lon="-1.972040"><ele>442</ele><time>2022-11-25T13:54:31Z</time><name>PT2911</name></trkpt>
<trkpt lat="53.213522" lon="-1.972088"><ele>441</ele><time>2022-11-25T13:54:34Z</time><name>PT2912</name></trkpt>
<trkpt lat="53.213493" lon="-1.972155"><ele>442</ele><time>2022-11-25T13:54:37Z</time><name>PT2913</name></trkpt>
<trkpt lat="53.213468" lon="-1.972238"><ele>444</ele><time>2022-11-25T13:54:41Z</time><name>PT2914</name></trkpt>
<trkpt lat="53.213436" lon="-1.972326"><ele>444</ele><time>2022-11-25T13:54:46Z</time><name>PT2915</name></trkpt>
<trkpt lat="53.213416" lon="-1.972378"><ele>442</ele><time>2022-11-25T13:54:49Z</time><name>PT2916</name></trkpt>
<trkpt lat="53.213390" lon="-1.972457"><ele>442</ele><time>2022-11-25T13:54:52Z</time><name>PT2917</name></trkpt>
<trkpt lat="53.213369" lon="-1.972513"><ele>441</ele><time>2022-11-25T13:54:55Z</time><name>PT2918</name></trkpt>
<trkpt lat="53.213334" lon="-1.972591"><ele>442</ele><time>2022-11-25T13:54:59Z</time><name>PT2919</name></trkpt>
<trkpt lat="53.213305" lon="-1.972648"><ele>442</ele><time>2022-11-25T13:55:04Z</time><name>PT2920</name></trkpt>
<trkpt lat="53.213280" lon="-1.972716"><ele>441</ele><time>2022-11-25T13:55:07Z</time><name>PT2921</name></trkpt>
<trkpt lat="53.213247" lon="-1.972779"><ele>441</ele><time>2022-11-25T13:55:11Z</time><name>PT2922</name></trkpt>
<trkpt lat="53.213204" lon="-1.972820"><ele>440</ele><time>2022-11-25T13:55:16Z</time><name>PT2923</name></trkpt>
<trkpt lat="53.213171" lon="-1.972848"><ele>441</ele><time>2022-11-25T13:55:19Z</time><name>PT2924</name></trkpt>
<trkpt lat="53.213131" lon="-1.972896"><ele>441</ele><time>2022-11-25T13:55:22Z</time><name>PT2925</name></trkpt>
<trkpt lat="53.213094" lon="-1.972920"><ele>440</ele><time>2022-11-25T13:55:26Z</time><name>PT2926</name></trkpt>
<trkpt lat="53.213083" lon="-1.972935"><ele>441</ele><time>2022-11-25T13:55:31Z</time><name>PT2927</name></trkpt>
<trkpt lat="53.213076" lon="-1.972950"><ele>442</ele><time>2022-11-25T13:55:34Z</time><name>PT2928</name></trkpt>
<trkpt lat="53.213057" lon="-1.972998"><ele>442</ele><time>2022-11-25T13:55:38Z</time><name>PT2929</name></trkpt>
<trkpt lat="53.213066" lon="-1.973025"><ele>441</ele><time>2022-11-25T13:55:43Z</time><name>PT2930</name></trkpt>
<trkpt lat="53.213068" lon="-1.973026"><ele>442</ele><time>2022-11-25T13:55:46Z</time><name>PT2931</name></trkpt>
<trkpt lat="53.213069" lon="-1.973024"><ele>442</ele><time>2022-11-25T13:55:50Z</time><name>PT2932</name></trkpt>
<trkpt lat="53.213083" lon="-1.973067"><ele>443</ele><time>2022-11-25T13:55:53Z</time><name>PT2933</name></trkpt>
<trkpt lat="53.213111" lon="-1.973129"><ele>443</ele><time>2022-11-25T13:55:56Z</time><name>PT2934</name></trkpt>
<trkpt lat="53.213141" lon="-1.973195"><ele>443</ele><time>2022-11-25T13:56:01Z</time><name>PT2935</name></trkpt>
<trkpt lat="53.213148" lon="-1.973238"><ele>444</ele><time>2022-11-25T13:56:04Z</time><name>PT2936</name></trkpt>
<trkpt lat="53.213147" lon="-1.973247"><ele>442</ele><time>2022-11-25T13:56:07Z</time><name>PT2937</name></trkpt>
<trkpt lat="53.213149" lon="-1.973249"><ele>442</ele><time>2022-11-25T13:56:22Z</time><name>PT2938</name></trkpt>
<trkpt lat="53.213149" lon="-1.973255"><ele>441</ele><time>2022-11-25T13:56:25Z</time><name>PT2939</name></trkpt>
<trkpt lat="53.213165" lon="-1.973288"><ele>442</ele><time>2022-11-25T13:56:28Z</time><name>PT2940</name></trkpt>
<trkpt lat="53.213170" lon="-1.973342"><ele>442</ele><time>2022-11-25T13:56:32Z</time><name>PT2941</name></trkpt>
<trkpt lat="53.213173" lon="-1.973405"><ele>442</ele><time>2022-11-25T13:56:37Z</time><name>PT2942</name></trkpt>
<trkpt lat="53.213170" lon="-1.973455"><ele>443</ele><time>2022-11-25T13:56:40Z</time><name>PT2943</name></trkpt>
<trkpt lat="53.213164" lon="-1.973527"><ele>443</ele><time>2022-11-25T13:56:43Z</time><name>PT2944</name></trkpt>
<trkpt lat="53.213159" lon="-1.973585"><ele>443</ele><time>2022-11-25T13:56:46Z</time><name>PT2945</name></trkpt>
<trkpt lat="53.213147" lon="-1.973662"><ele>443</ele><time>2022-11-25T13:56:50Z</time><name>PT2946</name></trkpt>
<trkpt lat="53.213138" lon="-1.973731"><ele>443</ele><time>2022-11-25T13:56:55Z</time><name>PT2947</name></trkpt>
<trkpt lat="53.213133" lon="-1.973781"><ele>442</ele><time>2022-11-25T13:56:58Z</time><name>PT2948</name></trkpt>
<trkpt lat="53.213127" lon="-1.973844"><ele>441</ele><time>2022-11-25T13:57:01Z</time><name>PT2949</name></trkpt>
<trkpt lat="53.213120" lon="-1.973893"><ele>441</ele><time>2022-11-25T13:57:04Z</time><name>PT2950</name></trkpt>
<trkpt lat="53.213111" lon="-1.973953"><ele>441</ele><time>2022-11-25T13:57:07Z</time><name>PT2951</name></trkpt>
<trkpt lat="53.213097" lon="-1.974037"><ele>442</ele><time>2022-11-25T13:57:10Z</time><name>PT2952</name></trkpt>
<trkpt lat="53.213089" lon="-1.974105"><ele>442</ele><time>2022-11-25T13:57:14Z</time><name>PT2953</name></trkpt>
<trkpt lat="53.213080" lon="-1.974157"><ele>441</ele><time>2022-11-25T13:57:17Z</time><name>PT2954</name></trkpt>
<trkpt lat="53.213070" lon="-1.974235"><ele>442</ele><time>2022-11-25T13:57:22Z</time><name>PT2955</name></trkpt>
<trkpt lat="53.213068" lon="-1.974299"><ele>442</ele><time>2022-11-25T13:57:25Z</time><name>PT2956</name></trkpt>
<trkpt lat="53.213068" lon="-1.974382"><ele>443</ele><time>2022-11-25T13:57:28Z</time><name>PT2957</name></trkpt>
<trkpt lat="53.213072" lon="-1.974445"><ele>443</ele><time>2022-11-25T13:57:31Z</time><name>PT2958</name></trkpt>
<trkpt lat="53.213077" lon="-1.974501"><ele>444</ele><time>2022-11-25T13:57:34Z</time><name>PT2959</name></trkpt>
<trkpt lat="53.213090" lon="-1.974574"><ele>443</ele><time>2022-11-25T13:57:38Z</time><name>PT2960</name></trkpt>
<trkpt lat="53.213102" lon="-1.974653"><ele>444</ele><time>2022-11-25T13:57:43Z</time><name>PT2961</name></trkpt>
<trkpt lat="53.213117" lon="-1.974728"><ele>444</ele><time>2022-11-25T13:57:46Z</time><name>PT2962</name></trkpt>
<trkpt lat="53.213140" lon="-1.974832"><ele>446</ele><time>2022-11-25T13:57:50Z</time><name>PT2963</name></trkpt>
<trkpt lat="53.213162" lon="-1.974904"><ele>447</ele><time>2022-11-25T13:57:55Z</time><name>PT2964</name></trkpt>
<trkpt lat="53.213176" lon="-1.974975"><ele>448</ele><time>2022-11-25T13:57:58Z</time><name>PT2965</name></trkpt>
<trkpt lat="53.213191" lon="-1.975031"><ele>448</ele><time>2022-11-25T13:58:01Z</time><name>PT2966</name></trkpt>
<trkpt lat="53.213210" lon="-1.975098"><ele>449</ele><time>2022-11-25T13:58:04Z</time><name>PT2967</name></trkpt>
<trkpt lat="53.213229" lon="-1.975152"><ele>449</ele><time>2022-11-25T13:58:07Z</time><name>PT2968</name></trkpt>
<trkpt lat="53.213254" lon="-1.975221"><ele>449</ele><time>2022-11-25T13:58:11Z</time><name>PT2969</name></trkpt>
<trkpt lat="53.213275" lon="-1.975266"><ele>448</ele><time>2022-11-25T13:58:14Z</time><name>PT2970</name></trkpt>
<trkpt lat="53.213309" lon="-1.975339"><ele>449</ele><time>2022-11-25T13:58:19Z</time><name>PT2971</name></trkpt>
<trkpt lat="53.213334" lon="-1.975383"><ele>448</ele><time>2022-11-25T13:58:22Z</time><name>PT2972</name></trkpt>
<trkpt lat="53.213369" lon="-1.975454"><ele>448</ele><time>2022-11-25T13:58:25Z</time><name>PT2973</name></trkpt>
<trkpt lat="53.213398" lon="-1.975496"><ele>448</ele><time>2022-11-25T13:58:28Z</time><name>PT2974</name></trkpt>
<trkpt lat="53.213437" lon="-1.975563"><ele>448</ele><time>2022-11-25T13:58:32Z</time><name>PT2975</name></trkpt>
<trkpt lat="53.213472" lon="-1.975621"><ele>447</ele><time>2022-11-25T13:58:37Z</time><name>PT2976</name></trkpt>
<trkpt lat="53.213501" lon="-1.975664"><ele>447</ele><time>2022-11-25T13:58:40Z</time><name>PT2977</name></trkpt>
<trkpt lat="53.213542" lon="-1.975709"><ele>447</ele><time>2022-11-25T13:58:43Z</time><name>PT2978</name></trkpt>
<trkpt lat="53.213570" lon="-1.975740"><ele>447</ele><time>2022-11-25T13:58:46Z</time><name>PT2979</name></trkpt>
<trkpt lat="53.213598" lon="-1.975775"><ele>447</ele><time>2022-11-25T13:58:49Z</time><name>PT2980</name></trkpt>
<trkpt lat="53.213629" lon="-1.975829"><ele>446</ele><time>2022-11-25T13:58:53Z</time><name>PT2981</name></trkpt>
<trkpt lat="53.213656" lon="-1.975852"><ele>446</ele><time>2022-11-25T13:58:56Z</time><name>PT2982</name></trkpt>
<trkpt lat="53.213682" lon="-1.975892"><ele>446</ele><time>2022-11-25T13:58:59Z</time><name>PT2983</name></trkpt>
<trkpt lat="53.213686" lon="-1.975903"><ele>445</ele><time>2022-11-25T13:59:04Z</time><name>PT2984</name></trkpt>
<trkpt lat="53.213702" lon="-1.975944"><ele>445</ele><time>2022-11-25T13:59:07Z</time><name>PT2985</name></trkpt>
<trkpt lat="53.213727" lon="-1.975973"><ele>445</ele><time>2022-11-25T13:59:10Z</time><name>PT2986</name></trkpt>
<trkpt lat="53.213750" lon="-1.976009"><ele>445</ele><time>2022-11-25T13:59:13Z</time><name>PT2987</name></trkpt>
<trkpt lat="53.213786" lon="-1.976052"><ele>445</ele><time>2022-11-25T13:59:16Z</time><name>PT2988</name></trkpt>
<trkpt lat="53.213813" lon="-1.976087"><ele>446</ele><time>2022-11-25T13:59:19Z</time><name>PT2989</name></trkpt>
<trkpt lat="53.213842" lon="-1.976123"><ele>446</ele><time>2022-11-25T13:59:22Z</time><name>PT2990</name></trkpt>
<trkpt lat="53.213877" lon="-1.976172"><ele>446</ele><time>2022-11-25T13:59:25Z</time><name>PT2991</name></trkpt>
<trkpt lat="53.213917" lon="-1.976222"><ele>446</ele><time>2022-11-25T13:59:29Z</time><name>PT2992</name></trkpt>
<trkpt lat="53.213947" lon="-1.976270"><ele>446</ele><time>2022-11-25T13:59:34Z</time><name>PT2993</name></trkpt>
<trkpt lat="53.213975" lon="-1.976309"><ele>445</ele><time>2022-11-25T13:59:37Z</time><name>PT2994</name></trkpt>
<trkpt lat="53.214009" lon="-1.976355"><ele>444</ele><time>2022-11-25T13:59:40Z</time><name>PT2995</name></trkpt>
<trkpt lat="53.214041" lon="-1.976388"><ele>444</ele><time>2022-11-25T13:59:43Z</time><name>PT2996</name></trkpt>
<trkpt lat="53.214072" lon="-1.976430"><ele>443</ele><time>2022-11-25T13:59:47Z</time><name>PT2997</name></trkpt>
<trkpt lat="53.214106" lon="-1.976453"><ele>443</ele><time>2022-11-25T13:59:50Z</time><name>PT2998</name></trkpt>
<trkpt lat="53.214149" lon="-1.976483"><ele>442</ele><time>2022-11-25T13:59:55Z</time><name>PT2999</name></trkpt>
<trkpt lat="53.214180" lon="-1.976511"><ele>442</ele><time>2022-11-25T13:59:58Z</time><name>PT3000</name></trkpt>
<trkpt lat="53.214220" lon="-1.976558"><ele>441</ele><time>2022-11-25T14:00:01Z</time><name>PT3001</name></trkpt>
<trkpt lat="53.214262" lon="-1.976610"><ele>441</ele><time>2022-11-25T14:00:05Z</time><name>PT3002</name></trkpt>
<trkpt lat="53.214286" lon="-1.976643"><ele>440</ele><time>2022-11-25T14:00:08Z</time><name>PT3003</name></trkpt>
<trkpt lat="53.214328" lon="-1.976704"><ele>440</ele><time>2022-11-25T14:00:13Z</time><name>PT3004</name></trkpt>
<trkpt lat="53.214358" lon="-1.976742"><ele>440</ele><time>2022-11-25T14:00:16Z</time><name>PT3005</name></trkpt>
<trkpt lat="53.214396" lon="-1.976800"><ele>440</ele><time>2022-11-25T14:00:19Z</time><name>PT3006</name></trkpt>
<trkpt lat="53.214438" lon="-1.976853"><ele>439</ele><time>2022-11-25T14:00:23Z</time><name>PT3007</name></trkpt>
<trkpt lat="53.214466" lon="-1.976899"><ele>439</ele><time>2022-11-25T14:00:26Z</time><name>PT3008</name></trkpt>
<trkpt lat="53.214505" lon="-1.976947"><ele>440</ele><time>2022-11-25T14:00:31Z</time><name>PT3009</name></trkpt>
<trkpt lat="53.214534" lon="-1.976990"><ele>440</ele><time>2022-11-25T14:00:34Z</time><name>PT3010</name></trkpt>
<trkpt lat="53.214573" lon="-1.977033"><ele>439</ele><time>2022-11-25T14:00:37Z</time><name>PT3011</name></trkpt>
<trkpt lat="53.214601" lon="-1.977069"><ele>438</ele><time>2022-11-25T14:00:40Z</time><name>PT3012</name></trkpt>
<trkpt lat="53.214629" lon="-1.977124"><ele>437</ele><time>2022-11-25T14:00:44Z</time><name>PT3013</name></trkpt>
<trkpt lat="53.214656" lon="-1.977166"><ele>437</ele><time>2022-11-25T14:00:47Z</time><name>PT3014</name></trkpt>
<trkpt lat="53.214685" lon="-1.977205"><ele>437</ele><time>2022-11-25T14:00:50Z</time><name>PT3015</name></trkpt>
<trkpt lat="53.214711" lon="-1.977242"><ele>436</ele><time>2022-11-25T14:00:55Z</time><name>PT3016</name></trkpt>
<trkpt lat="53.214740" lon="-1.977289"><ele>436</ele><time>2022-11-25T14:00:58Z</time><name>PT3017</name></trkpt>
<trkpt lat="53.214778" lon="-1.977340"><ele>435</ele><time>2022-11-25T14:01:01Z</time><name>PT3018</name></trkpt>
<trkpt lat="53.214812" lon="-1.977375"><ele>435</ele><time>2022-11-25T14:01:04Z</time><name>PT3019</name></trkpt>
<trkpt lat="53.214861" lon="-1.977417"><ele>435</ele><time>2022-11-25T14:01:08Z</time><name>PT3020</name></trkpt>
<trkpt lat="53.214889" lon="-1.977432"><ele>435</ele><time>2022-11-25T14:01:11Z</time><name>PT3021</name></trkpt>
<trkpt lat="53.214922" lon="-1.977448"><ele>434</ele><time>2022-11-25T14:01:14Z</time><name>PT3022</name></trkpt>
<trkpt lat="53.214958" lon="-1.977451"><ele>432</ele><time>2022-11-25T14:01:17Z</time><name>PT3023</name></trkpt>
<trkpt lat="53.214997" lon="-1.977440"><ele>432</ele><time>2022-11-25T14:01:22Z</time><name>PT3024</name></trkpt>
<trkpt lat="53.215021" lon="-1.977444"><ele>431</ele><time>2022-11-25T14:01:25Z</time><name>PT3025</name></trkpt>
<trkpt lat="53.215031" lon="-1.977449"><ele>430</ele><time>2022-11-25T14:01:28Z</time><name>PT3026</name></trkpt>
<trkpt lat="53.215062" lon="-1.977459"><ele>429</ele><time>2022-11-25T14:01:31Z</time><name>PT3027</name></trkpt>
<trkpt lat="53.215102" lon="-1.977478"><ele>429</ele><time>2022-11-25T14:01:34Z</time><name>PT3028</name></trkpt>
<trkpt lat="53.215132" lon="-1.977488"><ele>428</ele><time>2022-11-25T14:01:38Z</time><name>PT3029</name></trkpt>
<trkpt lat="53.215159" lon="-1.977503"><ele>429</ele><time>2022-11-25T14:01:41Z</time><name>PT3030</name></trkpt>
<trkpt lat="53.215189" lon="-1.977515"><ele>429</ele><time>2022-11-25T14:01:44Z</time><name>PT3031</name></trkpt>
<trkpt lat="53.215211" lon="-1.977534"><ele>427</ele><time>2022-11-25T14:01:47Z</time><name>PT3032</name></trkpt>
<trkpt lat="53.215254" lon="-1.977552"><ele>428</ele><time>2022-11-25T14:01:52Z</time><name>PT3033</name></trkpt>
<trkpt lat="53.215282" lon="-1.977572"><ele>425</ele><time>2022-11-25T14:01:55Z</time><name>PT3034</name></trkpt>
<trkpt lat="53.215321" lon="-1.977596"><ele>423</ele><time>2022-11-25T14:01:58Z</time><name>PT3035</name></trkpt>
<trkpt lat="53.215341" lon="-1.977616"><ele>419</ele><time>2022-11-25T14:02:01Z</time><name>PT3036</name></trkpt>
<trkpt lat="53.215369" lon="-1.977639"><ele>418</ele><time>2022-11-25T14:02:04Z</time><name>PT3037</name></trkpt>
<trkpt lat="53.215404" lon="-1.977678"><ele>416</ele><time>2022-11-25T14:02:08Z</time><name>PT3038</name></trkpt>
<trkpt lat="53.215425" lon="-1.977710"><ele>414</ele><time>2022-11-25T14:02:11Z</time><name>PT3039</name></trkpt>
<trkpt lat="53.215462" lon="-1.977735"><ele>415</ele><time>2022-11-25T14:02:14Z</time><name>PT3040</name></trkpt>
<trkpt lat="53.215499" lon="-1.977764"><ele>416</ele><time>2022-11-25T14:02:17Z</time><name>PT3041</name></trkpt>
<trkpt lat="53.215558" lon="-1.977801"><ele>419</ele><time>2022-11-25T14:02:20Z</time><name>PT3042</name></trkpt>
<trkpt lat="53.215622" lon="-1.977840"><ele>421</ele><time>2022-11-25T14:02:25Z</time><name>PT3043</name></trkpt>
<trkpt lat="53.215654" lon="-1.977875"><ele>421</ele><time>2022-11-25T14:02:28Z</time><name>PT3044</name></trkpt>
<trkpt lat="53.215691" lon="-1.977904"><ele>420</ele><time>2022-11-25T14:02:31Z</time><name>PT3045</name></trkpt>
<trkpt lat="53.215715" lon="-1.977926"><ele>418</ele><time>2022-11-25T14:02:34Z</time><name>PT3046</name></trkpt>
<trkpt lat="53.215759" lon="-1.977968"><ele>416</ele><time>2022-11-25T14:02:37Z</time><name>PT3047</name></trkpt>
<trkpt lat="53.215797" lon="-1.977989"><ele>415</ele><time>2022-11-25T14:02:41Z</time><name>PT3048</name></trkpt>
<trkpt lat="53.215835" lon="-1.978011"><ele>412</ele><time>2022-11-25T14:02:46Z</time><name>PT3049</name></trkpt>
<trkpt lat="53.215888" lon="-1.978037"><ele>412</ele><time>2022-11-25T14:02:50Z</time><name>PT3050</name></trkpt>
<trkpt lat="53.215954" lon="-1.978069"><ele>415</ele><time>2022-11-25T14:02:53Z</time><name>PT3051</name></trkpt>
<trkpt lat="53.215992" lon="-1.978144"><ele>419</ele><time>2022-11-25T14:02:58Z</time><name>PT3052</name></trkpt>
<trkpt lat="53.216013" lon="-1.978189"><ele>419</ele><time>2022-11-25T14:03:01Z</time><name>PT3053</name></trkpt>
<trkpt lat="53.216036" lon="-1.978218"><ele>418</ele><time>2022-11-25T14:03:05Z</time><name>PT3054</name></trkpt>
<trkpt lat="53.216072" lon="-1.978221"><ele>416</ele><time>2022-11-25T14:03:10Z</time><name>PT3055</name></trkpt>
<trkpt lat="53.216104" lon="-1.978223"><ele>415</ele><time>2022-11-25T14:03:13Z</time><name>PT3056</name></trkpt>
<trkpt lat="53.216132" lon="-1.978228"><ele>415</ele><time>2022-11-25T14:03:16Z</time><name>PT3057</name></trkpt>
<trkpt lat="53.216168" lon="-1.978235"><ele>414</ele><time>2022-11-25T14:03:19Z</time><name>PT3058</name></trkpt>
<trkpt lat="53.216195" lon="-1.978247"><ele>413</ele><time>2022-11-25T14:03:22Z</time><name>PT3059</name></trkpt>
<trkpt lat="53.216227" lon="-1.978250"><ele>413</ele><time>2022-11-25T14:03:26Z</time><name>PT3060</name></trkpt>
<trkpt lat="53.216276" lon="-1.978262"><ele>412</ele><time>2022-11-25T14:03:31Z</time><name>PT3061</name></trkpt>
<trkpt lat="53.216303" lon="-1.978293"><ele>410</ele><time>2022-11-25T14:03:34Z</time><name>PT3062</name></trkpt>
<trkpt lat="53.216318" lon="-1.978316"><ele>409</ele><time>2022-11-25T14:03:37Z</time><name>PT3063</name></trkpt>
<trkpt lat="53.216358" lon="-1.978336"><ele>409</ele><time>2022-11-25T14:03:41Z</time><name>PT3064</name></trkpt>
<trkpt lat="53.216389" lon="-1.978357"><ele>409</ele><time>2022-11-25T14:03:44Z</time><name>PT3065</name></trkpt>
<trkpt lat="53.216430" lon="-1.978378"><ele>408</ele><time>2022-11-25T14:03:49Z</time><name>PT3066</name></trkpt>
<trkpt lat="53.216463" lon="-1.978403"><ele>407</ele><time>2022-11-25T14:03:52Z</time><name>PT3067</name></trkpt>
<trkpt lat="53.216493" lon="-1.978422"><ele>406</ele><time>2022-11-25T14:03:55Z</time><name>PT3068</name></trkpt>
<trkpt lat="53.216523" lon="-1.978441"><ele>406</ele><time>2022-11-25T14:03:58Z</time><name>PT3069</name></trkpt>
<trkpt lat="53.216555" lon="-1.978455"><ele>406</ele><time>2022-11-25T14:04:01Z</time><name>PT3070</name></trkpt>
<trkpt lat="53.216592" lon="-1.978473"><ele>405</ele><time>2022-11-25T14:04:05Z</time><name>PT3071</name></trkpt>
<trkpt lat="53.216626" lon="-1.978476"><ele>404</ele><time>2022-11-25T14:04:08Z</time><name>PT3072</name></trkpt>
<trkpt lat="53.216658" lon="-1.978477"><ele>404</ele><time>2022-11-25T14:04:11Z</time><name>PT3073</name></trkpt>
<trkpt lat="53.216698" lon="-1.978465"><ele>403</ele><time>2022-11-25T14:04:16Z</time><name>PT3074</name></trkpt>
<trkpt lat="53.216731" lon="-1.978436"><ele>402</ele><time>2022-11-25T14:04:19Z</time><name>PT3075</name></trkpt>
<trkpt lat="53.216751" lon="-1.978406"><ele>402</ele><time>2022-11-25T14:04:23Z</time><name>PT3076</name></trkpt>
<trkpt lat="53.216748" lon="-1.978401"><ele>402</ele><time>2022-11-25T14:04:26Z</time><name>PT3077</name></trkpt>
<trkpt lat="53.216767" lon="-1.978374"><ele>402</ele><time>2022-11-25T14:04:31Z</time><name>PT3078</name></trkpt>
<trkpt lat="53.216787" lon="-1.978362"><ele>402</ele><time>2022-11-25T14:04:34Z</time><name>PT3079</name></trkpt>
<trkpt lat="53.216804" lon="-1.978324"><ele>402</ele><time>2022-11-25T14:04:37Z</time><name>PT3080</name></trkpt>
<trkpt lat="53.216824" lon="-1.978274"><ele>402</ele><time>2022-11-25T14:04:40Z</time><name>PT3081</name></trkpt>
<trkpt lat="53.216852" lon="-1.978210"><ele>402</ele><time>2022-11-25T14:04:43Z</time><name>PT3082</name></trkpt>
<trkpt lat="53.216882" lon="-1.978193"><ele>402</ele><time>2022-11-25T14:04:47Z</time><name>PT3083</name></trkpt>
<trkpt lat="53.216893" lon="-1.978192"><ele>402</ele><time>2022-11-25T14:04:50Z</time><name>PT3084</name></trkpt>
<trkpt lat="53.216907" lon="-1.978197"><ele>401</ele><time>2022-11-25T14:04:55Z</time><name>PT3085</name></trkpt>
<trkpt lat="53.216915" lon="-1.978211"><ele>401</ele><time>2022-11-25T14:04:58Z</time><name>PT3086</name></trkpt>
<trkpt lat="53.216917" lon="-1.978209"><ele>401</ele><time>2022-11-25T14:05:01Z</time><name>PT3087</name></trkpt>
<trkpt lat="53.216908" lon="-1.978217"><ele>400</ele><time>2022-11-25T14:05:04Z</time><name>PT3088</name></trkpt>
<trkpt lat="53.216914" lon="-1.978256"><ele>401</ele><time>2022-11-25T14:05:07Z</time><name>PT3089</name></trkpt>
<trkpt lat="53.216912" lon="-1.978285"><ele>400</ele><time>2022-11-25T14:05:11Z</time><name>PT3090</name></trkpt>
<trkpt lat="53.216910" lon="-1.978289"><ele>400</ele><time>2022-11-25T14:05:14Z</time><name>PT3091</name></trkpt>
<trkpt lat="53.216911" lon="-1.978295"><ele>400</ele><time>2022-11-25T14:05:19Z</time><name>PT3092</name></trkpt>
<trkpt lat="53.216900" lon="-1.978419"><ele>398</ele><time>2022-11-25T14:05:22Z</time><name>PT3093</name></trkpt>
<trkpt lat="53.216890" lon="-1.978488"><ele>397</ele><time>2022-11-25T14:05:25Z</time><name>PT3094</name></trkpt>
<trkpt lat="53.216882" lon="-1.978543"><ele>396</ele><time>2022-11-25T14:05:28Z</time><name>PT3095</name></trkpt>
<trkpt lat="53.216876" lon="-1.978574"><ele>395</ele><time>2022-11-25T14:05:32Z</time><name>PT3096</name></trkpt>
<trkpt lat="53.216874" lon="-1.978576"><ele>395</ele><time>2022-11-25T14:05:35Z</time><name>PT3097</name></trkpt>
<trkpt lat="53.216874" lon="-1.978561"><ele>396</ele><time>2022-11-25T14:05:38Z</time><name>PT3098</name></trkpt>
<trkpt lat="53.216872" lon="-1.978522"><ele>396</ele><time>2022-11-25T14:05:41Z</time><name>PT3099</name></trkpt>
<trkpt lat="53.216890" lon="-1.978477"><ele>396</ele><time>2022-11-25T14:05:46Z</time><name>PT3100</name></trkpt>
<trkpt lat="53.216901" lon="-1.978432"><ele>396</ele><time>2022-11-25T14:05:49Z</time><name>PT3101</name></trkpt>
<trkpt lat="53.216909" lon="-1.978380"><ele>396</ele><time>2022-11-25T14:05:52Z</time><name>PT3102</name></trkpt>
<trkpt lat="53.216910" lon="-1.978318"><ele>396</ele><time>2022-11-25T14:05:56Z</time><name>PT3103</name></trkpt>
<trkpt lat="53.216912" lon="-1.978270"><ele>397</ele><time>2022-11-25T14:05:59Z</time><name>PT3104</name></trkpt>
<trkpt lat="53.216928" lon="-1.978229"><ele>398</ele><time>2022-11-25T14:06:04Z</time><name>PT3105</name></trkpt>
<trkpt lat="53.216924" lon="-1.978178"><ele>399</ele><time>2022-11-25T14:06:07Z</time><name>PT3106</name></trkpt>
<trkpt lat="53.216913" lon="-1.978109"><ele>399</ele><time>2022-11-25T14:06:10Z</time><name>PT3107</name></trkpt>
<trkpt lat="53.216928" lon="-1.978061"><ele>399</ele><time>2022-11-25T14:06:14Z</time><name>PT3108</name></trkpt>
<trkpt lat="53.216935" lon="-1.978026"><ele>399</ele><time>2022-11-25T14:06:17Z</time><name>PT3109</name></trkpt>
<trkpt lat="53.216943" lon="-1.977990"><ele>399</ele><time>2022-11-25T14:06:20Z</time><name>PT3110</name></trkpt>
<trkpt lat="53.216943" lon="-1.977963"><ele>398</ele><time>2022-11-25T14:06:25Z</time><name>PT3111</name></trkpt>
<trkpt lat="53.216955" lon="-1.977931"><ele>398</ele><time>2022-11-25T14:06:28Z</time><name>PT3112</name></trkpt>
<trkpt lat="53.216978" lon="-1.977919"><ele>400</ele><time>2022-11-25T14:06:31Z</time><name>PT3113</name></trkpt>
<trkpt lat="53.216991" lon="-1.977887"><ele>400</ele><time>2022-11-25T14:06:35Z</time><name>PT3114</name></trkpt>
<trkpt lat="53.216986" lon="-1.977860"><ele>401</ele><time>2022-11-25T14:06:38Z</time><name>PT3115</name></trkpt>
<trkpt lat="53.216990" lon="-1.977822"><ele>401</ele><time>2022-11-25T14:06:41Z</time><name>PT3116</name></trkpt>
<trkpt lat="53.216998" lon="-1.977796"><ele>402</ele><time>2022-11-25T14:06:44Z</time><name>PT3117</name></trkpt>
<trkpt lat="53.217008" lon="-1.977783"><ele>401</ele><time>2022-11-25T14:06:49Z</time><name>PT3118</name></trkpt>
<trkpt lat="53.217028" lon="-1.977742"><ele>402</ele><time>2022-11-25T14:06:52Z</time><name>PT3119</name></trkpt>
<trkpt lat="53.217023" lon="-1.977710"><ele>403</ele><time>2022-11-25T14:06:56Z</time><name>PT3120</name></trkpt>
<trkpt lat="53.217035" lon="-1.977678"><ele>403</ele><time>2022-11-25T14:06:59Z</time><name>PT3121</name></trkpt>
<trkpt lat="53.217052" lon="-1.977647"><ele>404</ele><time>2022-11-25T14:07:04Z</time><name>PT3122</name></trkpt>
<trkpt lat="53.217058" lon="-1.977643"><ele>405</ele><time>2022-11-25T14:07:07Z</time><name>PT3123</name></trkpt>
<trkpt lat="53.217070" lon="-1.977602"><ele>406</ele><time>2022-11-25T14:07:10Z</time><name>PT3124</name></trkpt>
<trkpt lat="53.217084" lon="-1.977566"><ele>405</ele><time>2022-11-25T14:07:13Z</time><name>PT3125</name></trkpt>
<trkpt lat="53.217090" lon="-1.977551"><ele>406</ele><time>2022-11-25T14:07:17Z</time><name>PT3126</name></trkpt>
<trkpt lat="53.217099" lon="-1.977524"><ele>406</ele><time>2022-11-25T14:07:20Z</time><name>PT3127</name></trkpt>
<trkpt lat="53.217118" lon="-1.977482"><ele>407</ele><time>2022-11-25T14:07:25Z</time><name>PT3128</name></trkpt>
<trkpt lat="53.217136" lon="-1.977443"><ele>409</ele><time>2022-11-25T14:07:28Z</time><name>PT3129</name></trkpt>
<trkpt lat="53.217145" lon="-1.977430"><ele>407</ele><time>2022-11-25T14:07:32Z</time><name>PT3130</name></trkpt>
<trkpt lat="53.217145" lon="-1.977434"><ele>407</ele><time>2022-11-25T14:07:35Z</time><name>PT3131</name></trkpt>
<trkpt lat="53.217152" lon="-1.977409"><ele>408</ele><time>2022-11-25T14:07:40Z</time><name>PT3132</name></trkpt>
<trkpt lat="53.217159" lon="-1.977385"><ele>409</ele><time>2022-11-25T14:07:43Z</time><name>PT3133</name></trkpt>
<trkpt lat="53.217170" lon="-1.977353"><ele>409</ele><time>2022-11-25T14:07:46Z</time><name>PT3134</name></trkpt>
<trkpt lat="53.217179" lon="-1.977317"><ele>410</ele><time>2022-11-25T14:07:49Z</time><name>PT3135</name></trkpt>
<trkpt lat="53.217196" lon="-1.977273"><ele>412</ele><time>2022-11-25T14:07:52Z</time><name>PT3136</name></trkpt>
<trkpt lat="53.217215" lon="-1.977237"><ele>413</ele><time>2022-11-25T14:07:56Z</time><name>PT3137</name></trkpt>
<trkpt lat="53.217231" lon="-1.977190"><ele>413</ele><time>2022-11-25T14:08:01Z</time><name>PT3138</name></trkpt>
<trkpt lat="53.217242" lon="-1.977137"><ele>414</ele><time>2022-11-25T14:08:04Z</time><name>PT3139</name></trkpt>
<trkpt lat="53.217246" lon="-1.977095"><ele>415</ele><time>2022-11-25T14:08:08Z</time><name>PT3140</name></trkpt>
<trkpt lat="53.217260" lon="-1.977067"><ele>416</ele><time>2022-11-25T14:08:11Z</time><name>PT3141</name></trkpt>
<trkpt lat="53.217268" lon="-1.977048"><ele>418</ele><time>2022-11-25T14:08:14Z</time><name>PT3142</name></trkpt>
<trkpt lat="53.217271" lon="-1.977014"><ele>419</ele><time>2022-11-25T14:08:19Z</time><name>PT3143</name></trkpt>
<trkpt lat="53.217269" lon="-1.976985"><ele>420</ele><time>2022-11-25T14:08:22Z</time><name>PT3144</name></trkpt>
<trkpt lat="53.217266" lon="-1.976961"><ele>420</ele><time>2022-11-25T14:08:25Z</time><name>PT3145</name></trkpt>
<trkpt lat="53.217255" lon="-1.976926"><ele>421</ele><time>2022-11-25T14:08:28Z</time><name>PT3146</name></trkpt>
<trkpt lat="53.217253" lon="-1.976878"><ele>421</ele><time>2022-11-25T14:08:31Z</time><name>PT3147</name></trkpt>
<trkpt lat="53.217276" lon="-1.976838"><ele>422</ele><time>2022-11-25T14:08:35Z</time><name>PT3148</name></trkpt>
<trkpt lat="53.217286" lon="-1.976808"><ele>423</ele><time>2022-11-25T14:08:38Z</time><name>PT3149</name></trkpt>
<trkpt lat="53.217288" lon="-1.976773"><ele>423</ele><time>2022-11-25T14:08:43Z</time><name>PT3150</name></trkpt>
<trkpt lat="53.217292" lon="-1.976746"><ele>424</ele><time>2022-11-25T14:08:46Z</time><name>PT3151</name></trkpt>
<trkpt lat="53.217315" lon="-1.976713"><ele>425</ele><time>2022-11-25T14:08:49Z</time><name>PT3152</name></trkpt>
<trkpt lat="53.217336" lon="-1.976706"><ele>425</ele><time>2022-11-25T14:08:52Z</time><name>PT3153</name></trkpt>
<trkpt lat="53.217359" lon="-1.976700"><ele>425</ele><time>2022-11-25T14:08:55Z</time><name>PT3154</name></trkpt>
<trkpt lat="53.217375" lon="-1.976699"><ele>425</ele><time>2022-11-25T14:08:58Z</time><name>PT3155</name></trkpt>
<trkpt lat="53.217399" lon="-1.976700"><ele>426</ele><time>2022-11-25T14:09:02Z</time><name>PT3156</name></trkpt>
<trkpt lat="53.217424" lon="-1.976694"><ele>427</ele><time>2022-11-25T14:09:07Z</time><name>PT3157</name></trkpt>
<trkpt lat="53.217433" lon="-1.976678"><ele>427</ele><time>2022-11-25T14:09:10Z</time><name>PT3158</name></trkpt>
<trkpt lat="53.217455" lon="-1.976667"><ele>427</ele><time>2022-11-25T14:09:13Z</time><name>PT3159</name></trkpt>
<trkpt lat="53.217463" lon="-1.976664"><ele>427</ele><time>2022-11-25T14:09:16Z</time><name>PT3160</name></trkpt>
<trkpt lat="53.217466" lon="-1.976657"><ele>429</ele><time>2022-11-25T14:09:19Z</time><name>PT3161</name></trkpt>
<trkpt lat="53.217474" lon="-1.976659"><ele>428</ele><time>2022-11-25T14:09:23Z</time><name>PT3162</name></trkpt>
<trkpt lat="53.217476" lon="-1.976646"><ele>428</ele><time>2022-11-25T14:09:26Z</time><name>PT3163</name></trkpt>
<trkpt lat="53.217484" lon="-1.976640"><ele>428</ele><time>2022-11-25T14:09:29Z</time><name>PT3164</name></trkpt>
<trkpt lat="53.217496" lon="-1.976643"><ele>428</ele><time>2022-11-25T14:09:32Z</time><name>PT3165</name></trkpt>
<trkpt lat="53.217505" lon="-1.976647"><ele>428</ele><time>2022-11-25T14:09:35Z</time><name>PT3166</name></trkpt>
<trkpt lat="53.217516" lon="-1.976632"><ele>427</ele><time>2022-11-25T14:09:43Z</time><name>PT3167</name></trkpt>
<trkpt lat="53.217524" lon="-1.976616"><ele>427</ele><time>2022-11-25T14:09:50Z</time><name>PT3168</name></trkpt>
<trkpt lat="53.217550" lon="-1.976586"><ele>426</ele><time>2022-11-25T14:09:53Z</time><name>PT3169</name></trkpt>
<trkpt lat="53.217573" lon="-1.976537"><ele>427</ele><time>2022-11-25T14:09:58Z</time><name>PT3170</name></trkpt>
<trkpt lat="53.217585" lon="-1.976530"><ele>426</ele><time>2022-11-25T14:10:01Z</time><name>PT3171</name></trkpt>
<trkpt lat="53.217586" lon="-1.976526"><ele>426</ele><time>2022-11-25T14:10:04Z</time><name>PT3172</name></trkpt>
<trkpt lat="53.217590" lon="-1.976545"><ele>428</ele><time>2022-11-25T14:10:13Z</time><name>PT3173</name></trkpt>
<trkpt lat="53.217605" lon="-1.976538"><ele>429</ele><time>2022-11-25T14:10:20Z</time><name>PT3174</name></trkpt>
<trkpt lat="53.217616" lon="-1.976541"><ele>429</ele><time>2022-11-25T14:10:23Z</time><name>PT3175</name></trkpt>
<trkpt lat="53.217648" lon="-1.976557"><ele>428</ele><time>2022-11-25T14:10:28Z</time><name>PT3176</name></trkpt>
<trkpt lat="53.217663" lon="-1.976579"><ele>428</ele><time>2022-11-25T14:10:31Z</time><name>PT3177</name></trkpt>
<trkpt lat="53.217683" lon="-1.976595"><ele>427</ele><time>2022-11-25T14:10:34Z</time><name>PT3178</name></trkpt>
<trkpt lat="53.217696" lon="-1.976623"><ele>428</ele><time>2022-11-25T14:10:37Z</time><name>PT3179</name></trkpt>
<trkpt lat="53.217715" lon="-1.976648"><ele>427</ele><time>2022-11-25T14:10:40Z</time><name>PT3180</name></trkpt>
<trkpt lat="53.217747" lon="-1.976665"><ele>427</ele><time>2022-11-25T14:10:43Z</time><name>PT3181</name></trkpt>
<trkpt lat="53.217776" lon="-1.976679"><ele>427</ele><time>2022-11-25T14:10:47Z</time><name>PT3182</name></trkpt>
<trkpt lat="53.217793" lon="-1.976686"><ele>427</ele><time>2022-11-25T14:10:52Z</time><name>PT3183</name></trkpt>
<trkpt lat="53.217809" lon="-1.976694"><ele>427</ele><time>2022-11-25T14:10:55Z</time><name>PT3184</name></trkpt>
<trkpt lat="53.217830" lon="-1.976718"><ele>429</ele><time>2022-11-25T14:10:58Z</time><name>PT3185</name></trkpt>
<trkpt lat="53.217856" lon="-1.976720"><ele>429</ele><time>2022-11-25T14:11:01Z</time><name>PT3186</name></trkpt>
<trkpt lat="53.217871" lon="-1.976715"><ele>428</ele><time>2022-11-25T14:11:05Z</time><name>PT3187</name></trkpt>
<trkpt lat="53.217897" lon="-1.976715"><ele>427</ele><time>2022-11-25T14:11:13Z</time><name>PT3188</name></trkpt>
<trkpt lat="53.217916" lon="-1.976705"><ele>427</ele><time>2022-11-25T14:11:16Z</time><name>PT3189</name></trkpt>
<trkpt lat="53.217921" lon="-1.976714"><ele>426</ele><time>2022-11-25T14:11:19Z</time><name>PT3190</name></trkpt>
<trkpt lat="53.217964" lon="-1.976710"><ele>427</ele><time>2022-11-25T14:11:22Z</time><name>PT3191</name></trkpt>
<trkpt lat="53.218008" lon="-1.976710"><ele>427</ele><time>2022-11-25T14:11:26Z</time><name>PT3192</name></trkpt>
<trkpt lat="53.218044" lon="-1.976711"><ele>426</ele><time>2022-11-25T14:11:31Z</time><name>PT3193</name></trkpt>
<trkpt lat="53.218053" lon="-1.976711"><ele>426</ele><time>2022-11-25T14:11:34Z</time><name>PT3194</name></trkpt>
<trkpt lat="53.218059" lon="-1.976717"><ele>426</ele><time>2022-11-25T14:11:37Z</time><name>PT3195</name></trkpt>
<trkpt lat="53.218059" lon="-1.976717"><ele>426</ele><time>2022-11-25T14:11:41Z</time><name>PT3196</name></trkpt>
<trkpt lat="53.218052" lon="-1.976719"><ele>427</ele><time>2022-11-25T14:11:46Z</time><name>PT3197</name></trkpt>
<trkpt lat="53.218051" lon="-1.976719"><ele>427</ele><time>2022-11-25T14:11:49Z</time><name>PT3198</name></trkpt>
<trkpt lat="53.218051" lon="-1.976715"><ele>427</ele><time>2022-11-25T14:12:16Z</time><name>PT3199</name></trkpt>
<trkpt lat="53.218048" lon="-1.976714"><ele>427</ele><time>2022-11-25T14:12:20Z</time><name>PT3200</name></trkpt>
<trkpt lat="53.218045" lon="-1.976716"><ele>427</ele><time>2022-11-25T14:13:31Z</time><name>PT3201</name></trkpt>
<trkpt lat="53.218044" lon="-1.976716"><ele>428</ele><time>2022-11-25T14:13:35Z</time><name>PT3202</name></trkpt>
<trkpt lat="53.218038" lon="-1.976711"><ele>429</ele><time>2022-11-25T14:14:43Z</time><name>PT3203</name></trkpt>
<trkpt lat="53.218022" lon="-1.976686"><ele>431</ele><time>2022-11-25T14:14:46Z</time><name>PT3204</name></trkpt>
<trkpt lat="53.217995" lon="-1.976657"><ele>432</ele><time>2022-11-25T14:14:49Z</time><name>PT3205</name></trkpt>
<trkpt lat="53.217976" lon="-1.976643"><ele>432</ele><time>2022-11-25T14:14:52Z</time><name>PT3206</name></trkpt>
<trkpt lat="53.217967" lon="-1.976635"><ele>432</ele><time>2022-11-25T14:14:56Z</time><name>PT3207</name></trkpt>
<trkpt lat="53.217959" lon="-1.976613"><ele>433</ele><time>2022-11-25T14:15:01Z</time><name>PT3208</name></trkpt>
<trkpt lat="53.217949" lon="-1.976590"><ele>434</ele><time>2022-11-25T14:15:04Z</time><name>PT3209</name></trkpt>
<trkpt lat="53.217947" lon="-1.976557"><ele>434</ele><time>2022-11-25T14:15:07Z</time><name>PT3210</name></trkpt>
<trkpt lat="53.217944" lon="-1.976510"><ele>435</ele><time>2022-11-25T14:15:10Z</time><name>PT3211</name></trkpt>
<trkpt lat="53.217939" lon="-1.976481"><ele>435</ele><time>2022-11-25T14:15:13Z</time><name>PT3212</name></trkpt>
<trkpt lat="53.217927" lon="-1.976463"><ele>436</ele><time>2022-11-25T14:15:16Z</time><name>PT3213</name></trkpt>
<trkpt lat="53.217910" lon="-1.976455"><ele>438</ele><time>2022-11-25T14:15:19Z</time><name>PT3214</name></trkpt>
<trkpt lat="53.217899" lon="-1.976424"><ele>439</ele><time>2022-11-25T14:15:23Z</time><name>PT3215</name></trkpt>
<trkpt lat="53.217889" lon="-1.976394"><ele>440</ele><time>2022-11-25T14:15:28Z</time><name>PT3216</name></trkpt>
<trkpt lat="53.217885" lon="-1.976380"><ele>441</ele><time>2022-11-25T14:15:31Z</time><name>PT3217</name></trkpt>
<trkpt lat="53.217873" lon="-1.976374"><ele>442</ele><time>2022-11-25T14:15:34Z</time><name>PT3218</name></trkpt>
<trkpt lat="53.217872" lon="-1.976353"><ele>442</ele><time>2022-11-25T14:15:37Z</time><name>PT3219</name></trkpt>
<trkpt lat="53.217877" lon="-1.976325"><ele>442</ele><time>2022-11-25T14:15:41Z</time><name>PT3220</name></trkpt>
<trkpt lat="53.217865" lon="-1.976310"><ele>442</ele><time>2022-11-25T14:15:46Z</time><name>PT3221</name></trkpt>
<trkpt lat="53.217873" lon="-1.976302"><ele>443</ele><time>2022-11-25T14:15:49Z</time><name>PT3222</name></trkpt>
<trkpt lat="53.217893" lon="-1.976287"><ele>443</ele><time>2022-11-25T14:15:52Z</time><name>PT3223</name></trkpt>
<trkpt lat="53.217919" lon="-1.976259"><ele>442</ele><time>2022-11-25T14:15:55Z</time><name>PT3224</name></trkpt>
<trkpt lat="53.217945" lon="-1.976234"><ele>442</ele><time>2022-11-25T14:15:59Z</time><name>PT3225</name></trkpt>
<trkpt lat="53.217971" lon="-1.976207"><ele>442</ele><time>2022-11-25T14:16:04Z</time><name>PT3226</name></trkpt>
<trkpt lat="53.218002" lon="-1.976190"><ele>442</ele><time>2022-11-25T14:16:07Z</time><name>PT3227</name></trkpt>
<trkpt lat="53.218034" lon="-1.976170"><ele>443</ele><time>2022-11-25T14:16:10Z</time><name>PT3228</name></trkpt>
<trkpt lat="53.218063" lon="-1.976150"><ele>443</ele><time>2022-11-25T14:16:13Z</time><name>PT3229</name></trkpt>
<trkpt lat="53.218113" lon="-1.976141"><ele>445</ele><time>2022-11-25T14:16:17Z</time><name>PT3230</name></trkpt>
<trkpt lat="53.218136" lon="-1.976139"><ele>447</ele><time>2022-11-25T14:16:20Z</time><name>PT3231</name></trkpt>
<trkpt lat="53.218166" lon="-1.976139"><ele>449</ele><time>2022-11-25T14:16:23Z</time><name>PT3232</name></trkpt>
<trkpt lat="53.218207" lon="-1.976119"><ele>449</ele><time>2022-11-25T14:16:28Z</time><name>PT3233</name></trkpt>
<trkpt lat="53.218235" lon="-1.976120"><ele>449</ele><time>2022-11-25T14:16:31Z</time><name>PT3234</name></trkpt>
<trkpt lat="53.218264" lon="-1.976111"><ele>449</ele><time>2022-11-25T14:16:34Z</time><name>PT3235</name></trkpt>
<trkpt lat="53.218307" lon="-1.976092"><ele>451</ele><time>2022-11-25T14:16:38Z</time><name>PT3236</name></trkpt>
<trkpt lat="53.218354" lon="-1.976045"><ele>451</ele><time>2022-11-25T14:16:43Z</time><name>PT3237</name></trkpt>
<trkpt lat="53.218394" lon="-1.976022"><ele>451</ele><time>2022-11-25T14:16:46Z</time><name>PT3238</name></trkpt>
<trkpt lat="53.218437" lon="-1.975993"><ele>452</ele><time>2022-11-25T14:16:50Z</time><name>PT3239</name></trkpt>
<trkpt lat="53.218453" lon="-1.975963"><ele>453</ele><time>2022-11-25T14:16:53Z</time><name>PT3240</name></trkpt>
<trkpt lat="53.218467" lon="-1.975932"><ele>453</ele><time>2022-11-25T14:16:58Z</time><name>PT3241</name></trkpt>
<trkpt lat="53.218491" lon="-1.975926"><ele>453</ele><time>2022-11-25T14:17:01Z</time><name>PT3242</name></trkpt>
<trkpt lat="53.218509" lon="-1.975919"><ele>452</ele><time>2022-11-25T14:17:04Z</time><name>PT3243</name></trkpt>
<trkpt lat="53.218532" lon="-1.975856"><ele>452</ele><time>2022-11-25T14:17:07Z</time><name>PT3244</name></trkpt>
<trkpt lat="53.218554" lon="-1.975804"><ele>452</ele><time>2022-11-25T14:17:11Z</time><name>PT3245</name></trkpt>
<trkpt lat="53.218567" lon="-1.975789"><ele>453</ele><time>2022-11-25T14:17:14Z</time><name>PT3246</name></trkpt>
<trkpt lat="53.218593" lon="-1.975758"><ele>452</ele><time>2022-11-25T14:17:19Z</time><name>PT3247</name></trkpt>
<trkpt lat="53.218634" lon="-1.975700"><ele>452</ele><time>2022-11-25T14:17:22Z</time><name>PT3248</name></trkpt>
<trkpt lat="53.218662" lon="-1.975655"><ele>456</ele><time>2022-11-25T14:17:26Z</time><name>PT3249</name></trkpt>
<trkpt lat="53.218700" lon="-1.975627"><ele>458</ele><time>2022-11-25T14:17:31Z</time><name>PT3250</name></trkpt>
<trkpt lat="53.218729" lon="-1.975611"><ele>458</ele><time>2022-11-25T14:17:34Z</time><name>PT3251</name></trkpt>
<trkpt lat="53.218771" lon="-1.975585"><ele>457</ele><time>2022-11-25T14:17:37Z</time><name>PT3252</name></trkpt>
<trkpt lat="53.218804" lon="-1.975570"><ele>457</ele><time>2022-11-25T14:17:40Z</time><name>PT3253</name></trkpt>
<trkpt lat="53.218831" lon="-1.975545"><ele>457</ele><time>2022-11-25T14:17:43Z</time><name>PT3254</name></trkpt>
<trkpt lat="53.218861" lon="-1.975516"><ele>457</ele><time>2022-11-25T14:17:46Z</time><name>PT3255</name></trkpt>
<trkpt lat="53.218899" lon="-1.975505"><ele>457</ele><time>2022-11-25T14:17:50Z</time><name>PT3256</name></trkpt>
<trkpt lat="53.218935" lon="-1.975488"><ele>456</ele><time>2022-11-25T14:17:53Z</time><name>PT3257</name></trkpt>
<trkpt lat="53.218976" lon="-1.975468"><ele>455</ele><time>2022-11-25T14:17:58Z</time><name>PT3258</name></trkpt>
<trkpt lat="53.218997" lon="-1.975466"><ele>455</ele><time>2022-11-25T14:18:01Z</time><name>PT3259</name></trkpt>
<trkpt lat="53.219004" lon="-1.975459"><ele>455</ele><time>2022-11-25T14:18:04Z</time><name>PT3260</name></trkpt>
<trkpt lat="53.219009" lon="-1.975458"><ele>455</ele><time>2022-11-25T14:18:07Z</time><name>PT3261</name></trkpt>
<trkpt lat="53.219036" lon="-1.975443"><ele>454</ele><time>2022-11-25T14:18:10Z</time><name>PT3262</name></trkpt>
<trkpt lat="53.219063" lon="-1.975451"><ele>454</ele><time>2022-11-25T14:18:13Z</time><name>PT3263</name></trkpt>
<trkpt lat="53.219085" lon="-1.975496"><ele>455</ele><time>2022-11-25T14:18:17Z</time><name>PT3264</name></trkpt>
<trkpt lat="53.219085" lon="-1.975547"><ele>456</ele><time>2022-11-25T14:18:22Z</time><name>PT3265</name></trkpt>
<trkpt lat="53.219089" lon="-1.975597"><ele>455</ele><time>2022-11-25T14:18:25Z</time><name>PT3266</name></trkpt>
<trkpt lat="53.219086" lon="-1.975635"><ele>455</ele><time>2022-11-25T14:18:28Z</time><name>PT3267</name></trkpt>
<trkpt lat="53.219084" lon="-1.975658"><ele>455</ele><time>2022-11-25T14:18:31Z</time><name>PT3268</name></trkpt>
<trkpt lat="53.219078" lon="-1.975720"><ele>455</ele><time>2022-11-25T14:18:34Z</time><name>PT3269</name></trkpt>
<trkpt lat="53.219073" lon="-1.975753"><ele>454</ele><time>2022-11-25T14:18:38Z</time><name>PT3270</name></trkpt>
<trkpt lat="53.219074" lon="-1.975787"><ele>454</ele><time>2022-11-25T14:18:43Z</time><name>PT3271</name></trkpt>
<trkpt lat="53.219077" lon="-1.975822"><ele>454</ele><time>2022-11-25T14:18:46Z</time><name>PT3272</name></trkpt>
<trkpt lat="53.219077" lon="-1.975878"><ele>455</ele><time>2022-11-25T14:18:49Z</time><name>PT3273</name></trkpt>
<trkpt lat="53.219078" lon="-1.975921"><ele>455</ele><time>2022-11-25T14:18:52Z</time><name>PT3274</name></trkpt>
<trkpt lat="53.219075" lon="-1.975974"><ele>455</ele><time>2022-11-25T14:18:56Z</time><name>PT3275</name></trkpt>
<trkpt lat="53.219073" lon="-1.976018"><ele>455</ele><time>2022-11-25T14:19:01Z</time><name>PT3276</name></trkpt>
<trkpt lat="53.219075" lon="-1.976048"><ele>456</ele><time>2022-11-25T14:19:04Z</time><name>PT3277</name></trkpt>
<trkpt lat="53.219073" lon="-1.976059"><ele>454</ele><time>2022-11-25T14:19:07Z</time><name>PT3278</name></trkpt>
<trkpt lat="53.219073" lon="-1.976106"><ele>454</ele><time>2022-11-25T14:19:31Z</time><name>PT3279</name></trkpt>
<trkpt lat="53.219064" lon="-1.976155"><ele>454</ele><time>2022-11-25T14:19:34Z</time><name>PT3280</name></trkpt>
<trkpt lat="53.219056" lon="-1.976220"><ele>454</ele><time>2022-11-25T14:19:37Z</time><name>PT3281</name></trkpt>
<trkpt lat="53.219038" lon="-1.976275"><ele>454</ele><time>2022-11-25T14:19:41Z</time><name>PT3282</name></trkpt>
<trkpt lat="53.219016" lon="-1.976309"><ele>454</ele><time>2022-11-25T14:19:46Z</time><name>PT3283</name></trkpt>
<trkpt lat="53.218980" lon="-1.976353"><ele>453</ele><time>2022-11-25T14:19:49Z</time><name>PT3284</name></trkpt>
<trkpt lat="53.218960" lon="-1.976388"><ele>452</ele><time>2022-11-25T14:19:53Z</time><name>PT3285</name></trkpt>
<trkpt lat="53.218933" lon="-1.976425"><ele>452</ele><time>2022-11-25T14:19:58Z</time><name>PT3286</name></trkpt>
<trkpt lat="53.218907" lon="-1.976461"><ele>451</ele><time>2022-11-25T14:20:01Z</time><name>PT3287</name></trkpt>
<trkpt lat="53.218872" lon="-1.976523"><ele>451</ele><time>2022-11-25T14:20:04Z</time><name>PT3288</name></trkpt>
<trkpt lat="53.218844" lon="-1.976577"><ele>451</ele><time>2022-11-25T14:20:08Z</time><name>PT3289</name></trkpt>
<trkpt lat="53.218827" lon="-1.976612"><ele>451</ele><time>2022-11-25T14:20:11Z</time><name>PT3290</name></trkpt>
<trkpt lat="53.218805" lon="-1.976668"><ele>450</ele><time>2022-11-25T14:20:16Z</time><name>PT3291</name></trkpt>
<trkpt lat="53.218785" lon="-1.976736"><ele>450</ele><time>2022-11-25T14:20:19Z</time><name>PT3292</name></trkpt>
<trkpt lat="53.218766" lon="-1.976786"><ele>450</ele><time>2022-11-25T14:20:23Z</time><name>PT3293</name></trkpt>
<trkpt lat="53.218756" lon="-1.976809"><ele>451</ele><time>2022-11-25T14:20:28Z</time><name>PT3294</name></trkpt>
<trkpt lat="53.218755" lon="-1.976816"><ele>451</ele><time>2022-11-25T14:20:31Z</time><name>PT3295</name></trkpt>
<trkpt lat="53.218753" lon="-1.976842"><ele>451</ele><time>2022-11-25T14:20:34Z</time><name>PT3296</name></trkpt>
<trkpt lat="53.218735" lon="-1.976892"><ele>451</ele><time>2022-11-25T14:20:37Z</time><name>PT3297</name></trkpt>
<trkpt lat="53.218720" lon="-1.976936"><ele>451</ele><time>2022-11-25T14:20:40Z</time><name>PT3298</name></trkpt>
<trkpt lat="53.218699" lon="-1.976992"><ele>451</ele><time>2022-11-25T14:20:44Z</time><name>PT3299</name></trkpt>
<trkpt lat="53.218682" lon="-1.977026"><ele>451</ele><time>2022-11-25T14:20:47Z</time><name>PT3300</name></trkpt>
<trkpt lat="53.218664" lon="-1.977079"><ele>451</ele><time>2022-11-25T14:20:50Z</time><name>PT3301</name></trkpt>
<trkpt lat="53.218640" lon="-1.977146"><ele>451</ele><time>2022-11-25T14:20:55Z</time><name>PT3302</name></trkpt>
<trkpt lat="53.218619" lon="-1.977187"><ele>452</ele><time>2022-11-25T14:20:58Z</time><name>PT3303</name></trkpt>
<trkpt lat="53.218588" lon="-1.977248"><ele>451</ele><time>2022-11-25T14:21:01Z</time><name>PT3304</name></trkpt>
<trkpt lat="53.218558" lon="-1.977316"><ele>450</ele><time>2022-11-25T14:21:05Z</time><name>PT3305</name></trkpt>
<trkpt lat="53.218546" lon="-1.977367"><ele>450</ele><time>2022-11-25T14:21:08Z</time><name>PT3306</name></trkpt>
<trkpt lat="53.218525" lon="-1.977441"><ele>450</ele><time>2022-11-25T14:21:13Z</time><name>PT3307</name></trkpt>
<trkpt lat="53.218520" lon="-1.977487"><ele>451</ele><time>2022-11-25T14:21:16Z</time><name>PT3308</name></trkpt>
<trkpt lat="53.218510" lon="-1.977553"><ele>450</ele><time>2022-11-25T14:21:19Z</time><name>PT3309</name></trkpt>
<trkpt lat="53.218501" lon="-1.977614"><ele>451</ele><time>2022-11-25T14:21:22Z</time><name>PT3310</name></trkpt>
<trkpt lat="53.218484" lon="-1.977703"><ele>451</ele><time>2022-11-25T14:21:26Z</time><name>PT3311</name></trkpt>
<trkpt lat="53.218471" lon="-1.977788"><ele>451</ele><time>2022-11-25T14:21:31Z</time><name>PT3312</name></trkpt>
<trkpt lat="53.218463" lon="-1.977849"><ele>451</ele><time>2022-11-25T14:21:34Z</time><name>PT3313</name></trkpt>
<trkpt lat="53.218455" lon="-1.977910"><ele>451</ele><time>2022-11-25T14:21:37Z</time><name>PT3314</name></trkpt>
<trkpt lat="53.218451" lon="-1.977978"><ele>452</ele><time>2022-11-25T14:21:40Z</time><name>PT3315</name></trkpt>
<trkpt lat="53.218449" lon="-1.978066"><ele>452</ele><time>2022-11-25T14:21:43Z</time><name>PT3316</name></trkpt>
<trkpt lat="53.218448" lon="-1.978125"><ele>452</ele><time>2022-11-25T14:21:46Z</time><name>PT3317</name></trkpt>
<trkpt lat="53.218457" lon="-1.978180"><ele>452</ele><time>2022-11-25T14:21:49Z</time><name>PT3318</name></trkpt>
<trkpt lat="53.218466" lon="-1.978263"><ele>452</ele><time>2022-11-25T14:21:53Z</time><name>PT3319</name></trkpt>
<trkpt lat="53.218472" lon="-1.978316"><ele>453</ele><time>2022-11-25T14:21:56Z</time><name>PT3320</name></trkpt>
<trkpt lat="53.218479" lon="-1.978379"><ele>453</ele><time>2022-11-25T14:21:59Z</time><name>PT3321</name></trkpt>
<trkpt lat="53.218487" lon="-1.978439"><ele>453</ele><time>2022-11-25T14:22:02Z</time><name>PT3322</name></trkpt>
<trkpt lat="53.218502" lon="-1.978517"><ele>454</ele><time>2022-11-25T14:22:07Z</time><name>PT3323</name></trkpt>
<trkpt lat="53.218512" lon="-1.978577"><ele>454</ele><time>2022-11-25T14:22:10Z</time><name>PT3324</name></trkpt>
<trkpt lat="53.218528" lon="-1.978661"><ele>455</ele><time>2022-11-25T14:22:13Z</time><name>PT3325</name></trkpt>
<trkpt lat="53.218539" lon="-1.978720"><ele>455</ele><time>2022-11-25T14:22:16Z</time><name>PT3326</name></trkpt>
<trkpt lat="53.218555" lon="-1.978787"><ele>455</ele><time>2022-11-25T14:22:20Z</time><name>PT3327</name></trkpt>
<trkpt lat="53.218571" lon="-1.978843"><ele>455</ele><time>2022-11-25T14:22:23Z</time><name>PT3328</name></trkpt>
<trkpt lat="53.218583" lon="-1.978902"><ele>455</ele><time>2022-11-25T14:22:26Z</time><name>PT3329</name></trkpt>
<trkpt lat="53.218598" lon="-1.978962"><ele>455</ele><time>2022-11-25T14:22:29Z</time><name>PT3330</name></trkpt>
<trkpt lat="53.218619" lon="-1.979034"><ele>455</ele><time>2022-11-25T14:22:34Z</time><name>PT3331</name></trkpt>
<trkpt lat="53.218634" lon="-1.979083"><ele>455</ele><time>2022-11-25T14:22:37Z</time><name>PT3332</name></trkpt>
<trkpt lat="53.218653" lon="-1.979132"><ele>455</ele><time>2022-11-25T14:22:40Z</time><name>PT3333</name></trkpt>
<trkpt lat="53.218672" lon="-1.979181"><ele>455</ele><time>2022-11-25T14:22:43Z</time><name>PT3334</name></trkpt>
<trkpt lat="53.218698" lon="-1.979254"><ele>456</ele><time>2022-11-25T14:22:46Z</time><name>PT3335</name></trkpt>
<trkpt lat="53.218721" lon="-1.979327"><ele>456</ele><time>2022-11-25T14:22:50Z</time><name>PT3336</name></trkpt>
<trkpt lat="53.218740" lon="-1.979378"><ele>456</ele><time>2022-11-25T14:22:53Z</time><name>PT3337</name></trkpt>
<trkpt lat="53.218762" lon="-1.979446"><ele>456</ele><time>2022-11-25T14:22:58Z</time><name>PT3338</name></trkpt>
<trkpt lat="53.218789" lon="-1.979516"><ele>456</ele><time>2022-11-25T14:23:01Z</time><name>PT3339</name></trkpt>
<trkpt lat="53.218807" lon="-1.979564"><ele>456</ele><time>2022-11-25T14:23:04Z</time><name>PT3340</name></trkpt>
<trkpt lat="53.218822" lon="-1.979614"><ele>455</ele><time>2022-11-25T14:23:07Z</time><name>PT3341</name></trkpt>
<trkpt lat="53.218839" lon="-1.979686"><ele>454</ele><time>2022-11-25T14:23:11Z</time><name>PT3342</name></trkpt>
<trkpt lat="53.218865" lon="-1.979758"><ele>454</ele><time>2022-11-25T14:23:16Z</time><name>PT3343</name></trkpt>
<trkpt lat="53.218877" lon="-1.979812"><ele>453</ele><time>2022-11-25T14:23:19Z</time><name>PT3344</name></trkpt>
<trkpt lat="53.218895" lon="-1.979863"><ele>453</ele><time>2022-11-25T14:23:22Z</time><name>PT3345</name></trkpt>
<trkpt lat="53.218917" lon="-1.979934"><ele>453</ele><time>2022-11-25T14:23:25Z</time><name>PT3346</name></trkpt>
<trkpt lat="53.218942" lon="-1.979998"><ele>454</ele><time>2022-11-25T14:23:29Z</time><name>PT3347</name></trkpt>
<trkpt lat="53.218957" lon="-1.980046"><ele>454</ele><time>2022-11-25T14:23:32Z</time><name>PT3348</name></trkpt>
<trkpt lat="53.218983" lon="-1.980120"><ele>454</ele><time>2022-11-25T14:23:37Z</time><name>PT3349</name></trkpt>
<trkpt lat="53.219006" lon="-1.980200"><ele>454</ele><time>2022-11-25T14:23:40Z</time><name>PT3350</name></trkpt>
<trkpt lat="53.219026" lon="-1.980260"><ele>454</ele><time>2022-11-25T14:23:43Z</time><name>PT3351</name></trkpt>
<trkpt lat="53.219051" lon="-1.980334"><ele>453</ele><time>2022-11-25T14:23:47Z</time><name>PT3352</name></trkpt>
<trkpt lat="53.219064" lon="-1.980392"><ele>453</ele><time>2022-11-25T14:23:50Z</time><name>PT3353</name></trkpt>
<trkpt lat="53.219091" lon="-1.980461"><ele>453</ele><time>2022-11-25T14:23:55Z</time><name>PT3354</name></trkpt>
<trkpt lat="53.219110" lon="-1.980522"><ele>453</ele><time>2022-11-25T14:23:58Z</time><name>PT3355</name></trkpt>
<trkpt lat="53.219135" lon="-1.980599"><ele>452</ele><time>2022-11-25T14:24:01Z</time><name>PT3356</name></trkpt>
<trkpt lat="53.219165" lon="-1.980671"><ele>452</ele><time>2022-11-25T14:24:05Z</time><name>PT3357</name></trkpt>
<trkpt lat="53.219193" lon="-1.980752"><ele>451</ele><time>2022-11-25T14:24:10Z</time><name>PT3358</name></trkpt>
<trkpt lat="53.219217" lon="-1.980815"><ele>451</ele><time>2022-11-25T14:24:13Z</time><name>PT3359</name></trkpt>
<trkpt lat="53.219234" lon="-1.980864"><ele>451</ele><time>2022-11-25T14:24:16Z</time><name>PT3360</name></trkpt>
<trkpt lat="53.219257" lon="-1.980930"><ele>451</ele><time>2022-11-25T14:24:20Z</time><name>PT3361</name></trkpt>
<trkpt lat="53.219273" lon="-1.980993"><ele>451</ele><time>2022-11-25T14:24:25Z</time><name>PT3362</name></trkpt>
<trkpt lat="53.219296" lon="-1.981057"><ele>451</ele><time>2022-11-25T14:24:28Z</time><name>PT3363</name></trkpt>
<trkpt lat="53.219323" lon="-1.981121"><ele>452</ele><time>2022-11-25T14:24:32Z</time><name>PT3364</name></trkpt>
<trkpt lat="53.219340" lon="-1.981165"><ele>453</ele><time>2022-11-25T14:24:35Z</time><name>PT3365</name></trkpt>
<trkpt lat="53.219367" lon="-1.981233"><ele>453</ele><time>2022-11-25T14:24:40Z</time><name>PT3366</name></trkpt>
<trkpt lat="53.219388" lon="-1.981295"><ele>453</ele><time>2022-11-25T14:24:43Z</time><name>PT3367</name></trkpt>
<trkpt lat="53.219416" lon="-1.981357"><ele>453</ele><time>2022-11-25T14:24:47Z</time><name>PT3368</name></trkpt>
<trkpt lat="53.219430" lon="-1.981417"><ele>452</ele><time>2022-11-25T14:24:50Z</time><name>PT3369</name></trkpt>
<trkpt lat="53.219452" lon="-1.981468"><ele>452</ele><time>2022-11-25T14:24:53Z</time><name>PT3370</name></trkpt>
<trkpt lat="53.219469" lon="-1.981525"><ele>451</ele><time>2022-11-25T14:24:56Z</time><name>PT3371</name></trkpt>
<trkpt lat="53.219489" lon="-1.981601"><ele>451</ele><time>2022-11-25T14:25:01Z</time><name>PT3372</name></trkpt>
<trkpt lat="53.219516" lon="-1.981678"><ele>450</ele><time>2022-11-25T14:25:04Z</time><name>PT3373</name></trkpt>
<trkpt lat="53.219540" lon="-1.981745"><ele>450</ele><time>2022-11-25T14:25:08Z</time><name>PT3374</name></trkpt>
<trkpt lat="53.219560" lon="-1.981798"><ele>450</ele><time>2022-11-25T14:25:11Z</time><name>PT3375</name></trkpt>
<trkpt lat="53.219579" lon="-1.981854"><ele>450</ele><time>2022-11-25T14:25:14Z</time><name>PT3376</name></trkpt>
<trkpt lat="53.219606" lon="-1.981927"><ele>450</ele><time>2022-11-25T14:25:19Z</time><name>PT3377</name></trkpt>
<trkpt lat="53.219629" lon="-1.981973"><ele>450</ele><time>2022-11-25T14:25:22Z</time><name>PT3378</name></trkpt>
<trkpt lat="53.219647" lon="-1.982027"><ele>450</ele><time>2022-11-25T14:25:25Z</time><name>PT3379</name></trkpt>
<trkpt lat="53.219673" lon="-1.982074"><ele>450</ele><time>2022-11-25T14:25:28Z</time><name>PT3380</name></trkpt>
<trkpt lat="53.219697" lon="-1.982150"><ele>450</ele><time>2022-11-25T14:25:31Z</time><name>PT3381</name></trkpt>
<trkpt lat="53.219724" lon="-1.982220"><ele>450</ele><time>2022-11-25T14:25:35Z</time><name>PT3382</name></trkpt>
<trkpt lat="53.219737" lon="-1.982286"><ele>450</ele><time>2022-11-25T14:25:38Z</time><name>PT3383</name></trkpt>
<trkpt lat="53.219766" lon="-1.982360"><ele>450</ele><time>2022-11-25T14:25:43Z</time><name>PT3384</name></trkpt>
<trkpt lat="53.219782" lon="-1.982418"><ele>449</ele><time>2022-11-25T14:25:46Z</time><name>PT3385</name></trkpt>
<trkpt lat="53.219800" lon="-1.982470"><ele>450</ele><time>2022-11-25T14:25:49Z</time><name>PT3386</name></trkpt>
<trkpt lat="53.219818" lon="-1.982523"><ele>449</ele><time>2022-11-25T14:25:52Z</time><name>PT3387</name></trkpt>
<trkpt lat="53.219846" lon="-1.982589"><ele>450</ele><time>2022-11-25T14:25:55Z</time><name>PT3388</name></trkpt>
<trkpt lat="53.219877" lon="-1.982660"><ele>450</ele><time>2022-11-25T14:25:59Z</time><name>PT3389</name></trkpt>
<trkpt lat="53.219901" lon="-1.982714"><ele>450</ele><time>2022-11-25T14:26:02Z</time><name>PT3390</name></trkpt>
<trkpt lat="53.219932" lon="-1.982780"><ele>450</ele><time>2022-11-25T14:26:07Z</time><name>PT3391</name></trkpt>
<trkpt lat="53.219958" lon="-1.982827"><ele>450</ele><time>2022-11-25T14:26:10Z</time><name>PT3392</name></trkpt>
<trkpt lat="53.219984" lon="-1.982862"><ele>451</ele><time>2022-11-25T14:26:13Z</time><name>PT3393</name></trkpt>
<trkpt lat="53.219994" lon="-1.982874"><ele>450</ele><time>2022-11-25T14:26:16Z</time><name>PT3394</name></trkpt>
<trkpt lat="53.219994" lon="-1.982874"><ele>450</ele><time>2022-11-25T14:26:19Z</time><name>PT3395</name></trkpt>
<trkpt lat="53.220008" lon="-1.982906"><ele>450</ele><time>2022-11-25T14:26:23Z</time><name>PT3396</name></trkpt>
<trkpt lat="53.220044" lon="-1.982959"><ele>449</ele><time>2022-11-25T14:26:28Z</time><name>PT3397</name></trkpt>
<trkpt lat="53.220069" lon="-1.982998"><ele>450</ele><time>2022-11-25T14:26:31Z</time><name>PT3398</name></trkpt>
<trkpt lat="53.220110" lon="-1.983057"><ele>448</ele><time>2022-11-25T14:26:34Z</time><name>PT3399</name></trkpt>
<trkpt lat="53.220141" lon="-1.983096"><ele>448</ele><time>2022-11-25T14:26:37Z</time><name>PT3400</name></trkpt>
<trkpt lat="53.220169" lon="-1.983129"><ele>447</ele><time>2022-11-25T14:26:40Z</time><name>PT3401</name></trkpt>
<trkpt lat="53.220205" lon="-1.983190"><ele>445</ele><time>2022-11-25T14:26:44Z</time><name>PT3402</name></trkpt>
<trkpt lat="53.220232" lon="-1.983228"><ele>445</ele><time>2022-11-25T14:26:47Z</time><name>PT3403</name></trkpt>
<trkpt lat="53.220261" lon="-1.983270"><ele>444</ele><time>2022-11-25T14:26:50Z</time><name>PT3404</name></trkpt>
<trkpt lat="53.220287" lon="-1.983311"><ele>445</ele><time>2022-11-25T14:26:53Z</time><name>PT3405</name></trkpt>
<trkpt lat="53.220326" lon="-1.983354"><ele>444</ele><time>2022-11-25T14:26:58Z</time><name>PT3406</name></trkpt>
<trkpt lat="53.220357" lon="-1.983383"><ele>445</ele><time>2022-11-25T14:27:01Z</time><name>PT3407</name></trkpt>
<trkpt lat="53.220395" lon="-1.983431"><ele>446</ele><time>2022-11-25T14:27:04Z</time><name>PT3408</name></trkpt>
<trkpt lat="53.220421" lon="-1.983475"><ele>446</ele><time>2022-11-25T14:27:08Z</time><name>PT3409</name></trkpt>
<trkpt lat="53.220465" lon="-1.983532"><ele>445</ele><time>2022-11-25T14:27:13Z</time><name>PT3410</name></trkpt>
<trkpt lat="53.220504" lon="-1.983562"><ele>444</ele><time>2022-11-25T14:27:16Z</time><name>PT3411</name></trkpt>
<trkpt lat="53.220540" lon="-1.983591"><ele>444</ele><time>2022-11-25T14:27:19Z</time><name>PT3412</name></trkpt>
<trkpt lat="53.220581" lon="-1.983608"><ele>444</ele><time>2022-11-25T14:27:23Z</time><name>PT3413</name></trkpt>
<trkpt lat="53.220618" lon="-1.983629"><ele>445</ele><time>2022-11-25T14:27:26Z</time><name>PT3414</name></trkpt>
<trkpt lat="53.220665" lon="-1.983647"><ele>446</ele><time>2022-11-25T14:27:31Z</time><name>PT3415</name></trkpt>
<trkpt lat="53.220702" lon="-1.983662"><ele>447</ele><time>2022-11-25T14:27:34Z</time><name>PT3416</name></trkpt>
<trkpt lat="53.220752" lon="-1.983683"><ele>447</ele><time>2022-11-25T14:27:37Z</time><name>PT3417</name></trkpt>
<trkpt lat="53.220796" lon="-1.983704"><ele>446</ele><time>2022-11-25T14:27:41Z</time><name>PT3418</name></trkpt>
<trkpt lat="53.220828" lon="-1.983711"><ele>445</ele><time>2022-11-25T14:27:44Z</time><name>PT3419</name></trkpt>
<trkpt lat="53.220871" lon="-1.983730"><ele>445</ele><time>2022-11-25T14:27:49Z</time><name>PT3420</name></trkpt>
<trkpt lat="53.220912" lon="-1.983716"><ele>446</ele><time>2022-11-25T14:27:52Z</time><name>PT3421</name></trkpt>
<trkpt lat="53.220952" lon="-1.983735"><ele>446</ele><time>2022-11-25T14:27:56Z</time><name>PT3422</name></trkpt>
<trkpt lat="53.220985" lon="-1.983741"><ele>446</ele><time>2022-11-25T14:27:59Z</time><name>PT3423</name></trkpt>
<trkpt lat="53.221016" lon="-1.983752"><ele>446</ele><time>2022-11-25T14:28:02Z</time><name>PT3424</name></trkpt>
<trkpt lat="53.221046" lon="-1.983774"><ele>446</ele><time>2022-11-25T14:28:05Z</time><name>PT3425</name></trkpt>
<trkpt lat="53.221072" lon="-1.983810"><ele>447</ele><time>2022-11-25T14:28:08Z</time><name>PT3426</name></trkpt>
<trkpt lat="53.221102" lon="-1.983849"><ele>447</ele><time>2022-11-25T14:28:11Z</time><name>PT3427</name></trkpt>
<trkpt lat="53.221148" lon="-1.983860"><ele>447</ele><time>2022-11-25T14:28:16Z</time><name>PT3428</name></trkpt>
<trkpt lat="53.221186" lon="-1.983865"><ele>445</ele><time>2022-11-25T14:28:19Z</time><name>PT3429</name></trkpt>
<trkpt lat="53.221229" lon="-1.983886"><ele>444</ele><time>2022-11-25T14:28:23Z</time><name>PT3430</name></trkpt>
<trkpt lat="53.221257" lon="-1.983900"><ele>444</ele><time>2022-11-25T14:28:26Z</time><name>PT3431</name></trkpt>
<trkpt lat="53.221300" lon="-1.983919"><ele>443</ele><time>2022-11-25T14:28:31Z</time><name>PT3432</name></trkpt>
<trkpt lat="53.221345" lon="-1.983949"><ele>443</ele><time>2022-11-25T14:28:34Z</time><name>PT3433</name></trkpt>
<trkpt lat="53.221386" lon="-1.983990"><ele>443</ele><time>2022-11-25T14:28:38Z</time><name>PT3434</name></trkpt>
<trkpt lat="53.221424" lon="-1.984020"><ele>443</ele><time>2022-11-25T14:28:41Z</time><name>PT3435</name></trkpt>
<trkpt lat="53.221459" lon="-1.984056"><ele>442</ele><time>2022-11-25T14:28:46Z</time><name>PT3436</name></trkpt>
<trkpt lat="53.221485" lon="-1.984085"><ele>441</ele><time>2022-11-25T14:28:49Z</time><name>PT3437</name></trkpt>
<trkpt lat="53.221527" lon="-1.984124"><ele>441</ele><time>2022-11-25T14:28:52Z</time><name>PT3438</name></trkpt>
<trkpt lat="53.221552" lon="-1.984139"><ele>442</ele><time>2022-11-25T14:28:55Z</time><name>PT3439</name></trkpt>
<trkpt lat="53.221595" lon="-1.984171"><ele>443</ele><time>2022-11-25T14:28:59Z</time><name>PT3440</name></trkpt>
<trkpt lat="53.221635" lon="-1.984207"><ele>443</ele><time>2022-11-25T14:29:04Z</time><name>PT3441</name></trkpt>
<trkpt lat="53.221665" lon="-1.984233"><ele>443</ele><time>2022-11-25T14:29:07Z</time><name>PT3442</name></trkpt>
<trkpt lat="53.221696" lon="-1.984251"><ele>441</ele><time>2022-11-25T14:29:10Z</time><name>PT3443</name></trkpt>
<trkpt lat="53.221730" lon="-1.984289"><ele>441</ele><time>2022-11-25T14:29:13Z</time><name>PT3444</name></trkpt>
<trkpt lat="53.221768" lon="-1.984312"><ele>441</ele><time>2022-11-25T14:29:16Z</time><name>PT3445</name></trkpt>
<trkpt lat="53.221808" lon="-1.984356"><ele>441</ele><time>2022-11-25T14:29:20Z</time><name>PT3446</name></trkpt>
<trkpt lat="53.221855" lon="-1.984392"><ele>443</ele><time>2022-11-25T14:29:25Z</time><name>PT3447</name></trkpt>
<trkpt lat="53.221892" lon="-1.984409"><ele>443</ele><time>2022-11-25T14:29:28Z</time><name>PT3448</name></trkpt>
<trkpt lat="53.221919" lon="-1.984438"><ele>442</ele><time>2022-11-25T14:29:31Z</time><name>PT3449</name></trkpt>
<trkpt lat="53.221952" lon="-1.984457"><ele>441</ele><time>2022-11-25T14:29:34Z</time><name>PT3450</name></trkpt>
<trkpt lat="53.221987" lon="-1.984484"><ele>441</ele><time>2022-11-25T14:29:37Z</time><name>PT3451</name></trkpt>
<trkpt lat="53.222028" lon="-1.984522"><ele>441</ele><time>2022-11-25T14:29:41Z</time><name>PT3452</name></trkpt>
<trkpt lat="53.222050" lon="-1.984540"><ele>440</ele><time>2022-11-25T14:29:44Z</time><name>PT3453</name></trkpt>
<trkpt lat="53.222093" lon="-1.984566"><ele>439</ele><time>2022-11-25T14:29:49Z</time><name>PT3454</name></trkpt>
<trkpt lat="53.222126" lon="-1.984588"><ele>440</ele><time>2022-11-25T14:29:52Z</time><name>PT3455</name></trkpt>
<trkpt lat="53.222170" lon="-1.984621"><ele>442</ele><time>2022-11-25T14:29:55Z</time><name>PT3456</name></trkpt>
<trkpt lat="53.222206" lon="-1.984647"><ele>439</ele><time>2022-11-25T14:29:59Z</time><name>PT3457</name></trkpt>
<trkpt lat="53.222284" lon="-1.984675"><ele>443</ele><time>2022-11-25T14:30:04Z</time><name>PT3458</name></trkpt>
<trkpt lat="53.222334" lon="-1.984703"><ele>443</ele><time>2022-11-25T14:30:07Z</time><name>PT3459</name></trkpt>
<trkpt lat="53.222375" lon="-1.984743"><ele>443</ele><time>2022-11-25T14:30:11Z</time><name>PT3460</name></trkpt>
<trkpt lat="53.222408" lon="-1.984760"><ele>443</ele><time>2022-11-25T14:30:14Z</time><name>PT3461</name></trkpt>
<trkpt lat="53.222453" lon="-1.984786"><ele>442</ele><time>2022-11-25T14:30:19Z</time><name>PT3462</name></trkpt>
<trkpt lat="53.222489" lon="-1.984795"><ele>443</ele><time>2022-11-25T14:30:22Z</time><name>PT3463</name></trkpt>
<trkpt lat="53.222524" lon="-1.984805"><ele>443</ele><time>2022-11-25T14:30:25Z</time><name>PT3464</name></trkpt>
<trkpt lat="53.222568" lon="-1.984818"><ele>442</ele><time>2022-11-25T14:30:28Z</time><name>PT3465</name></trkpt>
<trkpt lat="53.222616" lon="-1.984833"><ele>442</ele><time>2022-11-25T14:30:32Z</time><name>PT3466</name></trkpt>
<trkpt lat="53.222660" lon="-1.984859"><ele>442</ele><time>2022-11-25T14:30:37Z</time><name>PT3467</name></trkpt>
<trkpt lat="53.222690" lon="-1.984882"><ele>441</ele><time>2022-11-25T14:30:40Z</time><name>PT3468</name></trkpt>
<trkpt lat="53.222728" lon="-1.984902"><ele>442</ele><time>2022-11-25T14:30:43Z</time><name>PT3469</name></trkpt>
<trkpt lat="53.222771" lon="-1.984922"><ele>442</ele><time>2022-11-25T14:30:46Z</time><name>PT3470</name></trkpt>
<trkpt lat="53.222818" lon="-1.984940"><ele>441</ele><time>2022-11-25T14:30:50Z</time><name>PT3471</name></trkpt>
<trkpt lat="53.222852" lon="-1.984950"><ele>441</ele><time>2022-11-25T14:30:53Z</time><name>PT3472</name></trkpt>
<trkpt lat="53.222895" lon="-1.984951"><ele>441</ele><time>2022-11-25T14:30:58Z</time><name>PT3473</name></trkpt>
<trkpt lat="53.222942" lon="-1.984959"><ele>441</ele><time>2022-11-25T14:31:01Z</time><name>PT3474</name></trkpt>
<trkpt lat="53.222989" lon="-1.984956"><ele>441</ele><time>2022-11-25T14:31:05Z</time><name>PT3475</name></trkpt>
<trkpt lat="53.223024" lon="-1.984962"><ele>441</ele><time>2022-11-25T14:31:08Z</time><name>PT3476</name></trkpt>
<trkpt lat="53.223069" lon="-1.984968"><ele>441</ele><time>2022-11-25T14:31:13Z</time><name>PT3477</name></trkpt>
<trkpt lat="53.223105" lon="-1.984974"><ele>440</ele><time>2022-11-25T14:31:16Z</time><name>PT3478</name></trkpt>
<trkpt lat="53.223140" lon="-1.984982"><ele>440</ele><time>2022-11-25T14:31:19Z</time><name>PT3479</name></trkpt>
<trkpt lat="53.223189" lon="-1.984996"><ele>441</ele><time>2022-11-25T14:31:22Z</time><name>PT3480</name></trkpt>
<trkpt lat="53.223236" lon="-1.985009"><ele>441</ele><time>2022-11-25T14:31:26Z</time><name>PT3481</name></trkpt>
<trkpt lat="53.223274" lon="-1.985011"><ele>441</ele><time>2022-11-25T14:31:31Z</time><name>PT3482</name></trkpt>
<trkpt lat="53.223300" lon="-1.985005"><ele>441</ele><time>2022-11-25T14:31:34Z</time><name>PT3483</name></trkpt>
<trkpt lat="53.223332" lon="-1.985017"><ele>440</ele><time>2022-11-25T14:31:37Z</time><name>PT3484</name></trkpt>
<trkpt lat="53.223363" lon="-1.985026"><ele>439</ele><time>2022-11-25T14:31:41Z</time><name>PT3485</name></trkpt>
<trkpt lat="53.223396" lon="-1.985029"><ele>440</ele><time>2022-11-25T14:31:44Z</time><name>PT3486</name></trkpt>
<trkpt lat="53.223439" lon="-1.985028"><ele>441</ele><time>2022-11-25T14:31:49Z</time><name>PT3487</name></trkpt>
<trkpt lat="53.223489" lon="-1.985012"><ele>440</ele><time>2022-11-25T14:31:52Z</time><name>PT3488</name></trkpt>
<trkpt lat="53.223519" lon="-1.984991"><ele>441</ele><time>2022-11-25T14:31:55Z</time><name>PT3489</name></trkpt>
<trkpt lat="53.223551" lon="-1.984980"><ele>440</ele><time>2022-11-25T14:31:59Z</time><name>PT3490</name></trkpt>
<trkpt lat="53.223598" lon="-1.984966"><ele>440</ele><time>2022-11-25T14:32:04Z</time><name>PT3491</name></trkpt>
<trkpt lat="53.223645" lon="-1.984961"><ele>440</ele><time>2022-11-25T14:32:07Z</time><name>PT3492</name></trkpt>
<trkpt lat="53.223679" lon="-1.984946"><ele>441</ele><time>2022-11-25T14:32:10Z</time><name>PT3493</name></trkpt>
<trkpt lat="53.223727" lon="-1.984948"><ele>442</ele><time>2022-11-25T14:32:14Z</time><name>PT3494</name></trkpt>
<trkpt lat="53.223765" lon="-1.984947"><ele>442</ele><time>2022-11-25T14:32:17Z</time><name>PT3495</name></trkpt>
<trkpt lat="53.223797" lon="-1.984940"><ele>442</ele><time>2022-11-25T14:32:20Z</time><name>PT3496</name></trkpt>
<trkpt lat="53.223829" lon="-1.984936"><ele>442</ele><time>2022-11-25T14:32:23Z</time><name>PT3497</name></trkpt>
<trkpt lat="53.223876" lon="-1.984926"><ele>442</ele><time>2022-11-25T14:32:28Z</time><name>PT3498</name></trkpt>
<trkpt lat="53.223904" lon="-1.984921"><ele>443</ele><time>2022-11-25T14:32:31Z</time><name>PT3499</name></trkpt>
<trkpt lat="53.223945" lon="-1.984901"><ele>443</ele><time>2022-11-25T14:32:34Z</time><name>PT3500</name></trkpt>
<trkpt lat="53.223993" lon="-1.984871"><ele>444</ele><time>2022-11-25T14:32:38Z</time><name>PT3501</name></trkpt>
<trkpt lat="53.224024" lon="-1.984845"><ele>444</ele><time>2022-11-25T14:32:41Z</time><name>PT3502</name></trkpt>
<trkpt lat="53.224050" lon="-1.984817"><ele>444</ele><time>2022-11-25T14:32:44Z</time><name>PT3503</name></trkpt>
<trkpt lat="53.224078" lon="-1.984794"><ele>444</ele><time>2022-11-25T14:32:47Z</time><name>PT3504</name></trkpt>
<trkpt lat="53.224118" lon="-1.984757"><ele>444</ele><time>2022-11-25T14:32:52Z</time><name>PT3505</name></trkpt>
<trkpt lat="53.224149" lon="-1.984719"><ele>444</ele><time>2022-11-25T14:32:55Z</time><name>PT3506</name></trkpt>
<trkpt lat="53.224165" lon="-1.984692"><ele>443</ele><time>2022-11-25T14:32:58Z</time><name>PT3507</name></trkpt>
<trkpt lat="53.224184" lon="-1.984668"><ele>443</ele><time>2022-11-25T14:33:01Z</time><name>PT3508</name></trkpt>
<trkpt lat="53.224198" lon="-1.984653"><ele>442</ele><time>2022-11-25T14:33:05Z</time><name>PT3509</name></trkpt>
<trkpt lat="53.224228" lon="-1.984645"><ele>443</ele><time>2022-11-25T14:33:10Z</time><name>PT3510</name></trkpt>
<trkpt lat="53.224249" lon="-1.984628"><ele>443</ele><time>2022-11-25T14:33:13Z</time><name>PT3511</name></trkpt>
<trkpt lat="53.224277" lon="-1.984612"><ele>443</ele><time>2022-11-25T14:33:16Z</time><name>PT3512</name></trkpt>
<trkpt lat="53.224312" lon="-1.984583"><ele>445</ele><time>2022-11-25T14:33:19Z</time><name>PT3513</name></trkpt>
<trkpt lat="53.224347" lon="-1.984547"><ele>445</ele><time>2022-11-25T14:33:23Z</time><name>PT3514</name></trkpt>
<trkpt lat="53.224371" lon="-1.984526"><ele>445</ele><time>2022-11-25T14:33:26Z</time><name>PT3515</name></trkpt>
<trkpt lat="53.224391" lon="-1.984505"><ele>445</ele><time>2022-11-25T14:33:31Z</time><name>PT3516</name></trkpt>
<trkpt lat="53.224408" lon="-1.984491"><ele>445</ele><time>2022-11-25T14:33:34Z</time><name>PT3517</name></trkpt>
<trkpt lat="53.224444" lon="-1.984456"><ele>446</ele><time>2022-11-25T14:33:37Z</time><name>PT3518</name></trkpt>
<trkpt lat="53.224484" lon="-1.984420"><ele>446</ele><time>2022-11-25T14:33:41Z</time><name>PT3519</name></trkpt>
<trkpt lat="53.224523" lon="-1.984378"><ele>447</ele><time>2022-11-25T14:33:46Z</time><name>PT3520</name></trkpt>
<trkpt lat="53.224552" lon="-1.984346"><ele>448</ele><time>2022-11-25T14:33:49Z</time><name>PT3521</name></trkpt>
<trkpt lat="53.224582" lon="-1.984311"><ele>448</ele><time>2022-11-25T14:33:52Z</time><name>PT3522</name></trkpt>
<trkpt lat="53.224621" lon="-1.984264"><ele>448</ele><time>2022-11-25T14:33:55Z</time><name>PT3523</name></trkpt>
<trkpt lat="53.224653" lon="-1.984227"><ele>450</ele><time>2022-11-25T14:33:58Z</time><name>PT3524</name></trkpt>
<trkpt lat="53.224692" lon="-1.984175"><ele>450</ele><time>2022-11-25T14:34:02Z</time><name>PT3525</name></trkpt>
<trkpt lat="53.224723" lon="-1.984124"><ele>450</ele><time>2022-11-25T14:34:07Z</time><name>PT3526</name></trkpt>
<trkpt lat="53.224747" lon="-1.984086"><ele>450</ele><time>2022-11-25T14:34:10Z</time><name>PT3527</name></trkpt>
<trkpt lat="53.224764" lon="-1.984038"><ele>451</ele><time>2022-11-25T14:34:13Z</time><name>PT3528</name></trkpt>
<trkpt lat="53.224781" lon="-1.983992"><ele>451</ele><time>2022-11-25T14:34:16Z</time><name>PT3529</name></trkpt>
<trkpt lat="53.224796" lon="-1.983929"><ele>451</ele><time>2022-11-25T14:34:19Z</time><name>PT3530</name></trkpt>
<trkpt lat="53.224814" lon="-1.983896"><ele>450</ele><time>2022-11-25T14:34:22Z</time><name>PT3531</name></trkpt>
<trkpt lat="53.224841" lon="-1.983872"><ele>451</ele><time>2022-11-25T14:34:25Z</time><name>PT3532</name></trkpt>
<trkpt lat="53.224862" lon="-1.983853"><ele>452</ele><time>2022-11-25T14:34:28Z</time><name>PT3533</name></trkpt>
<trkpt lat="53.224879" lon="-1.983825"><ele>452</ele><time>2022-11-25T14:34:31Z</time><name>PT3534</name></trkpt>
<trkpt lat="53.224893" lon="-1.983792"><ele>452</ele><time>2022-11-25T14:34:35Z</time><name>PT3535</name></trkpt>
<trkpt lat="53.224916" lon="-1.983756"><ele>451</ele><time>2022-11-25T14:34:40Z</time><name>PT3536</name></trkpt>
<trkpt lat="53.224951" lon="-1.983746"><ele>451</ele><time>2022-11-25T14:34:43Z</time><name>PT3537</name></trkpt>
<trkpt lat="53.224982" lon="-1.983736"><ele>451</ele><time>2022-11-25T14:34:47Z</time><name>PT3538</name></trkpt>
<trkpt lat="53.225003" lon="-1.983727"><ele>450</ele><time>2022-11-25T14:34:50Z</time><name>PT3539</name></trkpt>
<trkpt lat="53.225023" lon="-1.983719"><ele>449</ele><time>2022-11-25T14:34:53Z</time><name>PT3540</name></trkpt>
<trkpt lat="53.225050" lon="-1.983696"><ele>449</ele><time>2022-11-25T14:34:56Z</time><name>PT3541</name></trkpt>
<trkpt lat="53.225078" lon="-1.983685"><ele>448</ele><time>2022-11-25T14:34:59Z</time><name>PT3542</name></trkpt>
<trkpt lat="53.225110" lon="-1.983672"><ele>446</ele><time>2022-11-25T14:35:04Z</time><name>PT3543</name></trkpt>
<trkpt lat="53.225144" lon="-1.983644"><ele>445</ele><time>2022-11-25T14:35:07Z</time><name>PT3544</name></trkpt>
<trkpt lat="53.225183" lon="-1.983605"><ele>445</ele><time>2022-11-25T14:35:11Z</time><name>PT3545</name></trkpt>
<trkpt lat="53.225198" lon="-1.983561"><ele>445</ele><time>2022-11-25T14:35:14Z</time><name>PT3546</name></trkpt>
<trkpt lat="53.225215" lon="-1.983519"><ele>444</ele><time>2022-11-25T14:35:17Z</time><name>PT3547</name></trkpt>
<trkpt lat="53.225237" lon="-1.983461"><ele>443</ele><time>2022-11-25T14:35:22Z</time><name>PT3548</name></trkpt>
<trkpt lat="53.225262" lon="-1.983395"><ele>443</ele><time>2022-11-25T14:35:25Z</time><name>PT3549</name></trkpt>
<trkpt lat="53.225282" lon="-1.983356"><ele>442</ele><time>2022-11-25T14:35:28Z</time><name>PT3550</name></trkpt>
<trkpt lat="53.225305" lon="-1.983321"><ele>442</ele><time>2022-11-25T14:35:31Z</time><name>PT3551</name></trkpt>
<trkpt lat="53.225333" lon="-1.983275"><ele>442</ele><time>2022-11-25T14:35:35Z</time><name>PT3552</name></trkpt>
<trkpt lat="53.225347" lon="-1.983245"><ele>441</ele><time>2022-11-25T14:35:38Z</time><name>PT3553</name></trkpt>
<trkpt lat="53.225372" lon="-1.983205"><ele>441</ele><time>2022-11-25T14:35:43Z</time><name>PT3554</name></trkpt>
<trkpt lat="53.225391" lon="-1.983181"><ele>440</ele><time>2022-11-25T14:35:46Z</time><name>PT3555</name></trkpt>
<trkpt lat="53.225416" lon="-1.983141"><ele>440</ele><time>2022-11-25T14:35:49Z</time><name>PT3556</name></trkpt>
<trkpt lat="53.225437" lon="-1.983118"><ele>440</ele><time>2022-11-25T14:35:52Z</time><name>PT3557</name></trkpt>
<trkpt lat="53.225462" lon="-1.983081"><ele>440</ele><time>2022-11-25T14:35:55Z</time><name>PT3558</name></trkpt>
<trkpt lat="53.225488" lon="-1.983042"><ele>440</ele><time>2022-11-25T14:35:58Z</time><name>PT3559</name></trkpt>
<trkpt lat="53.225510" lon="-1.982984"><ele>440</ele><time>2022-11-25T14:36:02Z</time><name>PT3560</name></trkpt>
<trkpt lat="53.225526" lon="-1.982940"><ele>440</ele><time>2022-11-25T14:36:05Z</time><name>PT3561</name></trkpt>
<trkpt lat="53.225538" lon="-1.982894"><ele>439</ele><time>2022-11-25T14:36:08Z</time><name>PT3562</name></trkpt>
<trkpt lat="53.225559" lon="-1.982856"><ele>439</ele><time>2022-11-25T14:36:13Z</time><name>PT3563</name></trkpt>
<trkpt lat="53.225583" lon="-1.982805"><ele>438</ele><time>2022-11-25T14:36:16Z</time><name>PT3564</name></trkpt>
<trkpt lat="53.225599" lon="-1.982786"><ele>439</ele><time>2022-11-25T14:36:19Z</time><name>PT3565</name></trkpt>
<trkpt lat="53.225619" lon="-1.982738"><ele>438</ele><time>2022-11-25T14:36:22Z</time><name>PT3566</name></trkpt>
<trkpt lat="53.225641" lon="-1.982695"><ele>438</ele><time>2022-11-25T14:36:25Z</time><name>PT3567</name></trkpt>
<trkpt lat="53.225646" lon="-1.982690"><ele>439</ele><time>2022-11-25T14:36:29Z</time><name>PT3568</name></trkpt>
<trkpt lat="53.225655" lon="-1.982669"><ele>439</ele><time>2022-11-25T14:36:32Z</time><name>PT3569</name></trkpt>
<trkpt lat="53.225690" lon="-1.982605"><ele>439</ele><time>2022-11-25T14:36:37Z</time><name>PT3570</name></trkpt>
<trkpt lat="53.225718" lon="-1.982541"><ele>439</ele><time>2022-11-25T14:36:40Z</time><name>PT3571</name></trkpt>
<trkpt lat="53.225742" lon="-1.982494"><ele>439</ele><time>2022-11-25T14:36:43Z</time><name>PT3572</name></trkpt>
<trkpt lat="53.225769" lon="-1.982447"><ele>439</ele><time>2022-11-25T14:36:47Z</time><name>PT3573</name></trkpt>
<trkpt lat="53.225775" lon="-1.982435"><ele>438</ele><time>2022-11-25T14:36:50Z</time><name>PT3574</name></trkpt>
<trkpt lat="53.225775" lon="-1.982434"><ele>439</ele><time>2022-11-25T14:36:53Z</time><name>PT3575</name></trkpt>
<trkpt lat="53.225784" lon="-1.982405"><ele>438</ele><time>2022-11-25T14:36:58Z</time><name>PT3576</name></trkpt>
<trkpt lat="53.225808" lon="-1.982354"><ele>438</ele><time>2022-11-25T14:37:01Z</time><name>PT3577</name></trkpt>
<trkpt lat="53.225833" lon="-1.982290"><ele>437</ele><time>2022-11-25T14:37:04Z</time><name>PT3578</name></trkpt>
<trkpt lat="53.225855" lon="-1.982257"><ele>436</ele><time>2022-11-25T14:37:07Z</time><name>PT3579</name></trkpt>
<trkpt lat="53.225873" lon="-1.982223"><ele>436</ele><time>2022-11-25T14:37:10Z</time><name>PT3580</name></trkpt>
<trkpt lat="53.225897" lon="-1.982185"><ele>436</ele><time>2022-11-25T14:37:14Z</time><name>PT3581</name></trkpt>
<trkpt lat="53.225923" lon="-1.982135"><ele>435</ele><time>2022-11-25T14:37:19Z</time><name>PT3582</name></trkpt>
<trkpt lat="53.225941" lon="-1.982088"><ele>435</ele><time>2022-11-25T14:37:22Z</time><name>PT3583</name></trkpt>
<trkpt lat="53.225963" lon="-1.982046"><ele>435</ele><time>2022-11-25T14:37:25Z</time><name>PT3584</name></trkpt>
<trkpt lat="53.225994" lon="-1.981989"><ele>434</ele><time>2022-11-25T14:37:28Z</time><name>PT3585</name></trkpt>
<trkpt lat="53.226023" lon="-1.981923"><ele>434</ele><time>2022-11-25T14:37:32Z</time><name>PT3586</name></trkpt>
<trkpt lat="53.226052" lon="-1.981863"><ele>434</ele><time>2022-11-25T14:37:37Z</time><name>PT3587</name></trkpt>
<trkpt lat="53.226072" lon="-1.981818"><ele>433</ele><time>2022-11-25T14:37:40Z</time><name>PT3588</name></trkpt>
<trkpt lat="53.226105" lon="-1.981761"><ele>433</ele><time>2022-11-25T14:37:43Z</time><name>PT3589</name></trkpt>
<trkpt lat="53.226132" lon="-1.981721"><ele>433</ele><time>2022-11-25T14:37:46Z</time><name>PT3590</name></trkpt>
<trkpt lat="53.226152" lon="-1.981679"><ele>433</ele><time>2022-11-25T14:37:49Z</time><name>PT3591</name></trkpt>
<trkpt lat="53.226175" lon="-1.981630"><ele>432</ele><time>2022-11-25T14:37:52Z</time><name>PT3592</name></trkpt>
<trkpt lat="53.226196" lon="-1.981586"><ele>432</ele><time>2022-11-25T14:37:55Z</time><name>PT3593</name></trkpt>
<trkpt lat="53.226220" lon="-1.981514"><ele>432</ele><time>2022-11-25T14:37:59Z</time><name>PT3594</name></trkpt>
<trkpt lat="53.226231" lon="-1.981453"><ele>431</ele><time>2022-11-25T14:38:02Z</time><name>PT3595</name></trkpt>
<trkpt lat="53.226244" lon="-1.981379"><ele>430</ele><time>2022-11-25T14:38:07Z</time><name>PT3596</name></trkpt>
<trkpt lat="53.226260" lon="-1.981331"><ele>430</ele><time>2022-11-25T14:38:10Z</time><name>PT3597</name></trkpt>
<trkpt lat="53.226290" lon="-1.981270"><ele>430</ele><time>2022-11-25T14:38:13Z</time><name>PT3598</name></trkpt>
<trkpt lat="53.226305" lon="-1.981218"><ele>429</ele><time>2022-11-25T14:38:16Z</time><name>PT3599</name></trkpt>
<trkpt lat="53.226313" lon="-1.981150"><ele>429</ele><time>2022-11-25T14:38:20Z</time><name>PT3600</name></trkpt>
<trkpt lat="53.226323" lon="-1.981100"><ele>429</ele><time>2022-11-25T14:38:23Z</time><name>PT3601</name></trkpt>
<trkpt lat="53.226338" lon="-1.981072"><ele>430</ele><time>2022-11-25T14:38:26Z</time><name>PT3602</name></trkpt>
<trkpt lat="53.226367" lon="-1.981039"><ele>430</ele><time>2022-11-25T14:38:31Z</time><name>PT3603</name></trkpt>
<trkpt lat="53.226389" lon="-1.980996"><ele>430</ele><time>2022-11-25T14:38:34Z</time><name>PT3604</name></trkpt>
<trkpt lat="53.226408" lon="-1.980953"><ele>430</ele><time>2022-11-25T14:38:37Z</time><name>PT3605</name></trkpt>
<trkpt lat="53.226420" lon="-1.980908"><ele>430</ele><time>2022-11-25T14:38:40Z</time><name>PT3606</name></trkpt>
<trkpt lat="53.226427" lon="-1.980850"><ele>429</ele><time>2022-11-25T14:38:43Z</time><name>PT3607</name></trkpt>
<trkpt lat="53.226424" lon="-1.980811"><ele>428</ele><time>2022-11-25T14:38:46Z</time><name>PT3608</name></trkpt>
<trkpt lat="53.226425" lon="-1.980784"><ele>427</ele><time>2022-11-25T14:38:49Z</time><name>PT3609</name></trkpt>
<trkpt lat="53.226427" lon="-1.980753"><ele>427</ele><time>2022-11-25T14:38:53Z</time><name>PT3610</name></trkpt>
<trkpt lat="53.226439" lon="-1.980732"><ele>427</ele><time>2022-11-25T14:38:58Z</time><name>PT3611</name></trkpt>
<trkpt lat="53.226445" lon="-1.980704"><ele>427</ele><time>2022-11-25T14:39:01Z</time><name>PT3612</name></trkpt>
<trkpt lat="53.226455" lon="-1.980672"><ele>426</ele><time>2022-11-25T14:39:04Z</time><name>PT3613</name></trkpt>
<trkpt lat="53.226464" lon="-1.980676"><ele>426</ele><time>2022-11-25T14:39:07Z</time><name>PT3614</name></trkpt>
<trkpt lat="53.226479" lon="-1.980684"><ele>427</ele><time>2022-11-25T14:39:10Z</time><name>PT3615</name></trkpt>
<trkpt lat="53.226503" lon="-1.980676"><ele>427</ele><time>2022-11-25T14:39:14Z</time><name>PT3616</name></trkpt>
<trkpt lat="53.226528" lon="-1.980676"><ele>427</ele><time>2022-11-25T14:39:17Z</time><name>PT3617</name></trkpt>
<trkpt lat="53.226556" lon="-1.980665"><ele>428</ele><time>2022-11-25T14:39:22Z</time><name>PT3618</name></trkpt>
<trkpt lat="53.226571" lon="-1.980635"><ele>429</ele><time>2022-11-25T14:39:25Z</time><name>PT3619</name></trkpt>
<trkpt lat="53.226584" lon="-1.980623"><ele>429</ele><time>2022-11-25T14:39:28Z</time><name>PT3620</name></trkpt>
<trkpt lat="53.226598" lon="-1.980607"><ele>429</ele><time>2022-11-25T14:39:32Z</time><name>PT3621</name></trkpt>
<trkpt lat="53.226609" lon="-1.980594"><ele>429</ele><time>2022-11-25T14:39:35Z</time><name>PT3622</name></trkpt>
<trkpt lat="53.226623" lon="-1.980588"><ele>429</ele><time>2022-11-25T14:39:38Z</time><name>PT3623</name></trkpt>
<trkpt lat="53.226643" lon="-1.980589"><ele>430</ele><time>2022-11-25T14:39:43Z</time><name>PT3624</name></trkpt>
<trkpt lat="53.226671" lon="-1.980588"><ele>432</ele><time>2022-11-25T14:39:46Z</time><name>PT3625</name></trkpt>
<trkpt lat="53.226689" lon="-1.980577"><ele>433</ele><time>2022-11-25T14:39:49Z</time><name>PT3626</name></trkpt>
<trkpt lat="53.226708" lon="-1.980566"><ele>435</ele><time>2022-11-25T14:39:53Z</time><name>PT3627</name></trkpt>
<trkpt lat="53.226732" lon="-1.980570"><ele>436</ele><time>2022-11-25T14:39:58Z</time><name>PT3628</name></trkpt>
<trkpt lat="53.226758" lon="-1.980572"><ele>437</ele><time>2022-11-25T14:40:01Z</time><name>PT3629</name></trkpt>
<trkpt lat="53.226785" lon="-1.980570"><ele>437</ele><time>2022-11-25T14:40:04Z</time><name>PT3630</name></trkpt>
<trkpt lat="53.226820" lon="-1.980598"><ele>436</ele><time>2022-11-25T14:40:07Z</time><name>PT3631</name></trkpt>
<trkpt lat="53.226846" lon="-1.980646"><ele>437</ele><time>2022-11-25T14:40:11Z</time><name>PT3632</name></trkpt>
<trkpt lat="53.226856" lon="-1.980680"><ele>437</ele><time>2022-11-25T14:40:16Z</time><name>PT3633</name></trkpt>
<trkpt lat="53.226854" lon="-1.980696"><ele>438</ele><time>2022-11-25T14:40:19Z</time><name>PT3634</name></trkpt>
<trkpt lat="53.226848" lon="-1.980710"><ele>438</ele><time>2022-11-25T14:40:22Z</time><name>PT3635</name></trkpt>
<trkpt lat="53.226838" lon="-1.980739"><ele>437</ele><time>2022-11-25T14:40:25Z</time><name>PT3636</name></trkpt>
<trkpt lat="53.226836" lon="-1.980765"><ele>438</ele><time>2022-11-25T14:40:29Z</time><name>PT3637</name></trkpt>
<trkpt lat="53.226837" lon="-1.980810"><ele>438</ele><time>2022-11-25T14:40:32Z</time><name>PT3638</name></trkpt>
<trkpt lat="53.226830" lon="-1.980853"><ele>439</ele><time>2022-11-25T14:40:35Z</time><name>PT3639</name></trkpt>
<trkpt lat="53.226822" lon="-1.980905"><ele>439</ele><time>2022-11-25T14:40:40Z</time><name>PT3640</name></trkpt>
<trkpt lat="53.226801" lon="-1.980944"><ele>439</ele><time>2022-11-25T14:40:43Z</time><name>PT3641</name></trkpt>
<trkpt lat="53.226787" lon="-1.980986"><ele>439</ele><time>2022-11-25T14:40:46Z</time><name>PT3642</name></trkpt>
<trkpt lat="53.226791" lon="-1.981054"><ele>438</ele><time>2022-11-25T14:40:49Z</time><name>PT3643</name></trkpt>
<trkpt lat="53.226797" lon="-1.981100"><ele>438</ele><time>2022-11-25T14:40:53Z</time><name>PT3644</name></trkpt>
<trkpt lat="53.226803" lon="-1.981115"><ele>438</ele><time>2022-11-25T14:40:56Z</time><name>PT3645</name></trkpt>
<trkpt lat="53.226816" lon="-1.981161"><ele>438</ele><time>2022-11-25T14:41:04Z</time><name>PT3646</name></trkpt>
<trkpt lat="53.226798" lon="-1.981237"><ele>437</ele><time>2022-11-25T14:41:07Z</time><name>PT3647</name></trkpt>
<trkpt lat="53.226778" lon="-1.981301"><ele>437</ele><time>2022-11-25T14:41:11Z</time><name>PT3648</name></trkpt>
<trkpt lat="53.226760" lon="-1.981344"><ele>437</ele><time>2022-11-25T14:41:14Z</time><name>PT3649</name></trkpt>
<trkpt lat="53.226732" lon="-1.981409"><ele>437</ele><time>2022-11-25T14:41:19Z</time><name>PT3650</name></trkpt>
<trkpt lat="53.226720" lon="-1.981453"><ele>437</ele><time>2022-11-25T14:41:22Z</time><name>PT3651</name></trkpt>
<trkpt lat="53.226710" lon="-1.981501"><ele>437</ele><time>2022-11-25T14:41:25Z</time><name>PT3652</name></trkpt>
<trkpt lat="53.226710" lon="-1.981557"><ele>437</ele><time>2022-11-25T14:41:28Z</time><name>PT3653</name></trkpt>
<trkpt lat="53.226719" lon="-1.981640"><ele>437</ele><time>2022-11-25T14:41:31Z</time><name>PT3654</name></trkpt>
<trkpt lat="53.226711" lon="-1.981726"><ele>437</ele><time>2022-11-25T14:41:35Z</time><name>PT3655</name></trkpt>
<trkpt lat="53.226722" lon="-1.981791"><ele>437</ele><time>2022-11-25T14:41:40Z</time><name>PT3656</name></trkpt>
<trkpt lat="53.226742" lon="-1.981828"><ele>438</ele><time>2022-11-25T14:41:43Z</time><name>PT3657</name></trkpt>
<trkpt lat="53.226759" lon="-1.981860"><ele>438</ele><time>2022-11-25T14:41:46Z</time><name>PT3658</name></trkpt>
<trkpt lat="53.226768" lon="-1.981907"><ele>438</ele><time>2022-11-25T14:41:49Z</time><name>PT3659</name></trkpt>
<trkpt lat="53.226774" lon="-1.981978"><ele>439</ele><time>2022-11-25T14:41:52Z</time><name>PT3660</name></trkpt>
<trkpt lat="53.226775" lon="-1.982025"><ele>439</ele><time>2022-11-25T14:41:55Z</time><name>PT3661</name></trkpt>
<trkpt lat="53.226766" lon="-1.982087"><ele>439</ele><time>2022-11-25T14:41:59Z</time><name>PT3662</name></trkpt>
<trkpt lat="53.226756" lon="-1.982147"><ele>440</ele><time>2022-11-25T14:42:02Z</time><name>PT3663</name></trkpt>
<trkpt lat="53.226744" lon="-1.982221"><ele>440</ele><time>2022-11-25T14:42:07Z</time><name>PT3664</name></trkpt>
<trkpt lat="53.226731" lon="-1.982282"><ele>440</ele><time>2022-11-25T14:42:10Z</time><name>PT3665</name></trkpt>
<trkpt lat="53.226719" lon="-1.982358"><ele>440</ele><time>2022-11-25T14:42:13Z</time><name>PT3666</name></trkpt>
<trkpt lat="53.226702" lon="-1.982437"><ele>440</ele><time>2022-11-25T14:42:17Z</time><name>PT3667</name></trkpt>
<trkpt lat="53.226693" lon="-1.982460"><ele>439</ele><time>2022-11-25T14:42:22Z</time><name>PT3668</name></trkpt>
<trkpt lat="53.226694" lon="-1.982502"><ele>439</ele><time>2022-11-25T14:42:25Z</time><name>PT3669</name></trkpt>
<trkpt lat="53.226687" lon="-1.982552"><ele>439</ele><time>2022-11-25T14:42:28Z</time><name>PT3670</name></trkpt>
<trkpt lat="53.226673" lon="-1.982629"><ele>440</ele><time>2022-11-25T14:42:31Z</time><name>PT3671</name></trkpt>
<trkpt lat="53.226667" lon="-1.982689"><ele>440</ele><time>2022-11-25T14:42:34Z</time><name>PT3672</name></trkpt>
<trkpt lat="53.226666" lon="-1.982765"><ele>440</ele><time>2022-11-25T14:42:38Z</time><name>PT3673</name></trkpt>
<trkpt lat="53.226669" lon="-1.982835"><ele>440</ele><time>2022-11-25T14:42:41Z</time><name>PT3674</name></trkpt>
<trkpt lat="53.226671" lon="-1.982892"><ele>440</ele><time>2022-11-25T14:42:44Z</time><name>PT3675</name></trkpt>
<trkpt lat="53.226678" lon="-1.982957"><ele>440</ele><time>2022-11-25T14:42:49Z</time><name>PT3676</name></trkpt>
<trkpt lat="53.226682" lon="-1.983006"><ele>441</ele><time>2022-11-25T14:42:52Z</time><name>PT3677</name></trkpt>
<trkpt lat="53.226694" lon="-1.983069"><ele>441</ele><time>2022-11-25T14:42:55Z</time><name>PT3678</name></trkpt>
<trkpt lat="53.226704" lon="-1.983122"><ele>441</ele><time>2022-11-25T14:42:58Z</time><name>PT3679</name></trkpt>
<trkpt lat="53.226714" lon="-1.983202"><ele>442</ele><time>2022-11-25T14:43:02Z</time><name>PT3680</name></trkpt>
<trkpt lat="53.226726" lon="-1.983271"><ele>442</ele><time>2022-11-25T14:43:07Z</time><name>PT3681</name></trkpt>
<trkpt lat="53.226736" lon="-1.983324"><ele>443</ele><time>2022-11-25T14:43:10Z</time><name>PT3682</name></trkpt>
<trkpt lat="53.226746" lon="-1.983395"><ele>443</ele><time>2022-11-25T14:43:14Z</time><name>PT3683</name></trkpt>
<trkpt lat="53.226754" lon="-1.983437"><ele>444</ele><time>2022-11-25T14:43:17Z</time><name>PT3684</name></trkpt>
<trkpt lat="53.226765" lon="-1.983500"><ele>445</ele><time>2022-11-25T14:43:22Z</time><name>PT3685</name></trkpt>
<trkpt lat="53.226772" lon="-1.983546"><ele>445</ele><time>2022-11-25T14:43:25Z</time><name>PT3686</name></trkpt>
<trkpt lat="53.226778" lon="-1.983580"><ele>446</ele><time>2022-11-25T14:43:28Z</time><name>PT3687</name></trkpt>
<trkpt lat="53.226786" lon="-1.983633"><ele>447</ele><time>2022-11-25T14:43:31Z</time><name>PT3688</name></trkpt>
<trkpt lat="53.226799" lon="-1.983707"><ele>447</ele><time>2022-11-25T14:43:34Z</time><name>PT3689</name></trkpt>
<trkpt lat="53.226805" lon="-1.983779"><ele>448</ele><time>2022-11-25T14:43:38Z</time><name>PT3690</name></trkpt>
<trkpt lat="53.226813" lon="-1.983846"><ele>448</ele><time>2022-11-25T14:43:43Z</time><name>PT3691</name></trkpt>
<trkpt lat="53.226818" lon="-1.983909"><ele>449</ele><time>2022-11-25T14:43:46Z</time><name>PT3692</name></trkpt>
<trkpt lat="53.226822" lon="-1.983968"><ele>449</ele><time>2022-11-25T14:43:50Z</time><name>PT3693</name></trkpt>
<trkpt lat="53.226826" lon="-1.984014"><ele>450</ele><time>2022-11-25T14:43:53Z</time><name>PT3694</name></trkpt>
<trkpt lat="53.226830" lon="-1.984086"><ele>450</ele><time>2022-11-25T14:43:58Z</time><name>PT3695</name></trkpt>
<trkpt lat="53.226833" lon="-1.984138"><ele>450</ele><time>2022-11-25T14:44:01Z</time><name>PT3696</name></trkpt>
<trkpt lat="53.226837" lon="-1.984195"><ele>451</ele><time>2022-11-25T14:44:04Z</time><name>PT3697</name></trkpt>
<trkpt lat="53.226840" lon="-1.984248"><ele>451</ele><time>2022-11-25T14:44:07Z</time><name>PT3698</name></trkpt>
<trkpt lat="53.226840" lon="-1.984302"><ele>451</ele><time>2022-11-25T14:44:10Z</time><name>PT3699</name></trkpt>
<trkpt lat="53.226854" lon="-1.984364"><ele>453</ele><time>2022-11-25T14:44:13Z</time><name>PT3700</name></trkpt>
<trkpt lat="53.226861" lon="-1.984405"><ele>453</ele><time>2022-11-25T14:44:16Z</time><name>PT3701</name></trkpt>
<trkpt lat="53.226863" lon="-1.984451"><ele>453</ele><time>2022-11-25T14:44:19Z</time><name>PT3702</name></trkpt>
<trkpt lat="53.226865" lon="-1.984523"><ele>452</ele><time>2022-11-25T14:44:23Z</time><name>PT3703</name></trkpt>
<trkpt lat="53.226866" lon="-1.984591"><ele>452</ele><time>2022-11-25T14:44:28Z</time><name>PT3704</name></trkpt>
<trkpt lat="53.226867" lon="-1.984646"><ele>453</ele><time>2022-11-25T14:44:31Z</time><name>PT3705</name></trkpt>
<trkpt lat="53.226864" lon="-1.984700"><ele>453</ele><time>2022-11-25T14:44:34Z</time><name>PT3706</name></trkpt>
<trkpt lat="53.226861" lon="-1.984772"><ele>454</ele><time>2022-11-25T14:44:37Z</time><name>PT3707</name></trkpt>
<trkpt lat="53.226860" lon="-1.984825"><ele>453</ele><time>2022-11-25T14:44:40Z</time><name>PT3708</name></trkpt>
<trkpt lat="53.226859" lon="-1.984892"><ele>454</ele><time>2022-11-25T14:44:44Z</time><name>PT3709</name></trkpt>
<trkpt lat="53.226854" lon="-1.984968"><ele>454</ele><time>2022-11-25T14:44:49Z</time><name>PT3710</name></trkpt>
<trkpt lat="53.226854" lon="-1.985028"><ele>453</ele><time>2022-11-25T14:44:52Z</time><name>PT3711</name></trkpt>
<trkpt lat="53.226856" lon="-1.985103"><ele>452</ele><time>2022-11-25T14:44:55Z</time><name>PT3712</name></trkpt>
<trkpt lat="53.226860" lon="-1.985166"><ele>454</ele><time>2022-11-25T14:44:58Z</time><name>PT3713</name></trkpt>
<trkpt lat="53.226862" lon="-1.985223"><ele>454</ele><time>2022-11-25T14:45:01Z</time><name>PT3714</name></trkpt>
<trkpt lat="53.226863" lon="-1.985294"><ele>454</ele><time>2022-11-25T14:45:05Z</time><name>PT3715</name></trkpt>
<trkpt lat="53.226860" lon="-1.985356"><ele>454</ele><time>2022-11-25T14:45:08Z</time><name>PT3716</name></trkpt>
<trkpt lat="53.226851" lon="-1.985423"><ele>454</ele><time>2022-11-25T14:45:13Z</time><name>PT3717</name></trkpt>
<trkpt lat="53.226846" lon="-1.985473"><ele>454</ele><time>2022-11-25T14:45:16Z</time><name>PT3718</name></trkpt>
<trkpt lat="53.226838" lon="-1.985530"><ele>453</ele><time>2022-11-25T14:45:19Z</time><name>PT3719</name></trkpt>
<trkpt lat="53.226820" lon="-1.985601"><ele>453</ele><time>2022-11-25T14:45:22Z</time><name>PT3720</name></trkpt>
<trkpt lat="53.226802" lon="-1.985668"><ele>453</ele><time>2022-11-25T14:45:26Z</time><name>PT3721</name></trkpt>
<trkpt lat="53.226789" lon="-1.985723"><ele>454</ele><time>2022-11-25T14:45:29Z</time><name>PT3722</name></trkpt>
<trkpt lat="53.226766" lon="-1.985795"><ele>455</ele><time>2022-11-25T14:45:34Z</time><name>PT3723</name></trkpt>
<trkpt lat="53.226751" lon="-1.985847"><ele>455</ele><time>2022-11-25T14:45:37Z</time><name>PT3724</name></trkpt>
<trkpt lat="53.226726" lon="-1.985932"><ele>455</ele><time>2022-11-25T14:45:40Z</time><name>PT3725</name></trkpt>
<trkpt lat="53.226709" lon="-1.985983"><ele>455</ele><time>2022-11-25T14:45:43Z</time><name>PT3726</name></trkpt>
<trkpt lat="53.226700" lon="-1.986034"><ele>455</ele><time>2022-11-25T14:45:46Z</time><name>PT3727</name></trkpt>
<trkpt lat="53.226684" lon="-1.986099"><ele>455</ele><time>2022-11-25T14:45:50Z</time><name>PT3728</name></trkpt>
<trkpt lat="53.226669" lon="-1.986173"><ele>456</ele><time>2022-11-25T14:45:55Z</time><name>PT3729</name></trkpt>
<trkpt lat="53.226662" lon="-1.986223"><ele>455</ele><time>2022-11-25T14:45:58Z</time><name>PT3730</name></trkpt>
<trkpt lat="53.226658" lon="-1.986267"><ele>455</ele><time>2022-11-25T14:46:01Z</time><name>PT3731</name></trkpt>
<trkpt lat="53.226643" lon="-1.986342"><ele>456</ele><time>2022-11-25T14:46:04Z</time><name>PT3732</name></trkpt>
<trkpt lat="53.226627" lon="-1.986419"><ele>457</ele><time>2022-11-25T14:46:08Z</time><name>PT3733</name></trkpt>
<trkpt lat="53.226620" lon="-1.986498"><ele>457</ele><time>2022-11-25T14:46:13Z</time><name>PT3734</name></trkpt>
<trkpt lat="53.226615" lon="-1.986547"><ele>457</ele><time>2022-11-25T14:46:16Z</time><name>PT3735</name></trkpt>
<trkpt lat="53.226612" lon="-1.986622"><ele>457</ele><time>2022-11-25T14:46:19Z</time><name>PT3736</name></trkpt>
<trkpt lat="53.226611" lon="-1.986677"><ele>457</ele><time>2022-11-25T14:46:22Z</time><name>PT3737</name></trkpt>
<trkpt lat="53.226607" lon="-1.986757"><ele>457</ele><time>2022-11-25T14:46:26Z</time><name>PT3738</name></trkpt>
<trkpt lat="53.226601" lon="-1.986823"><ele>456</ele><time>2022-11-25T14:46:31Z</time><name>PT3739</name></trkpt>
<trkpt lat="53.226592" lon="-1.986878"><ele>457</ele><time>2022-11-25T14:46:34Z</time><name>PT3740</name></trkpt>
<trkpt lat="53.226576" lon="-1.986955"><ele>457</ele><time>2022-11-25T14:46:37Z</time><name>PT3741</name></trkpt>
<trkpt lat="53.226569" lon="-1.987018"><ele>457</ele><time>2022-11-25T14:46:40Z</time><name>PT3742</name></trkpt>
<trkpt lat="53.226563" lon="-1.987073"><ele>457</ele><time>2022-11-25T14:46:43Z</time><name>PT3743</name></trkpt>
<trkpt lat="53.226560" lon="-1.987140"><ele>456</ele><time>2022-11-25T14:46:47Z</time><name>PT3744</name></trkpt>
<trkpt lat="53.226551" lon="-1.987228"><ele>457</ele><time>2022-11-25T14:46:52Z</time><name>PT3745</name></trkpt>
<trkpt lat="53.226545" lon="-1.987299"><ele>456</ele><time>2022-11-25T14:46:55Z</time><name>PT3746</name></trkpt>
<trkpt lat="53.226533" lon="-1.987376"><ele>457</ele><time>2022-11-25T14:46:59Z</time><name>PT3747</name></trkpt>
<trkpt lat="53.226526" lon="-1.987431"><ele>456</ele><time>2022-11-25T14:47:02Z</time><name>PT3748</name></trkpt>
<trkpt lat="53.226520" lon="-1.987498"><ele>457</ele><time>2022-11-25T14:47:07Z</time><name>PT3749</name></trkpt>
<trkpt lat="53.226510" lon="-1.987584"><ele>457</ele><time>2022-11-25T14:47:10Z</time><name>PT3750</name></trkpt>
<trkpt lat="53.226501" lon="-1.987646"><ele>457</ele><time>2022-11-25T14:47:13Z</time><name>PT3751</name></trkpt>
<trkpt lat="53.226492" lon="-1.987729"><ele>458</ele><time>2022-11-25T14:47:17Z</time><name>PT3752</name></trkpt>
<trkpt lat="53.226482" lon="-1.987786"><ele>458</ele><time>2022-11-25T14:47:20Z</time><name>PT3753</name></trkpt>
<trkpt lat="53.226470" lon="-1.987868"><ele>460</ele><time>2022-11-25T14:47:25Z</time><name>PT3754</name></trkpt>
<trkpt lat="53.226463" lon="-1.987927"><ele>460</ele><time>2022-11-25T14:47:28Z</time><name>PT3755</name></trkpt>
<trkpt lat="53.226456" lon="-1.987985"><ele>459</ele><time>2022-11-25T14:47:31Z</time><name>PT3756</name></trkpt>
<trkpt lat="53.226442" lon="-1.988060"><ele>459</ele><time>2022-11-25T14:47:34Z</time><name>PT3757</name></trkpt>
<trkpt lat="53.226433" lon="-1.988134"><ele>459</ele><time>2022-11-25T14:47:38Z</time><name>PT3758</name></trkpt>
<trkpt lat="53.226425" lon="-1.988183"><ele>459</ele><time>2022-11-25T14:47:41Z</time><name>PT3759</name></trkpt>
<trkpt lat="53.226413" lon="-1.988221"><ele>459</ele><time>2022-11-25T14:47:46Z</time><name>PT3760</name></trkpt>
<trkpt lat="53.226405" lon="-1.988248"><ele>459</ele><time>2022-11-25T14:47:49Z</time><name>PT3761</name></trkpt>
<trkpt lat="53.226393" lon="-1.988260"><ele>460</ele><time>2022-11-25T14:47:52Z</time><name>PT3762</name></trkpt>
<trkpt lat="53.226392" lon="-1.988258"><ele>460</ele><time>2022-11-25T14:47:55Z</time><name>PT3763</name></trkpt>
<trkpt lat="53.226389" lon="-1.988281"><ele>460</ele><time>2022-11-25T14:47:59Z</time><name>PT3764</name></trkpt>
<trkpt lat="53.226376" lon="-1.988335"><ele>460</ele><time>2022-11-25T14:48:02Z</time><name>PT3765</name></trkpt>
<trkpt lat="53.226372" lon="-1.988404"><ele>458</ele><time>2022-11-25T14:48:07Z</time><name>PT3766</name></trkpt>
<trkpt lat="53.226358" lon="-1.988467"><ele>458</ele><time>2022-11-25T14:48:10Z</time><name>PT3767</name></trkpt>
<trkpt lat="53.226348" lon="-1.988532"><ele>458</ele><time>2022-11-25T14:48:14Z</time><name>PT3768</name></trkpt>
<trkpt lat="53.226328" lon="-1.988601"><ele>458</ele><time>2022-11-25T14:48:19Z</time><name>PT3769</name></trkpt>
<trkpt lat="53.226320" lon="-1.988650"><ele>457</ele><time>2022-11-25T14:48:22Z</time><name>PT3770</name></trkpt>
<trkpt lat="53.226306" lon="-1.988717"><ele>457</ele><time>2022-11-25T14:48:25Z</time><name>PT3771</name></trkpt>
<trkpt lat="53.226283" lon="-1.988781"><ele>457</ele><time>2022-11-25T14:48:29Z</time><name>PT3772</name></trkpt>
<trkpt lat="53.226268" lon="-1.988826"><ele>458</ele><time>2022-11-25T14:48:32Z</time><name>PT3773</name></trkpt>
<trkpt lat="53.226257" lon="-1.988881"><ele>459</ele><time>2022-11-25T14:48:37Z</time><name>PT3774</name></trkpt>
<trkpt lat="53.226251" lon="-1.988929"><ele>459</ele><time>2022-11-25T14:48:40Z</time><name>PT3775</name></trkpt>
<trkpt lat="53.226227" lon="-1.988990"><ele>459</ele><time>2022-11-25T14:48:43Z</time><name>PT3776</name></trkpt>
<trkpt lat="53.226208" lon="-1.989030"><ele>459</ele><time>2022-11-25T14:48:46Z</time><name>PT3777</name></trkpt>
<trkpt lat="53.226183" lon="-1.989086"><ele>458</ele><time>2022-11-25T14:48:50Z</time><name>PT3778</name></trkpt>
<trkpt lat="53.226161" lon="-1.989125"><ele>458</ele><time>2022-11-25T14:48:53Z</time><name>PT3779</name></trkpt>
<trkpt lat="53.226135" lon="-1.989178"><ele>457</ele><time>2022-11-25T14:48:58Z</time><name>PT3780</name></trkpt>
<trkpt lat="53.226101" lon="-1.989235"><ele>458</ele><time>2022-11-25T14:49:01Z</time><name>PT3781</name></trkpt>
<trkpt lat="53.226068" lon="-1.989290"><ele>458</ele><time>2022-11-25T14:49:05Z</time><name>PT3782</name></trkpt>
<trkpt lat="53.226042" lon="-1.989339"><ele>458</ele><time>2022-11-25T14:49:10Z</time><name>PT3783</name></trkpt>
<trkpt lat="53.226010" lon="-1.989398"><ele>457</ele><time>2022-11-25T14:49:13Z</time><name>PT3784</name></trkpt>
<trkpt lat="53.225975" lon="-1.989462"><ele>457</ele><time>2022-11-25T14:49:17Z</time><name>PT3785</name></trkpt>
<trkpt lat="53.225954" lon="-1.989503"><ele>457</ele><time>2022-11-25T14:49:20Z</time><name>PT3786</name></trkpt>
<trkpt lat="53.225919" lon="-1.989564"><ele>457</ele><time>2022-11-25T14:49:25Z</time><name>PT3787</name></trkpt>
<trkpt lat="53.225891" lon="-1.989621"><ele>455</ele><time>2022-11-25T14:49:28Z</time><name>PT3788</name></trkpt>
<trkpt lat="53.225862" lon="-1.989674"><ele>455</ele><time>2022-11-25T14:49:32Z</time><name>PT3789</name></trkpt>
<trkpt lat="53.225838" lon="-1.989710"><ele>455</ele><time>2022-11-25T14:49:35Z</time><name>PT3790</name></trkpt>
<trkpt lat="53.225800" lon="-1.989764"><ele>455</ele><time>2022-11-25T14:49:40Z</time><name>PT3791</name></trkpt>
<trkpt lat="53.225772" lon="-1.989800"><ele>454</ele><time>2022-11-25T14:49:43Z</time><name>PT3792</name></trkpt>
<trkpt lat="53.225746" lon="-1.989840"><ele>454</ele><time>2022-11-25T14:49:46Z</time><name>PT3793</name></trkpt>
<trkpt lat="53.225720" lon="-1.989872"><ele>454</ele><time>2022-11-25T14:49:49Z</time><name>PT3794</name></trkpt>
<trkpt lat="53.225695" lon="-1.989914"><ele>454</ele><time>2022-11-25T14:49:52Z</time><name>PT3795</name></trkpt>
<trkpt lat="53.225663" lon="-1.989961"><ele>455</ele><time>2022-11-25T14:49:56Z</time><name>PT3796</name></trkpt>
<trkpt lat="53.225647" lon="-1.989988"><ele>455</ele><time>2022-11-25T14:49:59Z</time><name>PT3797</name></trkpt>
<trkpt lat="53.225619" lon="-1.990033"><ele>454</ele><time>2022-11-25T14:50:04Z</time><name>PT3798</name></trkpt>
<trkpt lat="53.225606" lon="-1.990055"><ele>454</ele><time>2022-11-25T14:50:07Z</time><name>PT3799</name></trkpt>
<trkpt lat="53.225605" lon="-1.990057"><ele>453</ele><time>2022-11-25T14:50:10Z</time><name>PT3800</name></trkpt>
<trkpt lat="53.225593" lon="-1.990049"><ele>453</ele><time>2022-11-25T14:50:46Z</time><name>PT3801</name></trkpt>
<trkpt lat="53.225590" lon="-1.990046"><ele>453</ele><time>2022-11-25T14:50:49Z</time><name>PT3802</name></trkpt>
<trkpt lat="53.225587" lon="-1.990042"><ele>453</ele><time>2022-11-25T14:50:53Z</time><name>PT3803</name></trkpt>
<trkpt lat="53.225579" lon="-1.990042"><ele>454</ele><time>2022-11-25T14:51:01Z</time><name>PT3804</name></trkpt>
<trkpt lat="53.225576" lon="-1.990040"><ele>454</ele><time>2022-11-25T14:51:04Z</time><name>PT3805</name></trkpt>
<trkpt lat="53.225577" lon="-1.990027"><ele>456</ele><time>2022-11-25T14:51:49Z</time><name>PT3806</name></trkpt>
<trkpt lat="53.225573" lon="-1.990022"><ele>456</ele><time>2022-11-25T14:51:53Z</time><name>PT3807</name></trkpt>
<trkpt lat="53.225573" lon="-1.990016"><ele>456</ele><time>2022-11-25T14:52:07Z</time><name>PT3808</name></trkpt></trkseg></trk></gpx>